# Wetter Temperatur Luftdruck Luftfeuchtigkeit Sichtweite Windgeschwindigkeit Windrichtung Zeit
1 Rain 23 1010 86 0 1.27 201 02:56 05.04.2020
2 Rain 22 1010 87 0 0.79 187 01:52 05.04.2020
3 Rain 22 1010 87 0 0.79 187 01:52 05.04.2020
4 Rain 22 1010 87 0 0.79 187 01:33 05.04.2020
5 Rain 22 1010 87 0 0.79 187 00:52 05.04.2020
6 Rain 22 1010 87 0 0.79 187 00:22 05.04.2020
7 Rain 23 1010 85 0 0.62 201 23:58 04.04.2020
8 Rain 23 1010 85 0 0.62 201 23:58 04.04.2020
9 Rain 23 1010 85 0 0.62 201 23:38 04.04.2020
10 Rain 23 1010 85 0 0.62 201 23:20 04.04.2020
11 Rain 23 1010 85 0 0.62 201 22:56 04.04.2020
12 Rain 23 1010 85 0 0.62 201 22:38 04.04.2020
13 Rain 23 1010 85 0 0.62 201 22:19 04.04.2020
14 Rain 23 1010 85 0 0.62 201 21:55 04.04.2020
15 Rain 23 1010 85 0 0.62 201 21:37 04.04.2020
16 Clouds 27 1008 65 0 0.47 222 21:18 04.04.2020
17 Clouds 28 1007 61 0 0.79 208 20:43 04.04.2020
18 Clouds 27 1007 65 0 0.37 208 20:23 04.04.2020
19 Clouds 27 1007 65 0 0.37 208 19:59 04.04.2020
20 Clouds 28 1007 61 0 0.79 208 19:39 04.04.2020
21 Clouds 27 1007 65 0 0.37 208 19:20 04.04.2020
22 Clouds 27 1007 65 0 0.37 208 18:59 04.04.2020
23 Clouds 27 1007 65 0 0.37 208 18:39 04.04.2020
24 Clouds 32 1005 52 0 0.75 195 18:19 04.04.2020
25 Clouds 32 1005 52 0 0.75 195 17:58 04.04.2020
26 Clouds 32 1005 52 0 0.75 195 17:38 04.04.2020
27 Clouds 33 1005 48 0 0.93 193 17:19 04.04.2020
28 Clouds 32 1005 52 0 0.75 195 16:42 04.04.2020
29 Clouds 32 1005 52 0 0.75 195 16:24 04.04.2020
30 Clouds 32 1005 52 0 0.75 195 15:58 04.04.2020
31 Clouds 32 1005 52 0 0.75 195 15:38 04.04.2020
32 Clouds 35 1007 38 0 1.98 187 15:19 04.04.2020
33 Clouds 35 1007 38 0 1.98 187 15:19 04.04.2020
34 Clouds 35 1007 38 0 1.98 187 14:46 04.04.2020
35 Clouds 35 1007 38 0 1.93 189 14:25 04.04.2020
36 Clouds 35 1007 38 0 1.98 187 14:00 04.04.2020
37 Clouds 35 1007 38 0 1.98 187 13:41 04.04.2020
38 Clouds 35 1007 38 0 1.98 187 13:41 04.04.2020
39 Clouds 35 1007 38 0 1.98 187 13:20 04.04.2020
40 Clouds 35 1007 38 0 1.98 187 12:58 04.04.2020
41 Clouds 35 1007 38 0 1.98 187 12:39 04.04.2020
42 Clouds 31 1011 49 0 2.17 202 12:20 04.04.2020
43 Clouds 31 1011 49 0 2.17 202 11:41 04.04.2020
44 Clouds 31 1011 49 0 2.17 202 11:23 04.04.2020
45 Clouds 31 1011 49 0 2.17 202 10:58 04.04.2020
46 Clouds 31 1011 49 0 2.17 202 10:40 04.04.2020
47 Clouds 31 1011 49 0 2.17 202 10:22 04.04.2020
48 Clouds 31 1011 49 0 2.17 202 09:55 04.04.2020
49 Clouds 31 1011 49 0 2.17 202 09:37 04.04.2020
50 Clouds 23 1012 84 0 1.19 240 09:19 04.04.2020
51 Clouds 23 1012 84 0 1.19 240 08:42 04.04.2020
52 Clouds 23 1012 84 0 1.19 240 08:23 04.04.2020
53 Clouds 23 1012 84 0 1.19 240 07:55 04.04.2020
54 Clouds 23 1012 84 0 1.19 240 07:37 04.04.2020
55 Clouds 23 1012 84 0 1.19 240 07:19 04.04.2020
56 Clouds 23 1012 84 0 1.19 240 06:29 04.04.2020
57 Rain 21 1010 86 0 1.85 237 05:52 04.04.2020
58 Rain 21 1010 86 0 1.85 237 05:32 04.04.2020
59 Rain 21 1010 86 0 1.85 237 04:34 04.04.2020
60 Rain 21 1010 86 0 1.85 237 03:56 04.04.2020
61 Rain 21 1010 86 0 1.85 237 03:29 04.04.2020
62 Rain 22 1010 87 0 1.14 328 02:45 04.04.2020
63 Rain 21 1010 87 0 0.36 52 02:25 04.04.2020
64 Rain 21 1010 87 0 0.36 52 01:31 04.04.2020
65 Rain 21 1010 87 0 0.36 52 00:58 04.04.2020
66 Rain 21 1010 87 0 0.36 52 00:35 04.04.2020
67 Rain 22 1011 86 0 1.95 25 23:59 03.04.2020
68 Rain 22 1011 86 0 1.95 25 23:38 03.04.2020
69 Rain 22 1011 86 0 1.95 25 23:19 03.04.2020
70 Rain 22 1011 86 0 1.95 25 22:41 03.04.2020
71 Rain 22 1011 86 0 1.95 25 22:19 03.04.2020
72 Rain 22 1011 86 0 1.95 25 21:57 03.04.2020
73 Rain 22 1011 86 0 1.95 25 21:38 03.04.2020
74 Rain 25 1007 77 0 1.17 217 21:20 03.04.2020
75 Rain 24 1007 80 0 0.99 217 20:55 03.04.2020
76 Rain 24 1007 80 0 0.99 217 20:36 03.04.2020
77 Rain 24 1007 80 0 0.99 217 20:18 03.04.2020
78 Rain 24 1007 80 0 0.99 217 19:55 03.04.2020
79 Rain 24 1007 80 0 0.99 217 19:36 03.04.2020
80 Rain 24 1007 80 0 0.99 217 19:18 03.04.2020
81 Rain 24 1007 80 0 0.99 217 18:57 03.04.2020
82 Rain 24 1007 80 0 0.99 217 18:39 03.04.2020
83 Rain 24 1007 80 0 0.99 217 18:39 03.04.2020
84 Rain 24 1007 80 0 0.99 217 18:21 03.04.2020
85 Rain 29 1004 67 0 1.71 189 17:41 03.04.2020
86 Rain 29 1004 67 0 1.71 189 17:20 03.04.2020
87 Rain 29 1004 67 0 1.71 189 16:56 03.04.2020
88 Rain 29 1004 67 0 1.71 189 16:37 03.04.2020
89 Clouds 27 1010 74 10000 4.1 150 16:19 03.04.2020
90 Clouds 27 1010 74 10000 4.1 150 15:56 03.04.2020
91 Rain 29 1004 67 0 1.71 189 15:37 03.04.2020
92 Clouds 27 1011 74 10000 5.1 180 15:19 03.04.2020
93 Rain 30 1006 61 0 2 206 14:40 03.04.2020
94 Rain 30 1006 61 0 2 206 14:22 03.04.2020
95 Rain 32 1006 52 0 2.39 194 13:54 03.04.2020
96 Rain 32 1006 52 0 2.39 194 13:36 03.04.2020
97 Clouds 27 1013 74 10000 4.1 150 13:18 03.04.2020
98 Clouds 27 1013 74 10000 4.1 150 12:42 03.04.2020
99 Clouds 27 1013 74 10000 4.1 150 12:20 03.04.2020
100 Clouds 30 1010 58 0 2.69 189 11:56 03.04.2020
101 Clouds 30 1010 58 0 2.69 189 11:37 03.04.2020
102 Clouds 23 1013 94 10000 3.1 180 11:18 03.04.2020
103 Clouds 23 1013 94 10000 3.1 180 10:57 03.04.2020
104 Clouds 23 1013 94 10000 3.1 180 10:38 03.04.2020
105 Clouds 23 1013 94 10000 3.1 180 10:20 03.04.2020
106 Clouds 23 1013 94 10000 3.1 180 10:20 03.04.2020
107 Clouds 21 1012 100 8000 3.1 180 09:57 03.04.2020
108 Clouds 21 1012 100 8000 3.1 180 09:39 03.04.2020
109 Clouds 21 1012 100 8000 3.1 180 09:21 03.04.2020
110 Rain 24 1010 85 0 1.32 183 08:55 03.04.2020
111 Rain 24 1010 85 0 1.32 183 08:36 03.04.2020
112 Rain 24 1010 85 0 1.32 183 08:18 03.04.2020
113 Rain 24 1010 85 0 1.32 183 07:41 03.04.2020
114 Thunderstorm 21 1010 94 3000 5.1 250 07:23 03.04.2020
115 Thunderstorm 21 1010 94 3000 5.1 250 06:33 03.04.2020
116 Rain 22 1008 87 0 1.16 136 05:43 03.04.2020
117 Rain 22 1008 87 0 1.16 136 05:21 03.04.2020
118 Rain 22 1008 87 0 1.16 136 03:37 03.04.2020
119 Rain 23 1007 84 0 1.21 30 02:47 03.04.2020
120 Rain 22 1007 86 0 1.17 34 01:30 03.04.2020
121 Rain 22 1007 86 0 1.17 34 00:56 03.04.2020
122 Rain 22 1007 86 0 1.17 34 00:33 03.04.2020
123 Rain 24 1008 79 0 0.67 44 23:57 02.04.2020
124 Rain 24 1008 79 0 0.67 44 23:39 02.04.2020
125 Rain 24 1008 79 0 0.67 44 23:19 02.04.2020
126 Rain 24 1008 79 0 0.67 44 22:43 02.04.2020
127 Rain 24 1008 79 0 0.67 44 22:25 02.04.2020
128 Rain 24 1008 79 0 0.67 44 21:59 02.04.2020
129 Rain 24 1008 79 0 0.67 44 21:37 02.04.2020
130 Rain 25 1005 77 0 1.72 320 21:19 02.04.2020
131 Clouds 29 1005 56 0 0.57 180 20:55 02.04.2020
132 Clouds 29 1005 56 0 0.57 180 20:37 02.04.2020
133 Clouds 29 1005 56 0 0.57 180 20:18 02.04.2020
134 Clouds 29 1005 56 0 0.57 180 19:42 02.04.2020
135 Clouds 29 1005 56 0 0.57 180 19:20 02.04.2020
136 Clouds 29 1005 56 0 0.57 180 18:56 02.04.2020
137 Clouds 29 1005 56 0 0.57 180 18:38 02.04.2020
138 Clouds 34 1002 44 0 0.46 197 18:19 02.04.2020
139 Clouds 34 1002 44 0 0.46 197 17:44 02.04.2020
140 Clouds 34 1002 44 0 0.46 197 17:26 02.04.2020
141 Clouds 34 1002 44 0 0.46 197 16:59 02.04.2020
142 Clouds 34 1002 44 0 0.46 197 16:41 02.04.2020
143 Clouds 34 1002 44 0 0.46 197 16:22 02.04.2020
144 Clouds 34 1002 44 0 0.46 197 15:59 02.04.2020
145 Clouds 34 1002 44 0 0.46 197 15:40 02.04.2020
146 Clouds 38 1004 30 0 1.45 62 15:20 02.04.2020
147 Clouds 38 1004 30 0 1.45 62 14:58 02.04.2020
148 Clouds 38 1004 30 0 1.45 62 14:38 02.04.2020
149 Clouds 38 1004 30 0 1.45 62 14:19 02.04.2020
150 Clouds 38 1004 30 0 1.45 62 14:19 02.04.2020
151 Clouds 38 1004 30 0 1.4 63 13:55 02.04.2020
152 Clouds 38 1004 30 0 1.4 63 13:37 02.04.2020
153 Clouds 38 1004 30 0 1.4 63 13:18 02.04.2020
154 Clouds 38 1004 30 0 1.4 63 12:46 02.04.2020
155 Clouds 35 1008 41 0 0.86 207 12:20 02.04.2020
156 Clouds 35 1008 41 0 0.86 207 11:58 02.04.2020
157 Clouds 35 1008 41 0 0.86 207 11:39 02.04.2020
158 Clouds 35 1008 41 0 0.86 207 11:20 02.04.2020
159 Clouds 35 1008 41 0 0.86 207 10:57 02.04.2020
160 Clouds 35 1008 41 0 0.86 207 10:39 02.04.2020
161 Clouds 35 1008 41 0 0.86 207 10:21 02.04.2020
162 Clouds 35 1008 41 0 0.86 207 09:59 02.04.2020
163 Clouds 35 1008 41 0 0.86 207 09:41 02.04.2020
164 Clouds 35 1008 41 0 0.86 207 09:22 02.04.2020
165 Clouds 25 1010 79 0 0.67 162 08:48 02.04.2020
166 Clouds 25 1010 79 0 0.67 162 08:29 02.04.2020
167 Clouds 25 1010 79 0 0.67 162 07:59 02.04.2020
168 Clouds 25 1010 79 0 0.67 162 07:40 02.04.2020
169 Clouds 25 1010 79 0 0.67 162 07:19 02.04.2020
170 Clouds 25 1010 79 0 0.67 162 06:25 02.04.2020
171 Rain 22 1008 85 0 0.64 96 05:46 02.04.2020
172 Rain 22 1008 85 0 0.64 96 05:18 02.04.2020
173 Rain 22 1007 82 0 0.54 223 02:26 02.04.2020
174 Clouds 22 1008 83 0 0.21 121 01:27 02.04.2020
175 Clouds 22 1008 83 0 0.21 121 00:42 02.04.2020
176 Clouds 22 1008 83 0 0.21 121 00:22 02.04.2020
177 Rain 23 1008 83 0 0.2 273 23:40 01.04.2020
178 Rain 23 1008 83 0 0.2 273 23:19 01.04.2020
179 Rain 23 1008 83 0 0.2 273 22:57 01.04.2020
180 Rain 23 1008 83 0 0.2 273 22:57 01.04.2020
181 Rain 23 1008 83 0 0.2 273 22:57 01.04.2020
182 Rain 23 1008 83 0 0.2 273 22:38 01.04.2020
183 Rain 23 1008 83 0 0.2 273 22:19 01.04.2020
184 Rain 23 1008 83 0 0.2 273 21:41 01.04.2020
185 Clouds 27 1007 57 0 0.87 203 21:19 01.04.2020
186 Clouds 27 1007 57 0 0.87 203 20:57 01.04.2020
187 Clouds 27 1007 57 0 0.87 203 20:38 01.04.2020
188 Clouds 27 1007 57 0 0.87 203 20:20 01.04.2020
189 Clouds 27 1007 57 0 0.87 203 19:58 01.04.2020
190 Clouds 27 1007 57 0 0.87 203 19:39 01.04.2020
191 Clouds 27 1007 57 0 0.87 203 19:19 01.04.2020
192 Clouds 27 1007 57 0 0.87 203 19:19 01.04.2020
193 Clouds 27 1007 57 0 0.87 203 18:42 01.04.2020
194 Clouds 27 1007 57 0 0.87 203 18:24 01.04.2020
195 Clouds 34 1005 42 0 1.05 124 17:57 01.04.2020
196 Clouds 34 1005 42 0 1.05 124 17:38 01.04.2020
197 Clouds 34 1005 42 0 1.05 124 17:19 01.04.2020
198 Clouds 34 1005 42 0 1.05 124 16:58 01.04.2020
199 Clouds 34 1005 42 0 1.05 124 16:39 01.04.2020
200 Clouds 34 1005 42 0 1.05 124 16:21 01.04.2020
201 Clouds 34 1005 42 0 1.05 124 15:57 01.04.2020
202 Clouds 34 1005 42 0 1.05 124 15:37 01.04.2020
203 Clouds 36 1007 35 0 1.56 140 15:18 01.04.2020
204 Clouds 36 1007 35 0 1.56 140 14:55 01.04.2020
205 Clouds 36 1007 35 0 1.56 140 14:55 01.04.2020
206 Clouds 36 1007 35 0 1.56 140 14:36 01.04.2020
207 Clouds 36 1007 34 0 1.45 143 14:18 01.04.2020
208 Clouds 36 1007 34 0 1.45 143 13:55 01.04.2020
209 Clouds 36 1007 34 0 1.45 143 13:36 01.04.2020
210 Clouds 36 1007 34 0 1.45 143 13:18 01.04.2020
211 Clouds 36 1007 34 0 1.45 143 12:42 01.04.2020
212 Clouds 36 1007 34 0 1.45 143 12:23 01.04.2020
213 Clouds 32 1011 46 0 1.66 176 11:59 01.04.2020
214 Clouds 32 1011 46 0 1.66 176 11:39 01.04.2020
215 Clouds 32 1011 46 0 1.66 176 11:20 01.04.2020
216 Clouds 32 1011 46 0 1.66 176 10:56 01.04.2020
217 Clouds 32 1011 46 0 1.66 176 10:37 01.04.2020
218 Clouds 32 1011 46 0 1.66 176 10:18 01.04.2020
219 Clouds 32 1011 46 0 1.66 176 09:40 01.04.2020
220 Clouds 32 1011 46 0 1.66 176 09:40 01.04.2020
221 Clouds 32 1011 46 0 1.83 172 09:21 01.04.2020
222 Clouds 24 1012 84 0 1.07 190 08:59 01.04.2020
223 Clouds 24 1012 84 0 1.07 190 08:40 01.04.2020
224 Clouds 24 1012 84 0 1.07 190 08:18 01.04.2020
225 Clouds 24 1012 84 0 1.07 190 07:42 01.04.2020
226 Clouds 24 1012 84 0 1.07 190 07:19 01.04.2020
227 Clouds 24 1012 84 0 1.07 190 06:47 01.04.2020
228 Rain 22 1010 87 0 0.96 171 06:22 01.04.2020
229 Rain 22 1010 87 0 0.96 171 05:53 01.04.2020
230 Rain 22 1010 87 0 0.96 171 04:30 01.04.2020
231 Rain 22 1010 87 0 0.96 171 03:27 01.04.2020
232 Rain 23 1010 87 0 1.1 251 02:49 01.04.2020
233 Rain 22 1010 86 0 0.37 203 01:54 01.04.2020
234 Rain 22 1010 86 0 0.37 203 01:29 01.04.2020
235 Rain 22 1010 86 0 0.37 203 00:58 01.04.2020
236 Rain 22 1010 86 0 0.37 203 00:40 01.04.2020
237 Rain 22 1011 87 0 1.49 42 00:18 01.04.2020
238 Rain 22 1011 87 0 1.49 42 23:41 31.03.2020
239 Rain 22 1011 87 0 1.49 42 23:22 31.03.2020
240 Rain 22 1011 87 0 1.49 42 22:43 31.03.2020
241 Rain 22 1011 87 0 1.49 42 22:23 31.03.2020
242 Rain 22 1011 87 0 1.49 42 22:23 31.03.2020
243 Rain 22 1011 87 0 1.49 42 21:59 31.03.2020
244 Rain 22 1011 87 0 1.49 42 21:59 31.03.2020
245 Rain 22 1011 87 0 1.49 42 21:41 31.03.2020
246 Rain 22 1011 86 0 0.89 78 21:22 31.03.2020
247 Rain 24 1008 82 0 0.96 261 20:58 31.03.2020
248 Rain 24 1008 82 0 0.96 261 20:38 31.03.2020
249 Rain 24 1008 82 0 0.96 261 20:20 31.03.2020
250 Rain 24 1008 82 0 0.96 261 19:59 31.03.2020
251 Rain 24 1008 82 0 0.96 261 19:40 31.03.2020
252 Rain 24 1008 82 0 0.96 261 19:21 31.03.2020
253 Rain 24 1008 82 0 0.96 261 18:54 31.03.2020
254 Rain 24 1008 82 0 0.96 261 18:36 31.03.2020
255 Clouds 31 1005 52 0 1.7 228 18:18 31.03.2020
256 Clouds 31 1005 52 0 1.7 228 17:54 31.03.2020
257 Clouds 31 1005 52 0 1.7 228 17:36 31.03.2020
258 Clouds 31 1005 52 0 1.7 228 17:36 31.03.2020
259 Clouds 31 1005 52 0 1.7 228 17:18 31.03.2020
260 Clouds 31 1005 52 0 1.7 228 16:37 31.03.2020
261 Clouds 31 1005 52 0 1.7 228 16:18 31.03.2020
262 Clouds 31 1005 52 0 1.7 228 15:56 31.03.2020
263 Clouds 31 1005 52 0 1.7 228 15:37 31.03.2020
264 Rain 33 1006 48 0 1.47 199 15:19 31.03.2020
265 Rain 33 1006 48 0 1.47 199 14:56 31.03.2020
266 Rain 33 1006 48 0 1.47 199 14:38 31.03.2020
267 Clouds 34 1006 40 0 2.2 198 14:18 31.03.2020
268 Clouds 34 1006 40 0 2.2 198 13:42 31.03.2020
269 Clouds 34 1006 40 0 2.2 198 13:19 31.03.2020
270 Clouds 34 1006 40 0 2.2 198 12:55 31.03.2020
271 Clouds 34 1006 40 0 2.2 198 12:37 31.03.2020
272 Clouds 31 1011 50 0 1.82 187 12:18 31.03.2020
273 Clouds 31 1011 50 0 1.82 187 11:38 31.03.2020
274 Clouds 31 1011 50 0 1.82 187 11:19 31.03.2020
275 Clouds 31 1011 50 0 1.82 187 10:57 31.03.2020
276 Clouds 31 1011 50 0 1.82 187 10:39 31.03.2020
277 Clouds 31 1011 50 0 1.82 187 10:21 31.03.2020
278 Clouds 31 1011 50 0 1.82 187 10:21 31.03.2020
279 Clouds 31 1011 50 0 1.82 187 09:56 31.03.2020
280 Clouds 31 1011 50 0 1.82 187 09:37 31.03.2020
281 Clouds 31 1011 50 0 1.82 187 09:37 31.03.2020
282 Clouds 24 1012 84 0 1.01 189 09:19 31.03.2020
283 Clouds 24 1012 84 0 1.01 189 08:55 31.03.2020
284 Clouds 24 1012 84 0 1.01 189 08:37 31.03.2020
285 Clouds 24 1012 84 0 1.01 189 08:18 31.03.2020
286 Clouds 24 1012 84 0 1.01 189 07:44 31.03.2020
287 Clouds 24 1012 84 0 1.01 189 07:25 31.03.2020
288 Clouds 24 1012 84 0 1.01 189 06:58 31.03.2020
289 Clouds 24 1012 84 0 1.01 189 06:39 31.03.2020
290 Rain 22 1009 87 0 1.13 190 05:42 31.03.2020
291 Rain 22 1009 87 0 1.13 190 05:23 31.03.2020
292 Rain 22 1009 87 0 1.09 184 02:53 31.03.2020
293 Rain 21 1010 86 0 1.14 152 01:47 31.03.2020
294 Rain 21 1010 86 0 1.14 152 01:19 31.03.2020
295 Rain 21 1010 86 0 1.14 152 00:43 31.03.2020
296 Rain 21 1010 86 0 1.14 152 00:20 31.03.2020
297 Rain 22 1011 86 0 2.62 65 23:40 30.03.2020
298 Rain 22 1011 86 0 2.62 65 23:20 30.03.2020
299 Rain 22 1011 86 0 2.62 65 22:57 30.03.2020
300 -273 0 0 0 0 0 22:38 30.03.2020
301 Rain 22 1011 86 0 2.62 65 22:19 30.03.2020
302 Rain 22 1011 86 0 2.62 65 21:57 30.03.2020
303 Rain 22 1011 86 0 2.62 65 21:38 30.03.2020
304 Rain 25 1007 71 0 0.99 241 21:20 30.03.2020
305 Rain 25 1007 71 0 0.99 241 20:57 30.03.2020
306 Rain 25 1007 71 0 0.99 241 20:38 30.03.2020
307 Rain 25 1007 71 0 0.99 241 20:19 30.03.2020
308 Rain 25 1007 71 0 0.99 241 20:19 30.03.2020
309 Rain 25 1007 71 0 0.99 241 19:41 30.03.2020
310 Rain 25 1007 71 0 0.99 241 19:22 30.03.2020
311 Rain 25 1007 71 0 0.99 241 18:59 30.03.2020
312 Rain 25 1007 71 0 0.99 241 18:41 30.03.2020
313 Rain 25 1007 71 0 0.99 241 18:22 30.03.2020
314 Clouds 31 1004 53 0 1.1 245 17:57 30.03.2020
315 Clouds 31 1004 53 0 1.1 245 17:39 30.03.2020
316 Clouds 31 1004 53 0 1.1 245 17:39 30.03.2020
317 Clouds 31 1004 53 0 1.1 245 17:19 30.03.2020
318 Clouds 31 1004 53 0 1.1 245 16:57 30.03.2020
319 Clouds 31 1004 53 0 1.1 245 16:38 30.03.2020
320 Clouds 31 1004 53 0 1.1 245 16:20 30.03.2020
321 Clouds 31 1004 53 0 1.1 245 15:55 30.03.2020
322 Clouds 31 1004 53 0 1.1 245 15:36 30.03.2020
323 Clouds 33 1007 41 0 1.95 240 15:18 30.03.2020
324 Clouds 33 1007 41 0 1.95 240 14:55 30.03.2020
325 Clouds 33 1007 41 0 1.95 240 14:36 30.03.2020
326 Clouds 33 1007 41 0 1.92 232 14:18 30.03.2020
327 Clouds 33 1007 41 0 1.92 232 13:43 30.03.2020
328 Clouds 33 1007 41 0 1.92 232 13:21 30.03.2020
329 Clouds 33 1007 41 0 1.92 232 12:58 30.03.2020
330 Clouds 33 1007 41 0 1.92 232 12:40 30.03.2020
331 Clouds 27 1012 62 0 1.72 265 12:19 30.03.2020
332 Clouds 27 1012 62 0 1.72 265 11:56 30.03.2020
333 Clouds 27 1012 62 0 1.72 265 11:38 30.03.2020
334 Clouds 27 1012 62 0 1.72 265 11:20 30.03.2020
335 Clouds 27 1012 62 0 1.72 265 10:40 30.03.2020
336 Clouds 27 1012 62 0 1.72 265 10:22 30.03.2020
337 Clouds 27 1012 62 0 1.72 265 09:56 30.03.2020
338 Clouds 27 1012 62 0 1.72 265 09:38 30.03.2020
339 Clouds 23 1013 85 0 1.37 291 09:19 30.03.2020
340 Clouds 22 1013 84 0 0.82 311 08:42 30.03.2020
341 Clouds 22 1013 84 0 0.82 311 08:22 30.03.2020
342 Clouds 22 1013 84 0 0.82 311 07:49 30.03.2020
343 Clouds 22 1013 84 0 0.82 311 07:31 30.03.2020
344 Clouds 22 1013 84 0 0.82 311 06:56 30.03.2020
345 Clouds 22 1013 84 0 0.82 311 06:32 30.03.2020
346 Clouds 21 1010 87 0 0.54 355 05:54 30.03.2020
347 Clouds 21 1010 87 0 0.54 355 05:22 30.03.2020
348 Clouds 21 1010 87 0 0.54 355 04:23 30.03.2020
349 Clouds 21 1010 87 0 0.54 355 03:44 30.03.2020
350 Rain 21 1011 86 0 0.94 11 02:39 30.03.2020
351 Rain 21 1010 86 0 0.96 327 01:44 30.03.2020
352 Rain 21 1010 86 0 0.96 327 00:50 30.03.2020
353 Rain 21 1010 86 0 0.96 327 00:23 30.03.2020
354 Rain 22 1009 84 0 1.47 81 23:42 29.03.2020
355 Rain 22 1009 84 0 1.47 81 23:24 29.03.2020
356 Rain 22 1009 84 0 1.47 81 22:58 29.03.2020
357 Rain 22 1009 84 0 1.47 81 22:38 29.03.2020
358 Rain 22 1009 84 0 1.47 81 22:19 29.03.2020
359 Rain 22 1009 84 0 1.47 81 21:57 29.03.2020
360 Rain 22 1009 84 0 1.47 81 21:36 29.03.2020
361 Rain 22 1009 84 0 1.47 81 21:36 29.03.2020
362 Rain 25 1007 68 0 1.25 126 21:18 29.03.2020
363 Clouds 26 1007 58 0 0.99 110 20:55 29.03.2020
364 Clouds 26 1007 58 0 0.99 110 20:36 29.03.2020
365 Clouds 26 1007 58 0 0.99 110 20:18 29.03.2020
366 Clouds 26 1007 58 0 0.99 110 19:42 29.03.2020
367 Clouds 26 1007 58 0 0.99 110 19:24 29.03.2020
368 Clouds 26 1007 58 0 0.99 110 18:58 29.03.2020
369 Clouds 26 1007 58 0 0.99 110 18:40 29.03.2020
370 Clouds 26 1007 58 0 0.99 110 18:21 29.03.2020
371 Clouds 33 1002 41 0 0.99 140 17:59 29.03.2020
372 Clouds 33 1002 41 0 0.99 140 17:41 29.03.2020
373 Clouds 33 1002 41 0 0.99 140 17:22 29.03.2020
374 Clouds 33 1002 41 0 0.99 140 16:58 29.03.2020
375 Clouds 33 1002 41 0 0.99 140 16:39 29.03.2020
376 Clouds 33 1002 41 0 0.99 140 16:21 29.03.2020
377 Clouds 33 1002 41 0 0.99 140 15:58 29.03.2020
378 Clouds 33 1002 41 0 0.99 140 15:39 29.03.2020
379 Clouds 36 1007 31 0 1.2 115 15:19 29.03.2020
380 Clouds 36 1007 31 0 1.2 115 14:55 29.03.2020
381 Clouds 36 1007 31 0 1.2 115 14:36 29.03.2020
382 Clouds 36 1007 31 0 1.2 115 14:36 29.03.2020
383 Clouds 37 1007 28 0 1.43 109 14:18 29.03.2020
384 Clouds 37 1007 28 0 1.43 109 13:42 29.03.2020
385 Clouds 37 1007 28 0 1.43 109 13:22 29.03.2020
386 Clouds 37 1007 28 0 1.43 109 12:58 29.03.2020
387 Clouds 37 1007 28 0 1.43 109 12:39 29.03.2020
388 Clouds 33 1011 39 0 1.53 121 12:19 29.03.2020
389 Clouds 33 1011 39 0 1.53 121 11:59 29.03.2020
390 Clouds 33 1011 39 0 1.53 121 11:38 29.03.2020
391 Clouds 33 1011 39 0 1.53 121 11:19 29.03.2020
392 Clouds 33 1011 39 0 1.53 121 10:39 29.03.2020
393 Clouds 33 1011 39 0 1.53 121 10:39 29.03.2020
394 Clouds 33 1011 39 0 1.53 121 10:20 29.03.2020
395 Clouds 33 1011 39 0 1.53 121 09:56 29.03.2020
396 Clouds 33 1011 39 0 1.53 121 09:38 29.03.2020
397 Clouds 25 1013 67 0 1.22 108 09:18 29.03.2020
398 Clouds 24 1013 69 0 1.31 116 08:43 29.03.2020
399 Clouds 24 1013 69 0 1.31 116 08:25 29.03.2020
400 Clouds 24 1013 69 0 1.31 116 07:47 29.03.2020
401 Clouds 24 1013 69 0 1.31 116 07:47 29.03.2020
402 Clouds 24 1013 69 0 1.31 116 07:23 29.03.2020
403 Clouds 24 1013 69 0 1.31 116 06:40 29.03.2020
404 Clouds 21 1010 82 0 0.81 152 04:56 29.03.2020
405 Clouds 21 1010 82 0 0.81 152 03:41 29.03.2020
406 Clouds 22 1011 79 0 0.8 130 03:20 29.03.2020
407 Clouds 22 1011 79 0 0.8 130 01:43 29.03.2020
408 Clouds 22 1011 79 0 0.8 130 01:22 29.03.2020
409 Clouds 23 1011 74 0 0.78 111 00:45 29.03.2020
410 Clouds 23 1011 74 0 0.78 111 00:27 29.03.2020
411 Clouds 23 1011 74 0 0.78 111 23:41 28.03.2020
412 Clouds 23 1011 74 0 0.78 111 23:22 28.03.2020
413 Clouds 23 1010 76 0 0.86 85 22:46 28.03.2020
414 Clouds 23 1010 76 0 0.86 85 22:23 28.03.2020
415 Clouds 23 1010 76 0 0.86 85 21:59 28.03.2020
416 Clouds 23 1010 76 0 0.86 85 21:39 28.03.2020
417 Clouds 23 1010 76 0 0.86 85 21:21 28.03.2020
418 Clouds 23 1010 76 0 0.86 85 20:57 28.03.2020
419 Clouds 23 1010 76 0 0.86 85 20:38 28.03.2020
420 Clouds 24 1009 71 0 0.48 233 20:20 28.03.2020
421 Clouds 23 1008 73 0 0.59 171 19:55 28.03.2020
422 Clouds 23 1008 73 0 0.59 171 19:36 28.03.2020
423 Clouds 23 1008 73 0 0.59 171 19:18 28.03.2020
424 Clouds 23 1008 73 0 0.59 171 18:42 28.03.2020
425 Clouds 23 1008 73 0 0.59 171 18:20 28.03.2020
426 Clouds 23 1008 73 0 0.59 171 17:43 28.03.2020
427 Clouds 31 1010 62 10000 2.1 140 17:24 28.03.2020
428 Clouds 31 1010 62 10000 2.1 140 16:59 28.03.2020
429 Clouds 31 1010 62 10000 2.1 140 16:59 28.03.2020
430 Clouds 31 1010 62 10000 2.1 140 16:40 28.03.2020
431 Clouds 31 1010 62 10000 2.1 140 16:18 28.03.2020
432 Clouds 28 1007 58 0 0.62 186 15:55 28.03.2020
433 Clouds 28 1007 58 0 0.62 186 15:37 28.03.2020
434 Clouds 28 1007 58 0 0.62 186 15:18 28.03.2020
435 Clouds 28 1007 58 0 0.62 186 14:41 28.03.2020
436 Clouds 28 1007 58 0 0.62 186 14:21 28.03.2020
437 Clouds 31 1010 44 0 2 167 13:43 28.03.2020
438 Clouds 33 1010 39 0 2.13 178 13:24 28.03.2020
439 Clouds 33 1010 39 0 2.13 178 12:43 28.03.2020
440 Clouds 33 1010 39 0 2.13 178 12:24 28.03.2020
441 Clouds 33 1010 39 0 2.13 178 11:59 28.03.2020
442 Clouds 33 1010 39 0 2.13 178 11:41 28.03.2020
443 Clouds 29 1012 51 0 2.47 158 11:20 28.03.2020
444 Clouds 29 1012 51 0 2.47 158 10:40 28.03.2020
445 Clouds 29 1015 66 10000 4.1 120 10:22 28.03.2020
446 Clouds 29 1015 66 10000 4.1 120 09:43 28.03.2020
447 Clouds 25 1014 88 6000 2.1 100 09:24 28.03.2020
448 Clouds 25 1014 88 6000 2.1 100 08:59 28.03.2020
449 Clouds 25 1014 88 6000 2.1 100 08:41 28.03.2020
450 Clouds 25 1014 88 6000 2.1 100 08:22 28.03.2020
451 Mist 23 1014 100 4000 2.1 100 07:46 28.03.2020
452 Mist 23 1014 100 4000 2.1 100 07:28 28.03.2020
453 Mist 23 1013 88 4000 2.1 120 06:36 28.03.2020
454 Clouds 23 1013 82 0 0.69 130 05:54 28.03.2020
455 Clouds 22 1010 86 0 1.45 183 05:21 28.03.2020
456 Clouds 22 1010 86 0 1.45 183 05:21 28.03.2020
457 Clouds 22 1010 86 0 1.45 183 04:42 28.03.2020
458 Clouds 22 1010 86 0 1.45 183 03:55 28.03.2020
459 Clouds 22 1010 86 0 1.45 183 02:26 28.03.2020
460 Rain 22 1012 85 0 1.03 144 01:43 28.03.2020
461 Rain 22 1012 79 0 1.17 176 01:18 28.03.2020
462 Rain 22 1012 79 0 1.17 176 00:45 28.03.2020
463 Rain 22 1012 79 0 1.17 176 23:59 27.03.2020
464 Rain 22 1012 79 0 1.17 176 23:41 27.03.2020
465 Rain 22 1012 79 0 1.17 176 23:22 27.03.2020
466 Rain 23 1012 80 0 1 118 22:56 27.03.2020
467 Rain 23 1012 80 0 1 118 22:38 27.03.2020
468 Clouds 26 1012 78 7000 3.1 180 22:20 27.03.2020
469 Clouds 26 1012 78 7000 3.1 180 21:45 27.03.2020
470 Clouds 26 1012 78 7000 3.1 180 21:25 27.03.2020
471 Rain 23 1012 80 0 1 118 20:59 27.03.2020
472 Rain 23 1012 80 0 1 118 20:41 27.03.2020
473 Rain 23 1011 79 0 1.53 166 20:21 27.03.2020
474 Rain 25 1009 71 0 1.34 179 19:59 27.03.2020
475 Rain 25 1009 71 0 1.34 179 19:40 27.03.2020
476 Rain 25 1009 71 0 1.34 179 19:21 27.03.2020
477 Rain 25 1009 71 0 1.34 179 18:56 27.03.2020
478 Rain 25 1009 71 0 1.34 179 18:38 27.03.2020
479 Clouds 31 1010 58 10000 3.1 210 18:19 27.03.2020
480 Clouds 31 1010 58 10000 3.1 210 17:40 27.03.2020
481 Clouds 31 1010 58 10000 3.1 210 17:20 27.03.2020
482 Clouds 31 1006 49 0 1.5 207 16:45 27.03.2020
483 Clouds 31 1011 58 10000 3.1 250 16:27 27.03.2020
484 Clouds 31 1011 58 10000 3.1 250 15:59 27.03.2020
485 Clouds 31 1011 58 10000 3.1 250 15:40 27.03.2020
486 Clouds 31 1011 58 10000 3.1 250 15:22 27.03.2020
487 Clouds 31 1011 58 10000 3.1 180 14:46 27.03.2020
488 Clouds 31 1011 58 10000 3.1 180 14:25 27.03.2020
489 Clouds 30 1012 62 10000 3.1 180 13:56 27.03.2020
490 Clouds 32 1009 43 0 2.43 210 13:37 27.03.2020
491 Clouds 29 1013 62 10000 3.1 180 13:18 27.03.2020
492 Clouds 29 1013 62 10000 3.1 180 12:49 27.03.2020
493 Clouds 29 1013 62 10000 3.1 180 12:21 27.03.2020
494 Clouds 32 1008 44 0 2.34 211 11:59 27.03.2020
495 Clouds 32 1008 44 0 2.34 211 11:59 27.03.2020
496 Clouds 32 1008 44 0 2.34 211 11:41 27.03.2020
497 Clouds 32 1008 44 0 2.34 211 11:22 27.03.2020
498 Clouds 30 1012 50 0 2.17 204 10:54 27.03.2020
499 Clouds 30 1012 50 0 2.17 204 10:36 27.03.2020
500 Clouds 27 1015 74 10000 3.1 180 10:18 27.03.2020
501 Clouds 27 1015 74 10000 3.1 180 09:55 27.03.2020
502 Clouds 27 1015 74 10000 3.1 180 09:36 27.03.2020
503 Clouds 27 1015 74 10000 3.1 180 09:18 27.03.2020
504 Clouds 30 1012 50 0 2.17 204 08:54 27.03.2020
505 Clouds 30 1012 50 0 2.17 204 08:36 27.03.2020
506 Rain 23 1012 84 0 1.83 200 08:18 27.03.2020
507 Rain 23 1012 84 0 2.04 200 07:43 27.03.2020
508 Mist 22 1013 94 4000 2.04 200 07:21 27.03.2020
509 Mist 22 1013 94 4000 2.04 200 06:41 27.03.2020
510 Rain 23 1012 84 0 2.04 200 06:18 27.03.2020
511 Rain 21 1009 86 0 1.24 202 03:42 27.03.2020
512 Rain 22 1010 86 0 1.2 190 02:19 27.03.2020
513 Clouds 22 1009 84 0 1.27 194 01:21 27.03.2020
514 Clouds 22 1009 84 0 1.27 194 00:45 27.03.2020
515 Clouds 22 1009 84 0 1.27 194 00:20 27.03.2020
516 Clouds 22 1009 84 0 1.27 194 23:42 26.03.2020
517 Rain 22 1010 84 0 1.13 196 23:19 26.03.2020
518 Rain 22 1010 84 0 1.13 196 22:57 26.03.2020
519 Rain 22 1010 84 0 1.13 196 22:37 26.03.2020
520 Rain 22 1010 84 0 1.13 196 22:18 26.03.2020
521 Rain 22 1010 84 0 1.13 196 21:40 26.03.2020
522 Rain 22 1010 84 0 1.13 196 21:22 26.03.2020
523 Rain 22 1010 84 0 1.13 196 20:59 26.03.2020
524 Rain 22 1010 84 0 1.13 196 20:40 26.03.2020
525 Rain 22 1010 84 0 1.13 196 20:22 26.03.2020
526 Rain 24 1008 78 0 1.29 220 19:58 26.03.2020
527 Rain 24 1008 78 0 1.29 220 19:40 26.03.2020
528 Rain 24 1008 78 0 1.29 220 19:21 26.03.2020
529 Rain 24 1008 78 0 1.29 220 18:58 26.03.2020
530 Rain 24 1008 78 0 1.29 220 18:40 26.03.2020
531 Rain 24 1008 78 0 1.29 220 18:22 26.03.2020
532 Rain 24 1008 78 0 1.29 220 17:45 26.03.2020
533 Rain 30 1005 56 0 0.97 226 17:20 26.03.2020
534 Rain 30 1005 56 0 0.97 226 16:57 26.03.2020
535 Rain 30 1005 56 0 0.97 226 16:57 26.03.2020
536 Rain 30 1005 56 0 0.97 226 16:38 26.03.2020
537 Rain 30 1005 56 0 0.97 226 16:19 26.03.2020
538 Rain 30 1005 56 0 0.97 226 15:56 26.03.2020
539 Rain 30 1005 56 0 0.97 226 15:38 26.03.2020
540 Rain 30 1005 56 0 0.97 226 15:18 26.03.2020
541 Rain 30 1005 56 0 0.97 226 14:43 26.03.2020
542 Rain 30 1005 56 0 0.97 226 14:24 26.03.2020
543 -273 0 0 0 0 0 13:56 26.03.2020
544 Clouds 31 1007 48 0 1.91 234 13:56 26.03.2020
545 Clouds 31 1007 48 0 1.91 234 13:38 26.03.2020
546 Clouds 31 1007 48 0 1.91 234 13:20 26.03.2020
547 Clouds 32 1006 43 0 1.36 215 12:39 26.03.2020
548 Clouds 30 1011 66 10000 3.1 180 12:20 26.03.2020
549 Clouds 30 1011 66 10000 3.1 180 11:55 26.03.2020
550 Clouds 30 1011 66 10000 3.1 180 11:36 26.03.2020
551 Clouds 30 1011 66 10000 3.1 180 11:18 26.03.2020
552 Clouds 29 1011 70 10000 2.1 220 10:42 26.03.2020
553 Clouds 29 1011 70 10000 2.1 220 10:20 26.03.2020
554 Clouds 24 1010 78 0 1.82 221 09:45 26.03.2020
555 Clouds 24 1010 78 0 1.82 221 09:24 26.03.2020
556 Clouds 24 1010 78 0 1.82 221 08:57 26.03.2020
557 Clouds 24 1010 78 0 1.82 221 08:39 26.03.2020
558 Clouds 29 1010 59 0 2.28 220 08:20 26.03.2020
559 Rain 22 1010 86 0 1.48 220 07:46 26.03.2020
560 Rain 22 1010 86 0 1.48 220 07:24 26.03.2020
561 Rain 22 1010 86 0 1.48 220 06:59 26.03.2020
562 Rain 22 1010 86 0 1.48 220 06:32 26.03.2020
563 Rain 22 1010 86 0 1.48 220 05:29 26.03.2020
564 Rain 22 1008 87 0 0.5 208 03:45 26.03.2020
565 Rain 22 1008 87 0 0.5 208 02:57 26.03.2020
566 Rain 22 1008 87 0 0.88 223 01:51 26.03.2020
567 Clouds 21 1008 87 0 0.15 159 01:18 26.03.2020
568 Clouds 21 1008 87 0 0.15 159 00:30 26.03.2020
569 Clouds 21 1008 87 0 0.15 159 23:42 25.03.2020
570 Clouds 21 1008 87 0 0.15 159 23:24 25.03.2020
571 Rain 22 1009 87 0 0.68 19 22:42 25.03.2020
572 Rain 22 1009 87 0 0.68 19 22:22 25.03.2020
573 Rain 22 1009 87 0 0.68 19 21:59 25.03.2020
574 Rain 22 1009 87 0 0.68 19 21:40 25.03.2020
575 Rain 22 1009 87 0 0.68 19 21:22 25.03.2020
576 Rain 22 1009 87 0 0.68 19 20:57 25.03.2020
577 Rain 22 1009 87 0 0.68 19 20:37 25.03.2020
578 Rain 22 1008 86 0 1.55 147 20:18 25.03.2020
579 Rain 24 1006 71 0 1.06 171 19:43 25.03.2020
580 Rain 23 1007 85 0 0.83 158 19:24 25.03.2020
581 Rain 23 1007 85 0 0.83 158 18:59 25.03.2020
582 Rain 24 1006 71 0 1.06 171 18:40 25.03.2020
583 Rain 23 1007 85 0 0.83 158 18:22 25.03.2020
584 Rain 23 1007 85 0 0.83 158 17:57 25.03.2020
585 Rain 23 1007 85 0 0.83 158 17:39 25.03.2020
586 Rain 23 1007 85 0 0.83 158 17:21 25.03.2020
587 Clouds 32 1003 50 0 0.17 201 16:55 25.03.2020
588 Clouds 32 1003 50 0 0.17 201 16:36 25.03.2020
589 Clouds 26 1009 78 7000 3.1 310 16:18 25.03.2020
590 Clouds 26 1009 78 7000 3.1 310 15:41 25.03.2020
591 Clouds 26 1009 78 7000 3.1 310 15:20 25.03.2020
592 Rain 25 1009 88 7000 3.1 50 14:56 25.03.2020
593 Clouds 32 1003 50 0 0.17 201 14:37 25.03.2020
594 Clouds 25 1012 83 7000 3.1 90 14:18 25.03.2020
595 Clouds 25 1012 83 7000 3.1 90 13:42 25.03.2020
596 Clouds 25 1012 83 7000 3.1 90 13:22 25.03.2020
597 Clouds 35 1006 35 0 0.9 126 12:38 25.03.2020
598 Clouds 23 1012 94 7000 2.1 90 12:20 25.03.2020
599 Clouds 23 1012 94 7000 2.1 90 11:56 25.03.2020
600 Clouds 23 1012 94 7000 2.1 90 11:38 25.03.2020
601 Clouds 23 1012 94 7000 2.1 90 11:20 25.03.2020
602 Rain 22 1012 100 7000 2.1 80 10:57 25.03.2020
603 Clouds 29 1009 53 0 1.48 179 10:39 25.03.2020
604 Clouds 22 1012 100 7000 2.1 120 10:18 25.03.2020
605 Clouds 22 1012 100 7000 2.1 120 09:43 25.03.2020
606 Clouds 22 1012 100 7000 2.1 120 09:24 25.03.2020
607 Clouds 23 1012 94 7000 1.48 179 08:57 25.03.2020
608 Clouds 23 1012 94 7000 1.48 179 08:39 25.03.2020
609 Clouds 21 1011 100 7000 1.88 199 08:19 25.03.2020
610 Clouds 21 1011 100 7000 1.32 206 07:41 25.03.2020
611 Clouds 21 1011 100 7000 1.32 206 07:22 25.03.2020
612 Rain 22 1010 83 0 1.32 206 06:50 25.03.2020
613 Rain 22 1010 83 0 1.32 206 06:28 25.03.2020
614 Rain 22 1010 83 0 1.32 206 05:57 25.03.2020
615 Rain 22 1010 83 0 1.32 206 05:37 25.03.2020
616 Rain 21 1008 86 0 1.93 155 04:40 25.03.2020
617 Rain 21 1008 86 0 1.93 155 03:49 25.03.2020
618 Rain 21 1008 86 0 1.93 155 03:29 25.03.2020
619 Rain 21 1009 86 0 1.08 171 01:25 25.03.2020
620 Rain 22 1008 86 0 0.46 235 00:49 25.03.2020
621 Rain 22 1008 86 0 0.46 235 00:25 25.03.2020
622 Rain 22 1008 86 0 0.46 235 23:50 24.03.2020
623 Rain 22 1008 86 0 0.46 235 23:28 24.03.2020
624 Rain 22 1010 85 0 1.14 37 22:57 24.03.2020
625 Rain 22 1010 85 0 1.14 37 22:38 24.03.2020
626 Rain 22 1010 85 0 1.14 37 22:19 24.03.2020
627 Rain 22 1010 85 0 1.14 37 22:19 24.03.2020
628 Rain 22 1010 85 0 1.14 37 21:57 24.03.2020
629 Rain 22 1010 85 0 1.14 37 21:38 24.03.2020
630 Rain 22 1010 85 0 1.14 37 21:18 24.03.2020
631 Rain 22 1010 85 0 1.14 37 21:18 24.03.2020
632 Rain 22 1010 85 0 1.14 37 20:57 24.03.2020
633 Rain 22 1010 85 0 1.14 37 20:39 24.03.2020
634 Rain 28 1008 78 6000 1.14 37 20:21 24.03.2020
635 Rain 28 1008 78 6000 1.58 268 19:45 24.03.2020
636 Rain 28 1008 78 6000 1.58 268 19:19 24.03.2020
637 Rain 25 1006 75 0 1.58 268 18:56 24.03.2020
638 Rain 25 1006 75 0 1.58 268 18:37 24.03.2020
639 Rain 25 1006 75 0 1.58 268 18:37 24.03.2020
640 Clouds 32 1006 62 6000 1.58 268 18:19 24.03.2020
641 Clouds 32 1006 62 6000 1.58 268 17:43 24.03.2020
642 Clouds 32 1006 62 6000 1.58 268 17:24 24.03.2020
643 Clouds 32 1004 53 0 2 243 16:59 24.03.2020
644 Clouds 32 1004 53 0 2 243 16:41 24.03.2020
645 Clouds 34 1006 49 9000 3.1 260 16:23 24.03.2020
646 Clouds 34 1006 49 9000 3.1 260 15:59 24.03.2020
647 Clouds 34 1006 49 9000 3.1 260 15:40 24.03.2020
648 Clouds 34 1006 49 9000 3.1 260 15:22 24.03.2020
649 Clouds 34 1007 52 9000 1.5 0 14:43 24.03.2020
650 Clouds 34 1007 52 9000 1.5 0 14:43 24.03.2020
651 Clouds 34 1007 52 9000 1.5 0 14:43 24.03.2020
652 Clouds 34 1007 52 9000 1.5 0 14:22 24.03.2020
653 Rain 33 1007 43 0 2.34 216 13:56 24.03.2020
654 Rain 33 1007 43 0 2.34 216 13:38 24.03.2020
655 Rain 31 1007 50 0 3.16 217 13:20 24.03.2020
656 Rain 31 1007 50 0 3.16 217 12:42 24.03.2020
657 Rain 31 1007 50 0 3.16 217 12:23 24.03.2020
658 Rain 31 1007 50 0 3.16 217 11:41 24.03.2020
659 Clouds 30 1013 70 10000 3.1 160 11:21 24.03.2020
660 Clouds 30 1013 70 10000 3.1 160 10:59 24.03.2020
661 Rain 27 1011 72 0 1.52 329 10:40 24.03.2020
662 Rain 27 1011 72 0 1.52 329 10:40 24.03.2020
663 Clouds 30 1013 70 10000 3.1 180 10:18 24.03.2020
664 Rain 27 1011 72 0 1.52 329 09:44 24.03.2020
665 Rain 29 1012 70 10000 1.52 329 09:25 24.03.2020
666 Rain 29 1012 70 10000 1.52 329 08:57 24.03.2020
667 Rain 29 1012 70 10000 1.52 329 08:37 24.03.2020
668 Rain 29 1012 70 10000 0.42 109 08:18 24.03.2020
669 Rain 25 1012 83 10000 0.42 109 07:44 24.03.2020
670 Rain 25 1012 83 10000 0.42 109 07:22 24.03.2020
671 Clouds 22 1011 94 6000 2.1 30 06:38 24.03.2020
672 Clouds 23 1011 88 7000 1.5 0 05:42 24.03.2020
673 Rain 20 1009 97 0 1.1 338 04:51 24.03.2020
674 Rain 20 1009 97 0 1.1 338 03:21 24.03.2020
675 Rain 20 1009 97 0 1.1 338 02:41 24.03.2020
676 Clouds 23 1009 75 0 1.01 180 00:54 24.03.2020
677 Clouds 23 1009 75 0 1.01 180 00:27 24.03.2020
678 Clouds 23 1009 75 0 1.01 180 23:56 23.03.2020
679 Clouds 23 1009 75 0 1.01 180 23:37 23.03.2020
680 Clear 24 1010 73 0 1.09 194 23:19 23.03.2020
681 Clear 24 1010 73 0 1.09 194 22:44 23.03.2020
682 Clouds 25 1011 83 7000 2.1 120 22:22 23.03.2020
683 Clouds 25 1011 83 7000 2.1 120 21:55 23.03.2020
684 Clear 24 1010 73 0 1.09 194 21:37 23.03.2020
685 Clear 24 1010 73 0 1.09 194 21:18 23.03.2020
686 Clear 24 1010 73 0 1.09 194 20:42 23.03.2020
687 Clouds 30 1009 62 7000 3.1 180 20:24 23.03.2020
688 Clouds 30 1009 62 7000 3.1 180 19:56 23.03.2020
689 Clouds 26 1007 72 0 1.12 181 19:37 23.03.2020
690 Clouds 30 1009 62 10000 1.12 181 19:19 23.03.2020
691 Clouds 30 1009 62 10000 1.12 181 18:44 23.03.2020
692 Clouds 30 1009 62 10000 1.12 181 18:25 23.03.2020
693 Clouds 33 1008 52 10000 1.12 181 17:59 23.03.2020
694 Clouds 33 1008 52 10000 1.12 181 17:41 23.03.2020
695 Clouds 33 1008 52 10000 1.28 171 17:19 23.03.2020
696 Clouds 33 1008 52 10000 2.1 300 16:44 23.03.2020
697 Clouds 32 1005 52 0 1.28 171 16:25 23.03.2020
698 Clouds 32 1005 52 0 1.28 171 15:58 23.03.2020
699 Clouds 32 1005 52 0 1.28 171 15:39 23.03.2020
700 Clouds 32 1005 52 0 1.28 171 15:18 23.03.2020
701 Clouds 32 1005 52 0 1.28 171 14:37 23.03.2020
702 Clouds 32 1005 52 0 1.28 171 14:37 23.03.2020
703 Clear 35 1007 37 0 1.57 146 14:19 23.03.2020
704 Clear 35 1007 37 0 1.57 146 13:57 23.03.2020
705 Clear 35 1007 37 0 1.57 146 13:38 23.03.2020
706 Clear 35 1008 37 0 1.55 148 13:20 23.03.2020
707 Clear 35 1008 37 0 1.55 148 12:43 23.03.2020
708 Clear 35 1008 37 0 1.55 148 12:23 23.03.2020
709 Clear 35 1008 37 0 1.55 148 11:56 23.03.2020
710 Clear 35 1008 37 0 1.55 148 11:37 23.03.2020
711 Clouds 29 1014 74 10000 2.1 180 11:19 23.03.2020
712 Clouds 31 1012 50 0 1.74 168 10:56 23.03.2020
713 Clouds 31 1012 50 0 1.74 168 10:36 23.03.2020
714 Clouds 29 1014 70 10000 2.1 180 10:18 23.03.2020
715 Clouds 29 1014 70 10000 2.1 180 09:42 23.03.2020
716 Clouds 29 1014 70 10000 2.1 180 09:20 23.03.2020
717 Clouds 31 1012 50 0 1.74 168 08:38 23.03.2020
718 Clouds 24 1014 88 9000 0.87 151 08:20 23.03.2020
719 Clouds 24 1014 88 9000 0.87 151 07:54 23.03.2020
720 Clouds 24 1013 83 0 0.87 151 07:34 23.03.2020
721 Clouds 24 1013 83 0 0.87 151 06:58 23.03.2020
722 Clouds 24 1013 83 0 0.87 151 06:40 23.03.2020
723 Clouds 24 1013 83 0 0.87 151 05:44 23.03.2020
724 Clouds 21 1011 99 0 0.24 151 04:41 23.03.2020
725 Clouds 21 1011 99 0 0.24 151 02:59 23.03.2020
726 Clouds 22 1011 97 0 0.44 127 01:50 23.03.2020
727 Clouds 21 1011 97 0 0.56 110 00:50 23.03.2020
728 Clouds 21 1011 97 0 0.56 110 00:31 23.03.2020
729 Clouds 21 1011 97 0 0.56 110 23:45 22.03.2020
730 Clouds 21 1011 97 0 0.56 110 23:25 22.03.2020
731 Clouds 23 1012 88 0 0.43 112 22:44 22.03.2020
732 Clouds 23 1012 88 0 0.43 112 22:22 22.03.2020
733 Clouds 23 1012 88 0 0.43 112 21:55 22.03.2020
734 Clouds 23 1012 88 0 0.43 112 21:36 22.03.2020
735 Clouds 23 1012 88 0 0.43 112 21:18 22.03.2020
736 Clouds 23 1012 88 0 0.43 112 20:45 22.03.2020
737 Clouds 23 1012 88 0 0.43 112 20:24 22.03.2020
738 Clouds 23 1011 85 0 0.68 263 19:57 22.03.2020
739 Clouds 23 1011 85 0 0.68 263 19:39 22.03.2020
740 Clouds 23 1011 85 0 0.68 263 19:20 22.03.2020
741 Clouds 23 1011 85 0 0.68 263 18:58 22.03.2020
742 Clouds 23 1011 85 0 0.68 263 18:40 22.03.2020
743 Clouds 28 1011 74 8000 2.1 180 18:21 22.03.2020
744 Clouds 23 1011 85 0 0.68 263 17:57 22.03.2020
745 Clouds 23 1011 85 0 0.68 263 17:38 22.03.2020
746 Clouds 28 1009 63 0 1.43 233 17:20 22.03.2020
747 Clouds 28 1009 63 0 1.43 233 16:57 22.03.2020
748 Clouds 28 1009 63 0 1.43 233 16:39 22.03.2020
749 Clouds 28 1009 63 0 1.43 233 16:21 22.03.2020
750 Clouds 28 1009 63 0 1.43 233 16:21 22.03.2020
751 Clouds 28 1009 63 0 1.43 233 16:21 22.03.2020
752 Clouds 28 1009 63 0 1.43 233 15:40 22.03.2020
753 Clouds 28 1009 63 0 1.43 233 15:21 22.03.2020
754 Clouds 28 1009 63 0 1.43 233 14:46 22.03.2020
755 Clouds 27 1010 67 0 1.82 297 14:19 22.03.2020
756 Clouds 27 1010 67 0 1.82 297 13:44 22.03.2020
757 Clouds 29 1014 70 10000 2.1 240 13:21 22.03.2020
758 Clouds 29 1014 70 10000 2.1 240 12:59 22.03.2020
759 Clouds 29 1014 70 10000 2.1 240 12:41 22.03.2020
760 Clouds 29 1015 70 10000 3.1 180 12:19 22.03.2020
761 Clouds 29 1015 70 10000 3.1 180 11:43 22.03.2020
762 Clouds 29 1015 70 10000 3.1 180 11:25 22.03.2020
763 Clouds 27 1015 65 0 2.24 214 10:58 22.03.2020
764 Clouds 27 1015 65 0 2.24 214 10:40 22.03.2020
765 Clouds 27 1015 65 0 2.24 214 10:22 22.03.2020
766 Clouds 27 1015 65 0 2.24 214 10:22 22.03.2020
767 Clouds 27 1015 65 0 2.24 214 09:47 22.03.2020
768 Clouds 23 1015 94 7000 3.1 60 09:28 22.03.2020
769 Clouds 23 1015 94 7000 3.1 60 08:51 22.03.2020
770 Clouds 23 1015 94 7000 3.1 60 08:32 22.03.2020
771 Clouds 23 1015 94 7000 3.1 60 08:32 22.03.2020
772 Rain 21 1014 98 0 1.78 182 07:56 22.03.2020
773 Rain 21 1014 98 0 1.78 182 07:38 22.03.2020
774 Rain 22 1013 100 4000 3.1 50 06:48 22.03.2020
775 Rain 21 1014 98 0 1.78 182 05:52 22.03.2020
776 Rain 20 1011 99 0 1.15 249 04:39 22.03.2020
777 Rain 20 1012 99 0 1.53 338 01:49 22.03.2020
778 Rain 21 1012 99 0 1.61 305 00:50 22.03.2020
779 Rain 21 1012 99 0 1.61 305 00:31 22.03.2020
780 Rain 21 1012 99 0 1.61 305 23:46 21.03.2020
781 Rain 21 1012 99 0 1.61 305 23:23 21.03.2020
782 Rain 21 1014 98 0 1.47 252 22:59 21.03.2020
783 Rain 21 1014 98 0 1.47 252 22:38 21.03.2020
784 Rain 21 1014 98 0 1.47 252 22:20 21.03.2020
785 Rain 21 1014 98 0 1.47 252 21:58 21.03.2020
786 Rain 21 1014 98 0 1.47 252 21:38 21.03.2020
787 Rain 21 1014 98 0 1.47 252 21:20 21.03.2020
788 Rain 21 1014 98 0 1.47 252 20:43 21.03.2020
789 Rain 21 1013 99 0 1.65 279 20:22 21.03.2020
790 Rain 21 1011 98 0 1.48 279 19:55 21.03.2020
791 Rain 21 1011 98 0 1.48 279 19:37 21.03.2020
792 Rain 21 1011 98 0 1.48 279 19:18 21.03.2020
793 Rain 21 1011 98 0 1.48 279 18:41 21.03.2020
794 Thunderstorm 22 1012 100 4000 3.1 250 18:21 21.03.2020
795 Thunderstorm 22 1012 100 4000 3.1 250 17:59 21.03.2020
796 Thunderstorm 22 1012 100 4000 3.1 250 17:41 21.03.2020
797 Thunderstorm 22 1012 100 4000 3.1 250 17:22 21.03.2020
798 Clouds 24 1008 76 0 2.53 279 16:43 21.03.2020
799 Clouds 24 1008 76 0 2.53 279 16:24 21.03.2020
800 Clouds 24 1008 76 0 2.53 279 16:24 21.03.2020
801 Clouds 24 1008 76 0 2.53 279 15:59 21.03.2020
802 Clouds 24 1008 76 0 2.53 279 15:40 21.03.2020
803 Clouds 24 1008 76 0 2.53 279 15:22 21.03.2020
804 Clouds 24 1008 76 0 2.53 279 14:57 21.03.2020
805 Clouds 24 1008 76 0 2.53 279 14:38 21.03.2020
806 Clouds 24 1008 76 0 2.53 279 14:38 21.03.2020
807 Rain 25 1008 78 0 2.84 242 14:20 21.03.2020
808 Rain 25 1008 78 0 2.84 242 13:58 21.03.2020
809 Rain 25 1008 78 0 2.84 242 13:39 21.03.2020
810 Clouds 28 1008 62 0 2.92 256 13:21 21.03.2020
811 Clouds 28 1008 62 0 2.92 256 12:57 21.03.2020
812 Clouds 28 1008 62 0 2.92 256 12:37 21.03.2020
813 Clouds 28 1008 62 0 2.92 256 12:19 21.03.2020
814 Clouds 28 1008 62 0 2.92 256 11:55 21.03.2020
815 Clouds 28 1008 62 0 2.92 256 11:37 21.03.2020
816 Rain 25 1012 86 0 2.09 226 11:18 21.03.2020
817 Rain 25 1012 86 0 2.09 226 10:56 21.03.2020
818 Rain 25 1012 86 0 2.09 226 10:38 21.03.2020
819 Rain 25 1012 86 0 2.09 226 10:18 21.03.2020
820 Rain 25 1012 86 0 2.09 226 09:40 21.03.2020
821 Rain 25 1012 86 0 2.09 226 09:21 21.03.2020
822 Rain 25 1012 86 0 2.09 226 08:58 21.03.2020
823 Rain 25 1012 86 0 2.09 226 08:39 21.03.2020
824 Rain 23 1012 96 0 1.74 248 08:21 21.03.2020
825 Rain 22 1012 99 0 1.28 294 07:39 21.03.2020
826 Rain 22 1012 99 0 1.28 294 07:20 21.03.2020
827 Rain 22 1012 99 0 1.28 294 06:45 21.03.2020
828 Rain 22 1012 99 0 1.28 294 06:26 21.03.2020
829 Rain 22 1012 99 0 1.28 294 05:41 21.03.2020
830 Rain 22 1010 99 0 0.84 37 04:34 21.03.2020
831 Rain 22 1010 99 0 0.84 37 02:39 21.03.2020
832 Rain 22 1009 98 0 0.92 80 01:54 21.03.2020
833 Rain 22 1009 98 0 1.37 13 01:28 21.03.2020
834 Rain 22 1009 98 0 1.37 13 00:43 21.03.2020
835 Rain 22 1009 98 0 1.37 13 00:24 21.03.2020
836 Rain 22 1009 98 0 1.37 13 23:46 20.03.2020
837 Rain 22 1009 98 0 1.37 13 23:24 20.03.2020
838 Rain 25 1009 77 0 1.21 182 22:44 20.03.2020
839 Rain 25 1009 77 0 1.21 182 22:25 20.03.2020
840 Rain 25 1009 77 0 1.21 182 21:59 20.03.2020
841 Rain 25 1009 77 0 1.21 182 21:41 20.03.2020
842 Rain 25 1009 77 0 1.21 182 21:20 20.03.2020
843 Rain 25 1009 77 0 1.21 182 20:59 20.03.2020
844 Rain 25 1009 77 0 1.21 182 20:41 20.03.2020
845 Rain 23 1008 94 0 1.45 153 20:21 20.03.2020
846 Rain 24 1006 86 0 0.73 214 19:58 20.03.2020
847 Rain 24 1006 86 0 0.73 214 19:39 20.03.2020
848 Rain 24 1006 86 0 0.73 214 19:18 20.03.2020
849 Rain 24 1006 86 0 0.73 214 18:39 20.03.2020
850 Rain 24 1006 86 0 0.73 214 18:39 20.03.2020
851 Rain 24 1006 86 0 0.73 214 18:20 20.03.2020
852 Rain 24 1006 86 0 0.73 214 17:57 20.03.2020
853 Rain 24 1006 86 0 0.73 214 17:39 20.03.2020
854 Clouds 33 1003 46 0 1.27 158 17:20 20.03.2020
855 Clouds 33 1003 46 0 1.27 158 16:43 20.03.2020
856 Clouds 33 1003 46 0 1.27 158 16:21 20.03.2020
857 Clouds 33 1003 46 0 1.27 158 15:59 20.03.2020
858 Clouds 33 1003 46 0 1.27 158 15:41 20.03.2020
859 Clouds 33 1003 46 0 1.27 158 15:20 20.03.2020
860 Clouds 33 1003 46 0 1.27 158 14:42 20.03.2020
861 Clouds 33 1003 46 0 1.27 158 14:21 20.03.2020
862 Clouds 37 1007 33 0 1.23 116 13:55 20.03.2020
863 Clouds 37 1007 33 0 1.23 116 13:36 20.03.2020
864 Clouds 37 1007 33 0 1.39 119 13:18 20.03.2020
865 Clouds 37 1007 33 0 1.39 119 12:39 20.03.2020
866 Clouds 37 1007 33 0 1.39 119 12:20 20.03.2020
867 Clouds 37 1007 33 0 1.39 119 11:42 20.03.2020
868 Clouds 37 1007 33 0 1.39 119 11:22 20.03.2020
869 Clouds 32 1011 47 0 1.96 153 10:59 20.03.2020
870 Clouds 32 1011 47 0 1.96 153 10:41 20.03.2020
871 Clouds 32 1011 47 0 1.96 153 10:20 20.03.2020
872 Clouds 32 1011 47 0 1.96 153 09:47 20.03.2020
873 Clouds 32 1011 47 0 1.96 153 09:22 20.03.2020
874 Clouds 32 1011 47 0 1.96 153 08:59 20.03.2020
875 Clouds 32 1011 47 0 1.96 153 08:40 20.03.2020
876 Clouds 23 1011 91 0 0.78 112 08:20 20.03.2020
877 Clouds 23 1011 91 0 0.78 112 07:46 20.03.2020
878 Clouds 23 1011 91 0 0.78 112 07:26 20.03.2020
879 Clouds 23 1011 91 0 0.78 112 06:49 20.03.2020
880 Clouds 23 1011 91 0 0.78 112 06:31 20.03.2020
881 Clouds 21 1009 98 0 0.79 122 04:49 20.03.2020
882 Clouds 21 1009 98 0 0.79 122 03:20 20.03.2020
883 Rain 21 1009 97 0 0.94 94 01:51 20.03.2020
884 Rain 21 1010 99 0 0.68 107 00:46 20.03.2020
885 Rain 21 1010 99 0 0.68 107 00:26 20.03.2020
886 Rain 21 1010 99 0 0.68 107 23:45 19.03.2020
887 Rain 21 1010 99 0 0.68 107 23:26 19.03.2020
888 Rain 21 1010 99 0 0.68 107 23:26 19.03.2020
889 Rain 22 1011 93 0 1.47 150 22:56 19.03.2020
890 Rain 22 1011 93 0 1.47 150 22:38 19.03.2020
891 Rain 22 1011 93 0 1.47 150 22:38 19.03.2020
892 Rain 22 1011 93 0 1.47 150 22:18 19.03.2020
893 Rain 22 1011 93 0 1.47 150 21:41 19.03.2020
894 Rain 22 1011 93 0 1.47 150 21:20 19.03.2020
895 Rain 22 1011 93 0 1.47 150 20:58 19.03.2020
896 Rain 22 1011 93 0 1.47 150 20:39 19.03.2020
897 Clouds 24 1009 75 0 1.35 177 20:20 19.03.2020
898 Rain 25 1008 78 0 0.94 215 19:55 19.03.2020
899 Rain 25 1008 78 0 0.94 215 19:37 19.03.2020
900 Rain 25 1008 78 0 0.94 215 19:18 19.03.2020
901 Rain 25 1008 78 0 0.94 215 18:42 19.03.2020
902 Rain 25 1008 78 0 0.94 215 18:22 19.03.2020
903 Rain 25 1008 78 0 0.94 215 17:58 19.03.2020
904 Rain 25 1008 78 0 0.94 215 17:39 19.03.2020
905 Clouds 32 1005 50 0 1.05 192 17:19 19.03.2020
906 Clouds 32 1005 50 0 1.05 192 16:43 19.03.2020
907 Clouds 32 1005 50 0 1.05 192 16:23 19.03.2020
908 Clouds 32 1005 50 0 1.05 192 15:45 19.03.2020
909 Clouds 32 1005 50 0 1.05 192 15:27 19.03.2020
910 Clouds 32 1005 50 0 1.05 192 14:55 19.03.2020
911 Clouds 32 1005 50 0 1.05 192 14:37 19.03.2020
912 Clouds 36 1008 36 0 1.36 93 14:19 19.03.2020
913 Clouds 36 1008 36 0 1.36 93 14:19 19.03.2020
914 Clouds 36 1008 36 0 1.36 93 13:40 19.03.2020
915 Clouds 36 1008 36 0 1.36 93 13:19 19.03.2020
916 Clouds 36 1008 36 0 1.02 110 12:55 19.03.2020
917 Clouds 36 1008 36 0 1.02 110 12:37 19.03.2020
918 Clouds 36 1008 36 0 1.02 110 12:18 19.03.2020
919 Clouds 36 1008 36 0 1.02 110 11:41 19.03.2020
920 Clouds 36 1008 36 0 1.02 110 11:23 19.03.2020
921 Clouds 31 1012 52 0 1.64 156 10:56 19.03.2020
922 Clouds 31 1012 52 0 1.64 156 10:36 19.03.2020
923 Clouds 31 1012 52 0 1.64 156 10:18 19.03.2020
924 Clouds 31 1012 52 0 1.64 156 09:43 19.03.2020
925 Clouds 31 1012 52 0 1.64 156 09:25 19.03.2020
926 Clouds 31 1012 52 0 1.64 156 08:48 19.03.2020
927 Clouds 31 1012 52 0 1.1 147 08:23 19.03.2020
928 Clouds 22 1012 92 0 0.61 130 07:57 19.03.2020
929 Clouds 22 1012 92 0 0.61 130 07:38 19.03.2020
930 Clouds 22 1012 92 0 0.61 130 07:18 19.03.2020
931 Clouds 22 1012 92 0 0.61 130 06:27 19.03.2020
932 Clouds 22 1012 92 0 0.61 130 05:25 19.03.2020
933 Clouds 21 1010 95 0 0.44 232 04:47 19.03.2020
934 Clouds 21 1010 95 0 0.44 232 03:55 19.03.2020
935 Clouds 21 1010 96 0 0.78 182 01:46 19.03.2020
936 Clouds 21 1010 95 0 1.02 177 00:42 19.03.2020
937 Clouds 21 1010 95 0 1.02 177 00:19 19.03.2020
938 Clouds 21 1010 95 0 1.02 177 23:42 18.03.2020
939 Clouds 21 1010 95 0 1.02 177 23:22 18.03.2020
940 Clouds 22 1011 94 0 1.21 179 22:43 18.03.2020
941 Clouds 22 1011 94 0 1.21 179 22:23 18.03.2020
942 Clouds 22 1011 94 0 1.21 179 21:57 18.03.2020
943 Clouds 22 1011 94 0 1.21 179 21:39 18.03.2020
944 Clouds 22 1011 94 0 1.21 179 21:20 18.03.2020
945 Clouds 22 1011 94 0 1.21 179 20:55 18.03.2020
946 Clouds 22 1011 94 0 1.21 179 20:37 18.03.2020
947 Clouds 24 1010 83 0 1.66 164 20:19 18.03.2020
948 Clouds 24 1010 83 0 1.66 164 19:41 18.03.2020
949 Clouds 24 1010 83 0 1.66 164 19:21 18.03.2020
950 Clouds 24 1010 83 0 1.66 164 19:21 18.03.2020
951 Clouds 24 1010 83 0 1.66 164 18:58 18.03.2020
952 Clouds 24 1010 83 0 1.66 164 18:58 18.03.2020
953 Clouds 24 1010 83 0 1.66 164 18:39 18.03.2020
954 Clouds 24 1010 83 0 1.66 164 18:19 18.03.2020
955 Clouds 24 1010 83 0 1.66 164 17:55 18.03.2020
956 Clouds 24 1010 83 0 1.66 164 17:37 18.03.2020
957 Clouds 30 1007 56 0 1.81 133 17:19 18.03.2020
958 Clouds 30 1007 56 0 1.81 133 16:42 18.03.2020
959 Clouds 30 1007 56 0 1.81 133 16:20 18.03.2020
960 Clouds 30 1007 56 0 1.81 133 15:57 18.03.2020
961 Clouds 30 1007 56 0 1.81 133 15:38 18.03.2020
962 Clouds 30 1007 56 0 1.81 133 15:20 18.03.2020
963 Clouds 30 1007 56 0 1.81 133 14:42 18.03.2020
964 Clouds 30 1007 56 0 1.81 133 14:21 18.03.2020
965 Clouds 32 1009 49 0 1.93 149 13:42 18.03.2020
966 Clouds 32 1009 49 0 1.93 149 13:19 18.03.2020
967 Clouds 32 1008 48 0 1.86 136 12:55 18.03.2020
968 Clouds 32 1008 48 0 1.86 136 12:37 18.03.2020
969 Clouds 32 1008 48 0 1.86 136 12:18 18.03.2020
970 Clouds 32 1008 48 0 1.86 136 11:38 18.03.2020
971 Clouds 29 1012 60 0 2.41 158 11:19 18.03.2020
972 Clouds 29 1012 60 0 2.41 158 10:57 18.03.2020
973 Clouds 29 1012 60 0 2.41 158 10:37 18.03.2020
974 Clouds 29 1012 60 0 2.41 158 10:19 18.03.2020
975 Clouds 29 1012 60 0 2.41 158 09:42 18.03.2020
976 Clouds 29 1012 60 0 2.41 158 09:23 18.03.2020
977 Clouds 29 1012 60 0 2.41 158 08:55 18.03.2020
978 Clouds 29 1012 60 0 2.41 158 08:37 18.03.2020
979 Clouds 23 1012 93 0 1.47 160 08:19 18.03.2020
980 Clouds 23 1012 93 0 1.47 160 07:41 18.03.2020
981 Clouds 23 1012 93 0 1.47 160 07:23 18.03.2020
982 Clouds 23 1012 93 0 1.47 160 06:43 18.03.2020
983 Clouds 23 1012 93 0 1.47 160 05:53 18.03.2020
984 Clouds 21 1009 97 0 2 142 05:20 18.03.2020
985 Clouds 21 1009 97 0 2 142 03:56 18.03.2020
986 Clouds 21 1009 97 0 2 142 02:40 18.03.2020
987 Rain 20 1010 98 0 1.11 198 01:46 18.03.2020
988 Rain 22 1010 99 0 1.53 205 01:21 18.03.2020
989 Rain 22 1010 99 0 1.53 205 00:23 18.03.2020
990 Clouds 21 1009 99 0 1 172 23:47 17.03.2020
991 Clouds 21 1009 99 0 1 172 23:26 17.03.2020
992 Clouds 22 1012 98 0 1.29 175 22:47 17.03.2020
993 Clouds 22 1012 98 0 1.29 175 22:29 17.03.2020
994 Clouds 22 1012 98 0 1.29 175 21:59 17.03.2020
995 Clouds 22 1012 98 0 1.29 175 21:37 17.03.2020
996 Clouds 22 1010 97 0 1.75 168 21:19 17.03.2020
997 Clouds 22 1010 97 0 1.75 168 20:38 17.03.2020
998 Rain 23 1010 97 0 1.42 178 20:20 17.03.2020
999 Rain 23 1009 97 0 1.49 179 19:54 17.03.2020
1000 Rain 23 1009 97 0 1.49 179 19:36 17.03.2020
1001 Rain 23 1009 97 0 1.49 179 19:18 17.03.2020
1002 Rain 23 1009 97 0 1.49 179 18:54 17.03.2020
1003 Rain 23 1009 97 0 1.49 179 18:36 17.03.2020
1004 Rain 23 1009 97 0 1.49 179 18:36 17.03.2020
1005 Rain 23 1009 97 0 1.49 179 18:18 17.03.2020
1006 Rain 23 1009 97 0 1.49 179 18:18 17.03.2020
1007 Rain 23 1009 97 0 1.49 179 17:39 17.03.2020
1008 Rain 27 1007 92 0 1.33 189 17:20 17.03.2020
1009 Rain 27 1007 92 0 1.33 189 16:44 17.03.2020
1010 Rain 27 1007 92 0 1.33 189 16:20 17.03.2020
1011 Rain 27 1007 92 0 1.33 189 15:56 17.03.2020
1012 Rain 27 1007 92 0 1.33 189 15:38 17.03.2020
1013 Rain 27 1007 92 0 1.33 189 15:18 17.03.2020
1014 Rain 27 1007 92 0 1.33 189 14:41 17.03.2020
1015 Rain 29 1007 79 0 1.27 227 14:18 17.03.2020
1016 Rain 29 1007 79 0 1.27 227 13:41 17.03.2020
1017 Rain 30 1007 75 0 1.23 234 13:22 17.03.2020
1018 Rain 30 1007 75 0 1.23 234 12:48 17.03.2020
1019 Rain 30 1007 75 0 1.23 234 12:26 17.03.2020
1020 Clouds 33 1007 48 0 1.81 166 11:59 17.03.2020
1021 Clouds 33 1007 48 0 1.81 166 11:39 17.03.2020
1022 Clouds 33 1007 48 0 1.81 166 11:21 17.03.2020
1023 Clouds 29 1011 65 0 2.47 160 10:55 17.03.2020
1024 Clouds 30 1012 60 0 2.26 168 10:36 17.03.2020
1025 Clouds 30 1012 60 0 2.26 168 10:18 17.03.2020
1026 Clouds 30 1012 60 0 2.26 168 09:45 17.03.2020
1027 Clouds 30 1012 60 0 2.26 168 09:20 17.03.2020
1028 Clouds 30 1012 60 0 2.26 168 08:58 17.03.2020
1029 Clouds 30 1012 60 0 2.26 168 08:40 17.03.2020
1030 Rain 23 1011 96 0 1.65 160 08:18 17.03.2020
1031 Rain 23 1011 96 0 1.65 160 07:49 17.03.2020
1032 Rain 23 1011 96 0 1.65 160 07:20 17.03.2020
1033 Rain 23 1011 96 0 1.65 160 06:45 17.03.2020
1034 Rain 23 1011 96 0 1.65 160 06:25 17.03.2020
1035 Rain 22 1009 99 0 1.73 146 05:20 17.03.2020
1036 Rain 22 1009 99 0 1.73 146 03:31 17.03.2020
1037 Rain 22 1008 92 0 1.63 80 01:50 17.03.2020
1038 Rain 22 1008 92 0 1.63 80 01:31 17.03.2020
1039 Rain 21 1008 97 0 0.46 188 00:52 17.03.2020
1040 Rain 21 1008 97 0 0.46 188 23:53 16.03.2020
1041 Rain 21 1008 97 0 0.46 188 23:34 16.03.2020
1042 Clouds 23 1009 89 0 1.01 177 22:55 16.03.2020
1043 Clouds 23 1009 89 0 1.01 177 22:37 16.03.2020
1044 Clouds 23 1009 89 0 1.01 177 22:19 16.03.2020
1045 Clouds 23 1009 89 0 1.01 177 21:44 16.03.2020
1046 Clouds 23 1009 89 0 1.01 177 21:25 16.03.2020
1047 Clouds 23 1009 89 0 1.01 177 20:58 16.03.2020
1048 Clouds 23 1009 89 0 1.01 177 20:38 16.03.2020
1049 Clouds 23 1009 89 0 1.01 177 20:38 16.03.2020
1050 Rain 23 1006 91 0 1.46 205 20:20 16.03.2020
1051 Clouds 27 1005 57 0 1.05 185 19:44 16.03.2020
1052 Clouds 27 1005 57 0 1.05 185 19:23 16.03.2020
1053 Clouds 27 1005 57 0 1.05 185 18:57 16.03.2020
1054 Clouds 27 1005 57 0 1.05 185 18:38 16.03.2020
1055 Clouds 27 1005 57 0 1.05 185 18:18 16.03.2020
1056 Clouds 27 1005 57 0 1.05 185 17:45 16.03.2020
1057 Clouds 27 1005 57 0 1.05 185 17:24 16.03.2020
1058 Clouds 34 1003 42 0 0.57 328 16:49 16.03.2020
1059 Clouds 34 1003 42 0 0.57 328 16:31 16.03.2020
1060 Clouds 34 1003 42 0 0.57 328 15:58 16.03.2020
1061 Clouds 34 1003 42 0 0.57 328 15:40 16.03.2020
1062 Clouds 34 1003 42 0 0.57 328 15:20 16.03.2020
1063 Clouds 34 1003 42 0 0.57 328 14:44 16.03.2020
1064 Clear 37 1004 31 0 1.47 52 14:20 16.03.2020
1065 Clear 37 1004 31 0 1.47 52 13:45 16.03.2020
1066 Clear 37 1004 31 0 1.47 52 13:26 16.03.2020
1067 Clear 37 1004 31 0 1.33 32 12:56 16.03.2020
1068 Clear 37 1004 31 0 1.33 32 12:37 16.03.2020
1069 Clear 37 1004 31 0 1.33 32 12:19 16.03.2020
1070 Clear 37 1004 31 0 1.33 32 11:42 16.03.2020
1071 Clouds 35 1009 42 0 0.75 153 11:20 16.03.2020
1072 Clouds 35 1009 42 0 0.75 153 10:43 16.03.2020
1073 Clouds 35 1009 42 0 0.75 153 10:24 16.03.2020
1074 Clouds 35 1009 42 0 0.75 153 09:47 16.03.2020
1075 Clouds 35 1009 42 0 0.75 153 09:28 16.03.2020
1076 Clouds 35 1009 42 0 0.75 153 08:59 16.03.2020
1077 Clouds 34 1010 44 0 1.03 158 08:27 16.03.2020
1078 Clouds 25 1010 79 0 0.84 104 07:56 16.03.2020
1079 Clouds 25 1010 79 0 0.84 104 07:38 16.03.2020
1080 Clouds 25 1010 79 0 0.84 104 07:18 16.03.2020
1081 Clouds 25 1010 79 0 0.84 104 06:27 16.03.2020
1082 Clouds 25 1010 79 0 0.84 104 05:54 16.03.2020
1083 Clouds 21 1008 96 0 0.88 162 03:36 16.03.2020
1084 Clouds 22 1008 91 0 0.83 147 01:29 16.03.2020
1085 Clouds 22 1008 92 0 0.91 157 00:43 16.03.2020
1086 Clouds 22 1008 92 0 0.91 157 23:56 15.03.2020
1087 Clouds 22 1008 92 0 0.91 157 23:37 15.03.2020
1088 Clouds 23 1010 86 0 0.93 207 23:18 15.03.2020
1089 Clouds 23 1010 86 0 0.93 207 22:41 15.03.2020
1090 Clouds 23 1010 86 0 0.93 207 22:20 15.03.2020
1091 Clouds 23 1010 86 0 0.93 207 21:39 15.03.2020
1092 Clouds 23 1010 86 0 0.93 207 21:20 15.03.2020
1093 Clouds 23 1010 86 0 0.93 207 20:44 15.03.2020
1094 Clouds 23 1009 87 0 0.93 204 20:22 15.03.2020
1095 Clouds 23 1008 88 0 0.39 329 19:59 15.03.2020
1096 Clouds 23 1008 88 0 0.39 329 19:59 15.03.2020
1097 Clouds 23 1008 88 0 0.39 329 19:41 15.03.2020
1098 Clouds 23 1008 88 0 0.39 329 19:23 15.03.2020
1099 Clouds 23 1008 88 0 0.39 329 18:59 15.03.2020
1100 Clouds 23 1008 88 0 0.39 329 18:39 15.03.2020
1101 Clouds 23 1008 88 0 0.39 329 18:21 15.03.2020
1102 Clouds 23 1008 88 0 0.39 329 17:54 15.03.2020
1103 Clouds 23 1008 88 0 0.39 329 17:36 15.03.2020
1104 Clouds 28 1006 66 0 0.76 11 17:18 15.03.2020
1105 Clouds 28 1006 66 0 0.76 11 16:42 15.03.2020
1106 Clouds 28 1006 66 0 0.76 11 16:24 15.03.2020
1107 Clouds 28 1006 66 0 0.76 11 15:57 15.03.2020
1108 Clouds 28 1006 66 0 0.76 11 15:38 15.03.2020
1109 Clouds 28 1006 66 0 0.76 11 15:19 15.03.2020
1110 Clouds 28 1006 66 0 0.76 11 14:46 15.03.2020
1111 Clouds 28 1006 66 0 0.76 11 14:24 15.03.2020
1112 Rain 23 1010 93 0 2.04 199 13:57 15.03.2020
1113 Rain 23 1010 93 0 2.04 199 13:38 15.03.2020
1114 Rain 23 1010 93 0 2.04 199 13:38 15.03.2020
1115 Rain 30 1009 61 0 1.48 194 13:19 15.03.2020
1116 Rain 30 1009 61 0 1.48 194 12:43 15.03.2020
1117 Rain 30 1009 61 0 1.48 194 12:25 15.03.2020
1118 Rain 30 1009 61 0 1.48 194 11:54 15.03.2020
1119 Rain 30 1009 61 0 1.48 194 11:36 15.03.2020
1120 Rain 23 1012 97 0 1.77 172 11:18 15.03.2020
1121 Rain 23 1012 97 0 1.77 172 10:55 15.03.2020
1122 Rain 23 1012 97 0 1.77 172 10:36 15.03.2020
1123 Rain 23 1012 97 0 1.77 172 10:18 15.03.2020
1124 Rain 23 1012 97 0 1.77 172 09:39 15.03.2020
1125 Rain 23 1012 97 0 1.77 172 09:20 15.03.2020
1126 Rain 23 1012 97 0 1.77 172 08:42 15.03.2020
1127 Rain 22 1012 99 0 2.73 107 08:20 15.03.2020
1128 Rain 22 1012 97 0 1.44 88 07:50 15.03.2020
1129 Rain 22 1012 97 0 1.44 88 07:23 15.03.2020
1130 Rain 22 1012 97 0 1.44 88 06:45 15.03.2020
1131 Rain 22 1012 97 0 1.44 88 05:50 15.03.2020
1132 Rain 21 1009 94 0 0.65 75 04:58 15.03.2020
1133 Rain 21 1009 94 0 0.65 75 04:40 15.03.2020
1134 Rain 21 1009 94 0 0.65 75 04:21 15.03.2020
1135 Rain 21 1009 94 0 0.65 75 03:25 15.03.2020
1136 Rain 21 1009 94 0 0.65 75 02:37 15.03.2020
1137 Clouds 25 1009 72 0 1.89 223 01:20 15.03.2020
1138 Clouds 24 1009 77 0 1.45 217 00:42 15.03.2020
1139 Clouds 24 1009 77 0 1.45 217 00:21 15.03.2020
1140 Clouds 24 1009 77 0 1.45 217 23:41 14.03.2020
1141 Clouds 24 1009 77 0 1.45 217 23:21 14.03.2020
1142 Clouds 26 1010 69 0 1.2 219 22:58 14.03.2020
1143 Clouds 26 1010 69 0 1.2 219 22:40 14.03.2020
1144 Clouds 26 1010 69 0 1.2 219 22:22 14.03.2020
1145 Clouds 26 1010 69 0 1.2 219 21:56 14.03.2020
1146 Clouds 26 1010 69 0 1.2 219 21:36 14.03.2020
1147 Clouds 26 1010 69 0 1.2 219 21:18 14.03.2020
1148 Clouds 26 1010 69 0 1.2 219 20:58 14.03.2020
1149 Clouds 26 1010 69 0 1.2 219 20:39 14.03.2020
1150 Clouds 27 1008 63 0 1.03 212 20:19 14.03.2020
1151 Clouds 27 1008 63 0 1.03 212 19:42 14.03.2020
1152 Clouds 27 1008 63 0 1.03 212 19:24 14.03.2020
1153 Clouds 27 1008 63 0 1.03 212 18:41 14.03.2020
1154 Clouds 27 1008 63 0 1.03 212 18:22 14.03.2020
1155 Clouds 27 1008 63 0 1.03 212 17:56 14.03.2020
1156 Clouds 27 1008 63 0 1.03 212 17:37 14.03.2020
1157 Clouds 31 1005 51 0 0.62 2 17:19 14.03.2020
1158 Clouds 31 1005 51 0 0.62 2 16:40 14.03.2020
1159 Clouds 31 1005 51 0 0.62 2 16:22 14.03.2020
1160 Clouds 31 1005 51 0 0.62 2 15:56 14.03.2020
1161 Clouds 31 1005 51 0 0.62 2 15:26 14.03.2020
1162 Clouds 31 1005 51 0 0.62 2 14:55 14.03.2020
1163 Clouds 31 1005 51 0 0.62 2 14:36 14.03.2020
1164 Clouds 35 1007 37 0 1.17 103 14:18 14.03.2020
1165 Clouds 35 1007 37 0 1.17 103 13:42 14.03.2020
1166 Clouds 35 1007 37 0 1.22 110 13:23 14.03.2020
1167 Clouds 35 1007 37 0 1.22 110 12:47 14.03.2020
1168 Clouds 35 1007 37 0 1.22 110 12:27 14.03.2020
1169 Clouds 35 1007 37 0 1.22 110 11:59 14.03.2020
1170 Clouds 35 1007 37 0 1.22 110 11:39 14.03.2020
1171 Clouds 32 1012 48 0 1.32 111 11:20 14.03.2020
1172 Clouds 32 1012 48 0 1.32 111 10:45 14.03.2020
1173 Clouds 32 1012 48 0 1.32 111 10:27 14.03.2020
1174 Clouds 32 1012 48 0 1.32 111 09:57 14.03.2020
1175 Clouds 32 1012 48 0 1.32 111 09:39 14.03.2020
1176 Clouds 32 1012 48 0 1.32 111 09:19 14.03.2020
1177 Clouds 32 1012 48 0 1.32 111 08:45 14.03.2020
1178 Clouds 29 1012 60 0 1.53 114 08:22 14.03.2020
1179 Clouds 23 1013 84 0 0.96 128 07:39 14.03.2020
1180 Clouds 23 1013 84 0 0.96 128 07:20 14.03.2020
1181 Clouds 23 1013 84 0 0.96 128 06:41 14.03.2020
1182 Clouds 23 1013 84 0 0.96 128 05:49 14.03.2020
1183 Clouds 21 1011 98 0 1 103 04:43 14.03.2020
1184 Clouds 21 1011 98 0 1 103 03:24 14.03.2020
1185 Clouds 21 1011 98 0 1 103 02:28 14.03.2020
1186 Clouds 21 1012 98 0 1.22 107 01:19 14.03.2020
1187 Clouds 20 1012 99 0 1.25 113 23:56 13.03.2020
1188 Clouds 20 1012 99 0 1.25 113 23:31 13.03.2020
1189 Clouds 21 1013 98 0 1.17 97 22:52 13.03.2020
1190 Clouds 21 1013 98 0 1.17 97 22:27 13.03.2020
1191 Clouds 21 1013 98 0 1.17 97 21:54 13.03.2020
1192 Clouds 21 1013 98 0 1.17 97 21:36 13.03.2020
1193 Clouds 21 1013 98 0 1.17 97 21:18 13.03.2020
1194 Clouds 21 1013 98 0 1.17 97 20:41 13.03.2020
1195 Clouds 20 1013 98 0 1.1 102 20:22 13.03.2020
1196 Clouds 21 1012 92 0 0.75 149 19:49 13.03.2020
1197 Clouds 21 1012 92 0 0.75 149 19:31 13.03.2020
1198 Clouds 21 1012 92 0 0.75 149 18:55 13.03.2020
1199 Clouds 21 1012 92 0 0.75 149 18:36 13.03.2020
1200 Clouds 21 1012 92 0 0.75 149 18:18 13.03.2020
1201 Clouds 21 1012 92 0 0.75 149 17:41 13.03.2020
1202 Clouds 21 1012 92 0 0.75 149 17:21 13.03.2020
1203 Clouds 24 1010 75 0 2.7 200 16:55 13.03.2020
1204 Clouds 24 1010 75 0 2.7 200 16:36 13.03.2020
1205 Clouds 24 1010 75 0 2.7 200 16:18 13.03.2020
1206 Clouds 24 1010 75 0 2.7 200 15:41 13.03.2020
1207 Clouds 24 1010 75 0 2.7 200 15:21 13.03.2020
1208 Clouds 24 1010 75 0 2.7 200 14:44 13.03.2020
1209 Clouds 24 1010 75 0 2.7 200 14:44 13.03.2020
1210 Clouds 24 1010 75 0 2.7 200 14:23 13.03.2020
1211 Rain 24 1012 83 0 1.85 203 13:58 13.03.2020
1212 Rain 24 1012 83 0 1.85 203 13:40 13.03.2020
1213 Rain 29 1011 61 0 3.35 189 13:20 13.03.2020
1214 Rain 29 1011 61 0 3.35 189 12:55 13.03.2020
1215 Rain 29 1011 61 0 3.35 189 12:55 13.03.2020
1216 Rain 29 1011 61 0 3.35 189 12:37 13.03.2020
1217 Rain 29 1011 61 0 3.35 189 12:19 13.03.2020
1218 Rain 29 1011 61 0 3.35 189 11:45 13.03.2020
1219 Rain 29 1011 61 0 3.35 189 11:26 13.03.2020
1220 Clouds 25 1015 76 0 1.95 204 10:58 13.03.2020
1221 Clouds 25 1015 76 0 1.95 204 10:39 13.03.2020
1222 Clouds 25 1015 76 0 1.95 204 10:21 13.03.2020
1223 Clouds 25 1015 76 0 1.95 204 09:44 13.03.2020
1224 Clouds 25 1015 76 0 1.95 204 09:25 13.03.2020
1225 Clouds 25 1015 76 0 1.95 204 08:48 13.03.2020
1226 Clouds 25 1015 76 0 1.95 204 08:23 13.03.2020
1227 Rain 22 1013 97 0 1.01 176 07:58 13.03.2020
1228 Rain 22 1013 97 0 1.01 176 07:38 13.03.2020
1229 Rain 22 1013 97 0 1.01 176 07:19 13.03.2020
1230 Rain 22 1013 97 0 1.01 176 06:44 13.03.2020
1231 Rain 22 1013 97 0 1.01 176 06:44 13.03.2020
1232 Rain 22 1013 97 0 1.01 176 06:18 13.03.2020
1233 Rain 22 1013 97 0 1.01 176 05:43 13.03.2020
1234 Rain 21 1010 99 0 1.9 196 04:39 13.03.2020
1235 Rain 21 1010 99 0 1.9 196 03:50 13.03.2020
1236 Rain 22 1011 97 0 1.53 233 01:48 13.03.2020
1237 Rain 22 1011 98 0 1 227 01:19 13.03.2020
1238 Rain 22 1011 98 0 1 227 00:56 13.03.2020
1239 Rain 22 1011 98 0 1 227 00:37 13.03.2020
1240 Rain 22 1011 98 0 1 227 00:18 13.03.2020
1241 Rain 22 1011 98 0 1 227 23:29 12.03.2020
1242 Clouds 22 1012 93 0 1.09 251 22:58 12.03.2020
1243 Clouds 22 1012 93 0 1.09 251 22:40 12.03.2020
1244 Clouds 22 1012 93 0 1.09 251 22:22 12.03.2020
1245 Clouds 22 1012 93 0 1.09 251 21:46 12.03.2020
1246 Clouds 23 1012 88 6000 2.1 0 21:28 12.03.2020
1247 Clouds 23 1012 88 6000 2.1 0 20:59 12.03.2020
1248 Clouds 23 1012 88 6000 2.1 0 20:40 12.03.2020
1249 Clouds 23 1012 88 6000 2.1 0 20:19 12.03.2020
1250 Clouds 23 1011 88 7000 3.1 270 19:42 12.03.2020
1251 Rain 23 1009 96 0 2.04 270 19:20 12.03.2020
1252 Rain 23 1009 96 0 2.04 270 18:45 12.03.2020
1253 Rain 23 1009 96 0 2.04 270 18:45 12.03.2020
1254 Rain 23 1009 96 0 2.04 270 18:25 12.03.2020
1255 Rain 23 1009 96 0 2.04 270 17:57 12.03.2020
1256 Rain 23 1009 96 0 2.04 270 17:39 12.03.2020
1257 Rain 29 1006 65 0 2.53 248 17:20 12.03.2020
1258 Rain 29 1006 65 0 2.53 248 16:56 12.03.2020
1259 Rain 29 1006 65 0 2.53 248 16:38 12.03.2020
1260 Rain 29 1006 65 0 2.53 248 16:19 12.03.2020
1261 Rain 29 1006 65 0 2.53 248 15:45 12.03.2020
1262 Rain 29 1006 65 0 2.53 248 15:27 12.03.2020
1263 Rain 29 1006 65 0 2.53 248 14:42 12.03.2020
1264 Clouds 33 1007 50 0 0.69 297 14:24 12.03.2020
1265 Clouds 33 1007 50 0 0.69 297 13:57 12.03.2020
1266 Clouds 33 1007 50 0 0.69 297 13:36 12.03.2020
1267 Clouds 29 1007 64 0 0.61 308 13:18 12.03.2020
1268 Clouds 29 1007 64 0 0.61 308 12:41 12.03.2020
1269 Clouds 29 1007 64 0 0.61 308 12:41 12.03.2020
1270 Clouds 29 1007 64 0 0.61 308 12:22 12.03.2020
1271 Clouds 29 1007 64 0 0.61 308 11:57 12.03.2020
1272 Clouds 29 1007 64 0 0.61 308 11:38 12.03.2020
1273 Clouds 28 1012 66 0 2.04 79 11:20 12.03.2020
1274 Clouds 28 1012 66 0 2.04 79 10:58 12.03.2020
1275 Clouds 28 1012 66 0 2.04 79 10:58 12.03.2020
1276 Clouds 28 1012 66 0 2.04 79 10:40 12.03.2020
1277 Clouds 28 1012 66 0 2.04 79 10:22 12.03.2020
1278 Clouds 28 1012 66 0 2.04 79 09:46 12.03.2020
1279 Clouds 28 1012 66 0 2.04 79 09:27 12.03.2020
1280 Clouds 28 1012 66 0 2.04 79 08:45 12.03.2020
1281 Clouds 23 1012 93 0 1.68 70 08:20 12.03.2020
1282 Clouds 23 1012 93 0 1.68 70 07:59 12.03.2020
1283 Clouds 23 1012 93 0 1.68 70 07:40 12.03.2020
1284 Clouds 23 1012 93 0 1.68 70 07:21 12.03.2020
1285 Clouds 23 1012 93 0 1.68 70 05:51 12.03.2020
1286 Clouds 23 1012 93 0 1.68 70 05:26 12.03.2020
1287 Clouds 22 1008 98 0 0.53 62 02:43 12.03.2020
1288 Rain 22 1009 98 0 1.59 94 01:36 12.03.2020
1289 Rain 22 1009 97 0 1.34 91 01:18 12.03.2020
1290 Rain 22 1009 97 0 1.34 91 00:40 12.03.2020
1291 Rain 22 1009 97 0 1.34 91 23:51 11.03.2020
1292 Rain 22 1009 97 0 1.34 91 23:26 11.03.2020
1293 Rain 23 1010 92 0 0.54 142 22:55 11.03.2020
1294 Rain 23 1010 92 0 0.54 142 22:37 11.03.2020
1295 Rain 23 1010 92 0 0.54 142 22:18 11.03.2020
1296 Rain 23 1010 92 0 0.54 142 21:41 11.03.2020
1297 Rain 23 1010 92 0 0.54 142 21:23 11.03.2020
1298 Rain 23 1010 92 0 0.54 142 20:58 11.03.2020
1299 Rain 23 1010 92 0 0.54 142 20:40 11.03.2020
1300 Clouds 25 1006 75 0 1 162 20:20 11.03.2020
1301 Clouds 25 1006 75 0 1 162 19:57 11.03.2020
1302 Clouds 25 1006 75 0 1 162 19:38 11.03.2020
1303 Clouds 25 1006 75 0 1 162 19:20 11.03.2020
1304 Clouds 25 1006 75 0 1 162 18:43 11.03.2020
1305 Clouds 25 1006 75 0 1 162 18:24 11.03.2020
1306 Clouds 25 1006 75 0 1 162 17:59 11.03.2020
1307 Clouds 25 1006 75 0 1 162 17:39 11.03.2020
1308 Clouds 31 1003 52 0 1.54 244 17:21 11.03.2020
1309 Clouds 31 1003 52 0 1.54 244 16:47 11.03.2020
1310 Clouds 31 1003 52 0 1.54 244 16:24 11.03.2020
1311 Clouds 31 1003 52 0 1.54 244 15:59 11.03.2020
1312 Clouds 31 1003 52 0 1.54 244 15:59 11.03.2020
1313 Clouds 31 1003 52 0 1.54 244 15:41 11.03.2020
1314 Clouds 31 1003 52 0 1.54 244 15:22 11.03.2020
1315 Clouds 31 1003 52 0 1.54 244 14:44 11.03.2020
1316 Clouds 31 1003 52 0 1.54 244 14:23 11.03.2020
1317 Clouds 31 1006 55 0 1.75 166 13:57 11.03.2020
1318 Clouds 31 1006 55 0 1.75 166 13:38 11.03.2020
1319 Clouds 29 1006 59 0 1.85 186 13:20 11.03.2020
1320 Clouds 29 1006 59 0 1.85 186 12:40 11.03.2020
1321 Clouds 29 1006 59 0 1.85 186 12:20 11.03.2020
1322 Clouds 29 1006 59 0 1.85 186 11:56 11.03.2020
1323 Clouds 29 1006 59 0 1.85 186 11:37 11.03.2020
1324 Clouds 30 1010 56 0 2.65 163 11:19 11.03.2020
1325 Clouds 30 1010 56 0 2.65 163 10:42 11.03.2020
1326 Clouds 30 1010 56 0 2.65 163 10:19 11.03.2020
1327 Clouds 30 1010 56 0 2.65 163 09:43 11.03.2020
1328 Clouds 30 1010 56 0 2.65 163 09:25 11.03.2020
1329 Clouds 30 1010 56 0 2.65 163 08:58 11.03.2020
1330 Clouds 30 1010 56 0 2.65 163 08:40 11.03.2020
1331 Rain 22 1011 96 0 2.54 148 08:19 11.03.2020
1332 Rain 23 1011 95 0 1.62 128 07:43 11.03.2020
1333 Rain 23 1011 95 0 1.62 128 07:19 11.03.2020
1334 Rain 23 1011 95 0 1.62 128 06:44 11.03.2020
1335 Rain 23 1011 95 0 1.62 128 05:36 11.03.2020
1336 Rain 21 1008 98 0 1.84 183 04:31 11.03.2020
1337 Rain 21 1008 98 0 1.84 183 02:24 11.03.2020
1338 Rain 21 1009 98 0 0.96 135 01:27 11.03.2020
1339 Rain 21 1009 96 0 1.46 178 00:46 11.03.2020
1340 Rain 21 1009 96 0 1.46 178 23:58 10.03.2020
1341 Rain 21 1009 96 0 1.46 178 23:40 10.03.2020
1342 Rain 21 1009 96 0 1.46 178 23:21 10.03.2020
1343 Clouds 24 1010 84 0 2.03 138 22:39 10.03.2020
1344 Clouds 24 1010 84 0 2.03 138 22:20 10.03.2020
1345 Clouds 24 1010 84 0 2.03 138 21:57 10.03.2020
1346 Clouds 24 1010 84 0 2.03 138 21:39 10.03.2020
1347 Clouds 24 1010 84 0 2.03 138 21:20 10.03.2020
1348 Clouds 24 1010 84 0 2.03 138 20:59 10.03.2020
1349 Clouds 24 1010 84 0 2.03 138 20:41 10.03.2020
1350 Clouds 25 1007 77 0 1.37 149 20:18 10.03.2020
1351 Clouds 25 1007 77 0 1.37 149 19:57 10.03.2020
1352 Clouds 25 1007 77 0 1.37 149 19:57 10.03.2020
1353 Clouds 25 1007 77 0 1.37 149 19:37 10.03.2020
1354 Clouds 25 1007 77 0 1.37 149 19:19 10.03.2020
1355 Clouds 25 1007 77 0 1.37 149 18:44 10.03.2020
1356 Clouds 25 1007 77 0 1.37 149 18:26 10.03.2020
1357 Clouds 25 1007 77 0 1.37 149 17:57 10.03.2020
1358 Clouds 25 1007 77 0 1.37 149 17:39 10.03.2020
1359 Clouds 30 1004 56 0 1.83 190 17:21 10.03.2020
1360 Clouds 30 1004 56 0 1.83 190 16:39 10.03.2020
1361 Clouds 30 1004 56 0 1.83 190 16:19 10.03.2020
1362 Clouds 30 1004 56 0 1.83 190 16:19 10.03.2020
1363 Clouds 30 1004 56 0 1.83 190 15:56 10.03.2020
1364 Clouds 30 1004 56 0 1.83 190 15:37 10.03.2020
1365 Clouds 30 1004 56 0 1.83 190 15:19 10.03.2020
1366 Clouds 30 1004 56 0 1.83 190 14:41 10.03.2020
1367 Clouds 32 1007 51 0 2.72 180 14:20 10.03.2020
1368 Clouds 32 1007 51 0 2.72 180 13:59 10.03.2020
1369 Clouds 32 1007 51 0 2.72 180 13:41 10.03.2020
1370 Clouds 32 1006 48 0 2.43 181 13:22 10.03.2020
1371 Clouds 32 1006 48 0 2.43 181 12:42 10.03.2020
1372 Clouds 32 1006 48 0 2.43 181 12:21 10.03.2020
1373 Clouds 32 1006 48 0 2.43 181 11:59 10.03.2020
1374 Clouds 32 1006 48 0 2.43 181 11:41 10.03.2020
1375 Clouds 32 1006 48 0 2.43 181 11:22 10.03.2020
1376 Clouds 27 1010 69 0 2.25 175 10:43 10.03.2020
1377 Clouds 27 1010 69 0 2.25 175 10:43 10.03.2020
1378 Clouds 27 1010 69 0 2.25 175 10:23 10.03.2020
1379 Clouds 27 1010 69 0 2.25 175 09:59 10.03.2020
1380 Clouds 27 1010 69 0 2.25 175 09:41 10.03.2020
1381 Clouds 27 1010 69 0 2.25 175 09:19 10.03.2020
1382 Clouds 27 1010 69 0 2.25 175 08:51 10.03.2020
1383 Clouds 27 1010 69 0 2.25 175 08:33 10.03.2020
1384 Clouds 23 1011 94 0 1.44 186 07:51 10.03.2020
1385 Clouds 23 1011 94 0 1.44 186 07:32 10.03.2020
1386 Clouds 23 1011 94 0 1.44 186 06:48 10.03.2020
1387 Clouds 23 1011 94 0 1.44 186 06:30 10.03.2020
1388 Clouds 23 1011 94 0 1.44 186 05:42 10.03.2020
1389 Rain 22 1009 98 0 2.23 143 04:53 10.03.2020
1390 Rain 22 1009 98 0 2.23 143 04:24 10.03.2020
1391 Rain 22 1009 98 0 2.23 143 02:44 10.03.2020
1392 Rain 22 1010 99 0 0.79 263 01:30 10.03.2020
1393 Rain 21 1009 98 0 2.54 121 00:47 10.03.2020
1394 Rain 21 1009 98 0 2.54 121 00:27 10.03.2020
1395 Rain 21 1009 98 0 2.54 121 23:41 09.03.2020
1396 Rain 21 1009 98 0 2.54 121 23:22 09.03.2020
1397 Rain 22 1010 95 0 0.94 226 22:55 09.03.2020
1398 Rain 22 1010 95 0 0.94 226 22:36 09.03.2020
1399 Rain 22 1010 95 0 0.94 226 22:18 09.03.2020
1400 Rain 22 1010 95 0 0.94 226 21:41 09.03.2020
1401 Rain 22 1010 95 0 0.94 226 21:21 09.03.2020
1402 Rain 22 1010 95 0 0.94 226 20:58 09.03.2020
1403 Rain 22 1010 95 0 0.94 226 20:39 09.03.2020
1404 Clouds 26 1008 69 0 1.21 195 20:20 09.03.2020
1405 Clouds 26 1008 69 0 1.21 195 19:45 09.03.2020
1406 Clouds 26 1008 69 0 1.21 195 19:25 09.03.2020
1407 Clouds 26 1008 69 0 1.21 195 18:58 09.03.2020
1408 Clouds 26 1008 69 0 1.21 195 18:58 09.03.2020
1409 Clouds 26 1008 69 0 1.21 195 18:39 09.03.2020
1410 Clouds 26 1008 69 0 1.21 195 18:20 09.03.2020
1411 Clouds 26 1008 69 0 1.21 195 17:58 09.03.2020
1412 Clouds 26 1008 69 0 1.21 195 17:38 09.03.2020
1413 Clouds 26 1008 69 0 1.21 195 17:38 09.03.2020
1414 Clouds 32 1005 45 0 1.14 206 17:20 09.03.2020
1415 Clouds 32 1005 45 0 1.14 206 16:58 09.03.2020
1416 Clouds 32 1005 45 0 1.14 206 16:40 09.03.2020
1417 Clouds 32 1005 45 0 1.14 206 16:40 09.03.2020
1418 Clouds 32 1005 45 0 1.14 206 16:22 09.03.2020
1419 Clouds 32 1005 45 0 1.14 206 16:22 09.03.2020
1420 Clouds 32 1005 45 0 1.14 206 15:58 09.03.2020
1421 Clouds 32 1005 45 0 1.14 206 15:39 09.03.2020
1422 Clouds 32 1005 45 0 1.14 206 15:20 09.03.2020
1423 Clouds 32 1005 45 0 1.14 206 14:55 09.03.2020
1424 Clouds 32 1005 45 0 1.14 206 14:37 09.03.2020
1425 Clouds 31 1007 51 0 1.78 195 14:18 09.03.2020
1426 Clouds 31 1007 51 0 1.78 195 13:55 09.03.2020
1427 Clouds 31 1007 51 0 1.78 195 13:37 09.03.2020
1428 Clouds 33 1007 44 0 2.23 177 13:18 09.03.2020
1429 Clouds 31 1007 51 0 1.78 195 13:18 09.03.2020
1430 Clouds 33 1007 44 0 2.23 177 12:42 09.03.2020
1431 Clouds 33 1007 44 0 2.23 177 12:22 09.03.2020
1432 Clouds 33 1007 44 0 2.23 177 12:22 09.03.2020
1433 Clouds 33 1007 44 0 2.23 177 11:54 09.03.2020
1434 Clouds 33 1007 44 0 2.23 177 11:36 09.03.2020
1435 Clouds 29 1012 58 0 2.05 163 11:18 09.03.2020
1436 Clouds 29 1012 58 0 2.05 163 10:54 09.03.2020
1437 Clouds 29 1012 58 0 2.05 163 10:54 09.03.2020
1438 Clouds 29 1012 58 0 2.05 163 10:36 09.03.2020
1439 Clouds 29 1012 58 0 2.05 163 10:18 09.03.2020
1440 Clouds 29 1012 58 0 2.05 163 09:38 09.03.2020
1441 Clouds 29 1012 58 0 2.05 163 09:19 09.03.2020
1442 Clouds 29 1012 58 0 2.05 163 08:44 09.03.2020
1443 Clouds 29 1012 58 0 2.05 163 08:25 09.03.2020
1444 Clouds 22 1012 94 0 1.38 194 07:41 09.03.2020
1445 Clouds 22 1012 94 0 1.38 194 07:22 09.03.2020
1446 Clouds 22 1012 94 0 1.38 194 06:46 09.03.2020
1447 Clouds 22 1012 94 0 1.38 194 06:26 09.03.2020
1448 Clouds 22 1012 94 0 1.38 194 05:57 09.03.2020
1449 Clouds 22 1012 94 0 1.38 194 05:39 09.03.2020
1450 Clouds 21 1010 99 0 1.09 180 04:43 09.03.2020
1451 Clouds 21 1010 99 0 1.09 180 04:22 09.03.2020
1452 Clouds 21 1010 99 0 1.09 180 03:21 09.03.2020
1453 Rain 21 1010 99 0 0.9 106 01:49 09.03.2020
1454 Rain 21 1010 98 0 0.67 122 00:39 09.03.2020
1455 Rain 21 1010 98 0 0.67 122 00:21 09.03.2020
1456 Rain 21 1010 98 0 0.67 122 23:52 08.03.2020
1457 Rain 21 1010 98 0 0.67 122 23:25 08.03.2020
1458 Clouds 21 1012 96 0 0.57 105 22:58 08.03.2020
1459 Clouds 21 1012 96 0 0.57 105 22:39 08.03.2020
1460 Clouds 21 1012 96 0 0.57 105 22:20 08.03.2020
1461 Clouds 21 1012 96 0 0.57 105 21:56 08.03.2020
1462 Clouds 21 1012 96 0 0.57 105 21:56 08.03.2020
1463 Clouds 21 1012 96 0 0.57 105 21:38 08.03.2020
1464 Clouds 21 1012 96 0 0.57 105 21:19 08.03.2020
1465 Clouds 21 1012 96 0 0.57 105 20:40 08.03.2020
1466 Clouds 21 1012 96 0 0.57 105 20:40 08.03.2020
1467 Clouds 21 1012 96 0 0.57 105 20:21 08.03.2020
1468 Clouds 21 1012 96 0 0.57 105 20:21 08.03.2020
1469 Clouds 21 1009 98 0 0.52 48 19:57 08.03.2020
1470 Clouds 21 1009 98 0 0.52 48 19:37 08.03.2020
1471 Clouds 21 1009 98 0 0.52 48 19:19 08.03.2020
1472 Clouds 21 1009 98 0 0.52 48 18:42 08.03.2020
1473 Clouds 21 1009 98 0 0.52 48 18:24 08.03.2020
1474 Clouds 21 1009 98 0 0.52 48 17:56 08.03.2020
1475 Clouds 21 1009 98 0 0.52 48 17:38 08.03.2020
1476 Rain 23 1008 92 0 1.51 276 17:19 08.03.2020
1477 Rain 23 1008 92 0 1.51 276 16:46 08.03.2020
1478 Rain 23 1008 92 0 1.51 276 16:28 08.03.2020
1479 Rain 23 1008 92 0 1.51 276 15:58 08.03.2020
1480 Rain 23 1008 92 0 1.51 276 15:39 08.03.2020
1481 Rain 23 1008 92 0 1.51 276 15:20 08.03.2020
1482 Rain 23 1008 92 0 1.51 276 14:41 08.03.2020
1483 Rain 23 1008 92 0 1.51 276 14:21 08.03.2020
1484 Rain 23 1008 92 0 1.51 276 14:21 08.03.2020
1485 Rain 23 1010 93 0 2.65 247 13:58 08.03.2020
1486 Rain 23 1010 93 0 2.65 247 13:39 08.03.2020
1487 Rain 25 1010 85 0 3.22 206 13:19 08.03.2020
1488 Rain 25 1010 85 0 3.22 206 12:41 08.03.2020
1489 Rain 25 1010 85 0 3.22 206 12:23 08.03.2020
1490 Rain 25 1010 85 0 3.22 206 11:56 08.03.2020
1491 Rain 25 1010 85 0 3.22 206 11:37 08.03.2020
1492 Rain 25 1010 85 0 3.22 206 11:37 08.03.2020
1493 Rain 24 1013 93 0 2.03 233 11:19 08.03.2020
1494 Rain 24 1013 93 0 2.03 233 10:41 08.03.2020
1495 Rain 24 1013 93 0 2.03 233 10:23 08.03.2020
1496 Rain 24 1013 93 0 2.03 233 09:43 08.03.2020
1497 Rain 24 1013 93 0 2.03 233 09:25 08.03.2020
1498 Rain 24 1013 93 0 2.03 233 08:54 08.03.2020
1499 Rain 24 1013 93 0 2.03 233 08:36 08.03.2020
1500 Rain 23 1011 97 0 1.15 217 08:18 08.03.2020
1501 Rain 23 1011 97 0 1.15 217 07:41 08.03.2020
1502 Rain 23 1011 97 0 1.15 217 07:22 08.03.2020
1503 Rain 23 1011 97 0 1.15 217 06:42 08.03.2020
1504 Rain 23 1011 97 0 1.15 217 06:22 08.03.2020
1505 Rain 23 1011 97 0 1.15 217 05:28 08.03.2020
1506 Rain 22 1009 98 0 0.77 184 03:51 08.03.2020
1507 Rain 22 1009 98 0 0.77 184 02:29 08.03.2020
1508 Rain 22 1008 97 0 1.51 161 01:23 08.03.2020
1509 Rain 22 1008 97 0 1.71 89 01:23 08.03.2020
1510 Rain 22 1008 97 0 1.51 161 01:23 08.03.2020
1511 Rain 22 1008 97 0 1.51 161 01:23 08.03.2020
1512 Rain 22 1008 97 0 1.71 89 01:23 08.03.2020
1513 Rain 22 1008 97 0 1.51 161 00:44 08.03.2020
1514 Rain 22 1008 97 0 1.51 161 00:25 08.03.2020
1515 Rain 22 1008 97 0 1.51 161 23:44 07.03.2020
1516 Rain 22 1008 97 0 1.51 161 23:23 07.03.2020
1517 Rain 23 1007 88 0 0.14 165 22:41 07.03.2020
1518 Rain 23 1007 88 0 0.14 165 22:22 07.03.2020
1519 Rain 23 1007 88 0 0.14 165 21:49 07.03.2020
1520 Rain 23 1007 88 0 0.14 165 21:26 07.03.2020
1521 Rain 23 1007 88 0 0.14 165 20:57 07.03.2020
1522 Rain 23 1007 88 0 0.14 165 20:38 07.03.2020
1523 Rain 27 1004 61 0 0.48 138 20:19 07.03.2020
1524 Rain 27 1004 61 0 0.48 138 19:41 07.03.2020
1525 Rain 27 1004 61 0 0.48 138 19:22 07.03.2020
1526 Rain 27 1004 61 0 0.48 138 18:46 07.03.2020
1527 Rain 27 1004 61 0 0.48 138 18:27 07.03.2020
1528 Rain 27 1004 61 0 0.48 138 17:57 07.03.2020
1529 Rain 27 1004 61 0 0.48 138 17:39 07.03.2020
1530 Clouds 36 1002 33 0 1.22 123 17:18 07.03.2020
1531 Clouds 36 1002 33 0 1.22 123 16:43 07.03.2020
1532 Clouds 36 1002 33 0 1.22 123 16:23 07.03.2020
1533 Clouds 36 1002 33 0 1.22 123 15:59 07.03.2020
1534 Clouds 36 1002 33 0 1.22 123 15:40 07.03.2020
1535 Clouds 36 1002 33 0 1.22 123 15:40 07.03.2020
1536 Clouds 36 1002 33 0 1.22 123 15:21 07.03.2020
1537 Clouds 36 1002 33 0 1.22 123 14:58 07.03.2020
1538 Clouds 36 1002 33 0 1.22 123 14:39 07.03.2020
1539 Clouds 36 1002 33 0 1.22 123 14:21 07.03.2020
1540 Clouds 38 1004 31 0 1.33 160 13:40 07.03.2020
1541 Clouds 39 1004 29 0 1.25 153 13:21 07.03.2020
1542 Clouds 39 1004 29 0 1.25 153 12:45 07.03.2020
1543 Clouds 39 1004 29 0 1.25 153 12:45 07.03.2020
1544 Clouds 39 1004 29 0 1.25 153 12:23 07.03.2020
1545 Clouds 39 1004 29 0 1.25 153 11:59 07.03.2020
1546 Clouds 39 1004 29 0 1.25 153 11:41 07.03.2020
1547 Clouds 39 1004 29 0 1.25 153 11:23 07.03.2020
1548 Clouds 34 1009 40 0 1.68 170 10:44 07.03.2020
1549 Clouds 34 1009 40 0 1.68 170 10:22 07.03.2020
1550 Clouds 34 1009 40 0 1.68 170 09:59 07.03.2020
1551 Clouds 34 1009 40 0 1.68 170 09:40 07.03.2020
1552 Clouds 34 1009 40 0 1.68 170 09:19 07.03.2020
1553 Clouds 34 1009 40 0 1.68 170 08:56 07.03.2020
1554 Clouds 34 1009 40 0 1.68 170 08:38 07.03.2020
1555 Clouds 24 1010 90 0 1.66 171 08:19 07.03.2020
1556 Clouds 24 1010 90 0 1.66 171 07:44 07.03.2020
1557 Clouds 24 1010 90 0 1.66 171 07:21 07.03.2020
1558 Clouds 24 1010 90 0 1.66 171 06:38 07.03.2020
1559 Clouds 24 1010 90 0 1.66 171 05:57 07.03.2020
1560 Clouds 24 1010 90 0 1.66 171 05:38 07.03.2020
1561 Rain 22 1008 97 0 1.2 190 03:35 07.03.2020
1562 Rain 22 1008 97 0 1.2 190 02:42 07.03.2020
1563 Clouds 24 1007 84 0 1.01 189 01:51 07.03.2020
1564 Clouds 23 1007 88 0 0.59 193 00:43 07.03.2020
1565 Clouds 23 1007 88 0 0.59 193 00:23 07.03.2020
1566 Clouds 23 1007 88 0 0.59 193 23:58 06.03.2020
1567 Clouds 23 1007 88 0 0.59 193 23:38 06.03.2020
1568 Clouds 23 1007 88 0 0.59 193 23:38 06.03.2020
1569 Clouds 24 1008 84 0 1.18 156 23:20 06.03.2020
1570 Clouds 24 1008 84 0 1.18 156 22:44 06.03.2020
1571 Clouds 24 1008 84 0 1.18 156 22:19 06.03.2020
1572 Clouds 24 1008 84 0 1.18 156 21:46 06.03.2020
1573 Clouds 24 1008 84 0 1.18 156 21:20 06.03.2020
1574 Clouds 24 1008 84 0 1.18 156 20:43 06.03.2020
1575 Clouds 25 1008 73 0 1.29 156 20:22 06.03.2020
1576 Clouds 27 1006 63 0 0.94 178 19:57 06.03.2020
1577 Clouds 27 1006 63 0 0.94 178 19:39 06.03.2020
1578 Clouds 27 1006 63 0 0.94 178 19:19 06.03.2020
1579 Clouds 27 1006 63 0 0.94 178 18:42 06.03.2020
1580 Clouds 27 1006 63 0 0.94 178 18:20 06.03.2020
1581 Clouds 27 1006 63 0 0.94 178 17:56 06.03.2020
1582 Clouds 27 1006 63 0 0.94 178 17:38 06.03.2020
1583 Clouds 33 1004 48 0 0.89 220 17:20 06.03.2020
1584 Clouds 33 1004 48 0 0.89 220 16:43 06.03.2020
1585 Clouds 33 1004 48 0 0.89 220 16:22 06.03.2020
1586 Clouds 33 1004 48 0 0.89 220 15:59 06.03.2020
1587 Clouds 33 1004 48 0 0.89 220 15:40 06.03.2020
1588 Clouds 33 1004 48 0 0.89 220 15:21 06.03.2020
1589 Clouds 33 1004 48 0 0.89 220 14:40 06.03.2020
1590 Clouds 33 1004 48 0 0.89 220 14:22 06.03.2020
1591 Clouds 37 1006 33 0 1.51 161 13:55 06.03.2020
1592 Clouds 37 1006 33 0 1.51 161 13:36 06.03.2020
1593 Clouds 37 1006 33 0 1.51 161 13:18 06.03.2020
1594 Clear 37 1005 32 0 1.5 171 12:40 06.03.2020
1595 Clear 37 1005 32 0 1.5 171 12:20 06.03.2020
1596 Clear 37 1005 32 0 1.5 171 11:59 06.03.2020
1597 Clear 37 1005 32 0 1.5 171 11:40 06.03.2020
1598 Clouds 32 1011 51 0 2.23 146 11:20 06.03.2020
1599 Clouds 32 1011 51 0 2.23 146 10:42 06.03.2020
1600 Clouds 32 1011 51 0 2.23 146 10:21 06.03.2020
1601 Clouds 32 1011 51 0 2.23 146 09:59 06.03.2020
1602 Clouds 32 1011 51 0 2.23 146 09:40 06.03.2020
1603 Clouds 32 1011 51 0 2.23 146 09:22 06.03.2020
1604 Clouds 32 1011 51 0 2.23 146 08:47 06.03.2020
1605 Clouds 32 1011 51 0 2.23 146 08:28 06.03.2020
1606 Rain 23 1012 89 0 2.42 131 07:59 06.03.2020
1607 Rain 23 1012 89 0 2.42 131 07:39 06.03.2020
1608 Rain 23 1012 89 0 2.42 131 07:20 06.03.2020
1609 Rain 23 1012 89 0 2.42 131 06:41 06.03.2020
1610 Rain 23 1012 89 0 2.42 131 05:52 06.03.2020
1611 Rain 23 1012 89 0 2.42 131 05:31 06.03.2020
1612 Rain 22 1009 90 0 2.2 131 04:59 06.03.2020
1613 Rain 22 1009 90 0 2.2 131 03:58 06.03.2020
1614 Clouds 23 1008 77 0 1.04 194 01:42 06.03.2020
1615 Clouds 25 1008 64 0 1.02 189 01:24 06.03.2020
1616 Clouds 25 1008 64 0 1.02 189 00:47 06.03.2020
1617 Clouds 25 1008 64 0 1.02 189 00:20 06.03.2020
1618 Clouds 25 1008 64 0 1.02 189 23:43 05.03.2020
1619 Clouds 25 1008 64 0 1.02 189 23:23 05.03.2020
1620 Clouds 26 1008 56 0 0.81 184 22:41 05.03.2020
1621 Clouds 26 1008 56 0 0.81 184 22:23 05.03.2020
1622 Clouds 26 1008 56 0 0.81 184 21:58 05.03.2020
1623 Clouds 26 1008 56 0 0.81 184 21:39 05.03.2020
1624 Clouds 26 1008 56 0 0.81 184 21:21 05.03.2020
1625 Clouds 26 1008 56 0 0.81 184 20:59 05.03.2020
1626 Clouds 26 1008 56 0 0.81 184 20:41 05.03.2020
1627 Clouds 28 1006 49 0 0.87 240 20:20 05.03.2020
1628 Clouds 28 1006 49 0 0.87 240 19:58 05.03.2020
1629 Clouds 28 1006 49 0 0.87 240 19:39 05.03.2020
1630 Clouds 28 1006 49 0 0.87 240 19:20 05.03.2020
1631 Clouds 28 1006 49 0 0.87 240 18:58 05.03.2020
1632 Clouds 28 1006 49 0 0.87 240 18:37 05.03.2020
1633 Clouds 28 1006 49 0 0.87 240 18:18 05.03.2020
1634 Clouds 28 1006 49 0 0.87 240 17:55 05.03.2020
1635 Clouds 28 1006 49 0 0.87 240 17:37 05.03.2020
1636 Clouds 37 1004 29 0 0.48 30 17:18 05.03.2020
1637 Clouds 37 1004 29 0 0.48 30 16:41 05.03.2020
1638 Clouds 37 1004 29 0 0.48 30 16:22 05.03.2020
1639 Clouds 37 1004 29 0 0.48 30 15:54 05.03.2020
1640 Clouds 37 1004 29 0 0.48 30 15:36 05.03.2020
1641 Clouds 37 1004 29 0 0.48 30 15:18 05.03.2020
1642 Clouds 37 1004 29 0 0.48 30 14:41 05.03.2020
1643 Clouds 37 1004 29 0 0.48 30 14:22 05.03.2020
1644 Clear 39 1006 27 0 1.5 52 13:58 05.03.2020
1645 Clear 39 1006 27 0 1.5 52 13:39 05.03.2020
1646 Clear 39 1007 27 0 1.3 71 13:20 05.03.2020
1647 Clear 39 1007 27 0 1.3 71 12:55 05.03.2020
1648 Clear 39 1007 27 0 1.3 71 12:36 05.03.2020
1649 Clear 39 1007 27 0 1.3 71 12:18 05.03.2020
1650 Clear 39 1007 27 0 1.3 71 11:55 05.03.2020
1651 Clear 39 1007 27 0 1.3 71 11:36 05.03.2020
1652 Clear 33 1011 45 0 1.96 135 11:18 05.03.2020
1653 Clear 33 1011 45 0 1.96 135 10:55 05.03.2020
1654 Clear 33 1011 45 0 1.96 135 10:37 05.03.2020
1655 Clear 33 1011 45 0 1.96 135 10:19 05.03.2020
1656 Clear 33 1011 45 0 1.96 135 09:40 05.03.2020
1657 Clear 33 1011 45 0 1.96 135 09:22 05.03.2020
1658 Clear 33 1011 45 0 1.96 135 08:43 05.03.2020
1659 Clear 33 1011 45 0 1.96 135 08:24 05.03.2020
1660 Clouds 25 1012 74 0 1.5 148 07:45 05.03.2020
1661 Clouds 25 1012 74 0 1.5 148 07:22 05.03.2020
1662 Clouds 25 1012 74 0 1.5 148 06:46 05.03.2020
1663 Clouds 25 1012 74 0 1.5 148 06:46 05.03.2020
1664 Clouds 25 1012 74 0 1.5 148 06:21 05.03.2020
1665 Clouds 25 1012 74 0 1.5 148 05:38 05.03.2020
1666 Clouds 22 1010 90 0 1.21 167 04:25 05.03.2020
1667 Clouds 22 1010 90 0 1.21 167 03:59 05.03.2020
1668 Clouds 22 1010 90 0 1.21 167 03:18 05.03.2020
1669 Clouds 24 1010 86 0 1.27 175 01:28 05.03.2020
1670 Clouds 23 1010 88 0 1.62 166 00:58 05.03.2020
1671 Clouds 23 1010 88 0 1.62 166 23:59 04.03.2020
1672 Clouds 23 1010 88 0 1.62 166 23:40 04.03.2020
1673 Clouds 24 1011 87 0 1.36 129 23:22 04.03.2020
1674 Clouds 24 1011 87 0 1.36 129 22:56 04.03.2020
1675 Clouds 24 1011 87 0 1.36 129 22:37 04.03.2020
1676 Clouds 24 1011 87 0 1.36 129 22:19 04.03.2020
1677 Clouds 24 1011 87 0 1.36 129 21:56 04.03.2020
1678 Clouds 24 1011 87 0 1.36 129 21:38 04.03.2020
1679 Clouds 24 1011 87 0 1.36 129 21:18 04.03.2020
1680 Clouds 24 1011 87 0 1.36 129 20:40 04.03.2020
1681 Clouds 23 1011 94 0 0.93 181 20:22 04.03.2020
1682 Rain 25 1011 86 0 1.61 116 19:58 04.03.2020
1683 Rain 25 1011 86 0 1.61 116 19:40 04.03.2020
1684 Rain 25 1011 86 0 1.61 116 19:22 04.03.2020
1685 Rain 25 1011 86 0 1.61 116 18:42 04.03.2020
1686 Rain 25 1011 86 0 1.61 116 18:42 04.03.2020
1687 Rain 25 1011 86 0 1.61 116 18:24 04.03.2020
1688 Rain 25 1011 86 0 1.61 116 17:59 04.03.2020
1689 Rain 25 1011 86 0 1.61 116 17:39 04.03.2020
1690 Clouds 31 1008 56 0 2.76 177 17:20 04.03.2020
1691 Clouds 31 1008 56 0 2.76 177 16:56 04.03.2020
1692 Clouds 31 1008 56 0 2.76 177 16:37 04.03.2020
1693 Clouds 31 1008 56 0 2.76 177 16:19 04.03.2020
1694 Clouds 31 1008 56 0 2.76 177 15:45 04.03.2020
1695 Clouds 31 1008 56 0 2.76 177 15:26 04.03.2020
1696 Clouds 31 1008 56 0 2.76 177 14:59 04.03.2020
1697 Clouds 31 1008 56 0 2.76 177 14:40 04.03.2020
1698 Clouds 34 1009 44 0 1.55 185 14:20 04.03.2020
1699 Clouds 34 1009 44 0 1.55 185 13:58 04.03.2020
1700 Clouds 34 1009 44 0 1.55 185 13:39 04.03.2020
1701 Rain 33 1009 50 0 2.25 182 13:20 04.03.2020
1702 Rain 33 1009 50 0 2.25 182 12:55 04.03.2020
1703 Rain 33 1009 50 0 2.25 182 12:37 04.03.2020
1704 Rain 33 1009 50 0 2.25 182 12:19 04.03.2020
1705 Rain 33 1009 50 0 2.25 182 11:42 04.03.2020
1706 Rain 33 1009 50 0 2.25 182 11:42 04.03.2020
1707 Rain 33 1009 50 0 2.25 182 11:42 04.03.2020
1708 Clouds 31 1013 53 0 2.45 171 11:23 04.03.2020
1709 Clouds 31 1013 53 0 2.45 171 10:58 04.03.2020
1710 Clouds 31 1013 53 0 2.45 171 10:40 04.03.2020
1711 Clouds 31 1013 53 0 2.45 171 10:21 04.03.2020
1712 Clouds 31 1013 53 0 2.45 171 09:43 04.03.2020
1713 Clouds 31 1013 53 0 2.45 171 09:21 04.03.2020
1714 Clouds 31 1013 53 0 2.45 171 08:49 04.03.2020
1715 Clouds 31 1013 53 0 2.45 171 08:28 04.03.2020
1716 Clouds 23 1014 93 0 1.97 154 07:57 04.03.2020
1717 Clouds 23 1014 93 0 1.97 154 07:39 04.03.2020
1718 Clouds 23 1014 93 0 1.97 154 07:20 04.03.2020
1719 Clouds 23 1014 93 0 1.97 154 06:44 04.03.2020
1720 Clouds 23 1014 93 0 1.97 154 06:23 04.03.2020
1721 Clouds 23 1014 93 0 1.97 154 05:50 04.03.2020
1722 Clouds 22 1012 98 0 0.88 149 04:34 04.03.2020
1723 Clouds 22 1012 98 0 0.88 149 03:44 04.03.2020
1724 Clouds 22 1012 98 0 0.88 149 03:25 04.03.2020
1725 Clouds 22 1012 98 0 0.88 149 02:55 04.03.2020
1726 Clouds 22 1012 98 0 0.88 149 02:21 04.03.2020
1727 Rain 22 1012 97 0 1.11 195 01:55 04.03.2020
1728 Rain 22 1012 98 0 1.93 213 00:53 04.03.2020
1729 Rain 22 1012 98 0 1.93 213 00:27 04.03.2020
1730 Rain 22 1012 98 0 1.93 213 23:48 03.03.2020
1731 Rain 22 1012 98 0 1.93 213 23:28 03.03.2020
1732 Rain 22 1013 94 0 1.6 175 22:59 03.03.2020
1733 Rain 22 1013 94 0 1.6 175 22:40 03.03.2020
1734 Rain 22 1013 94 0 1.6 175 22:20 03.03.2020
1735 Rain 22 1013 94 0 1.6 175 21:58 03.03.2020
1736 Rain 22 1013 94 0 1.6 175 21:39 03.03.2020
1737 Rain 22 1013 94 0 1.6 175 21:20 03.03.2020
1738 Rain 22 1013 94 0 1.6 175 20:55 03.03.2020
1739 Rain 22 1013 94 0 1.6 175 20:55 03.03.2020
1740 Rain 22 1013 94 0 1.6 175 20:36 03.03.2020
1741 Clouds 29 1009 48 0 0.86 225 20:18 03.03.2020
1742 Clouds 27 1011 64 0 1.7 227 20:18 03.03.2020
1743 Clouds 28 1009 51 0 1.23 192 20:18 03.03.2020
1744 Clouds 28 1009 51 0 1.23 192 19:54 03.03.2020
1745 Clouds 28 1009 51 0 1.23 192 19:36 03.03.2020
1746 Clouds 28 1009 51 0 1.23 192 19:18 03.03.2020
1747 Clouds 28 1009 51 0 1.23 192 18:42 03.03.2020
1748 Clouds 28 1009 51 0 1.23 192 18:22 03.03.2020
1749 Clouds 29 1009 48 0 0.86 225 18:00 03.03.2020
1750 Clouds 28 1009 51 0 1.23 192 17:40 03.03.2020
1751 Clouds 29 1009 48 0 0.86 225 17:21 03.03.2020
1752 Clouds 28 1009 51 0 1.23 192 17:21 03.03.2020
1753 Clouds 35 1005 34 0 1.06 296 16:58 03.03.2020
1754 Clouds 35 1005 34 0 1.06 296 16:38 03.03.2020
1755 Clouds 35 1005 34 0 1.06 296 16:38 03.03.2020
1756 Clouds 35 1006 34 0 1.77 274 16:38 03.03.2020
1757 Clouds 35 1005 34 0 1.06 296 16:20 03.03.2020
1758 -273 0 0 0 0 0 15:57 03.03.2020
1759 Clouds 35 1006 34 0 1.77 274 15:57 03.03.2020
1760 Clouds 35 1005 34 0 1.06 296 15:38 03.03.2020
1761 Clouds 35 1006 34 0 1.77 274 15:18 03.03.2020
1762 Clouds 35 1006 34 0 1.77 274 14:41 03.03.2020
1763 Clouds 35 1006 34 0 1.77 274 14:41 03.03.2020
1764 Clouds 38 1007 27 0 1.3 267 14:19 03.03.2020
1765 Clouds 38 1007 26 0 1.29 291 13:57 03.03.2020
1766 Clouds 38 1007 26 0 1.29 291 13:39 03.03.2020
1767 Clouds 38 1007 26 0 1.29 291 13:19 03.03.2020
1768 Clouds 38 1007 26 0 1.29 291 12:47 03.03.2020
1769 Clouds 38 1007 26 0 1.29 291 12:26 03.03.2020
1770 Clouds 38 1007 26 0 1.29 291 11:57 03.03.2020
1771 Clouds 38 1007 26 0 1.29 291 11:37 03.03.2020
1772 Clouds 35 1011 38 0 1.2 241 11:18 03.03.2020
1773 Clouds 35 1011 38 0 1.2 241 10:55 03.03.2020
1774 Clouds 35 1011 38 0 1.2 241 10:37 03.03.2020
1775 Clouds 35 1011 38 0 1.2 241 10:18 03.03.2020
1776 Clouds 35 1011 38 0 1.2 241 09:43 03.03.2020
1777 Clouds 35 1011 38 0 1.2 241 09:43 03.03.2020
1778 Clouds 35 1011 38 0 1.2 241 09:22 03.03.2020
1779 Clouds 35 1011 38 0 1.2 241 08:56 03.03.2020
1780 Clouds 35 1011 38 0 1.2 241 08:37 03.03.2020
1781 Clouds 25 1012 70 0 0.8 197 08:19 03.03.2020
1782 Clouds 25 1012 70 0 0.77 196 07:42 03.03.2020
1783 Clouds 25 1012 70 0 0.77 196 07:19 03.03.2020
1784 Clouds 25 1012 70 0 0.77 196 06:41 03.03.2020
1785 Clouds 25 1012 70 0 0.77 196 06:22 03.03.2020
1786 Clouds 25 1012 70 0 0.77 196 06:22 03.03.2020
1787 Clouds 25 1012 70 0 0.77 196 05:46 03.03.2020
1788 Clouds 22 1010 85 0 0.71 205 04:57 03.03.2020
1789 Clouds 22 1010 85 0 0.71 205 03:52 03.03.2020
1790 Clouds 23 1011 79 0 1.11 189 01:40 03.03.2020
1791 Clouds 23 1010 80 0 1.16 220 00:48 03.03.2020
1792 Clouds 23 1010 80 0 1.16 220 00:26 03.03.2020
1793 Clouds 23 1010 80 0 1.16 220 23:52 02.03.2020
1794 Clouds 23 1010 80 0 1.16 220 23:24 02.03.2020
1795 Clouds 24 1011 76 0 0.87 203 22:58 02.03.2020
1796 Clouds 24 1011 76 0 0.87 203 22:39 02.03.2020
1797 Clouds 24 1011 76 0 0.87 203 22:20 02.03.2020
1798 Clouds 24 1011 76 0 0.87 203 21:59 02.03.2020
1799 Clouds 24 1011 76 0 0.87 203 21:39 02.03.2020
1800 Clouds 24 1011 76 0 0.87 203 21:21 02.03.2020
1801 Clouds 24 1011 76 0 0.87 203 20:58 02.03.2020
1802 Clouds 24 1011 76 0 0.87 203 20:38 02.03.2020
1803 Rain 22 1009 93 0 1.77 197 20:20 02.03.2020
1804 Rain 22 1009 93 0 1.77 197 19:55 02.03.2020
1805 Rain 22 1009 93 0 1.77 197 19:37 02.03.2020
1806 Rain 22 1009 93 0 1.77 197 19:18 02.03.2020
1807 Rain 22 1009 93 0 1.77 197 18:44 02.03.2020
1808 Rain 22 1009 93 0 1.77 197 18:20 02.03.2020
1809 Rain 22 1009 93 0 1.77 197 17:59 02.03.2020
1810 Rain 22 1009 93 0 1.77 197 17:40 02.03.2020
1811 Clouds 32 1007 50 0 0.95 278 17:21 02.03.2020
1812 Clouds 32 1007 50 0 0.95 278 16:55 02.03.2020
1813 Clouds 32 1007 50 0 0.95 278 16:36 02.03.2020
1814 Clouds 32 1007 50 0 0.95 278 16:18 02.03.2020
1815 Clouds 32 1007 50 0 0.95 278 15:43 02.03.2020
1816 Clouds 32 1007 50 0 0.95 278 15:20 02.03.2020
1817 Clouds 32 1007 50 0 0.95 278 14:42 02.03.2020
1818 Clouds 36 1009 38 0 0.28 231 14:20 02.03.2020
1819 Clouds 36 1009 38 0 0.28 231 13:59 02.03.2020
1820 Clouds 36 1009 38 0 0.28 231 13:39 02.03.2020
1821 Clouds 36 1009 40 0 0.9 183 13:18 02.03.2020
1822 Clouds 36 1009 40 0 0.9 183 12:44 02.03.2020
1823 Clouds 36 1009 40 0 0.9 183 12:20 02.03.2020
1824 Clouds 36 1009 40 0 0.9 183 11:56 02.03.2020
1825 Clouds 36 1009 40 0 0.9 183 11:37 02.03.2020
1826 Clouds 27 1014 69 0 1.19 161 11:18 02.03.2020
1827 Clouds 27 1014 69 0 1.19 161 10:42 02.03.2020
1828 Clouds 27 1014 69 0 1.19 161 10:21 02.03.2020
1829 Clouds 27 1014 69 0 1.19 161 09:59 02.03.2020
1830 Clouds 27 1014 69 0 1.19 161 09:59 02.03.2020
1831 Clouds 27 1014 69 0 1.19 161 09:40 02.03.2020
1832 Clouds 27 1014 69 0 1.19 161 09:22 02.03.2020
1833 Clouds 27 1014 69 0 1.19 161 08:43 02.03.2020
1834 Clouds 26 1014 72 0 1.44 187 08:22 02.03.2020
1835 Rain 22 1014 95 0 1.02 129 07:42 02.03.2020
1836 Rain 22 1014 95 0 1.02 129 07:19 02.03.2020
1837 Rain 22 1014 95 0 1.02 129 06:45 02.03.2020
1838 Rain 22 1014 95 0 1.02 129 05:53 02.03.2020
1839 Clouds 21 1011 97 0 0.04 226 04:25 02.03.2020
1840 Clouds 21 1011 97 0 0.04 226 03:22 02.03.2020
1841 Clouds 21 1011 97 0 0.04 226 02:46 02.03.2020
1842 Rain 21 1011 98 0 1.99 215 01:49 02.03.2020
1843 Rain 21 1011 98 0 1.99 215 01:30 02.03.2020
1844 Rain 21 1010 97 0 1.7 215 00:23 02.03.2020
1845 Rain 21 1010 97 0 1.7 215 23:57 01.03.2020
1846 Rain 21 1010 97 0 1.7 215 23:39 01.03.2020
1847 Rain 22 1012 96 0 1.79 217 23:19 01.03.2020
1848 Rain 22 1012 96 0 1.79 217 22:43 01.03.2020
1849 Rain 22 1012 96 0 1.79 217 22:20 01.03.2020
1850 Rain 22 1012 96 0 1.79 217 21:56 01.03.2020
1851 Rain 22 1012 96 0 1.79 217 21:38 01.03.2020
1852 Rain 22 1012 96 0 1.79 217 21:19 01.03.2020
1853 Rain 22 1012 96 0 1.79 217 20:43 01.03.2020
1854 Rain 22 1012 96 0 1.79 217 20:25 01.03.2020
1855 Rain 25 1009 85 0 4.3 150 19:55 01.03.2020
1856 Rain 25 1009 85 0 4.3 150 19:36 01.03.2020
1857 Rain 25 1009 85 0 4.3 150 19:18 01.03.2020
1858 Rain 25 1009 85 0 4.3 150 18:40 01.03.2020
1859 Rain 25 1009 85 0 4.3 150 18:20 01.03.2020
1860 Rain 25 1009 85 0 4.3 150 17:58 01.03.2020
1861 Rain 25 1009 85 0 4.3 150 17:40 01.03.2020
1862 Clouds 34 1005 43 0 0.91 185 17:20 01.03.2020
1863 Clouds 34 1005 43 0 0.91 185 16:57 01.03.2020
1864 Clouds 34 1005 43 0 0.91 185 16:38 01.03.2020
1865 Clouds 34 1005 43 0 0.91 185 16:18 01.03.2020
1866 Clouds 34 1005 43 0 0.91 185 15:56 01.03.2020
1867 Clouds 34 1005 43 0 0.91 185 15:38 01.03.2020
1868 Clouds 34 1005 43 0 0.91 185 15:19 01.03.2020
1869 Clouds 34 1005 43 0 0.91 185 14:56 01.03.2020
1870 Clouds 34 1005 43 0 0.91 185 14:38 01.03.2020
1871 Clouds 35 1007 38 0 0.94 223 14:20 01.03.2020
1872 Clouds 35 1007 38 0 0.94 223 13:55 01.03.2020
1873 Clouds 35 1007 38 0 0.94 223 13:37 01.03.2020
1874 Clouds 35 1006 35 0 1.55 202 13:18 01.03.2020
1875 Clouds 36 1006 34 0 1.29 214 12:42 01.03.2020
1876 Clouds 36 1006 34 0 1.29 214 12:42 01.03.2020
1877 Clouds 36 1006 34 0 1.29 214 12:21 01.03.2020
1878 Clouds 36 1006 34 0 1.29 214 11:43 01.03.2020
1879 Clouds 35 1006 35 0 1.55 202 11:25 01.03.2020
1880 Clouds 36 1010 35 0 1.53 169 10:57 01.03.2020
1881 Clouds 36 1010 37 0 1.15 167 10:38 01.03.2020
1882 Clouds 36 1010 35 0 1.53 169 10:20 01.03.2020
1883 Clouds 36 1010 37 0 1.15 167 09:59 01.03.2020
1884 Clouds 36 1010 35 0 1.53 169 09:41 01.03.2020
1885 Clouds 36 1010 35 0 1.53 169 09:21 01.03.2020
1886 Clouds 36 1010 37 0 1.15 167 08:43 01.03.2020
1887 Clouds 36 1010 35 0 1.53 169 08:25 01.03.2020
1888 Clouds 27 1010 58 0 1.3 170 07:43 01.03.2020
1889 Clouds 27 1010 58 0 1.3 170 07:24 01.03.2020
1890 Clouds 27 1010 58 0 1.3 170 06:58 01.03.2020
1891 Clouds 27 1010 58 0 1.3 170 06:39 01.03.2020
1892 Clouds 25 1008 60 0 1.13 165 04:39 01.03.2020
1893 Clouds 25 1008 60 0 1.13 165 02:58 01.03.2020
1894 Clouds 25 1008 55 0 0.88 222 01:54 01.03.2020
1895 Clouds 25 1008 55 0 0.88 222 01:33 01.03.2020
1896 Clouds 24 1007 58 0 0.87 208 00:46 01.03.2020
1897 Clouds 24 1007 58 0 0.87 208 00:23 01.03.2020
1898 Clouds 24 1007 58 0 0.87 208 23:54 29.02.2020
1899 Clouds 24 1007 58 0 0.87 208 23:34 29.02.2020
1900 Clouds 26 1008 54 0 1.09 205 22:45 29.02.2020
1901 Clouds 26 1008 54 0 1.09 205 22:26 29.02.2020
1902 Clouds 26 1008 54 0 1.09 205 21:47 29.02.2020
1903 Clouds 26 1008 54 0 1.09 205 21:26 29.02.2020
1904 Clouds 26 1008 54 0 1.09 205 20:58 29.02.2020
1905 Clouds 26 1008 54 0 1.09 205 20:40 29.02.2020
1906 Clouds 27 1006 53 0 0.69 195 20:19 29.02.2020
1907 Clouds 27 1006 53 0 0.69 195 19:41 29.02.2020
1908 Clouds 27 1006 53 0 0.69 195 19:22 29.02.2020
1909 Clouds 27 1006 53 0 0.69 195 18:57 29.02.2020
1910 Clouds 27 1006 53 0 0.69 195 18:39 29.02.2020
1911 Clouds 27 1006 53 0 0.69 195 18:19 29.02.2020
1912 Clouds 27 1006 53 0 0.69 195 17:55 29.02.2020
1913 Clouds 27 1006 53 0 0.69 195 17:36 29.02.2020
1914 Clouds 27 1006 53 0 0.69 195 17:36 29.02.2020
1915 Clouds 31 1003 45 0 0.67 164 17:18 29.02.2020
1916 Clouds 31 1003 45 0 0.67 164 16:42 29.02.2020
1917 Clouds 31 1003 45 0 0.67 164 16:19 29.02.2020
1918 Clouds 31 1003 45 0 0.67 164 15:43 29.02.2020
1919 Clouds 31 1003 45 0 0.67 164 15:24 29.02.2020
1920 Clouds 31 1003 45 0 0.67 164 14:57 29.02.2020
1921 Clouds 31 1003 45 0 0.67 164 14:38 29.02.2020
1922 Clear 41 1005 22 0 0.83 65 14:20 29.02.2020
1923 Clear 41 1005 22 0 0.83 65 13:44 29.02.2020
1924 Clear 41 1005 22 0 0.83 65 13:25 29.02.2020
1925 Clear 42 1005 22 0 0.26 60 12:54 29.02.2020
1926 Clear 42 1005 22 0 0.26 60 12:36 29.02.2020
1927 Clear 42 1005 22 0 0.26 60 12:18 29.02.2020
1928 Clear 42 1005 22 0 0.26 60 11:43 29.02.2020
1929 Clear 42 1005 22 0 0.26 60 11:24 29.02.2020
1930 Clear 35 1010 38 0 1.78 166 10:50 29.02.2020
1931 Clear 35 1010 38 0 1.78 166 10:29 29.02.2020
1932 Clear 35 1010 38 0 1.78 166 09:52 29.02.2020
1933 Clear 35 1010 38 0 1.78 166 09:27 29.02.2020
1934 Clear 35 1010 38 0 1.78 166 08:58 29.02.2020
1935 Clear 35 1010 38 0 1.78 166 08:38 29.02.2020
1936 Clouds 26 1011 60 0 0.89 147 08:19 29.02.2020
1937 Clouds 26 1011 61 0 1.12 138 07:46 29.02.2020
1938 Clouds 26 1011 61 0 1.12 138 07:21 29.02.2020
1939 Clouds 26 1011 61 0 1.12 138 06:54 29.02.2020
1940 Clouds 26 1011 61 0 1.12 138 06:27 29.02.2020
1941 Clouds 26 1011 61 0 1.12 138 05:49 29.02.2020
1942 Clouds 26 1011 61 0 1.12 138 05:29 29.02.2020
1943 Clouds 23 1008 65 0 0.43 134 03:46 29.02.2020
1944 Clouds 23 1008 65 0 0.43 134 03:23 29.02.2020
1945 Clouds 23 1008 65 0 0.43 134 02:47 29.02.2020
1946 Clouds 24 1008 58 0 0.76 202 01:49 29.02.2020
1947 Clouds 24 1007 59 0 1.07 188 00:46 29.02.2020
1948 Clouds 24 1007 59 0 1.07 188 00:26 29.02.2020
1949 Clouds 24 1007 59 0 1.07 188 23:39 28.02.2020
1950 Clouds 26 1008 52 0 1.5 206 23:20 28.02.2020
1951 Clouds 26 1008 52 0 1.5 206 22:42 28.02.2020
1952 Clouds 26 1008 52 0 1.5 206 22:22 28.02.2020
1953 Clouds 26 1008 52 0 1.5 206 21:42 28.02.2020
1954 Clouds 26 1008 52 0 1.5 206 21:21 28.02.2020
1955 Clouds 26 1008 52 0 1.5 206 20:57 28.02.2020
1956 Clouds 26 1008 52 0 1.5 206 20:38 28.02.2020
1957 Clear 28 1007 42 0 1.16 166 20:20 28.02.2020
1958 Clouds 28 1007 44 0 0.99 180 19:56 28.02.2020
1959 Clouds 28 1007 44 0 0.99 180 19:38 28.02.2020
1960 Clouds 28 1007 44 0 0.99 180 19:19 28.02.2020
1961 Clouds 28 1007 44 0 0.99 180 18:46 28.02.2020
1962 Clouds 28 1007 44 0 0.99 180 18:24 28.02.2020
1963 Clouds 28 1007 44 0 0.99 180 17:41 28.02.2020
1964 Clouds 28 1007 44 0 0.99 180 17:23 28.02.2020
1965 -273 0 0 0 0 0 17:23 28.02.2020
1966 Clouds 36 1004 28 0 1.45 31 16:57 28.02.2020
1967 Clouds 36 1004 28 0 1.45 31 16:38 28.02.2020
1968 Clouds 36 1004 28 0 1.45 31 16:19 28.02.2020
1969 Clouds 36 1004 28 0 1.45 31 15:55 28.02.2020
1970 Clouds 36 1004 28 0 1.45 31 15:37 28.02.2020
1971 Clouds 36 1004 28 0 1.45 31 15:18 28.02.2020
1972 Clouds 36 1004 28 0 1.45 31 14:42 28.02.2020
1973 Clouds 38 1007 24 0 1.32 4 14:19 28.02.2020
1974 Clouds 38 1007 24 0 1.32 4 13:58 28.02.2020
1975 Clouds 38 1007 24 0 1.32 4 13:40 28.02.2020
1976 Clouds 38 1007 24 0 1.32 4 13:19 28.02.2020
1977 Clouds 38 1007 25 0 1.1 18 12:44 28.02.2020
1978 Clouds 38 1007 25 0 1.1 18 12:26 28.02.2020
1979 Clouds 38 1007 25 0 1.1 18 11:56 28.02.2020
1980 Clouds 38 1007 25 0 1.1 18 11:37 28.02.2020
1981 Clouds 34 1011 43 0 1.01 152 11:18 28.02.2020
1982 Clouds 34 1011 43 0 1.01 152 10:43 28.02.2020
1983 Clouds 34 1011 43 0 1.01 152 10:23 28.02.2020
1984 Clouds 34 1011 43 0 1.01 152 09:47 28.02.2020
1985 Clouds 34 1011 43 0 1.01 152 09:22 28.02.2020
1986 Clouds 34 1011 43 0 1.01 152 08:58 28.02.2020
1987 Clouds 34 1011 43 0 1.01 152 08:40 28.02.2020
1988 Clouds 24 1012 81 0 1.73 143 08:20 28.02.2020
1989 Clouds 24 1012 81 0 1.73 143 07:42 28.02.2020
1990 Clouds 24 1012 81 0 1.73 143 07:24 28.02.2020
1991 Clouds 24 1012 81 0 1.73 143 06:47 28.02.2020
1992 Clouds 24 1012 81 0 1.73 143 06:26 28.02.2020
1993 Clouds 22 1009 88 0 0.58 186 04:47 28.02.2020
1994 Clouds 22 1009 88 0 0.58 186 04:19 28.02.2020
1995 Clouds 22 1009 88 0 0.58 186 02:46 28.02.2020
1996 Clouds 22 1009 88 0 0.58 186 02:28 28.02.2020
1997 Clouds 23 1008 71 0 1.25 194 01:26 28.02.2020
1998 Clouds 23 1008 71 0 1.25 194 00:30 28.02.2020
1999 Clouds 23 1008 71 0 1.25 194 23:42 27.02.2020
2000 -273 0 0 0 0 0 23:21 27.02.2020
2001 Clouds 25 1009 55 0 1.49 187 22:46 27.02.2020
2002 Clouds 25 1009 55 0 1.49 187 22:27 27.02.2020
2003 Clouds 25 1009 55 0 1.49 187 21:59 27.02.2020
2004 Clouds 25 1009 55 0 1.49 187 21:41 27.02.2020
2005 Clouds 25 1009 55 0 1.49 187 21:19 27.02.2020
2006 Clouds 25 1009 55 0 1.49 187 20:57 27.02.2020
2007 Clouds 25 1009 55 0 1.49 187 20:39 27.02.2020
2008 Clouds 28 1006 49 0 0.54 155 20:20 27.02.2020
2009 Clouds 27 1007 49 0 0.7 74 20:20 27.02.2020
2010 Clouds 28 1006 49 0 0.54 155 19:56 27.02.2020
2011 Clouds 28 1006 49 0 0.54 155 19:37 27.02.2020
2012 Clouds 28 1006 49 0 0.54 155 19:18 27.02.2020
2013 Clouds 28 1006 49 0 0.54 155 18:40 27.02.2020
2014 Clouds 28 1006 49 0 0.54 155 18:22 27.02.2020
2015 Clouds 28 1006 49 0 0.54 155 17:58 27.02.2020
2016 Clouds 28 1006 49 0 0.54 155 17:40 27.02.2020
2017 Clouds 37 1003 27 0 1.5 15 17:19 27.02.2020
2018 Clouds 37 1003 27 0 1.5 15 16:56 27.02.2020
2019 Clouds 37 1003 27 0 1.5 15 16:38 27.02.2020
2020 Clouds 37 1003 27 0 1.5 15 16:18 27.02.2020
2021 Clouds 37 1003 27 0 1.5 15 15:56 27.02.2020
2022 Clouds 37 1003 27 0 1.5 15 15:36 27.02.2020
2023 Clouds 37 1003 27 0 1.5 15 15:18 27.02.2020
2024 Clouds 37 1003 27 0 1.5 15 14:42 27.02.2020
2025 Clouds 37 1003 27 0 1.5 15 14:23 27.02.2020
2026 Clouds 37 1003 27 0 1.5 15 14:23 27.02.2020
2027 Clouds 38 1006 26 0 1.68 26 13:57 27.02.2020
2028 Clouds 38 1006 26 0 1.68 26 13:39 27.02.2020
2029 Clouds 38 1006 25 0 1.78 29 13:20 27.02.2020
2030 Clouds 38 1006 25 0 1.78 29 12:45 27.02.2020
2031 Clouds 38 1006 25 0 1.78 29 12:45 27.02.2020
2032 Clouds 38 1006 25 0 1.78 29 12:23 27.02.2020
2033 Clouds 38 1006 25 0 1.78 29 11:57 27.02.2020
2034 Clouds 38 1006 25 0 1.78 29 11:38 27.02.2020
2035 Clouds 36 1010 36 0 1.02 75 11:20 27.02.2020
2036 Clouds 36 1010 36 0 1.02 75 10:42 27.02.2020
2037 Clouds 36 1010 36 0 1.02 75 10:20 27.02.2020
2038 Clouds 36 1010 36 0 1.02 75 09:46 27.02.2020
2039 Clouds 36 1010 36 0 1.02 75 09:28 27.02.2020
2040 Clouds 36 1010 36 0 1.02 75 08:56 27.02.2020
2041 Clouds 36 1010 36 0 1.02 75 08:38 27.02.2020
2042 Clouds 26 1010 67 0 1.15 94 08:18 27.02.2020
2043 Clouds 26 1010 67 0 1.15 94 07:42 27.02.2020
2044 Clouds 26 1010 67 0 1.15 94 07:24 27.02.2020
2045 Clouds 26 1010 67 0 1.15 94 07:24 27.02.2020
2046 Clouds 26 1010 67 0 1.15 94 06:30 27.02.2020
2047 Clouds 26 1010 67 0 1.15 94 05:24 27.02.2020
2048 Clouds 23 1008 70 0 0.69 162 03:21 27.02.2020
2049 Clear 24 1008 66 0 0.77 210 01:39 27.02.2020
2050 Clouds 24 1008 65 0 1.05 205 00:42 27.02.2020
2051 Clouds 24 1008 65 0 1.05 205 00:19 27.02.2020
2052 Clouds 24 1008 65 0 1.05 205 23:38 26.02.2020
2053 Clear 25 1009 58 0 0.69 145 23:18 26.02.2020
2054 Clear 25 1009 58 0 0.69 145 22:55 26.02.2020
2055 Clear 25 1009 58 0 0.69 145 22:37 26.02.2020
2056 Clear 25 1009 58 0 0.69 145 22:18 26.02.2020
2057 Clear 25 1009 58 0 0.69 145 21:39 26.02.2020
2058 Clear 25 1009 58 0 0.69 145 21:20 26.02.2020
2059 Clear 25 1009 58 0 0.69 145 20:56 26.02.2020
2060 Clear 25 1009 58 0 0.69 145 20:38 26.02.2020
2061 Clouds 27 1007 52 0 0.31 359 20:19 26.02.2020
2062 Clouds 28 1006 53 0 0.14 276 19:56 26.02.2020
2063 Clouds 28 1006 53 0 0.14 276 19:37 26.02.2020
2064 Clouds 28 1006 53 0 0.14 276 19:19 26.02.2020
2065 Clouds 28 1006 53 0 0.14 276 18:56 26.02.2020
2066 Clouds 28 1006 53 0 0.14 276 18:37 26.02.2020
2067 Clouds 28 1006 53 0 0.14 276 18:19 26.02.2020
2068 Clouds 28 1006 53 0 0.14 276 17:41 26.02.2020
2069 Clouds 34 1003 36 0 1.06 4 17:19 26.02.2020
2070 Clouds 34 1003 36 0 1.06 4 17:19 26.02.2020
2071 Clouds 34 1003 36 0 1.06 4 16:57 26.02.2020
2072 Clouds 34 1003 36 0 1.06 4 16:38 26.02.2020
2073 Clouds 34 1003 36 0 1.06 4 16:20 26.02.2020
2074 Clouds 34 1003 36 0 1.06 4 15:45 26.02.2020
2075 Clouds 34 1003 36 0 1.06 4 15:45 26.02.2020
2076 Clouds 34 1003 36 0 1.06 4 15:27 26.02.2020
2077 Clouds 34 1003 36 0 1.06 4 14:43 26.02.2020
2078 Clouds 34 1003 36 0 1.06 4 14:24 26.02.2020
2079 Clear 37 1006 27 0 1.54 36 13:58 26.02.2020
2080 Clear 37 1006 27 0 1.54 36 13:39 26.02.2020
2081 Clear 37 1006 27 0 1.54 36 13:18 26.02.2020
2082 Clear 37 1006 26 0 1.49 54 12:39 26.02.2020
2083 Clear 37 1006 26 0 1.49 54 12:19 26.02.2020
2084 Clear 37 1006 26 0 1.49 54 11:55 26.02.2020
2085 Clear 37 1006 26 0 1.49 54 11:37 26.02.2020
2086 Clear 33 1010 42 0 1.53 110 11:19 26.02.2020
2087 Clear 33 1010 42 0 1.53 110 10:41 26.02.2020
2088 Clear 33 1010 42 0 1.53 110 10:22 26.02.2020
2089 Clear 33 1010 42 0 1.53 110 09:55 26.02.2020
2090 Clear 33 1010 42 0 1.53 110 09:37 26.02.2020
2091 Clear 33 1010 42 0 1.53 110 09:18 26.02.2020
2092 Clear 33 1010 42 0 1.53 110 08:38 26.02.2020
2093 Clouds 25 1010 76 0 1.14 129 08:19 26.02.2020
2094 Clouds 25 1010 76 0 1.14 129 07:48 26.02.2020
2095 Clouds 25 1010 76 0 1.14 129 07:29 26.02.2020
2096 Clouds 25 1010 76 0 1.14 129 06:53 26.02.2020
2097 Clouds 25 1010 76 0 1.14 129 06:35 26.02.2020
2098 Clouds 25 1010 76 0 1.14 129 05:54 26.02.2020
2099 Clouds 25 1010 76 0 1.14 129 05:28 26.02.2020
2100 Clouds 21 1009 93 0 0.68 145 04:36 26.02.2020
2101 Clouds 21 1009 93 0 0.68 145 02:33 26.02.2020
2102 Clouds 22 1009 85 0 1.16 179 01:48 26.02.2020
2103 Clouds 22 1009 82 0 1.16 179 00:50 26.02.2020
2104 Clouds 22 1009 82 0 1.16 179 00:25 26.02.2020
2105 Clouds 22 1009 82 0 1.16 179 23:56 25.02.2020
2106 Clouds 22 1009 82 0 1.16 179 23:37 25.02.2020
2107 Clouds 23 1010 78 0 1.24 181 23:19 25.02.2020
2108 Clouds 23 1010 78 0 1.24 181 22:42 25.02.2020
2109 Clouds 23 1010 78 0 1.24 181 22:19 25.02.2020
2110 Clouds 23 1010 78 0 1.24 181 21:56 25.02.2020
2111 Clouds 23 1010 78 0 1.24 181 21:36 25.02.2020
2112 Clouds 23 1010 78 0 1.24 181 21:18 25.02.2020
2113 Clouds 23 1010 78 0 1.24 181 20:55 25.02.2020
2114 Clouds 23 1010 78 0 1.24 181 20:36 25.02.2020
2115 Clouds 26 1009 67 0 1.15 226 20:18 25.02.2020
2116 Clouds 25 1009 74 0 1.1 192 19:42 25.02.2020
2117 Clouds 25 1009 74 0 1.1 192 19:19 25.02.2020
2118 Clouds 25 1009 74 0 1.1 192 18:58 25.02.2020
2119 Clouds 25 1009 74 0 1.1 192 18:38 25.02.2020
2120 Clouds 25 1009 74 0 1.1 192 18:19 25.02.2020
2121 Clouds 25 1009 74 0 1.1 192 17:39 25.02.2020
2122 Clouds 30 1007 58 0 2.22 163 17:20 25.02.2020
2123 Clouds 30 1007 58 0 2.22 163 16:59 25.02.2020
2124 Clouds 30 1007 58 0 2.22 163 16:41 25.02.2020
2125 Clouds 30 1007 58 0 2.22 163 16:22 25.02.2020
2126 Clouds 30 1007 58 0 2.22 163 15:59 25.02.2020
2127 Clouds 30 1007 58 0 2.22 163 15:41 25.02.2020
2128 Clouds 30 1007 58 0 2.22 163 15:19 25.02.2020
2129 Clouds 30 1007 58 0 2.22 163 14:58 25.02.2020
2130 Clouds 30 1007 58 0 2.22 163 14:38 25.02.2020
2131 Clouds 32 1009 50 0 1.31 180 14:18 25.02.2020
2132 Clouds 32 1009 50 0 1.31 180 13:56 25.02.2020
2133 Clouds 32 1009 50 0 1.31 180 13:38 25.02.2020
2134 Clouds 32 1009 50 0 1.31 180 13:19 25.02.2020
2135 Clouds 33 1008 46 0 1.85 203 12:42 25.02.2020
2136 Clouds 33 1008 46 0 1.85 203 12:22 25.02.2020
2137 Clouds 33 1008 46 0 1.85 203 11:58 25.02.2020
2138 Clouds 33 1008 46 0 1.85 203 11:39 25.02.2020
2139 Clouds 29 1012 59 0 2.64 140 11:19 25.02.2020
2140 Clouds 29 1012 59 0 2.64 140 10:59 25.02.2020
2141 Clouds 29 1012 59 0 2.64 140 10:40 25.02.2020
2142 Clouds 29 1012 59 0 2.64 140 10:21 25.02.2020
2143 Clouds 29 1012 59 0 2.64 140 09:42 25.02.2020
2144 Clouds 29 1012 59 0 2.64 140 09:22 25.02.2020
2145 Clouds 29 1012 59 0 2.64 140 08:54 25.02.2020
2146 Clouds 29 1012 59 0 2.64 140 08:36 25.02.2020
2147 Clouds 23 1012 86 0 1.93 170 08:18 25.02.2020
2148 Clouds 23 1012 85 0 1.8 157 07:39 25.02.2020
2149 Clouds 23 1012 85 0 1.8 157 07:19 25.02.2020
2150 Clouds 23 1012 85 0 1.8 157 06:37 25.02.2020
2151 Clouds 23 1012 85 0 1.8 157 05:29 25.02.2020
2152 Clouds 22 1010 92 0 1.19 163 03:30 25.02.2020
2153 Clouds 22 1010 92 0 1.24 185 01:32 25.02.2020
2154 Clouds 22 1010 92 0 1.67 169 00:48 25.02.2020
2155 Clouds 22 1010 92 0 1.67 169 00:29 25.02.2020
2156 Clouds 22 1010 92 0 1.67 169 23:42 24.02.2020
2157 Clouds 22 1012 90 0 2.25 175 23:20 24.02.2020
2158 Clouds 22 1012 90 0 2.25 175 22:42 24.02.2020
2159 Clouds 22 1012 90 0 2.25 175 22:20 24.02.2020
2160 Clouds 22 1012 90 0 2.25 175 21:57 24.02.2020
2161 Clouds 22 1012 90 0 2.25 175 21:39 24.02.2020
2162 Clouds 22 1012 90 0 2.25 175 21:20 24.02.2020
2163 Clouds 22 1012 90 0 2.25 175 20:58 24.02.2020
2164 Clouds 22 1012 90 0 2.25 175 20:40 24.02.2020
2165 Clouds 22 1012 90 0 2.25 175 20:40 24.02.2020
2166 Clouds 23 1010 90 0 1.57 155 20:19 24.02.2020
2167 Clouds 23 1010 90 0 1.57 155 19:56 24.02.2020
2168 Clouds 23 1010 90 0 1.57 155 19:38 24.02.2020
2169 Clouds 23 1010 90 0 1.57 155 19:20 24.02.2020
2170 Clouds 23 1010 90 0 1.57 155 18:54 24.02.2020
2171 Clouds 23 1010 90 0 1.57 155 18:36 24.02.2020
2172 Clouds 23 1010 90 0 1.57 155 18:18 24.02.2020
2173 Clouds 23 1010 90 0 1.57 155 17:40 24.02.2020
2174 Rain 26 1008 81 0 1.66 199 17:20 24.02.2020
2175 Rain 26 1008 81 0 1.66 199 16:58 24.02.2020
2176 Rain 26 1008 81 0 1.66 199 16:39 24.02.2020
2177 Rain 26 1008 81 0 1.66 199 16:20 24.02.2020
2178 Rain 26 1008 81 0 1.66 199 15:58 24.02.2020
2179 Rain 26 1008 81 0 1.66 199 15:39 24.02.2020
2180 Rain 26 1008 81 0 1.66 199 15:21 24.02.2020
2181 Rain 26 1008 81 0 1.66 199 14:57 24.02.2020
2182 Rain 26 1008 81 0 1.66 199 14:38 24.02.2020
2183 Rain 30 1009 63 0 2.38 180 14:18 24.02.2020
2184 Rain 30 1009 63 0 2.38 180 13:56 24.02.2020
2185 Rain 30 1009 63 0 2.38 180 13:36 24.02.2020
2186 Rain 28 1009 73 0 2.27 177 13:18 24.02.2020
2187 Rain 28 1009 73 0 2.27 177 12:42 24.02.2020
2188 Rain 28 1009 73 0 2.27 177 12:24 24.02.2020
2189 Rain 28 1009 73 0 2.27 177 11:56 24.02.2020
2190 Rain 28 1009 73 0 2.27 177 11:38 24.02.2020
2191 Rain 28 1012 71 0 2.64 211 11:19 24.02.2020
2192 Rain 28 1012 71 0 2.64 211 10:41 24.02.2020
2193 Rain 28 1012 71 0 2.64 211 10:22 24.02.2020
2194 Rain 28 1012 71 0 2.64 211 09:40 24.02.2020
2195 Rain 28 1012 71 0 2.64 211 09:19 24.02.2020
2196 Rain 28 1012 71 0 2.64 211 08:53 24.02.2020
2197 Rain 28 1012 71 0 2.64 211 08:30 24.02.2020
2198 Clouds 24 1012 85 0 1.27 44 07:59 24.02.2020
2199 Clouds 24 1012 85 0 1.27 44 07:40 24.02.2020
2200 Clouds 24 1012 85 0 1.27 44 07:22 24.02.2020
2201 Clouds 24 1012 85 0 1.27 44 06:33 24.02.2020
2202 Clouds 24 1012 85 0 1.27 44 05:47 24.02.2020
2203 Clouds 24 1012 85 0 1.27 44 05:27 24.02.2020
2204 Clouds 24 1009 82 0 1.7 139 03:18 24.02.2020
2205 Clouds 24 1009 82 0 1.7 139 02:45 24.02.2020
2206 Clouds 24 1008 76 0 1.09 116 01:40 24.02.2020
2207 Clouds 25 1008 75 0 0.9 120 00:51 24.02.2020
2208 Clouds 25 1008 75 0 0.9 120 00:21 24.02.2020
2209 Clouds 25 1008 75 0 0.9 120 23:58 23.02.2020
2210 Clouds 25 1008 75 0 0.9 120 23:38 23.02.2020
2211 Clouds 25 1009 69 0 1.61 198 23:18 23.02.2020
2212 Clouds 25 1009 69 0 1.61 198 22:43 23.02.2020
2213 Clouds 25 1009 69 0 1.61 198 22:22 23.02.2020
2214 Clouds 25 1009 69 0 1.61 198 21:57 23.02.2020
2215 Clouds 25 1009 69 0 1.61 198 21:39 23.02.2020
2216 Clouds 25 1009 69 0 1.61 198 21:18 23.02.2020
2217 Clouds 25 1009 69 0 1.61 198 20:55 23.02.2020
2218 Clouds 25 1009 69 0 1.61 198 20:37 23.02.2020
2219 Clouds 27 1007 65 0 1.51 216 20:18 23.02.2020
2220 Clouds 27 1006 56 0 0.87 249 19:54 23.02.2020
2221 Clouds 27 1006 56 0 0.87 249 19:36 23.02.2020
2222 Clouds 27 1006 56 0 0.87 249 19:36 23.02.2020
2223 Clouds 27 1006 56 0 0.87 249 19:18 23.02.2020
2224 Clouds 27 1006 56 0 0.87 249 18:41 23.02.2020
2225 Clouds 27 1006 56 0 0.87 249 18:21 23.02.2020
2226 Clouds 27 1006 56 0 0.87 249 17:58 23.02.2020
2227 Clouds 27 1006 56 0 0.87 249 17:40 23.02.2020
2228 Clouds 27 1006 56 0 0.87 249 17:21 23.02.2020
2229 Clouds 35 1004 36 0 1.41 31 16:57 23.02.2020
2230 Clouds 35 1004 36 0 1.41 31 16:38 23.02.2020
2231 Clouds 35 1004 36 0 1.41 31 16:20 23.02.2020
2232 Clouds 35 1004 36 0 1.41 31 15:54 23.02.2020
2233 Clouds 35 1004 36 0 1.41 31 15:36 23.02.2020
2234 Clouds 35 1004 36 0 1.41 31 15:18 23.02.2020
2235 Clouds 35 1004 36 0 1.41 31 14:55 23.02.2020
2236 Clouds 35 1004 36 0 1.41 31 14:37 23.02.2020
2237 Clouds 35 1004 36 0 1.41 31 14:37 23.02.2020
2238 Clouds 37 1005 32 0 1.05 58 14:18 23.02.2020
2239 Clouds 37 1005 32 0 1.05 58 13:54 23.02.2020
2240 Clouds 37 1005 32 0 1.05 58 13:36 23.02.2020
2241 Clouds 34 1006 37 0 1.25 348 13:18 23.02.2020
2242 Clouds 34 1006 37 0 1.25 348 12:39 23.02.2020
2243 Clouds 34 1006 37 0 1.25 348 12:20 23.02.2020
2244 Clouds 34 1006 37 0 1.25 348 11:39 23.02.2020
2245 Clouds 33 1010 44 0 1.99 96 11:20 23.02.2020
2246 Clouds 33 1010 44 0 1.99 96 10:58 23.02.2020
2247 Clouds 33 1010 44 0 1.99 96 10:40 23.02.2020
2248 Clouds 33 1010 44 0 1.99 96 10:21 23.02.2020
2249 Clouds 33 1010 44 0 1.99 96 09:56 23.02.2020
2250 Clouds 33 1010 44 0 1.99 96 09:37 23.02.2020
2251 Clouds 33 1010 44 0 1.99 96 09:18 23.02.2020
2252 Clouds 33 1010 44 0 1.99 96 08:44 23.02.2020
2253 Clouds 33 1010 44 0 1.99 96 08:25 23.02.2020
2254 Rain 24 1010 84 0 0.56 225 07:44 23.02.2020
2255 Rain 24 1010 84 0 0.56 225 07:26 23.02.2020
2256 Rain 24 1010 84 0 0.56 225 06:24 23.02.2020
2257 Clouds 24 1007 69 0 1.12 149 05:19 23.02.2020
2258 Clouds 24 1007 69 0 1.12 149 04:23 23.02.2020
2259 Clouds 24 1007 69 0 1.12 149 02:44 23.02.2020
2260 Clouds 27 1006 53 0 0.24 232 01:39 23.02.2020
2261 Clouds 26 1006 52 0 0.81 122 01:20 23.02.2020
2262 Clouds 26 1006 52 0 0.81 122 00:43 23.02.2020
2263 Clouds 26 1006 52 0 0.81 122 00:20 23.02.2020
2264 Clouds 26 1006 52 0 0.81 122 23:43 22.02.2020
2265 Clouds 26 1006 52 0 0.81 122 23:43 22.02.2020
2266 Clouds 26 1006 52 0 0.81 122 23:22 22.02.2020
2267 Clouds 27 1008 48 0 0.71 202 22:45 22.02.2020
2268 Clouds 27 1008 48 0 0.71 202 22:20 22.02.2020
2269 Clouds 27 1008 48 0 0.71 202 21:46 22.02.2020
2270 Clouds 27 1008 48 0 0.71 202 21:28 22.02.2020
2271 Clouds 27 1008 48 0 0.71 202 20:59 22.02.2020
2272 Clouds 27 1008 48 0 0.71 202 20:40 22.02.2020
2273 Clouds 27 1007 48 0 0.58 216 20:21 22.02.2020
2274 Clouds 27 1005 50 0 0.73 327 19:43 22.02.2020
2275 Clouds 27 1005 50 0 0.73 327 19:43 22.02.2020
2276 Clouds 27 1005 50 0 0.73 327 19:24 22.02.2020
2277 Clouds 27 1005 50 0 0.73 327 18:57 22.02.2020
2278 Clouds 27 1005 50 0 0.73 327 18:37 22.02.2020
2279 Clouds 27 1005 50 0 0.73 327 18:19 22.02.2020
2280 Clouds 27 1005 50 0 0.73 327 17:44 22.02.2020
2281 Clouds 27 1005 50 0 0.73 327 17:26 22.02.2020
2282 Clouds 35 1002 31 0 1.94 12 16:59 22.02.2020
2283 Clouds 35 1002 31 0 1.94 12 16:40 22.02.2020
2284 Clouds 35 1002 31 0 1.94 12 16:20 22.02.2020
2285 Clouds 35 1002 31 0 1.94 12 15:56 22.02.2020
2286 Clouds 35 1002 31 0 1.94 12 15:38 22.02.2020
2287 Clouds 35 1002 31 0 1.94 12 15:20 22.02.2020
2288 Clouds 35 1002 31 0 1.94 12 14:42 22.02.2020
2289 Clouds 35 1002 31 0 1.94 12 14:22 22.02.2020
2290 Clouds 37 1004 25 0 2.46 39 13:44 22.02.2020
2291 Clouds 37 1004 25 0 2.56 32 13:20 22.02.2020
2292 Clouds 37 1004 25 0 2.56 32 12:59 22.02.2020
2293 Clouds 37 1004 25 0 2.56 32 12:40 22.02.2020
2294 Clouds 37 1004 25 0 2.56 32 12:21 22.02.2020
2295 Clouds 37 1004 25 0 2.56 32 11:44 22.02.2020
2296 Clouds 37 1004 25 0 2.56 32 11:26 22.02.2020
2297 Clouds 36 1009 36 0 0.92 102 10:55 22.02.2020
2298 Clouds 36 1009 36 0 0.92 102 10:37 22.02.2020
2299 Clouds 36 1009 36 0 0.92 102 10:18 22.02.2020
2300 Clouds 36 1009 36 0 0.92 102 09:55 22.02.2020
2301 Clouds 36 1009 36 0 0.92 102 09:37 22.02.2020
2302 Clouds 36 1009 36 0 0.92 102 09:18 22.02.2020
2303 Clouds 36 1009 36 0 0.92 102 08:44 22.02.2020
2304 Clouds 36 1009 36 0 0.92 102 08:25 22.02.2020
2305 Clouds 26 1010 67 0 0.73 140 07:43 22.02.2020
2306 Clouds 26 1010 67 0 0.73 140 07:18 22.02.2020
2307 Clouds 26 1010 67 0 0.73 140 06:45 22.02.2020
2308 Clouds 24 1007 71 0 0.5 57 04:54 22.02.2020
2309 Clouds 24 1007 71 0 0.5 57 04:28 22.02.2020
2310 Clouds 24 1007 71 0 0.5 57 02:42 22.02.2020
2311 Clouds 24 1007 69 0 0.58 242 01:51 22.02.2020
2312 Clouds 24 1007 69 0 0.58 242 01:30 22.02.2020
2313 Clouds 24 1007 66 0 0.83 197 00:58 22.02.2020
2314 Clouds 24 1007 66 0 0.83 197 00:36 22.02.2020
2315 Clouds 24 1007 66 0 0.83 197 00:18 22.02.2020
2316 Clouds 24 1007 66 0 0.83 197 23:38 21.02.2020
2317 Clouds 25 1009 64 0 0.78 287 23:20 21.02.2020
2318 Clouds 25 1009 64 0 0.78 287 22:42 21.02.2020
2319 Clouds 25 1009 64 0 0.78 287 22:24 21.02.2020
2320 Clouds 25 1009 64 0 0.78 287 21:56 21.02.2020
2321 Clouds 25 1009 64 0 0.78 287 21:37 21.02.2020
2322 Clouds 25 1009 64 0 0.78 287 21:19 21.02.2020
2323 Clouds 25 1009 64 0 0.78 287 20:43 21.02.2020
2324 Clouds 26 1008 67 0 0.95 224 20:25 21.02.2020
2325 Clouds 26 1007 67 0 0.2 112 19:40 21.02.2020
2326 Clouds 26 1007 67 0 0.2 112 19:21 21.02.2020
2327 Clouds 26 1007 67 0 0.2 112 18:44 21.02.2020
2328 Clouds 26 1007 67 0 0.2 112 18:24 21.02.2020
2329 Clouds 26 1007 67 0 0.2 112 18:24 21.02.2020
2330 Clouds 26 1007 67 0 0.2 112 17:57 21.02.2020
2331 Clouds 26 1007 67 0 0.2 112 17:38 21.02.2020
2332 Clouds 29 1004 59 0 0.32 293 17:19 21.02.2020
2333 Clouds 29 1004 59 0 0.32 293 16:55 21.02.2020
2334 Clouds 29 1004 59 0 0.32 293 16:37 21.02.2020
2335 Clouds 29 1004 59 0 0.32 293 16:19 21.02.2020
2336 Clouds 29 1004 59 0 0.32 293 15:40 21.02.2020
2337 Clouds 29 1004 59 0 0.32 293 15:19 21.02.2020
2338 Clouds 29 1004 59 0 0.32 293 14:44 21.02.2020
2339 Clouds 29 1004 59 0 0.32 293 14:22 21.02.2020
2340 Rain 36 1006 42 0 0.21 32 13:59 21.02.2020
2341 Rain 36 1006 42 0 0.21 32 13:40 21.02.2020
2342 Rain 36 1006 42 0 0.21 32 13:21 21.02.2020
2343 Rain 34 1006 46 0 0.97 136 12:46 21.02.2020
2344 Rain 34 1006 46 0 0.97 136 12:27 21.02.2020
2345 Rain 34 1006 46 0 0.97 136 11:58 21.02.2020
2346 Rain 34 1006 46 0 0.97 136 11:38 21.02.2020
2347 Clouds 31 1010 56 0 1.45 130 11:20 21.02.2020
2348 Clouds 31 1010 56 0 1.45 130 10:42 21.02.2020
2349 Clouds 31 1010 56 0 1.45 130 10:22 21.02.2020
2350 Clouds 31 1010 56 0 1.45 130 09:58 21.02.2020
2351 Clouds 31 1010 56 0 1.45 130 09:39 21.02.2020
2352 Clouds 31 1010 56 0 1.45 130 09:20 21.02.2020
2353 Clouds 31 1010 56 0 1.45 130 08:56 21.02.2020
2354 Clouds 31 1010 56 0 1.45 130 08:36 21.02.2020
2355 Clouds 25 1010 84 0 1.48 160 08:18 21.02.2020
2356 Clouds 25 1010 84 0 1.48 160 07:42 21.02.2020
2357 Clouds 25 1010 84 0 1.48 160 07:21 21.02.2020
2358 Clouds 25 1010 84 0 1.48 160 06:56 21.02.2020
2359 Clouds 25 1010 84 0 1.48 160 06:33 21.02.2020
2360 Clouds 25 1010 84 0 1.48 160 05:56 21.02.2020
2361 Clouds 25 1010 84 0 1.48 160 05:30 21.02.2020
2362 Clouds 25 1010 84 0 1.48 160 05:30 21.02.2020
2363 Rain 23 1008 90 0 1.22 160 04:26 21.02.2020
2364 Rain 23 1008 90 0 1.22 160 03:47 21.02.2020
2365 Rain 23 1008 90 0 1.22 160 02:59 21.02.2020
2366 Clouds 25 1008 74 0 1.19 160 01:43 21.02.2020
2367 Clouds 24 1008 76 0 1.16 174 01:22 21.02.2020
2368 Clouds 24 1008 76 0 1.16 174 00:38 21.02.2020
2369 Clouds 24 1008 76 0 1.16 174 00:19 21.02.2020
2370 Clouds 24 1008 76 0 1.16 174 23:41 20.02.2020
2371 Clouds 24 1008 76 0 1.16 174 23:22 20.02.2020
2372 Clouds 24 1009 73 0 0.65 171 22:42 20.02.2020
2373 Clouds 24 1009 73 0 0.65 171 22:23 20.02.2020
2374 Clouds 24 1009 73 0 0.65 171 21:57 20.02.2020
2375 Clouds 24 1009 73 0 0.65 171 21:39 20.02.2020
2376 Clouds 24 1009 73 0 0.65 171 21:39 20.02.2020
2377 Clouds 24 1009 73 0 0.65 171 21:20 20.02.2020
2378 Clouds 24 1009 73 0 0.65 171 20:56 20.02.2020
2379 Clouds 24 1009 73 0 0.65 171 20:38 20.02.2020
2380 Clouds 26 1007 69 0 0.8 357 20:19 20.02.2020
2381 Clouds 26 1007 69 0 0.8 357 20:19 20.02.2020
2382 Clouds 26 1007 69 0 0.8 357 20:19 20.02.2020
2383 Clouds 26 1007 70 0 0.38 279 19:58 20.02.2020
2384 Clouds 26 1007 70 0 0.38 279 19:40 20.02.2020
2385 Clouds 26 1007 70 0 0.38 279 19:22 20.02.2020
2386 Clouds 26 1007 70 0 0.38 279 18:55 20.02.2020
2387 Clouds 26 1007 70 0 0.38 279 18:37 20.02.2020
2388 Clouds 26 1007 70 0 0.38 279 18:18 20.02.2020
2389 Clouds 26 1007 70 0 0.38 279 17:39 20.02.2020
2390 Clouds 31 1004 56 0 0.28 49 17:19 20.02.2020
2391 Clouds 31 1004 56 0 0.28 49 16:56 20.02.2020
2392 Clouds 31 1004 56 0 0.28 49 16:38 20.02.2020
2393 Clouds 31 1004 56 0 0.28 49 16:19 20.02.2020
2394 Clouds 31 1004 56 0 0.28 49 15:43 20.02.2020
2395 Clouds 31 1004 56 0 0.28 49 15:24 20.02.2020
2396 Clouds 31 1004 56 0 0.28 49 14:58 20.02.2020
2397 Clouds 31 1004 56 0 0.28 49 14:40 20.02.2020
2398 Clouds 31 1004 56 0 0.28 49 14:21 20.02.2020
2399 Clouds 36 1006 37 0 1.33 111 13:55 20.02.2020
2400 Clouds 36 1006 37 0 1.33 111 13:37 20.02.2020
2401 Clouds 35 1007 40 0 1.59 127 13:18 20.02.2020
2402 Clouds 35 1007 40 0 1.59 127 13:18 20.02.2020
2403 Clouds 35 1007 40 0 1.59 127 12:42 20.02.2020
2404 Clouds 35 1007 40 0 1.59 127 12:21 20.02.2020
2405 Clouds 35 1007 40 0 1.59 127 11:58 20.02.2020
2406 Clouds 35 1007 40 0 1.59 127 11:39 20.02.2020
2407 Clouds 29 1011 63 0 1.84 138 11:20 20.02.2020
2408 Clouds 29 1011 63 0 1.84 138 10:56 20.02.2020
2409 Clouds 29 1011 63 0 1.84 138 10:37 20.02.2020
2410 Clouds 29 1011 63 0 1.84 138 10:19 20.02.2020
2411 Clouds 29 1011 63 0 1.84 138 09:39 20.02.2020
2412 Clouds 29 1011 63 0 1.84 138 09:21 20.02.2020
2413 Clouds 29 1011 63 0 1.84 138 08:44 20.02.2020
2414 Clouds 29 1011 63 0 1.84 138 08:24 20.02.2020
2415 Clouds 24 1011 92 0 0.67 169 07:48 20.02.2020
2416 Clouds 24 1011 92 0 0.67 169 07:27 20.02.2020
2417 Clouds 24 1011 92 0 0.67 169 06:59 20.02.2020
2418 Clouds 24 1011 92 0 0.67 169 06:40 20.02.2020
2419 Clouds 24 1011 92 0 0.67 169 05:47 20.02.2020
2420 Clouds 24 1011 92 0 0.67 169 05:25 20.02.2020
2421 Clouds 22 1009 96 0 0.41 162 04:48 20.02.2020
2422 Clouds 22 1009 96 0 0.41 162 03:46 20.02.2020
2423 Clouds 22 1009 96 0 0.41 162 02:47 20.02.2020
2424 Rain 22 1009 95 0 0.63 203 01:25 20.02.2020
2425 Clouds 23 1009 92 0 0.76 201 00:45 20.02.2020
2426 Clouds 23 1009 92 0 0.76 201 00:24 20.02.2020
2427 Clouds 23 1009 92 0 0.76 201 23:46 19.02.2020
2428 Clouds 23 1010 92 0 0.32 107 23:18 19.02.2020
2429 Clouds 23 1010 92 0 0.32 107 22:42 19.02.2020
2430 Clouds 23 1010 92 0 0.32 107 22:23 19.02.2020
2431 Clouds 23 1010 92 0 0.32 107 21:58 19.02.2020
2432 Clouds 23 1010 92 0 0.32 107 21:39 19.02.2020
2433 Clouds 23 1010 92 0 0.32 107 21:19 19.02.2020
2434 Clouds 23 1010 92 0 0.32 107 20:57 19.02.2020
2435 Clouds 23 1010 92 0 0.32 107 20:37 19.02.2020
2436 Rain 24 1009 84 0 0.12 59 20:19 19.02.2020
2437 Rain 24 1009 84 0 0.12 59 19:56 19.02.2020
2438 Rain 24 1009 84 0 0.12 59 19:37 19.02.2020
2439 Rain 24 1009 84 0 0.12 59 19:18 19.02.2020
2440 Rain 24 1009 84 0 0.12 59 18:57 19.02.2020
2441 Rain 24 1009 84 0 0.12 59 18:39 19.02.2020
2442 Rain 24 1009 84 0 0.12 59 18:20 19.02.2020
2443 Rain 24 1009 84 0 0.12 59 17:43 19.02.2020
2444 Rain 28 1006 72 0 1.36 175 17:20 19.02.2020
2445 Rain 28 1006 72 0 1.36 175 16:56 19.02.2020
2446 Rain 28 1006 72 0 1.36 175 16:37 19.02.2020
2447 Rain 28 1006 72 0 1.36 175 16:18 19.02.2020
2448 Rain 28 1006 72 0 1.36 175 15:41 19.02.2020
2449 Rain 28 1006 72 0 1.36 175 15:23 19.02.2020
2450 Rain 28 1006 72 0 1.36 175 14:56 19.02.2020
2451 Rain 28 1006 72 0 1.36 175 14:37 19.02.2020
2452 Rain 33 1009 53 0 0.15 144 14:19 19.02.2020
2453 Rain 33 1009 53 0 0.15 144 13:41 19.02.2020
2454 Clouds 31 1009 52 0 1.86 215 13:21 19.02.2020
2455 Clouds 31 1009 52 0 1.86 215 12:42 19.02.2020
2456 Clouds 31 1009 52 0 1.86 215 12:19 19.02.2020
2457 Clouds 31 1009 52 0 1.86 215 12:19 19.02.2020
2458 Clouds 31 1009 52 0 1.86 215 11:59 19.02.2020
2459 Clouds 31 1009 52 0 1.86 215 11:38 19.02.2020
2460 Clouds 29 1014 62 0 0.19 170 11:20 19.02.2020
2461 Clouds 29 1014 62 0 0.19 170 10:58 19.02.2020
2462 Clouds 29 1014 62 0 0.19 170 10:38 19.02.2020
2463 Clouds 29 1014 62 0 0.19 170 10:38 19.02.2020
2464 Clouds 29 1014 62 0 0.19 170 10:19 19.02.2020
2465 Clouds 29 1014 62 0 0.19 170 09:58 19.02.2020
2466 Clouds 29 1014 62 0 0.19 170 09:37 19.02.2020
2467 Clouds 29 1014 62 0 0.19 170 09:19 19.02.2020
2468 Clouds 29 1014 62 0 0.19 170 08:45 19.02.2020
2469 Clouds 29 1013 60 0 0.68 213 08:24 19.02.2020
2470 Rain 22 1013 96 0 0.87 201 07:43 19.02.2020
2471 Rain 22 1013 96 0 0.87 201 07:25 19.02.2020
2472 Rain 22 1013 96 0 0.87 201 06:53 19.02.2020
2473 Rain 22 1013 96 0 0.87 201 06:27 19.02.2020
2474 Rain 21 1011 98 0 1.73 252 04:24 19.02.2020
2475 Rain 21 1011 98 0 1.73 252 02:56 19.02.2020
2476 Rain 21 1011 98 0 1.73 252 02:31 19.02.2020
2477 Rain 21 1012 98 0 1.43 244 01:24 19.02.2020
2478 Rain 21 1012 98 0 1.43 244 00:50 19.02.2020
2479 Rain 21 1012 98 0 1.43 244 00:30 19.02.2020
2480 Rain 21 1012 98 0 1.43 244 23:44 18.02.2020
2481 Rain 22 1013 98 0 0.5 29 23:21 18.02.2020
2482 Rain 22 1013 98 0 0.5 29 22:59 18.02.2020
2483 Rain 22 1013 98 0 0.5 29 22:41 18.02.2020
2484 Rain 22 1013 98 0 0.5 29 22:19 18.02.2020
2485 Rain 22 1013 98 0 0.5 29 21:56 18.02.2020
2486 Rain 22 1013 98 0 0.5 29 21:37 18.02.2020
2487 Rain 22 1013 98 0 0.5 29 21:19 18.02.2020
2488 Rain 22 1013 98 0 0.5 29 20:56 18.02.2020
2489 Rain 22 1013 98 0 0.5 29 20:38 18.02.2020
2490 Rain 23 1010 91 0 1.29 260 20:20 18.02.2020
2491 Clouds 22 1011 92 0 1.05 291 19:43 18.02.2020
2492 Clouds 22 1011 92 0 1.05 291 19:20 18.02.2020
2493 Clouds 22 1011 92 0 1.05 291 18:59 18.02.2020
2494 Clouds 22 1011 92 0 1.05 291 18:41 18.02.2020
2495 Clouds 22 1011 92 0 1.05 291 18:20 18.02.2020
2496 Clouds 22 1011 92 0 1.05 291 18:20 18.02.2020
2497 Clouds 22 1011 92 0 1.05 291 17:56 18.02.2020
2498 Clouds 22 1011 92 0 1.05 291 17:37 18.02.2020
2499 Clouds 22 1011 92 0 1.05 291 17:37 18.02.2020
2500 Clouds 26 1012 83 8000 2.1 80 17:18 18.02.2020
2501 Clouds 26 1012 83 8000 2.1 80 16:39 18.02.2020
2502 Clouds 26 1008 74 0 2.1 269 16:19 18.02.2020
2503 Clouds 26 1008 74 0 2.1 269 15:41 18.02.2020
2504 Clouds 26 1011 83 8000 3.1 60 15:20 18.02.2020
2505 Clouds 26 1011 83 8000 3.1 60 14:57 18.02.2020
2506 Clouds 26 1008 74 0 2.1 269 14:39 18.02.2020
2507 Rain 24 1011 88 0 1.2 292 14:20 18.02.2020
2508 Rain 24 1011 88 0 1.2 292 13:42 18.02.2020
2509 Rain 23 1014 100 7000 2.1 360 13:23 18.02.2020
2510 Rain 23 1014 100 7000 2.1 360 12:59 18.02.2020
2511 Rain 23 1014 100 7000 2.1 360 12:59 18.02.2020
2512 Rain 23 1014 100 7000 2.1 360 12:40 18.02.2020
2513 Rain 26 1010 73 0 1.23 265 12:22 18.02.2020
2514 Rain 26 1010 73 0 1.23 265 11:46 18.02.2020
2515 Rain 26 1010 73 0 1.23 265 11:26 18.02.2020
2516 Rain 24 1013 92 0 1.97 266 10:58 18.02.2020
2517 Rain 24 1013 92 0 1.97 266 10:39 18.02.2020
2518 Thunderstorm 22 1016 88 4000 2.1 180 10:18 18.02.2020
2519 Thunderstorm 22 1016 88 4000 2.1 180 09:56 18.02.2020
2520 Thunderstorm 22 1016 88 4000 2.1 180 09:37 18.02.2020
2521 Thunderstorm 22 1015 94 4000 3.1 60 09:19 18.02.2020
2522 Thunderstorm 22 1015 94 4000 3.1 60 08:43 18.02.2020
2523 Rain 24 1013 92 0 1.97 266 08:21 18.02.2020
2524 Rain 21 1013 99 0 0.83 274 07:58 18.02.2020
2525 Rain 21 1013 99 0 0.83 274 07:36 18.02.2020
2526 Mist 22 1013 94 4000 3.1 90 07:18 18.02.2020
2527 Mist 22 1013 94 4000 3.1 90 06:41 18.02.2020
2528 Rain 21 1013 99 0 0.83 274 06:21 18.02.2020
2529 Rain 21 1013 99 0 0.83 274 05:46 18.02.2020
2530 Rain 22 1011 99 0 1.31 19 04:43 18.02.2020
2531 Rain 22 1011 99 0 1.31 19 03:36 18.02.2020
2532 Rain 22 1011 99 0 1.31 19 02:49 18.02.2020
2533 Rain 22 1011 98 0 1.53 73 01:21 18.02.2020
2534 Rain 22 1011 98 0 0.94 297 00:22 18.02.2020
2535 Rain 22 1011 98 0 0.94 297 23:57 17.02.2020
2536 Rain 22 1011 98 0 0.94 297 23:38 17.02.2020
2537 Rain 22 1011 96 0 1.5 346 23:19 17.02.2020
2538 Rain 22 1011 96 0 1.5 346 22:42 17.02.2020
2539 Rain 22 1011 96 0 1.5 346 22:21 17.02.2020
2540 Rain 22 1011 96 0 1.5 346 21:59 17.02.2020
2541 Rain 22 1011 96 0 1.5 346 21:38 17.02.2020
2542 Rain 22 1011 96 0 1.5 346 21:18 17.02.2020
2543 Rain 22 1011 96 0 1.5 346 20:42 17.02.2020
2544 Rain 22 1011 96 0 1.5 346 20:42 17.02.2020
2545 Rain 22 1010 96 0 2.07 116 20:21 17.02.2020
2546 Rain 23 1008 92 0 2.5 190 19:59 17.02.2020
2547 Rain 23 1008 92 0 2.5 190 19:40 17.02.2020
2548 Rain 23 1008 92 0 2.5 190 19:40 17.02.2020
2549 Rain 23 1008 92 0 2.5 190 19:20 17.02.2020
2550 Rain 23 1008 92 0 2.5 190 18:38 17.02.2020
2551 Rain 23 1008 92 0 2.5 190 18:38 17.02.2020
2552 Rain 23 1008 92 0 2.5 190 18:20 17.02.2020
2553 Rain 23 1008 92 0 2.5 190 17:59 17.02.2020
2554 Rain 23 1008 92 0 2.5 190 17:38 17.02.2020
2555 Rain 23 1004 92 0 1.26 51 17:19 17.02.2020
2556 Rain 23 1004 92 0 1.26 51 16:58 17.02.2020
2557 Rain 23 1004 92 0 1.26 51 16:40 17.02.2020
2558 -273 0 0 0 0 0 16:21 17.02.2020
2559 Rain 23 1004 92 0 1.26 51 15:45 17.02.2020
2560 Rain 23 1004 92 0 1.26 51 15:27 17.02.2020
2561 Rain 23 1004 92 0 1.26 51 14:57 17.02.2020
2562 Rain 23 1004 92 0 1.26 51 14:39 17.02.2020
2563 Clouds 31 1010 62 8000 2.1 300 14:20 17.02.2020
2564 Clouds 31 1010 62 8000 2.1 300 13:41 17.02.2020
2565 Clouds 29 1011 70 8000 2.1 120 13:22 17.02.2020
2566 Clouds 29 1011 70 8000 2.1 120 12:59 17.02.2020
2567 Clouds 29 1011 70 8000 2.1 120 12:41 17.02.2020
2568 Clouds 37 1006 35 0 0.7 177 12:22 17.02.2020
2569 Clouds 37 1006 35 0 0.7 177 11:47 17.02.2020
2570 Clouds 37 1006 35 0 0.7 177 11:29 17.02.2020
2571 Clouds 33 1010 50 0 1.66 181 10:58 17.02.2020
2572 Clouds 33 1010 50 0 1.66 181 10:40 17.02.2020
2573 Clouds 33 1010 50 0 1.66 181 10:21 17.02.2020
2574 Clouds 33 1010 50 0 1.66 181 10:21 17.02.2020
2575 Clouds 33 1010 50 0 1.66 181 09:58 17.02.2020
2576 Clouds 33 1010 50 0 1.66 181 09:40 17.02.2020
2577 Clouds 33 1010 50 0 1.66 181 09:19 17.02.2020
2578 Clouds 33 1010 50 0 1.66 181 08:56 17.02.2020
2579 Clouds 33 1010 50 0 1.66 181 08:38 17.02.2020
2580 Rain 23 1011 93 0 0.69 188 08:19 17.02.2020
2581 Rain 23 1011 93 0 0.69 188 07:40 17.02.2020
2582 Rain 23 1011 93 0 0.69 188 07:22 17.02.2020
2583 Rain 23 1011 93 0 0.69 188 06:49 17.02.2020
2584 Rain 23 1010 94 6000 0.69 188 06:30 17.02.2020
2585 Rain 23 1010 94 6000 0.69 188 05:40 17.02.2020
2586 Rain 21 1009 96 0 0.5 277 04:40 17.02.2020
2587 Rain 21 1009 96 0 0.5 277 03:18 17.02.2020
2588 Clouds 24 1009 74 0 1.19 206 01:25 17.02.2020
2589 Clouds 24 1009 74 0 1.19 206 00:41 17.02.2020
2590 Clouds 24 1009 74 0 1.19 206 00:19 17.02.2020
2591 Clouds 24 1009 74 0 1.19 206 23:52 16.02.2020
2592 Clouds 24 1009 74 0 1.19 206 23:28 16.02.2020
2593 Clouds 25 1009 69 0 1.59 214 22:56 16.02.2020
2594 Clouds 25 1009 69 0 1.59 214 22:38 16.02.2020
2595 Clouds 25 1009 69 0 1.59 214 22:38 16.02.2020
2596 Clouds 25 1009 69 0 1.59 214 22:20 16.02.2020
2597 Clouds 25 1009 69 0 1.59 214 21:55 16.02.2020
2598 Clouds 25 1009 69 0 1.59 214 21:37 16.02.2020
2599 Clouds 25 1009 69 0 1.59 214 21:37 16.02.2020
2600 Clouds 25 1009 69 0 1.59 214 21:18 16.02.2020
2601 Clouds 25 1009 69 0 1.59 214 20:56 16.02.2020
2602 Clouds 25 1009 69 0 1.59 214 20:38 16.02.2020
2603 Clouds 28 1008 74 6000 1.25 203 20:19 16.02.2020
2604 Clouds 28 1008 74 6000 1.25 203 19:56 16.02.2020
2605 Clouds 28 1008 74 6000 1.25 203 19:36 16.02.2020
2606 Clouds 27 1007 61 0 1.25 203 19:18 16.02.2020
2607 Clouds 27 1007 61 0 1.25 203 18:41 16.02.2020
2608 Clouds 27 1007 61 0 1.25 203 18:23 16.02.2020
2609 Clouds 27 1007 61 0 1.25 203 17:45 16.02.2020
2610 Clouds 34 1005 39 0 0.6 79 17:21 16.02.2020
2611 Clouds 34 1005 39 0 0.6 79 16:58 16.02.2020
2612 Clouds 34 1005 39 0 0.6 79 16:39 16.02.2020
2613 Clouds 36 1007 39 6000 2.1 200 16:21 16.02.2020
2614 Clouds 36 1007 39 6000 2.1 200 16:21 16.02.2020
2615 Clouds 36 1007 39 6000 2.1 200 15:58 16.02.2020
2616 Clouds 36 1007 39 6000 2.1 200 15:38 16.02.2020
2617 Clouds 34 1005 39 0 0.6 79 15:20 16.02.2020
2618 Clouds 34 1005 39 0 0.6 79 14:41 16.02.2020
2619 Clouds 36 1009 37 6000 4.1 260 14:23 16.02.2020
2620 Clouds 36 1009 37 6000 4.1 260 13:48 16.02.2020
2621 Rain 36 1007 36 0 1.24 266 13:25 16.02.2020
2622 Rain 34 1008 39 0 1.96 259 12:58 16.02.2020
2623 Rain 34 1008 39 0 1.96 259 12:38 16.02.2020
2624 Rain 34 1008 39 0 1.96 259 12:19 16.02.2020
2625 Rain 34 1008 39 0 1.96 259 11:40 16.02.2020
2626 Rain 25 1012 85 0 0.18 194 11:19 16.02.2020
2627 Rain 25 1012 85 0 0.18 194 10:58 16.02.2020
2628 Rain 25 1012 85 0 0.18 194 10:58 16.02.2020
2629 Rain 25 1012 85 0 0.18 194 10:39 16.02.2020
2630 Haze 26 1013 78 5000 3.1 300 10:21 16.02.2020
2631 Haze 26 1013 78 5000 3.1 300 09:58 16.02.2020
2632 Haze 26 1013 78 5000 3.1 300 09:37 16.02.2020
2633 Rain 25 1012 85 0 0.18 194 09:19 16.02.2020
2634 Rain 25 1012 85 0 0.18 194 08:49 16.02.2020
2635 Haze 24 1014 88 5000 1.73 196 08:22 16.02.2020
2636 Haze 24 1014 88 5000 1.27 247 07:56 16.02.2020
2637 Haze 24 1014 88 5000 1.27 247 07:38 16.02.2020
2638 Rain 22 1013 91 0 1.27 247 06:36 16.02.2020
2639 Rain 22 1013 91 0 1.27 247 05:37 16.02.2020
2640 Rain 22 1010 92 0 1.77 161 04:30 16.02.2020
2641 Rain 22 1010 92 0 1.77 161 02:37 16.02.2020
2642 Rain 23 1009 83 0 0.74 97 01:57 16.02.2020
2643 Rain 23 1009 83 0 0.74 97 01:37 16.02.2020
2644 Clouds 23 1009 72 0 1.77 79 01:19 16.02.2020
2645 Clouds 23 1009 72 0 1.77 79 00:41 16.02.2020
2646 Clouds 23 1009 72 0 1.77 79 00:21 16.02.2020
2647 Clouds 23 1009 72 0 1.77 79 23:42 15.02.2020
2648 Clouds 23 1009 72 0 1.77 79 23:24 15.02.2020
2649 Clear 25 1008 60 0 0.97 207 22:56 15.02.2020
2650 Clear 25 1008 60 0 0.97 207 22:38 15.02.2020
2651 Clear 25 1008 60 0 0.97 207 22:19 15.02.2020
2652 Clear 25 1008 60 0 0.97 207 21:43 15.02.2020
2653 Clouds 25 1010 78 6000 2.1 120 21:24 15.02.2020
2654 Clouds 25 1010 78 6000 2.1 120 20:56 15.02.2020
2655 Clouds 25 1010 78 6000 2.1 120 20:37 15.02.2020
2656 Clouds 25 1010 78 6000 2.1 120 20:37 15.02.2020
2657 Clouds 27 1009 65 6000 2.1 120 20:19 15.02.2020
2658 Clouds 27 1009 65 6000 2.1 120 19:41 15.02.2020
2659 Clouds 28 1008 58 6000 2.1 90 19:22 15.02.2020
2660 Clouds 28 1008 58 6000 2.1 90 18:41 15.02.2020
2661 Clouds 27 1007 47 0 0.94 163 18:21 15.02.2020
2662 Clouds 27 1007 47 0 0.94 163 17:56 15.02.2020
2663 Clouds 27 1007 47 0 0.94 163 17:37 15.02.2020
2664 Haze 33 1007 43 5000 2.1 120 17:19 15.02.2020
2665 Haze 33 1007 43 5000 2.1 120 16:41 15.02.2020
2666 Haze 34 1007 44 5000 2.1 210 16:23 15.02.2020
2667 Haze 34 1007 44 5000 2.1 210 15:54 15.02.2020
2668 Haze 34 1007 44 5000 2.1 210 15:36 15.02.2020
2669 Clouds 35 1004 29 0 1.85 48 15:18 15.02.2020
2670 Clouds 35 1004 29 0 1.85 48 14:39 15.02.2020
2671 Haze 33 1010 46 5000 3.1 120 14:18 15.02.2020
2672 Haze 33 1010 46 5000 3.1 120 13:42 15.02.2020
2673 Haze 31 1010 48 4000 3.1 120 13:23 15.02.2020
2674 Haze 31 1010 48 4000 3.1 120 12:57 15.02.2020
2675 Haze 31 1010 48 4000 3.1 120 12:38 15.02.2020
2676 Clouds 38 1006 25 0 1.75 42 12:19 15.02.2020
2677 Clouds 38 1006 25 0 1.75 42 11:46 15.02.2020
2678 Clouds 38 1006 25 0 1.75 42 11:27 15.02.2020
2679 Clear 36 1010 33 0 0.96 141 10:49 15.02.2020
2680 Clear 36 1010 33 0 0.96 141 10:30 15.02.2020
2681 Clear 36 1010 33 0 0.96 141 09:57 15.02.2020
2682 Clear 36 1010 33 0 0.96 141 09:38 15.02.2020
2683 Clear 36 1010 33 0 0.96 141 09:20 15.02.2020
2684 Clear 36 1010 33 0 0.96 141 08:43 15.02.2020
2685 Clouds 35 1010 36 0 1.21 161 08:23 15.02.2020
2686 Clouds 25 1011 72 0 1.52 172 07:50 15.02.2020
2687 Clouds 25 1011 72 0 1.52 172 07:30 15.02.2020
2688 Clouds 25 1011 72 0 1.52 172 06:51 15.02.2020
2689 Clouds 25 1011 72 0 1.52 172 06:31 15.02.2020
2690 Clouds 25 1011 72 0 1.52 172 05:41 15.02.2020
2691 Clouds 22 1008 69 0 1.33 171 04:45 15.02.2020
2692 Clouds 22 1008 69 0 1.33 171 03:24 15.02.2020
2693 Clouds 22 1008 69 0 1.33 171 02:50 15.02.2020
2694 Clouds 26 1008 42 0 2.33 169 02:21 15.02.2020
2695 Clouds 26 1008 42 0 2.33 169 01:39 15.02.2020
2696 Clouds 25 1008 44 0 1.56 176 00:41 15.02.2020
2697 Clouds 25 1008 44 0 1.56 176 00:19 15.02.2020
2698 Clouds 25 1008 44 0 1.56 176 23:39 14.02.2020
2699 Clouds 25 1008 42 0 0.32 85 23:19 14.02.2020
2700 Clouds 25 1008 42 0 0.32 85 22:44 14.02.2020
2701 Clouds 25 1008 42 0 0.32 85 22:23 14.02.2020
2702 Clouds 25 1008 42 0 0.32 85 21:52 14.02.2020
2703 Clouds 25 1008 42 0 0.32 85 21:34 14.02.2020
2704 Clouds 25 1008 42 0 0.32 85 20:59 14.02.2020
2705 Clouds 25 1008 42 0 0.32 85 20:40 14.02.2020
2706 Clouds 28 1006 34 0 1.64 188 20:19 14.02.2020
2707 Clouds 28 1006 34 0 1.64 188 20:19 14.02.2020
2708 Clouds 28 1006 34 0 1.64 188 19:43 14.02.2020
2709 Clouds 28 1006 34 0 1.64 188 19:25 14.02.2020
2710 Clouds 28 1006 34 0 1.64 188 18:59 14.02.2020
2711 Clouds 28 1006 34 0 1.64 188 18:41 14.02.2020
2712 Clouds 28 1006 34 0 1.64 188 18:22 14.02.2020
2713 Clouds 28 1006 34 0 1.64 188 17:59 14.02.2020
2714 Clouds 28 1006 34 0 1.64 188 17:40 14.02.2020
2715 Clouds 37 1003 18 0 0.81 343 17:18 14.02.2020
2716 Clouds 37 1003 18 0 0.81 343 16:42 14.02.2020
2717 Clouds 37 1003 18 0 0.81 343 16:42 14.02.2020
2718 Clouds 37 1003 18 0 0.81 343 16:42 14.02.2020
2719 Clouds 37 1003 18 0 0.81 343 16:24 14.02.2020
2720 Clouds 37 1003 18 0 0.81 343 15:58 14.02.2020
2721 Clouds 37 1003 18 0 0.81 343 15:39 14.02.2020
2722 Clouds 37 1003 18 0 0.81 343 15:21 14.02.2020
2723 Clouds 37 1003 18 0 0.81 343 14:59 14.02.2020
2724 Clouds 37 1003 18 0 0.81 343 14:59 14.02.2020
2725 Clouds 37 1003 18 0 0.81 343 14:41 14.02.2020
2726 Clouds 37 1003 18 0 0.81 343 14:22 14.02.2020
2727 Clouds 38 1005 16 0 1.94 29 13:56 14.02.2020
2728 Clouds 38 1005 16 0 1.94 29 13:38 14.02.2020
2729 Clouds 38 1005 16 0 1.94 29 13:19 14.02.2020
2730 Clouds 38 1005 16 0 1.86 26 12:56 14.02.2020
2731 Clouds 38 1005 16 0 1.86 26 12:38 14.02.2020
2732 Clouds 38 1005 16 0 1.86 26 12:20 14.02.2020
2733 Clouds 38 1005 16 0 1.86 26 11:55 14.02.2020
2734 Clouds 38 1005 16 0 1.86 26 11:37 14.02.2020
2735 Clouds 33 1009 25 0 1.59 19 11:19 14.02.2020
2736 Clouds 33 1009 25 0 1.59 19 10:41 14.02.2020
2737 Clouds 33 1009 25 0 1.59 19 10:22 14.02.2020
2738 Clouds 33 1009 25 0 1.59 19 10:22 14.02.2020
2739 Clouds 33 1009 25 0 1.59 19 09:45 14.02.2020
2740 Clouds 33 1009 25 0 1.59 19 09:24 14.02.2020
2741 Clouds 33 1009 25 0 1.59 19 08:58 14.02.2020
2742 Clouds 33 1009 25 0 1.59 19 08:39 14.02.2020
2743 Clouds 23 1010 58 0 0.92 56 08:21 14.02.2020
2744 Clouds 23 1010 58 0 0.92 56 07:50 14.02.2020
2745 Clouds 23 1010 58 0 0.92 56 07:29 14.02.2020
2746 Clouds 23 1010 58 0 0.92 56 06:41 14.02.2020
2747 Clouds 23 1010 58 0 0.92 56 06:41 14.02.2020
2748 Clouds 23 1010 58 0 0.92 56 06:21 14.02.2020
2749 Clouds 23 1010 58 0 0.92 56 05:38 14.02.2020
2750 Clouds 21 1008 62 0 0.5 276 03:50 14.02.2020
2751 Clouds 21 1008 62 0 0.5 276 02:58 14.02.2020
2752 Clouds 21 1008 63 0 0.67 265 01:57 14.02.2020
2753 Clouds 21 1009 59 0 0.82 245 00:52 14.02.2020
2754 Clouds 21 1009 59 0 0.82 245 00:31 14.02.2020
2755 Clouds 21 1009 59 0 0.82 245 23:57 13.02.2020
2756 Clouds 21 1009 59 0 0.82 245 23:38 13.02.2020
2757 Clouds 22 1010 59 0 0.95 249 23:18 13.02.2020
2758 Clouds 22 1010 59 0 0.95 249 22:40 13.02.2020
2759 Clouds 22 1010 59 0 0.95 249 22:19 13.02.2020
2760 Clouds 22 1010 59 0 0.95 249 21:58 13.02.2020
2761 Clouds 22 1010 59 0 0.95 249 21:40 13.02.2020
2762 Clouds 22 1010 59 0 0.95 249 21:40 13.02.2020
2763 Clouds 22 1010 59 0 0.95 249 21:20 13.02.2020
2764 Clouds 22 1010 59 0 0.95 249 20:42 13.02.2020
2765 Clouds 23 1009 54 0 1.18 247 20:22 13.02.2020
2766 Clouds 26 1006 45 0 1.64 229 19:58 13.02.2020
2767 Clouds 26 1006 45 0 1.64 229 19:39 13.02.2020
2768 Clouds 26 1006 45 0 1.64 229 19:20 13.02.2020
2769 Clouds 26 1006 45 0 1.64 229 18:58 13.02.2020
2770 Clouds 26 1006 45 0 1.64 229 18:58 13.02.2020
2771 Clouds 26 1006 45 0 1.64 229 18:39 13.02.2020
2772 Clouds 26 1006 45 0 1.64 229 18:21 13.02.2020
2773 Clouds 26 1006 45 0 1.64 229 17:57 13.02.2020
2774 Clouds 26 1006 45 0 1.64 229 17:37 13.02.2020
2775 Clouds 36 1004 21 0 1.76 21 17:19 13.02.2020
2776 Clouds 36 1004 21 0 1.76 21 16:42 13.02.2020
2777 Clouds 36 1004 21 0 1.76 21 16:21 13.02.2020
2778 Clouds 36 1004 21 0 1.76 21 15:58 13.02.2020
2779 Clouds 36 1004 21 0 1.76 21 15:39 13.02.2020
2780 Haze 33 1010 43 5000 2.1 50 15:20 13.02.2020
2781 Haze 33 1010 43 5000 2.1 50 14:59 13.02.2020
2782 Haze 33 1010 43 5000 2.1 50 14:40 13.02.2020
2783 Haze 33 1010 43 5000 2.1 50 14:40 13.02.2020
2784 Clouds 37 1007 22 0 2.57 6 14:22 13.02.2020
2785 Clouds 37 1007 22 0 2.57 6 13:59 13.02.2020
2786 Clouds 37 1007 22 0 2.57 6 13:41 13.02.2020
2787 Clouds 31 1011 48 6000 2.1 360 13:18 13.02.2020
2788 Clouds 31 1011 48 6000 2.1 360 12:48 13.02.2020
2789 Clouds 28 1013 61 6000 2.44 0 12:30 13.02.2020
2790 Clouds 28 1013 61 6000 2.44 0 11:58 13.02.2020
2791 Clouds 28 1013 61 6000 2.44 0 11:40 13.02.2020
2792 Clouds 27 1013 65 6000 2.1 60 11:19 13.02.2020
2793 Clouds 27 1013 65 6000 2.1 60 10:43 13.02.2020
2794 Clouds 34 1012 33 0 1.46 35 10:24 13.02.2020
2795 Clouds 34 1012 33 0 1.46 35 09:47 13.02.2020
2796 Clouds 34 1012 33 0 1.46 35 09:24 13.02.2020
2797 Clouds 34 1012 33 0 1.46 35 08:48 13.02.2020
2798 Mist 22 1013 94 1500 2.1 360 08:20 13.02.2020
2799 Mist 22 1013 94 1500 2.1 360 07:45 13.02.2020
2800 Mist 22 1013 94 1500 1.02 105 07:24 13.02.2020
2801 Mist 22 1013 94 1500 1.02 105 06:59 13.02.2020
2802 Mist 22 1013 94 1500 1.02 105 06:41 13.02.2020
2803 Mist 21 1013 100 3000 1.02 105 05:57 13.02.2020
2804 Clouds 21 1010 71 0 0.86 26 05:20 13.02.2020
2805 Clouds 21 1010 71 0 0.86 26 04:24 13.02.2020
2806 Clouds 21 1010 71 0 0.86 26 03:45 13.02.2020
2807 Clouds 21 1010 71 0 0.86 26 02:59 13.02.2020
2808 Clouds 21 1010 71 0 0.86 26 02:37 13.02.2020
2809 Clouds 22 1010 60 0 0.85 224 02:18 13.02.2020
2810 Clouds 22 1009 59 0 0.69 219 01:25 13.02.2020
2811 Clouds 22 1009 59 0 0.69 219 00:32 13.02.2020
2812 Clouds 22 1009 59 0 0.69 219 23:57 12.02.2020
2813 Clouds 22 1009 59 0 0.69 219 23:37 12.02.2020
2814 Clouds 25 1010 52 0 0.41 211 23:18 12.02.2020
2815 Clouds 25 1010 52 0 0.41 211 22:43 12.02.2020
2816 Clouds 25 1010 52 0 0.41 211 22:23 12.02.2020
2817 Clouds 25 1010 52 0 0.41 211 21:56 12.02.2020
2818 Clouds 25 1010 52 0 0.41 211 21:37 12.02.2020
2819 Clouds 25 1010 52 0 0.41 211 21:37 12.02.2020
2820 Clouds 25 1010 52 0 0.41 211 21:18 12.02.2020
2821 Clouds 25 1010 52 0 0.41 211 20:54 12.02.2020
2822 Clouds 25 1010 52 0 0.41 211 20:36 12.02.2020
2823 Clouds 26 1008 45 0 0.31 244 20:18 12.02.2020
2824 Clouds 27 1008 42 0 0.79 290 19:43 12.02.2020
2825 Clouds 26 1008 45 0 0.31 244 19:22 12.02.2020
2826 Clouds 26 1008 45 0 0.31 244 18:54 12.02.2020
2827 Clouds 27 1008 42 0 0.79 290 18:36 12.02.2020
2828 Clouds 26 1008 45 0 0.31 244 18:18 12.02.2020
2829 Clouds 26 1008 45 0 0.31 244 17:40 12.02.2020
2830 Haze 30 1010 58 5000 3.1 230 17:19 12.02.2020
2831 Haze 30 1010 58 5000 3.1 230 16:57 12.02.2020
2832 Haze 30 1010 58 5000 3.1 230 16:37 12.02.2020
2833 Haze 33 1010 41 5000 2.1 320 16:18 12.02.2020
2834 Haze 33 1010 41 5000 2.1 320 15:39 12.02.2020
2835 Haze 33 1010 38 5000 3.1 340 15:20 12.02.2020
2836 Haze 33 1010 38 5000 3.1 340 14:54 12.02.2020
2837 Haze 33 1010 38 5000 3.1 340 14:36 12.02.2020
2838 Haze 33 1011 43 5000 3.1 30 14:18 12.02.2020
2839 Haze 33 1011 43 5000 3.1 30 13:55 12.02.2020
2840 Haze 33 1011 43 5000 3.1 30 13:36 12.02.2020
2841 Clouds 32 1012 40 6000 3.1 60 13:18 12.02.2020
2842 Clouds 32 1012 40 6000 3.1 60 12:55 12.02.2020
2843 Clouds 32 1012 40 6000 3.1 60 12:36 12.02.2020
2844 Clouds 36 1008 26 0 1.6 313 12:18 12.02.2020
2845 Clouds 36 1008 26 0 1.6 313 11:41 12.02.2020
2846 Haze 30 1014 55 6000 4.1 360 11:21 12.02.2020
2847 Haze 30 1014 55 6000 4.1 360 10:58 12.02.2020
2848 Haze 30 1014 55 6000 4.1 360 10:58 12.02.2020
2849 Haze 30 1014 55 6000 4.1 360 10:40 12.02.2020
2850 Haze 30 1014 55 6000 4.1 360 10:40 12.02.2020
2851 Mist 26 1014 78 4000 3.1 320 10:20 12.02.2020
2852 Mist 26 1014 78 4000 3.1 320 09:56 12.02.2020
2853 Mist 26 1014 78 4000 3.1 320 09:38 12.02.2020
2854 Mist 24 1014 88 2000 1.99 360 09:18 12.02.2020
2855 Mist 24 1014 88 2000 1.99 360 08:55 12.02.2020
2856 Mist 24 1014 88 2000 1.99 360 08:36 12.02.2020
2857 Mist 21 1012 100 1000 1.77 20 08:18 12.02.2020
2858 Mist 21 1012 100 1000 1.77 20 07:41 12.02.2020
2859 Mist 21 1012 94 2000 1.77 20 07:21 12.02.2020
2860 Mist 21 1012 94 2000 1.77 20 06:52 12.02.2020
2861 Mist 20 1011 100 1500 1.77 20 06:20 12.02.2020
2862 Clouds 23 1013 52 0 1.77 20 05:33 12.02.2020
2863 Clouds 21 1010 52 0 0.19 183 04:43 12.02.2020
2864 Clouds 21 1010 52 0 0.19 183 04:24 12.02.2020
2865 Clouds 21 1010 52 0 0.19 183 03:31 12.02.2020
2866 Clouds 21 1010 52 0 0.19 183 02:58 12.02.2020
2867 Clouds 21 1010 52 0 0.19 183 02:28 12.02.2020
2868 Clouds 23 1009 46 0 0.71 264 01:40 12.02.2020
2869 Clouds 23 1009 49 0 1.08 224 00:44 12.02.2020
2870 Clouds 23 1009 49 0 1.08 224 00:25 12.02.2020
2871 Clouds 23 1009 49 0 1.08 224 23:55 11.02.2020
2872 Clouds 23 1009 49 0 1.08 224 23:36 11.02.2020
2873 Clouds 24 1010 47 0 0.54 222 23:18 11.02.2020
2874 Clouds 24 1010 47 0 0.54 222 22:42 11.02.2020
2875 Haze 23 1011 83 4000 0.54 222 22:21 11.02.2020
2876 Haze 23 1011 83 4000 0.54 222 21:57 11.02.2020
2877 Haze 23 1011 83 4000 0.54 222 21:39 11.02.2020
2878 Haze 25 1010 73 4000 0.54 222 21:19 11.02.2020
2879 Haze 25 1010 73 4000 0.54 222 20:59 11.02.2020
2880 Haze 25 1010 73 4000 0.54 222 20:39 11.02.2020
2881 Haze 25 1010 73 4000 0.54 222 20:39 11.02.2020
2882 Haze 28 1010 61 4000 0.89 198 20:20 11.02.2020
2883 Haze 28 1010 61 4000 1.23 205 19:58 11.02.2020
2884 Haze 28 1010 61 4000 1.23 205 19:40 11.02.2020
2885 Haze 30 1009 55 4000 2.1 0 19:22 11.02.2020
2886 Haze 30 1009 55 4000 2.1 0 18:46 11.02.2020
2887 Clouds 26 1007 44 0 1.23 205 18:28 11.02.2020
2888 Clouds 26 1007 44 0 1.23 205 17:59 11.02.2020
2889 Clouds 26 1007 44 0 1.23 205 17:40 11.02.2020
2890 Haze 33 1009 46 5000 3.1 270 17:20 11.02.2020
2891 Haze 33 1009 46 5000 3.1 270 16:58 11.02.2020
2892 Haze 33 1009 46 5000 3.1 270 16:58 11.02.2020
2893 Haze 33 1009 46 5000 3.1 270 16:40 11.02.2020
2894 Clouds 35 1005 23 0 0.36 242 16:21 11.02.2020
2895 Clouds 35 1005 23 0 0.36 242 15:58 11.02.2020
2896 Clouds 35 1005 23 0 0.36 242 15:39 11.02.2020
2897 Clouds 35 1005 23 0 0.36 242 15:21 11.02.2020
2898 Clouds 35 1005 23 0 0.36 242 14:42 11.02.2020
2899 Clouds 38 1008 20 0 0.76 58 14:19 11.02.2020
2900 Clouds 38 1008 20 0 0.76 58 13:57 11.02.2020
2901 Clouds 38 1008 20 0 0.76 58 13:38 11.02.2020
2902 Clouds 31 1012 58 7000 2.1 120 13:20 11.02.2020
2903 Clouds 31 1012 58 7000 2.1 120 12:55 11.02.2020
2904 Clouds 31 1012 58 7000 2.1 120 12:36 11.02.2020
2905 Clouds 31 1013 62 8000 4.1 210 12:18 11.02.2020
2906 Clouds 31 1013 62 8000 4.1 210 11:41 11.02.2020
2907 Clear 34 1012 24 0 1.12 27 11:19 11.02.2020
2908 Clear 34 1012 24 0 1.12 27 11:19 11.02.2020
2909 Clear 34 1012 24 0 1.12 27 10:54 11.02.2020
2910 Clear 34 1012 24 0 1.12 27 10:54 11.02.2020
2911 Clear 34 1012 24 0 1.12 27 10:36 11.02.2020
2912 Clear 34 1012 24 0 1.12 27 10:18 11.02.2020
2913 Clear 34 1012 24 0 1.12 27 09:43 11.02.2020
2914 Clouds 25 1014 78 7000 2.1 120 09:22 11.02.2020
2915 Clouds 25 1014 78 7000 2.1 120 08:56 11.02.2020
2916 Clouds 25 1014 78 7000 2.1 120 08:38 11.02.2020
2917 Mist 22 1014 100 3000 2.1 0 08:19 11.02.2020
2918 Mist 22 1014 100 3000 2.1 0 07:45 11.02.2020
2919 Mist 21 1013 100 2000 0.22 116 07:19 11.02.2020
2920 Mist 21 1013 100 2000 0.22 116 06:42 11.02.2020
2921 Mist 21 1012 100 3000 0.22 116 06:20 11.02.2020
2922 Mist 21 1012 100 3000 0.22 116 05:47 11.02.2020
2923 Clouds 24 1014 61 0 0.22 116 05:21 11.02.2020
2924 Clear 20 1011 60 0 0.27 146 04:35 11.02.2020
2925 Clear 20 1011 60 0 0.27 146 02:41 11.02.2020
2926 Clear 20 1011 60 0 0.27 146 02:22 11.02.2020
2927 Clouds 21 1010 51 0 0.36 358 01:34 11.02.2020
2928 Clouds 21 1010 60 0 0.78 39 00:32 11.02.2020
2929 Clouds 21 1010 60 0 0.78 39 23:53 10.02.2020
2930 Clouds 21 1010 60 0 0.78 39 23:33 10.02.2020
2931 Clouds 21 1010 60 0 0.78 39 23:33 10.02.2020
2932 Clouds 24 1010 44 0 1.09 241 22:58 10.02.2020
2933 Clouds 24 1010 44 0 1.09 241 22:39 10.02.2020
2934 Clouds 24 1010 44 0 1.09 241 22:20 10.02.2020
2935 Clouds 24 1010 44 0 1.09 241 21:43 10.02.2020
2936 Clouds 24 1010 44 0 1.09 241 21:43 10.02.2020
2937 Clouds 24 1010 44 0 1.09 241 21:25 10.02.2020
2938 Clouds 24 1010 44 0 1.09 241 20:58 10.02.2020
2939 Clouds 24 1010 44 0 1.09 241 20:38 10.02.2020
2940 Clear 27 1008 36 0 1.12 221 20:20 10.02.2020
2941 Clear 27 1008 36 0 1.12 221 19:58 10.02.2020
2942 Clear 27 1008 36 0 1.12 221 19:38 10.02.2020
2943 Mist 29 1010 66 4000 1.12 221 19:19 10.02.2020
2944 Mist 29 1010 66 4000 1.12 221 18:58 10.02.2020
2945 Mist 29 1010 66 4000 1.12 221 18:40 10.02.2020
2946 Haze 31 1010 55 4000 1.12 221 18:21 10.02.2020
2947 Haze 31 1010 55 4000 1.12 221 17:57 10.02.2020
2948 Haze 31 1010 55 4000 1.12 221 17:37 10.02.2020
2949 Haze 31 1010 55 4000 1.12 221 17:37 10.02.2020
2950 Haze 32 1010 46 4000 3.1 340 17:19 10.02.2020
2951 Clear 35 1006 23 0 1.76 11 16:58 10.02.2020
2952 Clear 35 1006 23 0 1.76 11 16:39 10.02.2020
2953 Haze 34 1010 38 4000 3.1 340 16:19 10.02.2020
2954 Haze 34 1010 38 4000 3.1 340 15:56 10.02.2020
2955 Haze 34 1010 38 4000 3.1 340 15:38 10.02.2020
2956 Haze 32 1010 49 5000 3.1 30 15:20 10.02.2020
2957 Haze 32 1010 49 5000 3.1 30 14:56 10.02.2020
2958 Haze 32 1010 49 5000 3.1 30 14:36 10.02.2020
2959 Haze 34 1011 41 5000 4.1 300 14:18 10.02.2020
2960 Haze 34 1011 41 5000 4.1 300 13:42 10.02.2020
2961 Clouds 34 1012 44 7000 4.1 300 13:24 10.02.2020
2962 Clouds 34 1012 44 7000 4.1 300 12:51 10.02.2020
2963 Clouds 32 1014 59 8000 4.1 320 12:27 10.02.2020
2964 Clouds 32 1014 59 8000 4.1 320 11:56 10.02.2020
2965 Clouds 32 1014 59 8000 4.1 320 11:38 10.02.2020
2966 Rain 29 1012 62 0 1.44 291 11:20 10.02.2020
2967 Rain 29 1012 62 0 1.44 291 10:47 10.02.2020
2968 Clouds 29 1015 70 7000 3.1 340 10:28 10.02.2020
2969 Clouds 29 1015 70 7000 3.1 340 09:48 10.02.2020
2970 Rain 29 1012 62 0 1.44 291 09:27 10.02.2020
2971 Rain 29 1012 62 0 1.44 291 08:58 10.02.2020
2972 Rain 29 1012 62 0 1.44 291 08:38 10.02.2020
2973 Rain 24 1013 89 0 0.82 265 08:19 10.02.2020
2974 Rain 24 1013 89 0 0.82 265 07:51 10.02.2020
2975 Rain 24 1013 89 0 0.82 265 07:31 10.02.2020
2976 Rain 24 1013 89 0 0.82 265 06:30 10.02.2020
2977 Rain 22 1010 94 0 0.23 146 04:47 10.02.2020
2978 Rain 22 1010 94 0 0.23 146 03:52 10.02.2020
2979 Rain 22 1010 94 0 0.23 146 02:56 10.02.2020
2980 Rain 22 1010 94 0 0.23 146 02:35 10.02.2020
2981 Clouds 23 1010 86 0 0.77 227 00:56 10.02.2020
2982 Clouds 23 1010 86 0 0.77 227 00:37 10.02.2020
2983 Clouds 23 1010 86 0 0.77 227 23:58 09.02.2020
2984 Clouds 23 1010 86 0 0.77 227 23:40 09.02.2020
2985 Clear 22 1012 94 6000 0.77 227 23:22 09.02.2020
2986 Clear 22 1012 94 6000 1.64 256 22:43 09.02.2020
2987 Clear 24 1009 78 0 1.64 256 22:21 09.02.2020
2988 Clear 24 1009 78 0 1.64 256 21:45 09.02.2020
2989 Clear 24 1009 78 0 1.64 256 21:25 09.02.2020
2990 Clear 24 1009 78 0 1.64 256 20:59 09.02.2020
2991 Clear 24 1009 78 0 1.64 256 20:41 09.02.2020
2992 Clouds 26 1008 74 0 1.48 219 20:19 09.02.2020
2993 Clouds 26 1008 71 0 1.55 217 19:40 09.02.2020
2994 Clouds 26 1008 71 0 1.55 217 19:22 09.02.2020
2995 Clouds 26 1008 71 0 1.55 217 18:59 09.02.2020
2996 Clouds 26 1008 71 0 1.55 217 18:40 09.02.2020
2997 Clouds 26 1018 50 7000 3.1 90 18:22 09.02.2020
2998 Clouds 26 1018 50 7000 3.1 90 17:43 09.02.2020
2999 Clouds 31 1010 62 8000 3.1 210 17:23 09.02.2020
3000 Clouds 31 1006 52 0 2.16 221 16:57 09.02.2020
3001 Clouds 31 1006 52 0 2.16 221 16:38 09.02.2020
3002 Clouds 32 1010 59 8000 3.1 180 16:20 09.02.2020
3003 Clouds 32 1010 59 8000 3.1 180 15:56 09.02.2020
3004 Clouds 32 1010 59 8000 3.1 180 15:38 09.02.2020
3005 Clouds 32 1011 59 8000 3.1 180 15:20 09.02.2020
3006 Clouds 32 1011 59 8000 3.1 180 14:42 09.02.2020
3007 Clouds 30 1012 62 8000 3.1 180 14:23 09.02.2020
3008 Clouds 30 1012 62 8000 3.1 180 13:55 09.02.2020
3009 Clouds 30 1012 62 8000 3.1 180 13:37 09.02.2020
3010 Clouds 28 1013 69 8000 3.1 160 13:18 09.02.2020
3011 Clouds 28 1013 69 8000 3.1 160 12:42 09.02.2020
3012 Clouds 28 1013 69 8000 3.1 160 12:42 09.02.2020
3013 Clouds 27 1014 74 8000 3.1 160 12:20 09.02.2020
3014 Clouds 27 1014 74 8000 3.1 160 11:58 09.02.2020
3015 Clouds 27 1014 74 8000 3.1 160 11:39 09.02.2020
3016 Clouds 26 1015 78 8000 3.1 160 11:19 09.02.2020
3017 Clouds 26 1015 78 8000 3.1 160 10:43 09.02.2020
3018 Clouds 25 1015 88 8000 4.1 210 10:23 09.02.2020
3019 Clouds 25 1015 88 8000 4.1 210 09:57 09.02.2020
3020 Clouds 25 1015 88 8000 4.1 210 09:38 09.02.2020
3021 Clouds 24 1014 88 6000 3.1 210 09:19 09.02.2020
3022 Clouds 24 1014 88 6000 3.1 210 08:40 09.02.2020
3023 Clouds 26 1013 80 0 1.51 196 08:22 09.02.2020
3024 Rain 23 1013 91 0 1.52 228 07:51 09.02.2020
3025 Mist 20 1013 94 4000 1.52 228 07:26 09.02.2020
3026 Mist 20 1013 94 4000 1.52 228 06:37 09.02.2020
3027 Mist 20 1013 94 3000 1.52 228 05:55 09.02.2020
3028 Rain 23 1013 91 0 1.52 228 05:33 09.02.2020
3029 Rain 23 1010 81 0 0.71 278 04:48 09.02.2020
3030 Rain 23 1010 81 0 0.71 278 02:58 09.02.2020
3031 Rain 23 1010 81 0 0.71 278 02:36 09.02.2020
3032 Clouds 25 1008 60 0 1.18 203 01:39 09.02.2020
3033 Rain 24 1008 66 0 0.74 213 00:56 09.02.2020
3034 Rain 24 1008 66 0 0.74 213 00:30 09.02.2020
3035 Rain 24 1008 66 0 0.74 213 23:50 08.02.2020
3036 Rain 24 1008 66 0 0.74 213 23:25 08.02.2020
3037 Clouds 26 1008 54 0 1.31 178 22:58 08.02.2020
3038 Clouds 26 1008 54 0 1.31 178 22:40 08.02.2020
3039 Clouds 26 1008 54 0 1.31 178 22:20 08.02.2020
3040 Clouds 26 1008 54 0 1.31 178 21:46 08.02.2020
3041 Clouds 26 1008 54 0 1.31 178 21:27 08.02.2020
3042 Clouds 26 1008 54 0 1.31 178 20:59 08.02.2020
3043 Clouds 26 1008 54 0 1.31 178 20:40 08.02.2020
3044 Clouds 28 1005 39 0 1.1 199 20:19 08.02.2020
3045 Clouds 28 1005 39 0 1.1 199 19:58 08.02.2020
3046 Clouds 28 1005 39 0 1.1 199 19:38 08.02.2020
3047 Clouds 22 1009 94 6000 3.1 180 19:19 08.02.2020
3048 Clouds 22 1009 94 6000 3.1 180 18:56 08.02.2020
3049 Clouds 22 1009 94 6000 3.1 180 18:37 08.02.2020
3050 Clouds 22 1009 94 6000 2.1 240 18:19 08.02.2020
3051 Clouds 22 1009 94 6000 2.1 240 17:41 08.02.2020
3052 Clouds 37 1003 23 0 1.3 316 17:19 08.02.2020
3053 Clouds 37 1003 23 0 1.3 316 16:41 08.02.2020
3054 Thunderstorm 24 1008 83 6000 3.1 180 16:23 08.02.2020
3055 Thunderstorm 24 1008 83 6000 3.1 180 16:23 08.02.2020
3056 Thunderstorm 24 1008 83 6000 3.1 180 15:58 08.02.2020
3057 Thunderstorm 24 1008 83 6000 3.1 180 15:39 08.02.2020
3058 Clouds 37 1003 23 0 1.3 316 15:18 08.02.2020
3059 Clouds 37 1003 23 0 1.3 316 14:45 08.02.2020
3060 Clouds 37 1003 23 0 1.3 316 14:22 08.02.2020
3061 Clouds 39 1006 23 0 1.32 19 13:58 08.02.2020
3062 Clouds 39 1006 23 0 1.32 19 13:40 08.02.2020
3063 Clouds 38 1007 26 0 0.75 39 13:21 08.02.2020
3064 Clouds 38 1007 26 0 0.75 39 12:40 08.02.2020
3065 Clouds 34 1012 52 7000 3.1 160 12:22 08.02.2020
3066 Clouds 34 1012 52 7000 3.1 160 11:56 08.02.2020
3067 Clouds 34 1012 52 7000 3.1 160 11:38 08.02.2020
3068 Clouds 33 1011 38 0 1.9 52 11:19 08.02.2020
3069 Clouds 33 1011 38 0 1.9 52 10:42 08.02.2020
3070 Clouds 32 1013 59 7000 3.1 120 10:22 08.02.2020
3071 Clouds 32 1013 59 7000 3.1 120 09:51 08.02.2020
3072 Clouds 27 1013 78 7000 2.1 300 09:27 08.02.2020
3073 Clouds 27 1013 78 7000 2.1 300 08:54 08.02.2020
3074 Clouds 27 1013 78 7000 2.1 300 08:36 08.02.2020
3075 Clouds 26 1013 63 0 1.34 120 08:18 08.02.2020
3076 Clouds 26 1013 63 0 1.34 120 07:44 08.02.2020
3077 Clouds 26 1013 63 0 1.34 120 07:19 08.02.2020
3078 Mist 22 1011 94 3000 2.1 50 06:28 08.02.2020
3079 Mist 22 1011 94 3000 2.1 50 05:48 08.02.2020
3080 Clouds 26 1013 63 0 1.34 120 05:29 08.02.2020
3081 Clouds 24 1009 68 0 1.23 86 04:48 08.02.2020
3082 Clouds 24 1009 68 0 1.23 86 03:48 08.02.2020
3083 Clouds 24 1009 68 0 1.23 86 02:51 08.02.2020
3084 Clouds 24 1008 65 0 0.61 227 01:41 08.02.2020
3085 Clouds 24 1008 66 0 0.64 214 01:22 08.02.2020
3086 Clouds 24 1008 66 0 0.64 214 00:39 08.02.2020
3087 Clouds 24 1008 66 0 0.64 214 00:20 08.02.2020
3088 Clouds 24 1008 66 0 0.64 214 23:43 07.02.2020
3089 Clouds 25 1008 56 0 0.82 217 23:20 07.02.2020
3090 Clouds 25 1008 56 0 0.82 217 22:58 07.02.2020
3091 Clouds 25 1008 56 0 0.82 217 22:39 07.02.2020
3092 Clouds 24 1011 88 6000 0.82 217 22:19 07.02.2020
3093 Clouds 25 1008 56 0 0.82 217 21:43 07.02.2020
3094 Clouds 25 1008 56 0 0.82 217 21:22 07.02.2020
3095 Clouds 25 1008 56 0 0.82 217 20:55 07.02.2020
3096 Clouds 25 1008 56 0 0.82 217 20:37 07.02.2020
3097 Clouds 29 1009 66 8000 2.1 0 20:18 07.02.2020
3098 Clouds 29 1009 66 8000 2.1 0 19:40 07.02.2020
3099 Clouds 32 1008 52 8000 2.1 30 19:21 07.02.2020
3100 Clouds 32 1008 52 8000 2.1 30 18:56 07.02.2020
3101 Clouds 32 1008 52 8000 2.1 30 18:38 07.02.2020
3102 Clouds 27 1007 57 0 0.83 132 18:19 07.02.2020
3103 Clouds 27 1007 57 0 0.83 132 17:43 07.02.2020
3104 Clouds 27 1007 57 0 0.83 132 17:22 07.02.2020
3105 Clouds 35 1005 33 0 1.2 73 16:55 07.02.2020
3106 Clouds 35 1005 33 0 1.2 73 16:37 07.02.2020
3107 Clouds 35 1005 33 0 1.2 73 16:19 07.02.2020
3108 Clouds 35 1005 33 0 1.2 73 15:44 07.02.2020
3109 Clouds 35 1005 33 0 1.2 73 15:21 07.02.2020
3110 Clouds 35 1005 33 0 1.2 73 14:43 07.02.2020
3111 Clouds 35 1005 33 0 1.2 73 14:24 07.02.2020
3112 Clouds 36 1007 31 0 2.01 27 13:58 07.02.2020
3113 Clouds 36 1007 31 0 2.01 27 13:39 07.02.2020
3114 Clouds 35 1011 44 10000 4.1 20 13:20 07.02.2020
3115 Clouds 35 1011 44 10000 4.1 20 12:55 07.02.2020
3116 Clouds 35 1011 44 10000 4.1 20 12:55 07.02.2020
3117 Clouds 35 1011 44 10000 4.1 20 12:36 07.02.2020
3118 Clouds 36 1008 32 0 2.08 35 12:18 07.02.2020
3119 Clouds 36 1008 32 0 2.08 35 11:41 07.02.2020
3120 Clouds 26 1013 83 8000 2.1 30 11:19 07.02.2020
3121 Clouds 26 1013 83 8000 2.1 30 10:41 07.02.2020
3122 Clouds 34 1012 44 0 1.05 46 10:22 07.02.2020
3123 Clouds 34 1012 44 0 1.05 46 09:56 07.02.2020
3124 Clouds 34 1012 44 0 1.05 46 09:37 07.02.2020
3125 Clouds 34 1012 44 0 1.05 46 09:19 07.02.2020
3126 Clouds 34 1012 44 0 1.05 46 08:42 07.02.2020
3127 Mist 23 1014 94 4000 2.1 90 08:20 07.02.2020
3128 Mist 23 1014 94 4000 2.1 90 07:45 07.02.2020
3129 Mist 22 1014 100 2000 0.09 91 07:26 07.02.2020
3130 Rain 23 1014 90 0 0.09 91 06:45 07.02.2020
3131 Rain 23 1014 90 0 0.09 91 06:25 07.02.2020
3132 Rain 23 1014 90 0 0.09 91 05:45 07.02.2020
3133 Rain 21 1011 96 0 1.3 127 04:42 07.02.2020
3134 Rain 21 1011 96 0 1.3 127 02:50 07.02.2020
3135 Clouds 22 1011 84 0 0.39 112 01:42 07.02.2020
3136 Clear 22 1010 78 0 0.52 107 00:48 07.02.2020
3137 Clear 22 1010 78 0 0.52 107 00:20 07.02.2020
3138 Clear 22 1010 78 0 0.52 107 00:20 07.02.2020
3139 Clear 22 1010 78 0 0.52 107 23:37 06.02.2020
3140 Clear 23 1011 73 0 0.55 137 23:19 06.02.2020
3141 Clear 23 1011 73 0 0.55 137 22:44 06.02.2020
3142 Clear 23 1011 73 0 0.55 137 22:25 06.02.2020
3143 Clear 23 1011 73 0 0.55 137 21:38 06.02.2020
3144 Clear 23 1011 73 0 0.55 137 21:20 06.02.2020
3145 Clear 23 1011 73 0 0.55 137 20:58 06.02.2020
3146 Clear 23 1011 73 0 0.55 137 20:39 06.02.2020
3147 Clouds 28 1012 74 6000 0.95 176 20:19 06.02.2020
3148 Clouds 28 1012 74 6000 0.95 176 19:59 06.02.2020
3149 Clouds 28 1012 74 6000 0.95 176 19:41 06.02.2020
3150 Rain 25 1009 71 0 0.95 176 19:22 06.02.2020
3151 Rain 25 1009 71 0 0.95 176 18:58 06.02.2020
3152 Rain 25 1009 71 0 0.95 176 18:40 06.02.2020
3153 Rain 25 1009 71 0 0.95 176 18:40 06.02.2020
3154 Clouds 31 1010 55 7000 2.1 240 18:21 06.02.2020
3155 Rain 25 1009 71 0 0.95 176 17:45 06.02.2020
3156 Clouds 33 1009 49 8000 2.1 240 17:21 06.02.2020
3157 Clouds 33 1009 49 8000 2.1 240 16:59 06.02.2020
3158 Clouds 33 1009 49 8000 2.1 240 16:40 06.02.2020
3159 Clouds 33 1007 37 0 1.56 71 16:22 06.02.2020
3160 Clouds 33 1007 37 0 1.56 71 15:42 06.02.2020
3161 Clouds 33 1007 37 0 1.56 71 15:42 06.02.2020
3162 Clouds 33 1007 37 0 1.56 71 15:22 06.02.2020
3163 Clouds 33 1007 37 0 1.56 71 14:50 06.02.2020
3164 Clouds 31 1012 58 9000 2.1 260 14:28 06.02.2020
3165 Clouds 31 1012 58 9000 2.1 260 13:58 06.02.2020
3166 Clouds 31 1012 58 9000 2.1 260 13:40 06.02.2020
3167 Clouds 31 1013 58 9000 3.1 130 13:19 06.02.2020
3168 Clouds 31 1013 58 9000 3.1 130 12:44 06.02.2020
3169 Clouds 30 1014 62 8000 2.1 180 12:19 06.02.2020
3170 Clouds 30 1014 62 8000 2.1 180 11:57 06.02.2020
3171 Clouds 30 1014 62 8000 2.1 180 11:39 06.02.2020
3172 Clouds 29 1015 66 8000 2.1 260 11:18 06.02.2020
3173 Clouds 29 1015 66 8000 2.1 260 10:56 06.02.2020
3174 Clouds 29 1015 66 8000 2.1 260 10:38 06.02.2020
3175 Clouds 32 1013 43 0 1.95 168 10:18 06.02.2020
3176 Clouds 32 1013 43 0 1.95 168 09:44 06.02.2020
3177 Clouds 32 1013 43 0 1.95 168 09:21 06.02.2020
3178 Clouds 32 1013 43 0 1.95 168 08:47 06.02.2020
3179 Clouds 23 1014 94 6000 2.1 240 08:27 06.02.2020
3180 Clouds 23 1014 94 6000 2.1 240 07:59 06.02.2020
3181 Clouds 23 1014 94 6000 2.1 240 07:39 06.02.2020
3182 Mist 22 1013 100 4000 2.1 30 07:21 06.02.2020
3183 Clouds 24 1013 76 0 1.28 162 06:21 06.02.2020
3184 Clouds 24 1013 76 0 1.28 162 05:44 06.02.2020
3185 Clouds 22 1011 84 0 1.34 147 04:18 06.02.2020
3186 Clouds 22 1011 84 0 1.34 147 03:19 06.02.2020
3187 Clouds 22 1011 84 0 1.34 147 02:25 06.02.2020
3188 Clouds 22 1011 82 0 1.54 164 01:25 06.02.2020
3189 Clouds 22 1011 82 0 1.54 164 00:42 06.02.2020
3190 Clouds 22 1014 94 6000 2.1 0 00:21 06.02.2020
3191 Clouds 22 1014 94 6000 2.1 0 23:43 05.02.2020
3192 Clouds 22 1014 88 6000 1.54 164 23:24 05.02.2020
3193 Clouds 22 1014 88 6000 1.07 194 22:56 05.02.2020
3194 Clouds 22 1014 88 6000 1.07 194 22:37 05.02.2020
3195 Clouds 23 1014 88 6000 1.07 194 22:19 05.02.2020
3196 Clouds 23 1014 88 6000 1.07 194 21:41 05.02.2020
3197 Clouds 23 1012 76 0 1.07 194 21:22 05.02.2020
3198 Clouds 23 1012 76 0 1.07 194 20:55 05.02.2020
3199 Clouds 23 1012 76 0 1.07 194 20:37 05.02.2020
3200 Clouds 25 1013 83 6000 1.41 194 20:18 05.02.2020
3201 Clouds 24 1010 65 0 1.41 194 19:55 05.02.2020
3202 Clouds 24 1010 65 0 1.41 194 19:36 05.02.2020
3203 Clouds 24 1010 65 0 1.41 194 19:18 05.02.2020
3204 Clouds 24 1010 65 0 1.41 194 18:43 05.02.2020
3205 Clouds 29 1011 70 10000 2.1 180 18:21 05.02.2020
3206 Clouds 29 1011 70 10000 2.1 180 17:58 05.02.2020
3207 Clouds 29 1011 70 10000 2.1 180 17:37 05.02.2020
3208 Clouds 29 1011 70 10000 2.1 180 17:18 05.02.2020
3209 Clouds 30 1011 58 10000 4.1 180 16:43 05.02.2020
3210 Clouds 30 1008 48 0 1.82 170 16:25 05.02.2020
3211 Clouds 30 1008 48 0 1.82 170 15:58 05.02.2020
3212 Clouds 30 1008 48 0 1.82 170 15:38 05.02.2020
3213 Clouds 30 1012 58 10000 4.1 130 15:18 05.02.2020
3214 Clouds 30 1012 58 10000 4.1 130 14:42 05.02.2020
3215 Clouds 30 1013 58 10000 4.1 160 14:23 05.02.2020
3216 Clouds 30 1013 58 10000 4.1 160 13:58 05.02.2020
3217 Clouds 30 1013 58 10000 4.1 160 13:38 05.02.2020
3218 Clouds 30 1014 58 10000 4.1 180 13:19 05.02.2020
3219 Clouds 33 1009 43 0 1.63 224 12:42 05.02.2020
3220 Clouds 33 1009 43 0 1.63 224 12:22 05.02.2020
3221 Clouds 33 1009 43 0 1.63 224 11:54 05.02.2020
3222 Clouds 33 1009 43 0 1.63 224 11:36 05.02.2020
3223 Clouds 25 1014 73 0 1.6 131 11:18 05.02.2020
3224 Clouds 25 1014 73 0 1.6 131 10:42 05.02.2020
3225 Clouds 26 1018 78 10000 3.1 120 10:23 05.02.2020
3226 Clouds 26 1018 78 10000 3.1 120 10:23 05.02.2020
3227 Clouds 26 1018 78 10000 3.1 120 09:44 05.02.2020
3228 Clouds 25 1014 73 0 1.6 131 09:23 05.02.2020
3229 Clouds 25 1014 73 0 1.6 131 08:59 05.02.2020
3230 Clouds 25 1014 73 0 1.6 131 08:41 05.02.2020
3231 Clouds 23 1014 82 0 1.81 189 08:22 05.02.2020
3232 Clouds 23 1014 82 0 1.81 189 07:45 05.02.2020
3233 Mist 22 1014 100 4000 1.81 189 07:26 05.02.2020
3234 Clouds 23 1014 82 0 1.81 189 06:43 05.02.2020
3235 Mist 22 1014 100 4000 1.81 189 06:22 05.02.2020
3236 Mist 22 1014 100 4000 1.81 189 05:48 05.02.2020
3237 Clouds 20 1011 93 0 0.85 151 05:18 05.02.2020
3238 Clouds 20 1011 93 0 0.85 151 04:41 05.02.2020
3239 Clouds 20 1011 93 0 0.85 151 03:20 05.02.2020
3240 Clouds 20 1011 93 0 0.85 151 02:23 05.02.2020
3241 Clouds 23 1011 81 0 2.02 240 01:35 05.02.2020
3242 Clouds 23 1011 80 0 1.87 233 00:39 05.02.2020
3243 Clouds 23 1011 80 0 1.87 233 23:42 04.02.2020
3244 Clear 24 1013 77 0 3.18 234 23:23 04.02.2020
3245 Clear 24 1013 77 0 3.18 234 23:23 04.02.2020
3246 Clear 24 1013 77 0 3.18 234 22:58 04.02.2020
3247 Clear 24 1013 77 0 3.18 234 22:40 04.02.2020
3248 Clear 24 1013 77 0 3.18 234 22:21 04.02.2020
3249 Clear 24 1013 77 0 3.18 234 21:57 04.02.2020
3250 Clear 24 1013 77 0 3.18 234 21:39 04.02.2020
3251 Clear 24 1013 77 0 3.18 234 21:19 04.02.2020
3252 Clear 24 1013 77 0 3.18 234 20:57 04.02.2020
3253 Clear 24 1013 77 0 3.18 234 20:38 04.02.2020
3254 Clouds 25 1010 72 0 1.56 208 20:19 04.02.2020
3255 Clouds 25 1009 74 0 2.3 212 19:55 04.02.2020
3256 Clouds 25 1009 74 0 2.3 212 19:36 04.02.2020
3257 Clouds 27 1011 78 7000 2.1 180 19:18 04.02.2020
3258 Clouds 27 1011 78 7000 2.1 180 18:41 04.02.2020
3259 Clouds 29 1011 70 7000 2.1 180 18:22 04.02.2020
3260 Clouds 29 1011 70 7000 2.1 180 18:22 04.02.2020
3261 Clouds 29 1011 70 7000 2.1 180 17:58 04.02.2020
3262 Clouds 29 1011 70 7000 2.1 180 17:40 04.02.2020
3263 Clouds 29 1011 70 7000 2.1 180 17:20 04.02.2020
3264 Clouds 31 1010 58 8000 3.1 180 16:39 04.02.2020
3265 Clouds 31 1006 47 0 2.01 201 16:21 04.02.2020
3266 Clouds 31 1006 47 0 2.01 201 16:21 04.02.2020
3267 Clouds 31 1006 47 0 2.01 201 15:57 04.02.2020
3268 Clouds 31 1006 47 0 2.01 201 15:39 04.02.2020
3269 Clouds 31 1011 58 8000 3.1 250 15:20 04.02.2020
3270 Clouds 31 1011 58 8000 3.1 250 14:55 04.02.2020
3271 Clouds 31 1011 58 8000 3.1 250 14:37 04.02.2020
3272 Clouds 30 1012 66 8000 3.1 300 14:18 04.02.2020
3273 Clouds 30 1012 66 8000 3.1 300 13:41 04.02.2020
3274 Clouds 29 1013 70 8000 2.1 90 13:23 04.02.2020
3275 Clouds 29 1013 70 8000 2.1 90 12:57 04.02.2020
3276 Clouds 29 1013 70 8000 2.1 90 12:38 04.02.2020
3277 Clouds 28 1014 69 8000 2.1 90 12:19 04.02.2020
3278 Clouds 28 1014 69 8000 2.1 90 11:55 04.02.2020
3279 Clouds 28 1014 69 8000 2.1 90 11:37 04.02.2020
3280 Rain 30 1013 59 0 0.78 344 11:18 04.02.2020
3281 Rain 30 1013 59 0 0.78 344 10:44 04.02.2020
3282 Clouds 24 1015 88 7000 2.1 220 10:25 04.02.2020
3283 Clouds 24 1015 88 7000 2.1 220 09:56 04.02.2020
3284 Clouds 24 1015 88 7000 2.1 220 09:37 04.02.2020
3285 Rain 30 1013 59 0 0.78 344 09:19 04.02.2020
3286 Rain 30 1013 59 0 0.78 344 08:44 04.02.2020
3287 Rain 30 1013 59 0 0.78 344 08:26 04.02.2020
3288 Rain 22 1014 90 0 0.65 58 07:50 04.02.2020
3289 Mist 22 1014 94 4000 2.1 180 07:24 04.02.2020
3290 Mist 22 1014 94 4000 2.1 180 06:45 04.02.2020
3291 Mist 22 1014 94 4000 2.1 180 06:45 04.02.2020
3292 Rain 22 1014 90 0 0.65 58 06:26 04.02.2020
3293 Rain 22 1014 90 0 0.65 58 05:29 04.02.2020
3294 Clouds 23 1010 73 0 1.02 124 03:56 04.02.2020
3295 Clouds 23 1010 73 0 1.02 124 03:37 04.02.2020
3296 Clouds 23 1010 73 0 1.02 124 03:19 04.02.2020
3297 Clouds 23 1010 73 0 1.02 124 02:34 04.02.2020
3298 Clouds 24 1009 65 0 1 205 01:55 04.02.2020
3299 Clouds 24 1009 65 0 1 205 01:36 04.02.2020
3300 Clouds 24 1009 66 0 0.99 218 00:49 04.02.2020
3301 Clouds 24 1009 66 0 0.99 218 00:22 04.02.2020
3302 Clouds 24 1009 66 0 0.99 218 23:41 03.02.2020
3303 Clouds 24 1009 66 0 0.99 218 23:22 03.02.2020
3304 Clouds 26 1010 57 0 1.41 202 22:40 03.02.2020
3305 Clouds 26 1010 57 0 1.41 202 22:21 03.02.2020
3306 Clouds 26 1010 57 0 1.41 202 21:59 03.02.2020
3307 Clouds 26 1010 57 0 1.41 202 21:39 03.02.2020
3308 Clouds 26 1010 57 0 1.41 202 21:19 03.02.2020
3309 Clouds 26 1010 57 0 1.41 202 20:42 03.02.2020
3310 Thunderstorm 24 1012 88 6000 3.1 310 20:20 03.02.2020
3311 Thunderstorm 24 1012 88 6000 3.1 310 19:58 03.02.2020
3312 Thunderstorm 24 1012 88 6000 3.1 310 19:40 03.02.2020
3313 Clouds 28 1008 49 0 0.64 187 19:20 03.02.2020
3314 Clouds 28 1008 49 0 0.64 187 18:57 03.02.2020
3315 Clouds 28 1008 49 0 0.64 187 18:38 03.02.2020
3316 Thunderstorm 24 1019 83 7000 3.1 300 18:19 03.02.2020
3317 Thunderstorm 24 1019 83 7000 3.1 300 17:40 03.02.2020
3318 Clouds 27 1009 74 8000 3.1 150 17:20 03.02.2020
3319 Clouds 27 1009 74 8000 3.1 150 16:59 03.02.2020
3320 Clouds 27 1009 74 8000 3.1 150 16:39 03.02.2020
3321 Clouds 34 1006 34 0 0.37 316 16:20 03.02.2020
3322 Clouds 34 1006 34 0 0.37 316 15:56 03.02.2020
3323 Clouds 34 1006 34 0 0.37 316 15:37 03.02.2020
3324 Thunderstorm 34 1018 49 8000 4.1 130 15:19 03.02.2020
3325 Thunderstorm 34 1018 49 8000 4.1 130 14:42 03.02.2020
3326 Clouds 34 1010 49 9000 2.1 50 14:24 03.02.2020
3327 Clouds 34 1010 49 9000 2.1 50 14:24 03.02.2020
3328 Clouds 34 1010 49 9000 2.1 50 13:57 03.02.2020
3329 Clouds 34 1010 49 9000 2.1 50 13:39 03.02.2020
3330 Clouds 34 1011 49 9000 3.1 130 13:19 03.02.2020
3331 Clouds 34 1011 49 9000 3.1 130 12:55 03.02.2020
3332 Clouds 34 1011 49 9000 3.1 130 12:36 03.02.2020
3333 Clouds 32 1013 59 7000 3.1 120 12:18 03.02.2020
3334 Clouds 32 1013 59 7000 3.1 120 11:38 03.02.2020
3335 Clouds 31 1014 62 7000 3.1 120 11:19 03.02.2020
3336 Clouds 36 1012 37 0 0.68 99 10:57 03.02.2020
3337 Clouds 36 1012 37 0 0.68 99 10:38 03.02.2020
3338 Clouds 29 1014 70 8000 3.1 120 10:19 03.02.2020
3339 Clouds 36 1012 37 0 0.68 99 09:39 03.02.2020
3340 Clouds 26 1015 83 7000 3.1 120 09:20 03.02.2020
3341 Clouds 26 1015 83 7000 3.1 120 08:41 03.02.2020
3342 Mist 23 1014 100 3000 2.1 120 08:23 03.02.2020
3343 Mist 23 1014 100 3000 2.1 120 07:56 03.02.2020
3344 Mist 23 1014 100 3000 2.1 120 07:38 03.02.2020
3345 Clouds 25 1013 75 0 1.21 152 07:19 03.02.2020
3346 Clouds 25 1013 75 0 1.21 152 06:42 03.02.2020
3347 Clouds 25 1013 75 0 1.21 152 06:24 03.02.2020
3348 Clouds 25 1013 75 0 1.21 152 05:35 03.02.2020
3349 Clouds 22 1011 87 0 0.98 144 04:50 03.02.2020
3350 Clouds 22 1011 87 0 0.98 144 02:53 03.02.2020
3351 Clouds 22 1011 87 0 0.98 144 02:32 03.02.2020
3352 Clouds 25 1010 66 0 2.56 175 00:55 03.02.2020
3353 Clouds 25 1010 66 0 2.56 175 00:36 03.02.2020
3354 Clouds 25 1010 66 0 2.56 175 00:18 03.02.2020
3355 Clouds 25 1010 66 0 2.56 175 23:37 02.02.2020
3356 Clouds 26 1012 57 0 1.51 194 23:18 02.02.2020
3357 Clouds 26 1012 57 0 1.51 194 23:18 02.02.2020
3358 Clouds 26 1012 57 0 1.51 194 22:40 02.02.2020
3359 Clouds 26 1012 57 0 1.51 194 22:22 02.02.2020
3360 Clouds 26 1012 57 0 1.51 194 21:58 02.02.2020
3361 Clouds 26 1012 57 0 1.51 194 21:39 02.02.2020
3362 Clouds 26 1012 57 0 1.51 194 21:20 02.02.2020
3363 Clouds 26 1012 57 0 1.51 194 20:57 02.02.2020
3364 Clouds 26 1012 57 0 1.51 194 20:39 02.02.2020
3365 Clouds 26 1012 83 6000 1.62 194 20:20 02.02.2020
3366 Clouds 26 1012 83 6000 1.62 194 19:58 02.02.2020
3367 Clouds 26 1012 83 6000 1.62 194 19:39 02.02.2020
3368 Clouds 30 1008 43 0 1.62 194 19:21 02.02.2020
3369 Clouds 30 1008 43 0 1.62 194 18:56 02.02.2020
3370 Clouds 30 1008 43 0 1.62 194 18:37 02.02.2020
3371 Clouds 30 1008 43 0 1.62 194 18:37 02.02.2020
3372 Clouds 30 1008 43 0 1.62 194 18:19 02.02.2020
3373 Clouds 30 1008 43 0 1.62 194 17:57 02.02.2020
3374 Clouds 30 1008 43 0 1.62 194 17:37 02.02.2020
3375 Clouds 30 1008 43 0 1.62 194 17:37 02.02.2020
3376 Clouds 33 1006 33 0 0.35 199 17:18 02.02.2020
3377 Clouds 33 1006 33 0 0.35 199 16:57 02.02.2020
3378 Clouds 33 1006 33 0 0.35 199 16:38 02.02.2020
3379 Clouds 31 1010 52 8000 2.1 100 16:18 02.02.2020
3380 Clouds 33 1006 33 0 0.35 199 15:55 02.02.2020
3381 Clouds 33 1006 33 0 0.35 199 15:36 02.02.2020
3382 Clouds 34 1010 44 8000 2.1 90 15:18 02.02.2020
3383 Clouds 34 1010 44 8000 2.1 90 14:43 02.02.2020
3384 Clouds 33 1011 43 8000 2.1 90 14:19 02.02.2020
3385 Clouds 33 1011 43 8000 2.1 90 13:59 02.02.2020
3386 Clouds 33 1011 43 8000 2.1 90 13:41 02.02.2020
3387 Clouds 33 1012 49 8000 4.1 140 13:20 02.02.2020
3388 Clouds 33 1012 49 8000 4.1 140 12:56 02.02.2020
3389 Clouds 33 1012 49 8000 4.1 140 12:38 02.02.2020
3390 Clouds 32 1013 55 8000 2.1 180 12:18 02.02.2020
3391 Clouds 32 1013 55 8000 2.1 180 11:42 02.02.2020
3392 Clouds 35 1011 37 0 0.99 96 11:19 02.02.2020
3393 Clouds 35 1011 37 0 0.99 96 10:57 02.02.2020
3394 Clouds 35 1011 35 0 0.88 89 10:38 02.02.2020
3395 Clouds 35 1011 35 0 0.88 89 10:20 02.02.2020
3396 Clouds 35 1011 35 0 0.88 89 09:57 02.02.2020
3397 Clouds 35 1011 35 0 0.88 89 09:39 02.02.2020
3398 Clouds 35 1011 35 0 0.88 89 09:20 02.02.2020
3399 Clouds 35 1011 35 0 0.88 89 08:44 02.02.2020
3400 Mist 23 1014 94 4000 0.88 89 08:25 02.02.2020
3401 Mist 23 1014 94 4000 1.07 120 07:47 02.02.2020
3402 Clouds 24 1013 75 0 1.07 120 07:29 02.02.2020
3403 Clouds 24 1013 75 0 1.07 120 06:46 02.02.2020
3404 Clouds 24 1013 75 0 1.07 120 06:28 02.02.2020
3405 Clouds 24 1013 75 0 1.07 120 05:49 02.02.2020
3406 Clouds 22 1011 82 0 0.51 160 04:52 02.02.2020
3407 Clouds 22 1011 82 0 0.51 160 03:40 02.02.2020
3408 Clouds 22 1011 82 0 0.51 160 02:39 02.02.2020
3409 Clouds 22 1011 82 0 0.85 135 01:56 02.02.2020
3410 Clouds 22 1011 82 0 0.85 135 01:35 02.02.2020
3411 Clouds 23 1011 72 0 0.92 185 00:45 02.02.2020
3412 Clouds 23 1011 72 0 0.92 185 00:23 02.02.2020
3413 Clouds 23 1011 72 0 0.92 185 00:23 02.02.2020
3414 Clouds 23 1011 72 0 0.92 185 23:54 01.02.2020
3415 Clouds 23 1011 72 0 0.92 185 23:36 01.02.2020
3416 Clouds 24 1012 74 0 1.39 121 23:18 01.02.2020
3417 Clouds 24 1012 74 0 1.39 121 22:42 01.02.2020
3418 Clouds 24 1012 74 0 1.39 121 22:18 01.02.2020
3419 Clouds 24 1012 74 0 1.39 121 21:39 01.02.2020
3420 Clouds 24 1012 74 0 1.39 121 21:19 01.02.2020
3421 Clouds 24 1012 74 0 1.39 121 20:42 01.02.2020
3422 Rain 25 1011 73 0 1.03 72 20:21 01.02.2020
3423 Rain 25 1011 73 0 1.03 72 19:58 01.02.2020
3424 Rain 25 1011 73 0 1.03 72 19:39 01.02.2020
3425 Rain 30 1011 62 8000 1.03 72 19:20 01.02.2020
3426 Rain 30 1011 62 8000 1.03 72 18:59 01.02.2020
3427 Rain 30 1011 62 8000 1.03 72 18:40 01.02.2020
3428 Rain 30 1011 62 8000 1.03 72 18:40 01.02.2020
3429 Clouds 32 1011 55 8000 1.03 72 18:22 01.02.2020
3430 Clouds 32 1011 55 8000 1.03 72 17:58 01.02.2020
3431 Clouds 32 1011 55 8000 1.03 72 17:39 01.02.2020
3432 Clouds 31 1010 58 8000 1.29 301 17:20 01.02.2020
3433 Clouds 31 1010 58 8000 1.29 301 16:56 01.02.2020
3434 Clouds 31 1010 58 8000 1.29 301 16:38 01.02.2020
3435 Clouds 31 1010 58 8000 1.29 301 16:38 01.02.2020
3436 Rain 29 1007 55 0 1.29 301 16:19 01.02.2020
3437 Rain 29 1007 55 0 1.29 301 15:41 01.02.2020
3438 Rain 29 1007 55 0 1.29 301 15:22 01.02.2020
3439 Rain 29 1007 55 0 1.29 301 14:57 01.02.2020
3440 Rain 29 1007 55 0 1.29 301 14:38 01.02.2020
3441 Clouds 31 1013 55 7000 2.1 210 14:20 01.02.2020
3442 Clouds 31 1013 55 7000 2.1 210 13:43 01.02.2020
3443 Clouds 31 1014 55 7000 4.1 90 13:18 01.02.2020
3444 Clouds 31 1014 55 7000 4.1 90 13:18 01.02.2020
3445 Clouds 31 1014 55 7000 4.1 90 12:43 01.02.2020
3446 Clouds 30 1016 58 7000 4.1 120 12:24 01.02.2020
3447 Clouds 38 1009 30 0 0.59 91 11:56 01.02.2020
3448 Clouds 38 1009 30 0 0.59 91 11:37 01.02.2020
3449 Clouds 24 1016 88 7000 1.8 123 11:18 01.02.2020
3450 Clouds 24 1016 88 7000 1.8 123 10:54 01.02.2020
3451 Clouds 24 1016 88 7000 1.8 123 10:36 01.02.2020
3452 Clouds 24 1016 88 7000 1.8 123 10:18 01.02.2020
3453 Clouds 24 1016 88 7000 1.8 123 09:41 01.02.2020
3454 Clouds 23 1016 94 6000 1.8 123 09:22 01.02.2020
3455 Clouds 23 1016 94 6000 1.8 123 08:58 01.02.2020
3456 Clouds 23 1016 94 6000 1.8 123 08:36 01.02.2020
3457 Clouds 22 1015 94 6000 2.1 100 07:46 01.02.2020
3458 Clouds 24 1013 83 0 0.57 115 07:25 01.02.2020
3459 Clouds 24 1013 83 0 0.57 115 06:49 01.02.2020
3460 Clouds 24 1013 83 0 0.57 115 05:55 01.02.2020
3461 Clouds 24 1013 83 0 0.57 115 05:37 01.02.2020
3462 Clouds 23 1011 83 0 1.2 181 03:39 01.02.2020
3463 Clouds 23 1011 83 0 1.2 181 03:18 01.02.2020
3464 Clouds 23 1011 83 0 1.2 181 02:41 01.02.2020
3465 Clouds 23 1011 74 0 0.84 166 02:21 01.02.2020
3466 Clouds 23 1011 74 0 0.84 166 01:47 01.02.2020
3467 Clouds 23 1011 74 0 0.84 166 01:27 01.02.2020
3468 Clouds 24 1011 70 0 0.55 126 00:24 01.02.2020
3469 Clouds 24 1011 70 0 0.55 126 23:42 31.01.2020
3470 Clouds 25 1012 63 0 0.66 133 23:19 31.01.2020
3471 Clouds 25 1012 63 0 0.66 133 22:57 31.01.2020
3472 Clouds 25 1012 63 0 0.66 133 22:39 31.01.2020
3473 Clouds 25 1012 63 0 0.66 133 22:21 31.01.2020
3474 Clouds 25 1012 63 0 0.66 133 21:55 31.01.2020
3475 Clouds 25 1012 63 0 0.66 133 21:37 31.01.2020
3476 Clouds 25 1012 63 0 0.66 133 21:18 31.01.2020
3477 Clouds 25 1012 63 0 0.66 133 20:55 31.01.2020
3478 Clouds 25 1012 63 0 0.66 133 20:37 31.01.2020
3479 Clouds 25 1010 57 0 1.52 137 20:18 31.01.2020
3480 Clouds 26 1009 56 0 1.3 157 19:54 31.01.2020
3481 Clouds 26 1009 56 0 1.3 157 19:36 31.01.2020
3482 Clouds 26 1009 56 0 1.3 157 19:18 31.01.2020
3483 Clouds 26 1009 56 0 1.3 157 18:38 31.01.2020
3484 Clouds 28 1012 61 8000 5.1 340 18:20 31.01.2020
3485 Clouds 28 1012 61 8000 5.1 340 17:46 31.01.2020
3486 Clouds 25 1012 83 8000 1.5 0 17:27 31.01.2020
3487 Clouds 25 1012 83 8000 1.5 0 16:57 31.01.2020
3488 Clouds 25 1012 83 8000 1.5 0 16:38 31.01.2020
3489 Clouds 35 1006 27 0 0.64 270 16:19 31.01.2020
3490 Clouds 35 1006 27 0 0.64 270 15:58 31.01.2020
3491 Clouds 35 1006 27 0 0.64 270 15:39 31.01.2020
3492 Clouds 35 1006 27 0 0.64 270 15:20 31.01.2020
3493 Clouds 35 1006 27 0 0.64 270 14:44 31.01.2020
3494 Clouds 25 1013 83 8000 0.64 270 14:24 31.01.2020
3495 Clouds 36 1008 29 0 1.44 214 13:56 31.01.2020
3496 Clouds 36 1008 29 0 1.44 214 13:37 31.01.2020
3497 Clouds 24 1014 83 6000 0.84 227 13:18 31.01.2020
3498 Clouds 24 1014 83 6000 0.84 227 12:43 31.01.2020
3499 Clouds 25 1015 78 6000 3.1 280 12:23 31.01.2020
3500 Clouds 25 1015 78 6000 3.1 280 11:55 31.01.2020
3501 Clouds 25 1015 78 6000 3.1 280 11:37 31.01.2020
3502 Clouds 33 1012 44 0 1.89 167 11:18 31.01.2020
3503 Clouds 33 1012 43 0 1.63 160 10:43 31.01.2020
3504 Clouds 33 1012 43 0 1.63 160 10:22 31.01.2020
3505 Clouds 33 1012 43 0 1.63 160 09:57 31.01.2020
3506 Clouds 33 1012 44 0 1.89 167 09:39 31.01.2020
3507 Clouds 33 1012 43 0 1.63 160 09:39 31.01.2020
3508 Clouds 33 1012 44 0 1.89 167 09:19 31.01.2020
3509 Clouds 33 1012 44 0 1.89 167 08:52 31.01.2020
3510 Clouds 33 1012 43 0 1.63 160 08:28 31.01.2020
3511 Clouds 24 1013 77 0 1.57 139 07:54 31.01.2020
3512 Clouds 24 1013 77 0 1.57 139 07:26 31.01.2020
3513 Clouds 24 1013 77 0 1.57 139 06:59 31.01.2020
3514 Clouds 24 1013 77 0 1.57 139 06:20 31.01.2020
3515 Clouds 24 1013 77 0 1.57 139 05:50 31.01.2020
3516 Clouds 22 1012 81 0 1.21 191 04:56 31.01.2020
3517 Clouds 22 1012 81 0 1.21 191 03:26 31.01.2020
3518 Clouds 24 1011 70 0 1.33 196 01:40 31.01.2020
3519 Clouds 23 1010 71 0 1.11 198 00:46 31.01.2020
3520 Clouds 23 1010 71 0 1.11 198 00:27 31.01.2020
3521 Clouds 23 1010 71 0 1.11 198 23:57 30.01.2020
3522 Clouds 23 1010 71 0 1.11 198 23:26 30.01.2020
3523 Clouds 25 1011 63 0 1.12 207 22:58 30.01.2020
3524 Clouds 25 1011 63 0 1.12 207 22:37 30.01.2020
3525 Clouds 25 1011 63 0 1.12 207 22:37 30.01.2020
3526 Clouds 25 1011 63 0 1.12 207 22:37 30.01.2020
3527 Clouds 23 1014 88 6000 2.1 30 22:18 30.01.2020
3528 Clouds 23 1014 88 6000 2.1 30 21:57 30.01.2020
3529 Clouds 23 1014 88 6000 2.1 30 21:38 30.01.2020
3530 Clouds 23 1014 88 6000 2.1 30 21:18 30.01.2020
3531 Clouds 23 1014 88 6000 2.1 30 21:18 30.01.2020
3532 Clouds 23 1014 88 6000 2.1 30 21:18 30.01.2020
3533 Clouds 24 1014 83 7000 2.1 0 20:42 30.01.2020
3534 Clouds 26 1013 74 7000 17.5 0 20:22 30.01.2020
3535 Clouds 26 1013 74 7000 17.5 0 19:58 30.01.2020
3536 Clouds 26 1013 74 7000 17.5 0 19:40 30.01.2020
3537 Clouds 28 1013 61 7000 2.1 30 19:19 30.01.2020
3538 Clouds 28 1013 61 7000 2.1 30 18:42 30.01.2020
3539 Clouds 27 1008 48 0 1.16 178 18:23 30.01.2020
3540 Clouds 27 1008 48 0 1.16 178 17:58 30.01.2020
3541 Clouds 27 1008 48 0 1.16 178 17:39 30.01.2020
3542 Clouds 33 1012 38 7000 2.1 120 17:19 30.01.2020
3543 Clouds 33 1012 38 7000 2.1 120 16:58 30.01.2020
3544 Clouds 33 1012 38 7000 2.1 120 16:39 30.01.2020
3545 Clouds 30 1012 62 7000 4.1 180 16:20 30.01.2020
3546 Clouds 30 1012 62 7000 4.1 180 15:44 30.01.2020
3547 Clouds 30 1012 62 7000 3.1 160 15:21 30.01.2020
3548 Clouds 30 1012 62 7000 3.1 160 14:50 30.01.2020
3549 Clouds 34 1006 31 0 0.84 180 14:27 30.01.2020
3550 Clouds 39 1008 23 0 0.75 291 13:59 30.01.2020
3551 Clouds 39 1008 23 0 0.75 291 13:40 30.01.2020
3552 Clouds 28 1015 69 7000 3.1 160 13:22 30.01.2020
3553 Clouds 28 1015 69 7000 3.1 160 12:54 30.01.2020
3554 Clouds 28 1015 69 7000 3.1 160 12:36 30.01.2020
3555 Clouds 40 1008 22 0 0.73 286 12:18 30.01.2020
3556 Clouds 40 1008 22 0 0.73 286 11:40 30.01.2020
3557 Clouds 26 1015 74 6000 3.1 120 11:21 30.01.2020
3558 Clouds 26 1015 74 6000 3.1 120 10:57 30.01.2020
3559 Clouds 26 1015 74 6000 3.1 120 10:38 30.01.2020
3560 Clouds 24 1016 88 6000 3.1 120 10:19 30.01.2020
3561 Clouds 24 1016 88 6000 3.1 120 09:43 30.01.2020
3562 Clouds 23 1016 88 6000 2.1 120 09:22 30.01.2020
3563 Clouds 23 1016 88 6000 2.1 120 08:42 30.01.2020
3564 Clouds 23 1014 88 6000 2.1 120 08:22 30.01.2020
3565 Clouds 23 1014 88 6000 2.1 120 07:55 30.01.2020
3566 Clouds 23 1014 88 6000 2.1 120 07:37 30.01.2020
3567 Clouds 26 1013 49 0 1.52 143 06:56 30.01.2020
3568 Clouds 26 1013 49 0 1.52 143 06:33 30.01.2020
3569 Clouds 23 1013 88 6000 2.1 140 05:53 30.01.2020
3570 Clouds 26 1013 49 0 1.52 143 05:28 30.01.2020
3571 Clouds 24 1011 49 0 0.68 122 04:40 30.01.2020
3572 Clouds 24 1011 49 0 0.68 122 03:47 30.01.2020
3573 Clouds 24 1011 49 0 0.68 122 02:55 30.01.2020
3574 Clouds 25 1010 48 0 0.93 319 00:57 30.01.2020
3575 Clouds 25 1010 48 0 0.93 319 00:27 30.01.2020
3576 Clouds 25 1010 48 0 0.93 319 23:55 29.01.2020
3577 Clouds 25 1010 48 0 0.93 319 23:37 29.01.2020
3578 Clouds 27 1010 40 0 0.44 291 23:19 29.01.2020
3579 Clouds 27 1010 40 0 0.44 291 22:54 29.01.2020
3580 Clouds 27 1010 40 0 0.44 291 22:36 29.01.2020
3581 Clouds 27 1010 40 0 0.44 291 22:18 29.01.2020
3582 Clouds 27 1010 40 0 0.44 291 21:54 29.01.2020
3583 Clouds 27 1010 40 0 0.44 291 21:36 29.01.2020
3584 Clouds 27 1010 40 0 0.44 291 21:18 29.01.2020
3585 Clouds 27 1010 40 0 0.44 291 20:40 29.01.2020
3586 Clouds 27 1008 47 0 1.16 296 20:21 29.01.2020
3587 Clouds 27 1008 47 0 1.16 296 20:21 29.01.2020
3588 Clouds 27 1008 41 0 0.41 241 20:21 29.01.2020
3589 Clouds 27 1008 47 0 1.16 296 19:58 29.01.2020
3590 Clouds 27 1008 47 0 1.16 296 19:38 29.01.2020
3591 Clouds 27 1008 47 0 1.16 296 19:20 29.01.2020
3592 Clouds 27 1008 47 0 1.16 296 18:56 29.01.2020
3593 Clouds 27 1008 47 0 1.16 296 18:37 29.01.2020
3594 Clouds 32 1009 52 6000 2.1 20 18:18 29.01.2020
3595 Clouds 32 1009 52 6000 2.1 20 17:40 29.01.2020
3596 Clouds 35 1008 36 6000 2.1 40 17:22 29.01.2020
3597 Clouds 35 1008 36 6000 2.1 40 16:43 29.01.2020
3598 Clouds 35 1009 39 7000 3.1 40 16:23 29.01.2020
3599 Clouds 35 1009 39 7000 3.1 40 15:59 29.01.2020
3600 Clouds 35 1009 39 7000 3.1 40 15:38 29.01.2020
3601 Clouds 36 1009 37 6000 3.1 360 15:20 29.01.2020
3602 Clouds 36 1009 37 6000 3.1 360 14:45 29.01.2020
3603 Clouds 35 1012 41 6000 3.1 30 14:22 29.01.2020
3604 Clouds 35 1012 41 6000 3.1 30 13:57 29.01.2020
3605 Clouds 35 1012 41 6000 3.1 30 13:39 29.01.2020
3606 Clouds 38 1007 24 0 1.28 40 13:20 29.01.2020
3607 Clouds 38 1007 24 0 1.28 40 12:56 29.01.2020
3608 Clouds 38 1007 24 0 1.28 40 12:37 29.01.2020
3609 Clear 33 1012 55 6000 3.1 90 12:19 29.01.2020
3610 Clear 33 1012 55 6000 3.1 90 11:45 29.01.2020
3611 Clouds 38 1007 24 0 1.28 40 11:22 29.01.2020
3612 Clouds 33 1012 40 0 1.36 100 10:47 29.01.2020
3613 Clouds 33 1012 40 0 1.36 100 10:28 29.01.2020
3614 Clouds 33 1012 40 0 1.36 100 09:59 29.01.2020
3615 Clouds 33 1012 40 0 1.36 100 09:40 29.01.2020
3616 Clouds 33 1012 40 0 1.36 100 09:21 29.01.2020
3617 Clouds 33 1012 40 0 1.36 100 08:56 29.01.2020
3618 Clouds 33 1012 40 0 1.36 100 08:56 29.01.2020
3619 Clouds 33 1012 40 0 1.36 100 08:38 29.01.2020
3620 Mist 22 1013 94 3500 1.11 78 08:18 29.01.2020
3621 Mist 22 1013 94 3500 1.11 78 07:43 29.01.2020
3622 Clouds 24 1012 74 0 1.11 78 07:24 29.01.2020
3623 Clouds 24 1012 74 0 1.11 78 06:39 29.01.2020
3624 Mist 20 1012 94 2000 1.5 0 06:21 29.01.2020
3625 Mist 20 1012 94 2000 1.5 0 05:59 29.01.2020
3626 Mist 20 1012 94 2000 1.5 0 05:39 29.01.2020
3627 Clouds 21 1010 84 0 1.02 123 05:21 29.01.2020
3628 Clouds 21 1010 84 0 1.02 123 04:37 29.01.2020
3629 Clouds 21 1010 84 0 1.02 123 02:43 29.01.2020
3630 Clouds 22 1010 64 0 1.4 177 01:49 29.01.2020
3631 Clouds 23 1010 66 0 1.62 172 00:42 29.01.2020
3632 Clouds 23 1010 66 0 1.62 172 00:23 29.01.2020
3633 Clouds 23 1010 66 0 1.62 172 23:45 28.01.2020
3634 Clouds 24 1013 78 6000 2.1 120 23:21 28.01.2020
3635 Clouds 24 1013 78 6000 2.1 120 22:58 28.01.2020
3636 Clouds 24 1013 78 6000 2.1 120 22:40 28.01.2020
3637 Clouds 24 1011 47 0 1.56 183 22:21 28.01.2020
3638 Clouds 24 1011 47 0 1.56 183 21:42 28.01.2020
3639 Clouds 24 1011 47 0 1.56 183 21:22 28.01.2020
3640 Clouds 24 1011 47 0 1.56 183 20:57 28.01.2020
3641 Clouds 24 1011 47 0 1.56 183 20:39 28.01.2020
3642 Clouds 24 1011 47 0 1.56 183 20:39 28.01.2020
3643 Clouds 27 1008 38 0 1.02 357 20:21 28.01.2020
3644 Clouds 27 1008 46 0 0.65 122 19:39 28.01.2020
3645 Clouds 30 1011 55 6000 4.1 210 19:20 28.01.2020
3646 Clouds 30 1011 55 6000 4.1 210 18:58 28.01.2020
3647 Clouds 30 1011 55 6000 4.1 210 18:39 28.01.2020
3648 Clouds 32 1010 49 6000 3.1 210 18:21 28.01.2020
3649 Clouds 32 1010 49 6000 3.1 210 17:57 28.01.2020
3650 Clouds 32 1010 49 6000 3.1 210 17:37 28.01.2020
3651 Clouds 32 1010 49 6000 4.1 120 17:19 28.01.2020
3652 Clouds 32 1010 49 6000 4.1 120 17:19 28.01.2020
3653 Clouds 32 1010 49 6000 4.1 120 17:19 28.01.2020
3654 Clouds 32 1010 49 6000 4.1 120 16:46 28.01.2020
3655 Clouds 33 1010 24 7000 3.1 120 16:27 28.01.2020
3656 Clouds 33 1010 24 7000 3.1 120 15:59 28.01.2020
3657 Clouds 33 1010 24 7000 3.1 120 15:41 28.01.2020
3658 Clouds 33 1011 38 6000 2.1 180 15:18 28.01.2020
3659 Clouds 33 1011 38 6000 2.1 180 14:45 28.01.2020
3660 Clouds 31 1011 55 6000 4.1 270 14:20 28.01.2020
3661 Clouds 31 1011 55 6000 4.1 270 13:57 28.01.2020
3662 Clouds 31 1011 55 6000 4.1 270 13:38 28.01.2020
3663 Clouds 39 1007 20 0 1.02 351 13:19 28.01.2020
3664 Clouds 39 1007 20 0 1.02 351 12:42 28.01.2020
3665 Clouds 39 1007 20 0 1.02 351 12:42 28.01.2020
3666 Clouds 31 1013 58 6000 3.1 130 12:22 28.01.2020
3667 Clouds 31 1013 58 6000 3.1 130 11:48 28.01.2020
3668 Clouds 39 1007 20 0 1.02 351 11:23 28.01.2020
3669 Clouds 36 1012 29 0 0.78 198 10:58 28.01.2020
3670 Clouds 36 1012 29 0 0.78 198 10:39 28.01.2020
3671 Clouds 36 1012 29 0 0.78 198 10:20 28.01.2020
3672 Clouds 36 1012 29 0 0.78 198 09:43 28.01.2020
3673 Clouds 36 1012 29 0 0.78 198 09:21 28.01.2020
3674 Clouds 36 1012 29 0 0.78 198 08:57 28.01.2020
3675 Clouds 36 1012 29 0 0.78 198 08:39 28.01.2020
3676 Clouds 24 1012 60 0 0.79 141 08:18 28.01.2020
3677 Clouds 24 1012 60 0 0.79 141 07:37 28.01.2020
3678 Mist 21 1013 88 4000 0.79 141 06:49 28.01.2020
3679 Clouds 24 1012 60 0 0.79 141 06:26 28.01.2020
3680 Clouds 24 1012 60 0 0.79 141 05:54 28.01.2020
3681 Clouds 24 1012 60 0 0.79 141 05:26 28.01.2020
3682 Clouds 21 1010 64 0 0.91 191 03:59 28.01.2020
3683 Clouds 21 1010 64 0 0.91 191 02:58 28.01.2020
3684 Clouds 21 1010 64 0 0.91 191 02:25 28.01.2020
3685 Clouds 22 1009 57 0 0.87 121 01:57 28.01.2020
3686 Clouds 22 1009 55 0 0.87 91 01:24 28.01.2020
3687 Clouds 22 1009 55 0 0.87 91 00:48 28.01.2020
3688 Clouds 22 1009 55 0 0.87 91 00:28 28.01.2020
3689 Clouds 22 1009 55 0 0.87 91 23:49 27.01.2020
3690 Clouds 22 1009 55 0 0.87 91 23:29 27.01.2020
3691 Clouds 28 1010 36 0 1.76 189 22:55 27.01.2020
3692 Clouds 28 1010 36 0 1.76 189 22:36 27.01.2020
3693 Clouds 28 1010 36 0 1.76 189 22:18 27.01.2020
3694 Clouds 28 1010 36 0 1.76 189 21:54 27.01.2020
3695 Clouds 28 1010 36 0 1.76 189 21:36 27.01.2020
3696 Clouds 28 1010 36 0 1.76 189 21:18 27.01.2020
3697 Clouds 28 1010 36 0 1.76 189 20:42 27.01.2020
3698 Clear 27 1008 35 0 0.87 211 20:21 27.01.2020
3699 Clear 27 1008 35 0 0.87 211 19:59 27.01.2020
3700 Clear 27 1008 35 0 0.87 211 19:40 27.01.2020
3701 Clear 27 1008 35 0 0.87 211 19:21 27.01.2020
3702 Clear 27 1008 35 0 0.87 211 18:56 27.01.2020
3703 Clear 27 1008 35 0 0.87 211 18:37 27.01.2020
3704 Clear 27 1008 35 0 0.87 211 18:37 27.01.2020
3705 Clear 31 1010 35 6000 1.5 0 18:19 27.01.2020
3706 Clear 31 1010 35 6000 1.5 0 17:39 27.01.2020
3707 Clear 35 1005 20 0 1.22 20 17:20 27.01.2020
3708 Clear 35 1005 20 0 1.22 20 16:58 27.01.2020
3709 Clear 35 1005 20 0 1.22 20 16:40 27.01.2020
3710 Clear 34 1012 26 7000 2.1 30 16:22 27.01.2020
3711 Clear 34 1012 26 7000 2.1 30 16:22 27.01.2020
3712 Clear 34 1012 26 7000 2.1 30 15:55 27.01.2020
3713 Clear 34 1012 26 7000 2.1 30 15:36 27.01.2020
3714 Clear 35 1005 20 0 1.22 20 15:18 27.01.2020
3715 Clear 35 1005 20 0 1.22 20 14:41 27.01.2020
3716 Clear 34 1011 26 7000 3.1 360 14:22 27.01.2020
3717 Clouds 34 1011 26 7000 3.1 360 13:55 27.01.2020
3718 Clouds 34 1011 26 7000 3.1 360 13:37 27.01.2020
3719 Clouds 34 1013 26 6000 3.1 360 13:18 27.01.2020
3720 Clouds 34 1013 26 6000 3.1 360 12:43 27.01.2020
3721 Clouds 32 1014 38 6000 2.1 20 12:23 27.01.2020
3722 Clouds 32 1014 38 6000 2.1 20 11:55 27.01.2020
3723 Clouds 32 1014 38 6000 2.1 20 11:36 27.01.2020
3724 Clouds 32 1014 40 6000 3.1 150 11:18 27.01.2020
3725 Clouds 33 1012 23 0 1.62 49 10:42 27.01.2020
3726 Clouds 33 1012 23 0 1.62 49 10:23 27.01.2020
3727 Clouds 33 1012 23 0 1.62 49 09:40 27.01.2020
3728 Clouds 22 1014 83 6000 1.62 49 09:19 27.01.2020
3729 Clouds 22 1014 83 6000 1.62 49 08:58 27.01.2020
3730 Clouds 22 1014 83 6000 1.62 49 08:40 27.01.2020
3731 Clouds 24 1012 44 0 1.02 83 08:19 27.01.2020
3732 Clouds 24 1012 44 0 1.02 83 07:50 27.01.2020
3733 Clouds 24 1012 44 0 1.02 83 07:32 27.01.2020
3734 Clouds 24 1012 44 0 1.02 83 06:49 27.01.2020
3735 Clouds 24 1012 44 0 1.02 83 05:53 27.01.2020
3736 Clouds 23 1010 38 0 0.17 329 05:18 27.01.2020
3737 Clouds 23 1010 38 0 0.17 329 03:36 27.01.2020
3738 Clouds 23 1011 38 0 0.81 310 01:57 27.01.2020
3739 Clouds 24 1010 37 0 0.85 293 01:28 27.01.2020
3740 Clouds 24 1010 37 0 0.85 293 01:28 27.01.2020
3741 Clouds 24 1010 37 0 0.85 293 00:42 27.01.2020
3742 Clouds 24 1010 37 0 0.85 293 00:22 27.01.2020
3743 Clouds 24 1010 37 0 0.85 293 00:22 27.01.2020
3744 Clouds 24 1010 37 0 0.85 293 23:58 26.01.2020
3745 Clouds 24 1010 37 0 0.85 293 23:39 26.01.2020
3746 Clouds 23 1011 41 0 0.78 148 23:18 26.01.2020
3747 Clouds 23 1011 41 0 0.78 148 22:39 26.01.2020
3748 Clouds 23 1011 41 0 0.78 148 22:20 26.01.2020
3749 Clouds 23 1011 41 0 0.78 148 21:58 26.01.2020
3750 Clouds 23 1011 41 0 0.78 148 21:40 26.01.2020
3751 Haze 27 1013 51 5000 0.78 148 21:21 26.01.2020
3752 Haze 27 1013 51 5000 0.78 148 20:58 26.01.2020
3753 Haze 27 1013 51 5000 0.78 148 20:39 26.01.2020
3754 Clouds 25 1008 38 0 0.55 226 20:20 26.01.2020
3755 Clouds 25 1008 38 0 0.55 226 19:59 26.01.2020
3756 Clouds 25 1008 38 0 0.55 226 19:39 26.01.2020
3757 Clouds 27 1011 51 6000 2.1 50 19:21 26.01.2020
3758 Clouds 27 1011 51 6000 2.1 50 18:58 26.01.2020
3759 Clouds 27 1011 51 6000 2.1 50 18:39 26.01.2020
3760 Clouds 27 1011 51 6000 2.1 50 18:39 26.01.2020
3761 Clouds 28 1011 45 6000 2.1 50 18:21 26.01.2020
3762 Clouds 28 1011 45 6000 2.1 50 17:55 26.01.2020
3763 Clouds 28 1011 45 6000 2.1 50 17:37 26.01.2020
3764 Clouds 30 1011 40 6000 2.1 30 17:18 26.01.2020
3765 Clouds 30 1011 40 6000 2.1 30 16:56 26.01.2020
3766 Clouds 30 1011 40 6000 2.1 30 16:38 26.01.2020
3767 Clouds 31 1011 33 6000 3.1 50 16:19 26.01.2020
3768 Clouds 31 1011 33 6000 3.1 50 16:19 26.01.2020
3769 Clouds 31 1011 33 6000 3.1 50 15:43 26.01.2020
3770 Clouds 35 1006 21 0 0.75 353 15:22 26.01.2020
3771 Clouds 35 1006 21 0 0.75 353 14:58 26.01.2020
3772 Clouds 35 1006 21 0 0.75 353 14:38 26.01.2020
3773 Clouds 31 1012 48 6000 3.1 360 14:19 26.01.2020
3774 Clouds 31 1012 48 6000 3.1 360 13:40 26.01.2020
3775 Clouds 36 1008 17 0 1.63 45 13:20 26.01.2020
3776 Clouds 36 1008 17 0 1.63 45 12:56 26.01.2020
3777 Clouds 36 1008 17 0 1.63 45 12:37 26.01.2020
3778 Clouds 36 1008 17 0 1.63 45 12:19 26.01.2020
3779 Clouds 36 1008 17 0 1.63 45 11:57 26.01.2020
3780 Clouds 36 1008 17 0 1.63 45 11:37 26.01.2020
3781 Clouds 31 1012 26 0 1.97 51 11:18 26.01.2020
3782 Clouds 31 1012 26 0 1.97 51 10:55 26.01.2020
3783 Clouds 31 1012 26 0 1.97 51 10:37 26.01.2020
3784 Clouds 31 1012 26 0 1.97 51 10:19 26.01.2020
3785 Clouds 31 1012 26 0 1.97 51 10:19 26.01.2020
3786 Clouds 31 1012 26 0 1.97 51 09:42 26.01.2020
3787 Clouds 31 1012 26 0 1.97 51 09:23 26.01.2020
3788 Clouds 31 1012 26 0 1.97 51 08:59 26.01.2020
3789 Clouds 31 1012 26 0 1.97 51 08:41 26.01.2020
3790 Clouds 23 1014 47 0 0.86 35 08:21 26.01.2020
3791 Clouds 23 1013 48 0 1.16 37 07:50 26.01.2020
3792 Mist 16 1014 93 1500 1.16 37 07:26 26.01.2020
3793 Clouds 23 1013 48 0 1.16 37 06:51 26.01.2020
3794 Clouds 23 1013 48 0 1.16 37 06:23 26.01.2020
3795 Clouds 23 1013 48 0 1.16 37 05:28 26.01.2020
3796 Clouds 20 1011 50 0 0.4 352 03:31 26.01.2020
3797 Clouds 20 1011 50 0 0.4 352 02:38 26.01.2020
3798 Clouds 22 1010 44 0 0.39 309 01:45 26.01.2020
3799 Clouds 22 1010 44 0 0.13 201 01:22 26.01.2020
3800 Clouds 22 1010 44 0 0.13 201 00:42 26.01.2020
3801 Clouds 22 1010 44 0 0.13 201 00:23 26.01.2020
3802 Clouds 22 1010 44 0 0.13 201 23:39 25.01.2020
3803 Clouds 23 1011 42 0 0.56 183 23:20 25.01.2020
3804 Clouds 23 1011 42 0 0.56 183 22:56 25.01.2020
3805 Clouds 23 1011 42 0 0.56 183 22:36 25.01.2020
3806 Clouds 23 1011 42 0 0.56 183 22:18 25.01.2020
3807 Clouds 23 1011 42 0 0.56 183 22:18 25.01.2020
3808 Clouds 23 1011 42 0 0.56 183 21:41 25.01.2020
3809 Clouds 23 1011 42 0 0.56 183 21:23 25.01.2020
3810 Clouds 23 1011 42 0 0.56 183 20:56 25.01.2020
3811 Clouds 23 1011 42 0 0.56 183 20:38 25.01.2020
3812 Clouds 25 1009 39 0 0.43 96 20:20 25.01.2020
3813 Clouds 25 1009 39 0 0.43 96 19:44 25.01.2020
3814 Clouds 25 1009 39 0 0.43 96 19:20 25.01.2020
3815 Clouds 25 1009 39 0 0.43 96 18:57 25.01.2020
3816 Clouds 25 1009 39 0 0.43 96 18:39 25.01.2020
3817 Clouds 25 1009 39 0 0.43 96 18:20 25.01.2020
3818 Clouds 25 1009 39 0 0.43 96 17:42 25.01.2020
3819 Clouds 34 1007 20 0 0.77 330 17:23 25.01.2020
3820 Clouds 34 1007 20 0 0.77 330 16:58 25.01.2020
3821 Clouds 34 1007 20 0 0.77 330 16:39 25.01.2020
3822 Clouds 34 1007 20 0 0.77 330 16:19 25.01.2020
3823 Clouds 34 1007 20 0 0.77 330 15:47 25.01.2020
3824 Clouds 34 1007 20 0 0.77 330 15:25 25.01.2020
3825 Clouds 34 1007 20 0 0.77 330 14:59 25.01.2020
3826 Clouds 34 1007 20 0 0.77 330 14:40 25.01.2020
3827 Clouds 36 1008 18 0 1.23 39 14:18 25.01.2020
3828 Clouds 36 1008 18 0 1.23 39 13:42 25.01.2020
3829 Clouds 36 1008 18 0 1.23 39 13:42 25.01.2020
3830 Clouds 36 1008 17 0 1.46 22 13:23 25.01.2020
3831 Clouds 36 1008 17 0 1.46 22 12:45 25.01.2020
3832 Clouds 30 1014 27 6000 4.1 20 12:26 25.01.2020
3833 Clouds 30 1014 27 6000 4.1 20 11:45 25.01.2020
3834 Clouds 28 1015 32 6000 5.1 40 11:22 25.01.2020
3835 Clouds 28 1015 32 6000 5.1 40 10:59 25.01.2020
3836 Clouds 28 1015 32 6000 5.1 40 10:40 25.01.2020
3837 Clouds 31 1013 24 0 1.89 52 10:20 25.01.2020
3838 Clouds 31 1013 24 0 1.89 52 09:54 25.01.2020
3839 Clouds 31 1013 24 0 1.89 52 09:36 25.01.2020
3840 Clouds 31 1013 24 0 1.89 52 09:18 25.01.2020
3841 Clouds 31 1013 24 0 1.89 52 08:42 25.01.2020
3842 Mist 17 1015 93 3000 1.05 38 07:50 25.01.2020
3843 Clouds 22 1014 49 0 1.05 38 06:54 25.01.2020
3844 Mist 20 1013 88 2000 1.05 38 06:29 25.01.2020
3845 Mist 20 1013 88 2000 1.05 38 05:48 25.01.2020
3846 Clouds 22 1014 49 0 1.05 38 05:23 25.01.2020
3847 Clouds 21 1011 47 0 0.38 88 03:53 25.01.2020
3848 Clouds 21 1011 47 0 0.38 88 03:22 25.01.2020
3849 Clouds 22 1010 41 0 0.23 303 02:22 25.01.2020
3850 Clouds 22 1010 41 0 0.23 303 01:53 25.01.2020
3851 Clouds 22 1010 41 0 0.27 263 00:44 25.01.2020
3852 Clouds 22 1010 41 0 0.27 263 00:26 25.01.2020
3853 Clouds 22 1010 41 0 0.27 263 23:59 24.01.2020
3854 Clouds 22 1010 41 0 0.27 263 23:59 24.01.2020
3855 Clouds 22 1010 41 0 0.27 263 23:40 24.01.2020
3856 Clouds 22 1010 41 0 0.27 263 23:22 24.01.2020
3857 Clouds 23 1011 39 0 0.33 256 22:45 24.01.2020
3858 Clouds 23 1011 39 0 0.33 256 22:25 24.01.2020
3859 Clouds 23 1011 39 0 0.33 256 21:56 24.01.2020
3860 Clouds 23 1011 39 0 0.33 256 21:37 24.01.2020
3861 Clouds 23 1011 39 0 0.33 256 21:18 24.01.2020
3862 Clouds 23 1011 39 0 0.33 256 20:42 24.01.2020
3863 Clouds 24 1009 38 0 0.56 322 20:21 24.01.2020
3864 Clouds 24 1009 38 0 0.56 322 19:57 24.01.2020
3865 Clouds 24 1009 38 0 0.56 322 19:39 24.01.2020
3866 Clouds 24 1009 38 0 0.56 322 19:21 24.01.2020
3867 Clouds 24 1009 38 0 0.56 322 18:43 24.01.2020
3868 Clouds 29 1010 39 6000 2.1 30 18:24 24.01.2020
3869 Clouds 29 1010 39 6000 2.1 30 17:56 24.01.2020
3870 Clouds 29 1010 39 6000 2.1 30 17:38 24.01.2020
3871 Clouds 30 1010 37 7000 2.1 50 17:18 24.01.2020
3872 Clouds 30 1010 37 7000 2.1 50 16:39 24.01.2020
3873 Clouds 31 1010 45 7000 2.1 360 16:21 24.01.2020
3874 Clouds 31 1010 45 7000 2.1 360 15:43 24.01.2020
3875 Clouds 34 1007 25 0 1.07 349 15:23 24.01.2020
3876 Clouds 34 1007 25 0 1.07 349 14:59 24.01.2020
3877 Clouds 34 1007 25 0 1.07 349 14:40 24.01.2020
3878 Clouds 31 1012 45 7000 3.1 90 14:22 24.01.2020
3879 Clouds 36 1008 17 0 1.55 25 13:43 24.01.2020
3880 Clouds 36 1008 17 0 1.55 25 13:23 24.01.2020
3881 Clouds 35 1008 17 0 1.7 25 12:45 24.01.2020
3882 Clouds 35 1008 17 0 1.7 25 12:45 24.01.2020
3883 Clouds 35 1008 17 0 1.7 25 12:23 24.01.2020
3884 Clouds 35 1008 17 0 1.7 25 11:57 24.01.2020
3885 Clouds 35 1008 17 0 1.7 25 11:39 24.01.2020
3886 Clouds 30 1013 26 0 2.22 41 11:18 24.01.2020
3887 Clouds 30 1013 26 0 2.22 41 10:42 24.01.2020
3888 Clouds 30 1013 26 0 2.22 41 10:42 24.01.2020
3889 Clouds 30 1013 26 0 2.22 41 10:21 24.01.2020
3890 Clouds 30 1013 26 0 2.22 41 09:55 24.01.2020
3891 Clouds 30 1013 26 0 2.22 41 09:37 24.01.2020
3892 Clouds 30 1013 26 0 2.22 41 09:18 24.01.2020
3893 Clouds 30 1013 26 0 2.22 41 09:18 24.01.2020
3894 Clouds 30 1013 26 0 2.22 41 08:39 24.01.2020
3895 Clouds 21 1013 50 0 1.77 47 08:19 24.01.2020
3896 Clouds 21 1013 50 0 1.77 47 07:49 24.01.2020
3897 Mist 15 1013 93 2000 1.77 47 07:24 24.01.2020
3898 Mist 15 1013 93 2000 1.77 47 06:45 24.01.2020
3899 Clouds 21 1013 50 0 1.77 47 06:24 24.01.2020
3900 Clouds 21 1013 50 0 1.77 47 05:43 24.01.2020
3901 Clouds 19 1010 52 0 0.8 69 03:55 24.01.2020
3902 Clouds 19 1010 52 0 0.8 69 02:43 24.01.2020
3903 Clouds 21 1010 43 0 0.3 29 02:23 24.01.2020
3904 Clouds 21 1010 43 0 0.3 29 01:39 24.01.2020
3905 Clouds 21 1010 44 0 0.41 57 00:54 24.01.2020
3906 Clouds 21 1010 44 0 0.41 57 00:19 24.01.2020
3907 Clouds 21 1010 44 0 0.41 57 23:45 23.01.2020
3908 Clouds 21 1010 44 0 0.41 57 23:27 23.01.2020
3909 Clouds 24 1011 37 0 0.94 175 22:59 23.01.2020
3910 Clouds 24 1011 37 0 0.94 175 22:37 23.01.2020
3911 Clouds 24 1011 37 0 0.94 175 22:19 23.01.2020
3912 Clouds 24 1011 37 0 0.94 175 21:56 23.01.2020
3913 Clouds 24 1011 37 0 0.94 175 21:38 23.01.2020
3914 Clouds 24 1011 37 0 0.94 175 21:19 23.01.2020
3915 Clouds 24 1011 37 0 0.94 175 20:57 23.01.2020
3916 Clouds 24 1011 37 0 0.94 175 20:38 23.01.2020
3917 Clouds 25 1009 37 0 0.51 332 20:19 23.01.2020
3918 Clouds 25 1009 37 0 0.51 332 19:44 23.01.2020
3919 Clouds 25 1009 37 0 0.51 332 19:44 23.01.2020
3920 Thunderstorm 25 1012 83 8000 3.1 350 19:24 23.01.2020
3921 Thunderstorm 25 1012 83 8000 3.1 350 18:59 23.01.2020
3922 Thunderstorm 25 1012 83 8000 3.1 350 18:40 23.01.2020
3923 Clouds 25 1009 37 0 0.51 332 18:20 23.01.2020
3924 Clouds 25 1009 37 0 0.51 332 17:58 23.01.2020
3925 Clouds 25 1009 37 0 0.51 332 17:39 23.01.2020
3926 Clouds 34 1006 27 0 0.97 4 17:19 23.01.2020
3927 Clouds 34 1006 27 0 0.97 4 16:55 23.01.2020
3928 Clouds 31 1010 40 7000 3.1 40 16:36 23.01.2020
3929 Clouds 31 1010 40 7000 3.1 40 16:18 23.01.2020
3930 Clouds 31 1010 40 7000 3.1 40 15:54 23.01.2020
3931 Clouds 31 1010 40 7000 3.1 40 15:36 23.01.2020
3932 Clouds 32 1010 43 7000 4.1 80 15:18 23.01.2020
3933 Clouds 32 1010 43 7000 4.1 80 14:54 23.01.2020
3934 Clouds 32 1010 43 7000 4.1 80 14:36 23.01.2020
3935 Clouds 32 1011 40 7000 4.1 90 14:18 23.01.2020
3936 Clouds 32 1011 40 7000 4.1 90 13:38 23.01.2020
3937 Clouds 31 1012 43 7000 2.1 360 13:19 23.01.2020
3938 Clouds 31 1012 43 7000 2.1 360 12:47 23.01.2020
3939 Clouds 36 1008 19 0 1.37 15 12:25 23.01.2020
3940 Clouds 35 1008 19 0 1.44 15 12:25 23.01.2020
3941 Clouds 35 1008 19 0 1.44 15 11:58 23.01.2020
3942 Clouds 35 1008 19 0 1.44 15 11:38 23.01.2020
3943 Clouds 29 1014 51 7000 3.1 360 11:19 23.01.2020
3944 Clouds 29 1014 51 7000 3.1 360 10:44 23.01.2020
3945 Clouds 32 1012 28 0 1.54 46 10:22 23.01.2020
3946 Clouds 31 1012 26 0 1.56 39 09:59 23.01.2020
3947 Clouds 31 1012 26 0 1.56 39 09:37 23.01.2020
3948 Clouds 22 1014 88 5000 1.56 39 09:19 23.01.2020
3949 Clouds 22 1014 88 5000 1.56 39 08:41 23.01.2020
3950 Clouds 23 1013 58 0 0.91 57 08:22 23.01.2020
3951 Clouds 23 1013 58 0 0.91 57 07:45 23.01.2020
3952 Clouds 23 1013 58 0 0.91 57 07:26 23.01.2020
3953 Clouds 23 1013 58 0 0.91 57 06:53 23.01.2020
3954 Clouds 23 1013 58 0 0.91 57 06:23 23.01.2020
3955 Clouds 23 1013 58 0 0.91 57 05:57 23.01.2020
3956 Clouds 20 1009 63 0 0.5 354 04:24 23.01.2020
3957 Clouds 20 1009 63 0 0.5 354 02:34 23.01.2020
3958 Clouds 22 1009 55 0 0.86 16 01:41 23.01.2020
3959 Clouds 22 1009 53 0 0.67 39 00:28 23.01.2020
3960 Clouds 22 1009 53 0 0.67 39 23:48 22.01.2020
3961 Clouds 22 1009 53 0 0.67 39 23:30 22.01.2020
3962 Clouds 24 1010 47 0 0.93 147 22:59 22.01.2020
3963 Clouds 24 1010 47 0 0.93 147 22:41 22.01.2020
3964 Clouds 24 1010 47 0 0.93 147 22:41 22.01.2020
3965 Haze 24 1012 64 5000 0.93 147 22:22 22.01.2020
3966 Haze 24 1012 64 5000 0.93 147 21:40 22.01.2020
3967 Haze 25 1012 61 5000 2.1 0 21:22 22.01.2020
3968 Haze 25 1012 61 5000 2.1 0 20:58 22.01.2020
3969 Haze 25 1012 61 5000 2.1 0 20:39 22.01.2020
3970 Clouds 26 1009 42 0 0.71 151 20:21 22.01.2020
3971 Clouds 25 1008 44 0 0.48 133 19:57 22.01.2020
3972 Clouds 25 1008 44 0 0.48 133 19:38 22.01.2020
3973 Clouds 25 1008 44 0 0.48 133 19:18 22.01.2020
3974 Clouds 25 1008 44 0 0.48 133 18:56 22.01.2020
3975 Clouds 25 1008 44 0 0.48 133 18:38 22.01.2020
3976 Clear 29 1010 45 6000 3.1 30 18:19 22.01.2020
3977 Clouds 25 1008 44 0 0.48 133 17:54 22.01.2020
3978 Clouds 25 1008 44 0 0.48 133 17:36 22.01.2020
3979 Clouds 31 1009 40 6000 3.1 300 17:18 22.01.2020
3980 Clouds 31 1009 40 6000 3.1 300 17:18 22.01.2020
3981 Clouds 33 1005 31 0 0.48 352 16:43 22.01.2020
3982 Clouds 33 1005 31 0 0.48 352 16:22 22.01.2020
3983 Clouds 33 1005 31 0 0.48 352 15:58 22.01.2020
3984 Clouds 33 1005 31 0 0.48 352 15:39 22.01.2020
3985 Clouds 32 1010 35 7000 3.1 20 15:21 22.01.2020
3986 Clouds 32 1010 35 7000 3.1 20 15:21 22.01.2020
3987 Clouds 32 1010 35 7000 3.1 20 14:54 22.01.2020
3988 Clouds 32 1010 35 7000 3.1 20 14:36 22.01.2020
3989 Clouds 32 1010 35 7000 3.1 20 14:36 22.01.2020
3990 Clouds 35 1007 23 0 1.25 17 14:18 22.01.2020
3991 Clouds 35 1007 23 0 1.25 17 13:54 22.01.2020
3992 Clouds 35 1007 23 0 1.25 17 13:36 22.01.2020
3993 Clouds 35 1007 23 0 1.25 5 13:18 22.01.2020
3994 Clouds 35 1007 23 0 1.25 5 12:54 22.01.2020
3995 Clouds 35 1007 23 0 1.25 5 12:36 22.01.2020
3996 Clouds 31 1013 45 6000 3.1 360 12:18 22.01.2020
3997 Clouds 31 1013 45 6000 3.1 360 11:54 22.01.2020
3998 Clouds 31 1013 45 6000 3.1 360 11:36 22.01.2020
3999 Clouds 29 1014 51 6000 3.1 330 11:18 22.01.2020
4000 Clouds 29 1014 51 6000 3.1 330 10:41 22.01.2020
4001 Clouds 31 1011 33 0 2.13 34 10:19 22.01.2020
4002 Clouds 31 1011 33 0 2.13 34 09:42 22.01.2020
4003 Clouds 31 1011 33 0 2.13 34 09:24 22.01.2020
4004 Clouds 31 1011 33 0 2.13 34 08:57 22.01.2020
4005 Clouds 31 1011 33 0 2.13 34 08:39 22.01.2020
4006 Clouds 23 1012 61 0 0.37 329 08:20 22.01.2020
4007 Clouds 23 1012 61 0 0.37 329 07:47 22.01.2020
4008 Clouds 23 1012 61 0 0.37 329 07:29 22.01.2020
4009 Clouds 23 1012 61 0 0.37 329 06:46 22.01.2020
4010 Clouds 23 1012 61 0 0.37 329 06:26 22.01.2020
4011 Clouds 23 1012 61 0 0.37 329 05:26 22.01.2020
4012 Clouds 20 1009 62 0 0.93 63 03:30 22.01.2020
4013 Clouds 20 1009 62 0 0.93 63 02:57 22.01.2020
4014 Clouds 21 1009 57 0 0.7 293 01:42 22.01.2020
4015 Clouds 21 1009 55 0 0.57 315 00:44 22.01.2020
4016 Clouds 21 1009 55 0 0.57 315 00:26 22.01.2020
4017 Clouds 21 1009 55 0 0.57 315 23:38 21.01.2020
4018 Clouds 23 1010 51 0 0.68 163 23:20 21.01.2020
4019 Clouds 23 1010 51 0 0.68 163 22:55 21.01.2020
4020 Clouds 23 1010 51 0 0.68 163 22:55 21.01.2020
4021 Clouds 23 1010 51 0 0.68 163 22:36 21.01.2020
4022 Clouds 23 1010 51 0 0.68 163 22:18 21.01.2020
4023 Clouds 23 1010 51 0 0.68 163 21:55 21.01.2020
4024 Clouds 23 1010 51 0 0.68 163 21:37 21.01.2020
4025 Clouds 23 1010 51 0 0.68 163 21:18 21.01.2020
4026 Clouds 23 1010 51 0 0.68 163 20:55 21.01.2020
4027 Clouds 23 1010 51 0 0.68 163 20:36 21.01.2020
4028 Clouds 26 1007 43 0 1.12 220 20:18 21.01.2020
4029 Clouds 26 1007 43 0 1.12 220 19:55 21.01.2020
4030 Clouds 26 1007 43 0 1.12 220 19:36 21.01.2020
4031 Clouds 26 1007 43 0 1.12 220 19:18 21.01.2020
4032 Clouds 26 1007 43 0 1.12 220 18:54 21.01.2020
4033 Clouds 26 1007 43 0 1.12 220 18:36 21.01.2020
4034 Clouds 26 1007 43 0 1.12 220 18:18 21.01.2020
4035 Clouds 26 1007 43 0 1.12 220 17:42 21.01.2020
4036 Clouds 31 1009 62 6000 3.1 360 17:18 21.01.2020
4037 Clouds 31 1009 62 6000 3.1 360 17:18 21.01.2020
4038 Clouds 31 1009 62 6000 3.1 360 16:55 21.01.2020
4039 Clouds 31 1009 62 6000 3.1 360 16:36 21.01.2020
4040 Clouds 32 1009 55 6000 2.1 240 16:18 21.01.2020
4041 Clouds 32 1009 55 6000 2.1 240 15:39 21.01.2020
4042 Clouds 34 1004 28 0 1.35 347 15:19 21.01.2020
4043 Clouds 34 1004 28 0 1.35 347 14:40 21.01.2020
4044 Clouds 32 1010 52 6000 3.1 90 14:22 21.01.2020
4045 Clouds 32 1010 52 6000 3.1 90 13:58 21.01.2020
4046 Clouds 32 1010 52 6000 3.1 90 13:38 21.01.2020
4047 Clouds 35 1007 23 0 1.86 39 13:18 21.01.2020
4048 Clouds 35 1007 23 0 1.86 39 12:42 21.01.2020
4049 Clouds 31 1012 38 7000 2.1 360 12:24 21.01.2020
4050 Clouds 35 1007 23 0 1.86 39 11:56 21.01.2020
4051 Clouds 35 1007 23 0 1.86 39 11:38 21.01.2020
4052 Clouds 31 1011 31 0 2.17 42 11:19 21.01.2020
4053 Clouds 31 1011 31 0 2.17 42 10:43 21.01.2020
4054 Clouds 31 1011 31 0 2.17 42 10:23 21.01.2020
4055 Clouds 31 1011 31 0 2.17 42 09:56 21.01.2020
4056 Clouds 31 1011 31 0 2.17 42 09:56 21.01.2020
4057 Clouds 31 1011 31 0 2.17 42 09:38 21.01.2020
4058 Clouds 31 1011 31 0 2.17 42 09:20 21.01.2020
4059 Clouds 31 1011 31 0 2.17 42 08:44 21.01.2020
4060 Clouds 30 1011 31 0 2.01 38 08:26 21.01.2020
4061 Clouds 23 1013 61 0 1.12 63 07:43 21.01.2020
4062 Clouds 23 1013 61 0 1.12 63 07:24 21.01.2020
4063 Clouds 23 1013 61 0 1.12 63 06:57 21.01.2020
4064 Clouds 23 1013 61 0 1.12 63 06:38 21.01.2020
4065 Clouds 23 1013 61 0 1.12 63 05:55 21.01.2020
4066 Clouds 23 1013 61 0 1.12 63 05:55 21.01.2020
4067 Clouds 23 1013 61 0 1.12 63 05:32 21.01.2020
4068 Clouds 20 1010 80 0 0.17 85 04:38 21.01.2020
4069 Clouds 20 1010 80 0 0.17 85 02:27 21.01.2020
4070 Clouds 22 1009 76 0 0.45 359 01:36 21.01.2020
4071 Clouds 22 1009 74 0 0.51 29 00:51 21.01.2020
4072 Clouds 22 1009 74 0 0.51 29 00:28 21.01.2020
4073 Clouds 22 1009 74 0 0.51 29 23:56 20.01.2020
4074 Clouds 22 1009 74 0 0.51 29 23:36 20.01.2020
4075 Clouds 24 1010 65 0 0.37 114 23:18 20.01.2020
4076 Clouds 24 1010 65 0 0.37 114 22:40 20.01.2020
4077 Clouds 24 1010 65 0 0.37 114 22:21 20.01.2020
4078 Clouds 24 1010 65 0 0.37 114 21:58 20.01.2020
4079 Clouds 24 1010 65 0 0.37 114 21:38 20.01.2020
4080 Clouds 24 1010 65 0 0.37 114 21:20 20.01.2020
4081 Clouds 24 1010 65 0 0.37 114 20:59 20.01.2020
4082 Clouds 24 1010 65 0 0.37 114 20:41 20.01.2020
4083 Clouds 26 1008 59 0 0.47 236 20:20 20.01.2020
4084 Clouds 26 1008 59 0 0.47 236 19:58 20.01.2020
4085 Clouds 26 1008 59 0 0.47 236 19:40 20.01.2020
4086 Clouds 26 1008 59 0 0.47 236 19:19 20.01.2020
4087 Clouds 26 1008 59 0 0.47 236 18:55 20.01.2020
4088 Clouds 26 1008 59 0 0.47 236 18:37 20.01.2020
4089 Clouds 28 1010 74 6000 3.1 330 18:19 20.01.2020
4090 Clouds 28 1010 74 6000 3.1 330 17:38 20.01.2020
4091 Clouds 33 1005 40 0 0.83 5 17:19 20.01.2020
4092 Clouds 33 1005 40 0 0.83 5 16:46 20.01.2020
4093 Clouds 33 1005 40 0 0.83 5 16:26 20.01.2020
4094 Clouds 33 1005 40 0 0.83 5 15:59 20.01.2020
4095 Clouds 33 1005 40 0 0.83 5 15:40 20.01.2020
4096 Clouds 33 1005 40 0 0.83 5 15:22 20.01.2020
4097 Clouds 33 1005 40 0 0.83 5 14:56 20.01.2020
4098 Clouds 33 1005 40 0 0.83 5 14:37 20.01.2020
4099 Clouds 33 1005 40 0 0.83 5 14:37 20.01.2020
4100 Clouds 35 1008 34 0 2.07 27 14:19 20.01.2020
4101 Clouds 35 1008 34 0 2.07 27 13:42 20.01.2020
4102 Clear 35 1008 34 0 2.08 30 13:24 20.01.2020
4103 Clear 35 1008 34 0 2.08 30 12:58 20.01.2020
4104 Clear 35 1008 34 0 2.08 30 12:40 20.01.2020
4105 Clear 35 1008 34 0 2.08 30 12:21 20.01.2020
4106 Clear 35 1008 34 0 2.08 30 11:43 20.01.2020
4107 Clear 35 1008 34 0 2.08 30 11:24 20.01.2020
4108 Clear 33 1012 45 0 0.97 51 10:58 20.01.2020
4109 Clear 33 1012 45 0 0.97 51 10:40 20.01.2020
4110 Clear 33 1012 45 0 0.97 51 10:20 20.01.2020
4111 Clear 33 1012 45 0 0.97 51 09:41 20.01.2020
4112 Clear 33 1012 45 0 0.97 51 09:22 20.01.2020
4113 Clear 33 1012 45 0 0.97 51 08:54 20.01.2020
4114 Clear 33 1012 45 0 0.97 51 08:31 20.01.2020
4115 Clouds 25 1013 76 0 0.99 114 07:55 20.01.2020
4116 Clouds 25 1013 76 0 0.99 114 07:36 20.01.2020
4117 Clouds 25 1013 76 0 0.99 114 07:18 20.01.2020
4118 Clouds 25 1013 76 0 0.99 114 06:35 20.01.2020
4119 Clouds 25 1013 76 0 0.99 114 05:56 20.01.2020
4120 Clouds 25 1013 76 0 0.99 114 05:37 20.01.2020
4121 Clouds 22 1010 89 0 0.8 157 05:18 20.01.2020
4122 Clouds 22 1010 89 0 0.8 157 03:47 20.01.2020
4123 Clouds 23 1010 85 0 1.51 167 01:58 20.01.2020
4124 Clouds 23 1010 85 0 1.51 167 01:39 20.01.2020
4125 Clouds 22 1010 87 0 1.57 166 00:46 20.01.2020
4126 Clouds 22 1010 87 0 1.57 166 00:27 20.01.2020
4127 Clouds 22 1010 87 0 1.57 166 23:55 19.01.2020
4128 Clouds 22 1010 87 0 1.57 166 23:36 19.01.2020
4129 Clouds 23 1010 85 0 1.13 176 23:18 19.01.2020
4130 Clouds 23 1010 85 0 1.13 176 22:54 19.01.2020
4131 Clouds 23 1010 85 0 1.13 176 22:36 19.01.2020
4132 Clouds 23 1010 85 0 1.13 176 22:18 19.01.2020
4133 Clouds 23 1010 85 0 1.13 176 21:55 19.01.2020
4134 Clouds 23 1010 85 0 1.13 176 21:55 19.01.2020
4135 Clouds 23 1010 85 0 1.13 176 21:37 19.01.2020
4136 Clouds 23 1010 85 0 1.13 176 21:18 19.01.2020
4137 Clouds 23 1010 85 0 1.13 176 20:55 19.01.2020
4138 Clouds 23 1010 85 0 1.13 176 20:37 19.01.2020
4139 Clouds 26 1010 67 0 0.62 143 20:18 19.01.2020
4140 Clouds 26 1010 67 0 0.62 143 19:54 19.01.2020
4141 Clouds 26 1010 67 0 0.62 143 19:36 19.01.2020
4142 Clouds 26 1010 67 0 0.62 143 19:18 19.01.2020
4143 Clouds 26 1010 67 0 0.62 143 18:55 19.01.2020
4144 Clouds 26 1010 67 0 0.62 143 18:36 19.01.2020
4145 Clouds 26 1010 67 0 0.62 143 18:18 19.01.2020
4146 Clouds 26 1010 67 0 0.62 143 17:56 19.01.2020
4147 Clouds 26 1010 67 0 0.62 143 17:38 19.01.2020
4148 Clouds 30 1007 50 0 0.44 329 17:18 19.01.2020
4149 Clouds 30 1007 50 0 0.44 329 16:55 19.01.2020
4150 Clouds 30 1007 50 0 0.44 329 16:36 19.01.2020
4151 Clouds 30 1007 50 0 0.44 329 16:18 19.01.2020
4152 Clouds 30 1007 50 0 0.44 329 15:54 19.01.2020
4153 Clouds 30 1007 50 0 0.44 329 15:36 19.01.2020
4154 Haze 30 1011 62 5000 2.1 180 15:18 19.01.2020
4155 Haze 30 1011 62 5000 2.1 180 14:40 19.01.2020
4156 Clouds 32 1009 47 0 0.82 202 14:20 19.01.2020
4157 Clouds 32 1009 47 0 0.82 202 13:59 19.01.2020
4158 Clouds 32 1009 47 0 0.82 202 13:40 19.01.2020
4159 Clouds 29 1013 70 7000 4.1 180 13:21 19.01.2020
4160 Clouds 29 1013 70 7000 4.1 180 12:59 19.01.2020
4161 Clouds 29 1013 70 7000 4.1 180 12:41 19.01.2020
4162 Clouds 28 1014 74 7000 4.1 200 12:21 19.01.2020
4163 Clouds 28 1014 74 7000 4.1 200 11:57 19.01.2020
4164 Clouds 28 1014 74 7000 4.1 200 11:38 19.01.2020
4165 Clouds 26 1015 78 7000 3.1 180 11:18 19.01.2020
4166 Clouds 30 1013 55 0 1.8 158 10:40 19.01.2020
4167 Clouds 30 1013 55 0 1.8 158 10:21 19.01.2020
4168 Clouds 30 1013 55 0 1.8 158 09:57 19.01.2020
4169 Clouds 30 1013 55 0 1.8 158 09:38 19.01.2020
4170 Haze 23 1015 94 5000 3.1 120 09:20 19.01.2020
4171 Haze 23 1015 94 5000 3.1 120 08:55 19.01.2020
4172 Mist 22 1015 100 4000 1.8 158 08:33 19.01.2020
4173 Mist 22 1015 100 4000 1.19 143 07:58 19.01.2020
4174 Mist 21 1014 94 4000 1.19 143 07:29 19.01.2020
4175 Mist 21 1014 94 4000 1.19 143 06:55 19.01.2020
4176 Mist 21 1014 94 4000 1.19 143 06:23 19.01.2020
4177 Clouds 20 1011 96 0 0.92 209 04:18 19.01.2020
4178 Clouds 20 1011 96 0 0.92 209 02:34 19.01.2020
4179 Clouds 21 1011 93 0 1.12 180 01:43 19.01.2020
4180 Clouds 21 1011 95 0 1.25 178 01:21 19.01.2020
4181 Clouds 21 1011 95 0 1.25 178 00:45 19.01.2020
4182 Clouds 21 1011 95 0 1.25 178 00:24 19.01.2020
4183 Clouds 21 1011 95 0 1.25 178 23:54 18.01.2020
4184 Clouds 21 1011 95 0 1.25 178 23:36 18.01.2020
4185 Clouds 22 1013 91 0 1.32 190 23:18 18.01.2020
4186 Clouds 22 1013 91 0 1.32 190 22:41 18.01.2020
4187 Clouds 23 1014 88 6000 1.32 190 22:23 18.01.2020
4188 Clouds 23 1014 88 6000 1.32 190 21:58 18.01.2020
4189 Clouds 23 1014 88 6000 1.32 190 21:39 18.01.2020
4190 Clouds 23 1014 94 6000 1.5 0 21:20 18.01.2020
4191 Clouds 23 1014 94 6000 1.5 0 20:57 18.01.2020
4192 Clouds 23 1014 94 6000 1.5 0 20:57 18.01.2020
4193 Clouds 23 1014 94 6000 1.5 0 20:39 18.01.2020
4194 Clouds 23 1014 94 6000 1.5 0 20:39 18.01.2020
4195 Clouds 23 1013 94 6000 1.5 0 20:19 18.01.2020
4196 Clouds 23 1013 94 6000 1.5 0 19:43 18.01.2020
4197 Clouds 23 1012 94 7000 2.1 30 19:24 18.01.2020
4198 Clouds 23 1012 94 7000 2.1 30 18:43 18.01.2020
4199 Clouds 22 1011 92 0 1.37 198 18:25 18.01.2020
4200 Clouds 22 1011 92 0 1.37 198 17:59 18.01.2020
4201 Clouds 22 1011 92 0 1.37 198 17:40 18.01.2020
4202 Rain 24 1010 88 0 0.73 252 17:21 18.01.2020
4203 Rain 24 1010 88 0 0.73 252 16:57 18.01.2020
4204 Rain 24 1010 88 0 0.73 252 16:38 18.01.2020
4205 Rain 24 1010 88 0 0.73 252 16:38 18.01.2020
4206 Rain 24 1010 88 0 0.73 252 16:19 18.01.2020
4207 Rain 24 1010 88 0 0.73 252 15:47 18.01.2020
4208 Rain 24 1010 88 0 0.73 252 15:47 18.01.2020
4209 Rain 24 1010 88 0 0.73 252 15:26 18.01.2020
4210 Rain 24 1010 88 0 0.73 252 14:59 18.01.2020
4211 Rain 24 1010 88 0 0.73 252 14:40 18.01.2020
4212 Rain 27 1010 81 0 0.87 250 14:19 18.01.2020
4213 Rain 27 1010 81 0 0.87 250 13:57 18.01.2020
4214 Rain 27 1010 81 0 0.87 250 13:36 18.01.2020
4215 Rain 29 1010 66 0 1.28 262 13:18 18.01.2020
4216 Rain 29 1010 66 0 1.28 262 12:41 18.01.2020
4217 Rain 29 1010 66 0 1.28 262 12:21 18.01.2020
4218 Rain 29 1010 66 0 1.28 262 11:56 18.01.2020
4219 Rain 29 1010 66 0 1.28 262 11:38 18.01.2020
4220 Rain 24 1013 90 0 0.94 201 11:19 18.01.2020
4221 Rain 24 1013 90 0 0.94 201 10:42 18.01.2020
4222 Rain 24 1013 90 0 0.94 201 10:20 18.01.2020
4223 Rain 24 1013 90 0 0.94 201 09:54 18.01.2020
4224 Rain 24 1013 90 0 0.94 201 09:36 18.01.2020
4225 Rain 24 1013 90 0 0.94 201 08:59 18.01.2020
4226 Rain 24 1013 90 0 0.94 201 08:41 18.01.2020
4227 Rain 24 1013 90 0 0.94 201 08:41 18.01.2020
4228 Clouds 24 1012 86 0 1.39 38 08:20 18.01.2020
4229 Clouds 24 1012 86 0 1.39 38 07:52 18.01.2020
4230 Clouds 24 1012 86 0 1.39 38 07:34 18.01.2020
4231 Clouds 24 1012 86 0 1.39 38 06:48 18.01.2020
4232 Clouds 24 1012 86 0 1.39 38 06:19 18.01.2020
4233 Clouds 24 1012 86 0 1.39 38 05:31 18.01.2020
4234 Clouds 24 1009 84 0 0.69 112 03:46 18.01.2020
4235 Clouds 25 1009 78 0 1.57 195 02:21 18.01.2020
4236 Clouds 25 1009 78 0 1.57 195 01:36 18.01.2020
4237 Clouds 25 1009 75 0 1.49 184 00:38 18.01.2020
4238 Clouds 25 1009 75 0 1.49 184 00:19 18.01.2020
4239 Clouds 25 1009 75 0 1.49 184 23:44 17.01.2020
4240 Clouds 24 1010 73 0 1.44 182 23:21 17.01.2020
4241 Clouds 24 1010 73 0 1.44 182 22:59 17.01.2020
4242 Clouds 24 1010 73 0 1.44 182 22:40 17.01.2020
4243 Clouds 24 1010 73 0 1.44 182 22:19 17.01.2020
4244 Clouds 24 1010 73 0 1.44 182 21:43 17.01.2020
4245 Clouds 24 1010 73 0 1.44 182 21:24 17.01.2020
4246 Clouds 24 1010 73 0 1.44 182 20:59 17.01.2020
4247 Clouds 24 1010 73 0 1.44 182 20:41 17.01.2020
4248 Clouds 27 1008 54 0 0.83 116 20:20 17.01.2020
4249 Clouds 27 1008 54 0 0.83 116 19:57 17.01.2020
4250 Clouds 27 1008 54 0 0.83 116 19:38 17.01.2020
4251 Clouds 27 1008 54 0 0.83 116 19:19 17.01.2020
4252 Clouds 27 1008 54 0 0.83 116 18:57 17.01.2020
4253 Clouds 27 1008 54 0 0.83 116 18:37 17.01.2020
4254 Clouds 27 1008 54 0 0.83 116 18:19 17.01.2020
4255 Clouds 27 1008 54 0 0.83 116 17:40 17.01.2020
4256 Clouds 27 1008 54 0 0.83 116 17:40 17.01.2020
4257 Clouds 32 1006 40 0 1.18 13 17:21 17.01.2020
4258 Clouds 32 1006 40 0 1.18 13 16:55 17.01.2020
4259 Clouds 32 1006 40 0 1.18 13 16:36 17.01.2020
4260 Clouds 32 1006 40 0 1.18 13 16:18 17.01.2020
4261 Clouds 32 1006 40 0 1.18 13 15:43 17.01.2020
4262 Clouds 32 1006 40 0 1.18 13 15:25 17.01.2020
4263 Clouds 32 1006 40 0 1.18 13 14:44 17.01.2020
4264 Clouds 32 1006 40 0 1.18 13 14:25 17.01.2020
4265 Clouds 36 1007 32 0 1.38 330 13:56 17.01.2020
4266 Clouds 36 1007 32 0 1.38 330 13:37 17.01.2020
4267 Clouds 36 1007 29 0 1.67 327 13:18 17.01.2020
4268 Clouds 36 1007 29 0 1.67 327 13:18 17.01.2020
4269 Clouds 36 1007 29 0 1.67 327 12:42 17.01.2020
4270 Clouds 36 1007 29 0 1.67 327 12:21 17.01.2020
4271 Clouds 36 1007 29 0 1.67 327 11:38 17.01.2020
4272 Clouds 36 1011 32 0 1.02 31 11:18 17.01.2020
4273 Clouds 36 1011 32 0 1.02 31 10:42 17.01.2020
4274 Clouds 36 1011 32 0 1.02 31 10:23 17.01.2020
4275 Clouds 36 1011 32 0 1.02 31 09:58 17.01.2020
4276 Clouds 36 1011 32 0 1.02 31 09:38 17.01.2020
4277 Clouds 36 1011 32 0 1.02 31 09:19 17.01.2020
4278 Clouds 36 1011 32 0 1.02 31 08:43 17.01.2020
4279 Clouds 36 1010 30 0 0.92 200 08:24 17.01.2020
4280 Clouds 25 1010 58 0 0.97 228 07:53 17.01.2020
4281 Clouds 25 1010 58 0 0.97 228 07:31 17.01.2020
4282 Clouds 25 1010 58 0 0.97 228 06:57 17.01.2020
4283 Clouds 25 1010 58 0 0.97 228 06:38 17.01.2020
4284 Clouds 25 1010 58 0 0.97 228 05:38 17.01.2020
4285 Clouds 22 1009 61 0 0.62 275 03:39 17.01.2020
4286 Clouds 22 1009 61 0 0.62 275 02:47 17.01.2020
4287 Clouds 24 1008 53 0 0.57 171 01:47 17.01.2020
4288 Clouds 24 1008 53 0 0.57 171 01:28 17.01.2020
4289 Clouds 24 1008 51 0 0.96 78 00:48 17.01.2020
4290 Clouds 24 1008 51 0 0.96 78 00:23 17.01.2020
4291 Clouds 24 1008 51 0 0.96 78 23:44 16.01.2020
4292 Clouds 24 1008 51 0 0.96 78 23:25 16.01.2020
4293 Clouds 25 1009 51 0 1.23 106 22:56 16.01.2020
4294 Clouds 25 1009 51 0 1.23 106 22:38 16.01.2020
4295 Clouds 25 1009 51 0 1.23 106 22:19 16.01.2020
4296 Clouds 25 1009 51 0 1.23 106 21:54 16.01.2020
4297 Clouds 25 1009 51 0 1.23 106 21:36 16.01.2020
4298 Clouds 25 1009 51 0 1.23 106 21:36 16.01.2020
4299 Clouds 25 1009 51 0 1.23 106 21:18 16.01.2020
4300 Clouds 25 1009 51 0 1.23 106 20:40 16.01.2020
4301 Clouds 27 1006 45 0 0.72 167 20:21 16.01.2020
4302 Clouds 27 1006 45 0 0.72 167 19:58 16.01.2020
4303 Clouds 27 1006 45 0 0.72 167 19:40 16.01.2020
4304 Clouds 27 1006 45 0 0.72 167 19:22 16.01.2020
4305 Clouds 27 1006 45 0 0.72 167 18:57 16.01.2020
4306 Clouds 27 1006 45 0 0.72 167 18:37 16.01.2020
4307 Clouds 27 1006 45 0 0.72 167 18:18 16.01.2020
4308 Clouds 27 1006 45 0 0.72 167 17:58 16.01.2020
4309 Clouds 27 1006 45 0 0.72 167 17:39 16.01.2020
4310 Clouds 36 1003 28 0 1.07 96 17:20 16.01.2020
4311 Clouds 36 1003 28 0 1.07 96 16:41 16.01.2020
4312 Clouds 36 1003 28 0 1.07 96 16:22 16.01.2020
4313 Clouds 36 1003 28 0 1.07 96 15:57 16.01.2020
4314 Clouds 36 1003 28 0 1.07 96 15:38 16.01.2020
4315 Clouds 36 1003 28 0 1.07 96 15:20 16.01.2020
4316 Clouds 36 1003 28 0 1.07 96 14:42 16.01.2020
4317 Clouds 36 1003 28 0 1.07 96 14:24 16.01.2020
4318 Clouds 39 1005 23 0 1.05 13 13:55 16.01.2020
4319 Clouds 39 1005 23 0 1.05 13 13:37 16.01.2020
4320 Clouds 39 1005 23 0 1.14 359 13:19 16.01.2020
4321 Clouds 39 1005 23 0 1.14 359 12:41 16.01.2020
4322 Clouds 39 1005 23 0 1.14 359 12:21 16.01.2020
4323 Clouds 39 1005 23 0 1.14 359 11:43 16.01.2020
4324 Clouds 39 1005 23 0 1.14 359 11:24 16.01.2020
4325 Clouds 36 1010 32 0 0.45 86 10:57 16.01.2020
4326 Clouds 36 1010 32 0 0.45 86 10:38 16.01.2020
4327 Clouds 36 1010 32 0 0.45 86 10:20 16.01.2020
4328 Clouds 36 1010 32 0 0.45 86 09:44 16.01.2020
4329 Clouds 36 1010 32 0 0.45 86 09:24 16.01.2020
4330 Clouds 36 1010 32 0 0.45 86 08:59 16.01.2020
4331 Clouds 36 1010 32 0 0.45 86 08:41 16.01.2020
4332 Clouds 24 1010 60 0 0.87 97 08:20 16.01.2020
4333 Clouds 24 1010 60 0 0.87 97 07:43 16.01.2020
4334 Clouds 24 1010 60 0 0.87 97 07:25 16.01.2020
4335 Clouds 24 1010 60 0 0.87 97 06:55 16.01.2020
4336 Clouds 24 1010 60 0 0.87 97 06:35 16.01.2020
4337 Clouds 24 1010 60 0 0.87 97 05:56 16.01.2020
4338 Clouds 24 1010 60 0 0.87 97 05:25 16.01.2020
4339 Clouds 21 1009 65 0 0.79 25 04:23 16.01.2020
4340 Clouds 21 1009 65 0 0.79 25 03:27 16.01.2020
4341 Clouds 24 1008 56 0 0.84 187 02:23 16.01.2020
4342 Clouds 24 1008 56 0 1.01 167 00:44 16.01.2020
4343 Clouds 24 1008 56 0 1.01 167 00:23 16.01.2020
4344 Clouds 24 1008 56 0 1.01 167 23:45 15.01.2020
4345 Clouds 24 1008 56 0 1.01 167 23:22 15.01.2020
4346 Clouds 25 1009 53 0 1.06 196 22:57 15.01.2020
4347 Clouds 25 1009 53 0 1.06 196 22:39 15.01.2020
4348 Clouds 25 1009 53 0 1.06 196 22:18 15.01.2020
4349 Clouds 25 1009 53 0 1.06 196 21:56 15.01.2020
4350 Clouds 25 1009 53 0 1.06 196 21:37 15.01.2020
4351 Clouds 25 1009 53 0 1.06 196 21:19 15.01.2020
4352 Clouds 25 1009 53 0 1.06 196 20:56 15.01.2020
4353 Clouds 25 1009 53 0 1.06 196 20:38 15.01.2020
4354 Clear 26 1006 48 0 0.91 136 20:19 15.01.2020
4355 Clear 26 1006 48 0 0.91 136 19:54 15.01.2020
4356 Clear 26 1006 48 0 0.91 136 19:36 15.01.2020
4357 Clear 26 1006 48 0 0.91 136 19:18 15.01.2020
4358 Clear 26 1006 48 0 0.91 136 18:56 15.01.2020
4359 Clear 26 1006 48 0 0.91 136 18:37 15.01.2020
4360 Clear 26 1006 48 0 0.91 136 18:37 15.01.2020
4361 Clear 26 1006 48 0 0.91 136 18:19 15.01.2020
4362 Clear 26 1006 48 0 0.91 136 17:55 15.01.2020
4363 Clear 26 1006 48 0 0.91 136 17:36 15.01.2020
4364 Clear 35 1003 29 0 0.64 360 17:18 15.01.2020
4365 Clear 35 1003 29 0 0.64 360 16:40 15.01.2020
4366 Clear 35 1003 29 0 0.64 360 16:21 15.01.2020
4367 Clear 35 1003 29 0 0.64 360 15:56 15.01.2020
4368 Clear 35 1003 29 0 0.64 360 15:38 15.01.2020
4369 Clear 35 1003 29 0 0.64 360 15:18 15.01.2020
4370 Clear 35 1003 29 0 0.64 360 14:42 15.01.2020
4371 Clear 37 1005 25 0 1.54 35 14:19 15.01.2020
4372 Clear 37 1005 25 0 1.54 35 13:46 15.01.2020
4373 Clear 37 1005 25 0 1.54 35 13:26 15.01.2020
4374 Clear 37 1005 25 0 1.59 40 12:59 15.01.2020
4375 Clear 37 1005 25 0 1.59 40 12:39 15.01.2020
4376 Clear 37 1005 25 0 1.59 40 12:19 15.01.2020
4377 Clear 37 1005 25 0 1.59 40 11:56 15.01.2020
4378 Clear 37 1005 25 0 1.59 40 11:37 15.01.2020
4379 Clear 33 1010 41 0 1.29 64 11:19 15.01.2020
4380 Clear 33 1010 41 0 1.29 64 11:19 15.01.2020
4381 Clear 33 1010 41 0 1.29 64 10:43 15.01.2020
4382 Clear 33 1010 41 0 1.29 64 10:25 15.01.2020
4383 Clear 33 1010 41 0 1.29 64 09:44 15.01.2020
4384 Clear 33 1010 41 0 1.29 64 09:23 15.01.2020
4385 Clear 33 1010 41 0 1.29 64 08:56 15.01.2020
4386 Clear 33 1010 41 0 1.29 64 08:38 15.01.2020
4387 Clouds 24 1011 67 0 1.07 81 08:19 15.01.2020
4388 Clear 25 1010 69 0 1.1 81 07:51 15.01.2020
4389 Clear 25 1010 69 0 1.1 81 07:31 15.01.2020
4390 Clear 25 1010 69 0 1.1 81 06:45 15.01.2020
4391 Clear 25 1010 69 0 1.1 81 06:19 15.01.2020
4392 Clear 22 1009 78 0 0.91 66 04:36 15.01.2020
4393 Clear 22 1009 78 0 0.91 66 02:32 15.01.2020
4394 Clear 23 1008 69 0 0.94 195 01:27 15.01.2020
4395 Clear 23 1008 69 0 0.94 195 00:45 15.01.2020
4396 Clear 23 1008 69 0 0.94 195 00:26 15.01.2020
4397 Clear 23 1008 69 0 0.94 195 23:55 14.01.2020
4398 Clear 23 1008 69 0 0.94 195 23:36 14.01.2020
4399 Clear 25 1009 65 0 1.15 202 23:18 14.01.2020
4400 Clear 25 1009 65 0 1.15 202 22:41 14.01.2020
4401 Clear 25 1009 65 0 1.15 202 22:19 14.01.2020
4402 Clear 25 1009 65 0 1.15 202 22:19 14.01.2020
4403 Clear 25 1009 65 0 1.15 202 21:58 14.01.2020
4404 Clear 25 1009 65 0 1.15 202 21:39 14.01.2020
4405 Clear 25 1009 65 0 1.15 202 21:21 14.01.2020
4406 Clear 25 1009 65 0 1.15 202 20:58 14.01.2020
4407 Clear 25 1009 65 0 1.15 202 20:39 14.01.2020
4408 Clouds 26 1006 57 0 0.94 156 20:19 14.01.2020
4409 Clouds 26 1006 57 0 0.94 156 19:55 14.01.2020
4410 Clouds 26 1006 57 0 0.94 156 19:37 14.01.2020
4411 Clouds 26 1006 57 0 0.94 156 19:18 14.01.2020
4412 Clouds 26 1006 57 0 0.94 156 18:41 14.01.2020
4413 Clouds 26 1006 57 0 0.94 156 18:20 14.01.2020
4414 Clouds 26 1006 57 0 0.94 156 17:59 14.01.2020
4415 Clouds 26 1006 57 0 0.94 156 17:37 14.01.2020
4416 Clouds 34 1004 37 0 1.05 29 17:19 14.01.2020
4417 Clouds 34 1004 37 0 1.05 29 16:55 14.01.2020
4418 Clouds 34 1004 37 0 1.05 29 16:37 14.01.2020
4419 Clouds 34 1004 37 0 1.05 29 16:18 14.01.2020
4420 Clouds 34 1004 37 0 1.05 29 15:42 14.01.2020
4421 Clouds 34 1004 37 0 1.05 29 15:19 14.01.2020
4422 Clouds 34 1004 37 0 1.05 29 14:47 14.01.2020
4423 Clouds 36 1006 32 0 1.52 63 14:23 14.01.2020
4424 Clouds 36 1006 32 0 1.52 63 13:59 14.01.2020
4425 Clouds 36 1006 32 0 1.52 63 13:59 14.01.2020
4426 Clouds 36 1006 32 0 1.52 63 13:40 14.01.2020
4427 Clouds 36 1006 32 0 1.49 67 13:19 14.01.2020
4428 Clouds 36 1006 32 0 1.49 67 12:42 14.01.2020
4429 Clouds 36 1006 32 0 1.49 67 12:23 14.01.2020
4430 Clouds 36 1006 32 0 1.49 67 11:57 14.01.2020
4431 Clouds 36 1006 32 0 1.49 67 11:38 14.01.2020
4432 Clouds 32 1011 44 0 1.65 91 11:20 14.01.2020
4433 Clouds 32 1011 44 0 1.65 91 10:56 14.01.2020
4434 Clouds 32 1011 44 0 1.65 91 10:37 14.01.2020
4435 Clouds 32 1011 44 0 1.65 91 10:19 14.01.2020
4436 Clouds 32 1011 44 0 1.65 91 09:42 14.01.2020
4437 Clouds 32 1011 44 0 1.65 91 09:23 14.01.2020
4438 Clouds 32 1011 44 0 1.65 91 08:58 14.01.2020
4439 Clouds 32 1011 44 0 1.65 91 08:39 14.01.2020
4440 Clouds 24 1011 75 0 1.16 90 08:20 14.01.2020
4441 Clouds 24 1011 75 0 1.16 90 07:40 14.01.2020
4442 Clouds 24 1011 75 0 1.16 90 06:59 14.01.2020
4443 Clouds 24 1011 75 0 1.16 90 06:59 14.01.2020
4444 Clouds 24 1011 75 0 1.16 90 06:40 14.01.2020
4445 Clouds 24 1011 75 0 1.16 90 05:56 14.01.2020
4446 Clouds 22 1010 81 0 1.31 52 04:24 14.01.2020
4447 Clouds 22 1010 81 0 1.31 52 03:45 14.01.2020
4448 Clouds 22 1010 81 0 1.31 52 02:30 14.01.2020
4449 Clouds 23 1009 74 0 0.88 147 01:18 14.01.2020
4450 Clouds 23 1009 74 0 0.88 147 00:42 14.01.2020
4451 Clouds 23 1009 74 0 0.88 147 00:21 14.01.2020
4452 Clouds 23 1009 74 0 0.88 147 23:42 13.01.2020
4453 Clouds 24 1010 68 0 1.52 170 23:18 13.01.2020
4454 Clouds 24 1010 68 0 1.52 170 22:55 13.01.2020
4455 Clouds 24 1010 68 0 1.52 170 22:37 13.01.2020
4456 Clouds 24 1010 68 0 1.52 170 22:19 13.01.2020
4457 Clouds 24 1010 68 0 1.52 170 21:54 13.01.2020
4458 Clouds 24 1010 68 0 1.52 170 21:36 13.01.2020
4459 Clouds 24 1010 68 0 1.52 170 21:18 13.01.2020
4460 Clouds 24 1010 68 0 1.52 170 20:42 13.01.2020
4461 Clouds 26 1008 59 0 0.93 156 20:23 13.01.2020
4462 Clouds 25 1008 61 0 0.97 165 19:59 13.01.2020
4463 Clouds 25 1008 61 0 0.97 165 19:41 13.01.2020
4464 Clouds 25 1008 61 0 0.97 165 19:20 13.01.2020
4465 Clouds 25 1008 61 0 0.97 165 19:20 13.01.2020
4466 Clouds 25 1008 61 0 0.97 165 18:58 13.01.2020
4467 Clouds 25 1008 61 0 0.97 165 18:58 13.01.2020
4468 Clouds 25 1008 61 0 0.97 165 18:38 13.01.2020
4469 Clouds 25 1008 61 0 0.97 165 18:38 13.01.2020
4470 Clouds 25 1008 61 0 0.97 165 18:19 13.01.2020
4471 Clouds 25 1008 61 0 0.97 165 17:57 13.01.2020
4472 Clouds 25 1008 61 0 0.97 165 17:38 13.01.2020
4473 Clouds 31 1007 48 0 0.14 99 17:20 13.01.2020
4474 Clouds 31 1007 48 0 0.14 99 16:41 13.01.2020
4475 Clouds 31 1007 48 0 0.14 99 16:22 13.01.2020
4476 Clouds 31 1007 48 0 0.14 99 15:56 13.01.2020
4477 Clouds 31 1007 48 0 0.14 99 15:38 13.01.2020
4478 Clouds 31 1007 48 0 0.14 99 15:19 13.01.2020
4479 Clouds 31 1007 48 0 0.14 99 14:42 13.01.2020
4480 Clouds 32 1008 39 0 0.64 343 14:24 13.01.2020
4481 Clouds 32 1008 39 0 0.64 343 13:58 13.01.2020
4482 Clouds 32 1008 39 0 0.64 343 13:39 13.01.2020
4483 Clouds 32 1008 39 0 0.64 343 13:39 13.01.2020
4484 Clouds 32 1008 40 0 0.78 43 13:21 13.01.2020
4485 Clouds 32 1008 40 0 0.78 43 12:55 13.01.2020
4486 Clouds 32 1008 40 0 0.78 43 12:36 13.01.2020
4487 Clouds 32 1008 40 0 0.78 43 12:18 13.01.2020
4488 Clouds 32 1008 40 0 0.78 43 11:39 13.01.2020
4489 Clear 32 1012 45 0 1.06 83 11:20 13.01.2020
4490 Clear 32 1012 45 0 1.06 83 10:57 13.01.2020
4491 Clear 32 1012 45 0 1.06 83 10:39 13.01.2020
4492 Clear 32 1012 45 0 1.06 83 10:20 13.01.2020
4493 Clear 32 1012 45 0 1.06 83 09:56 13.01.2020
4494 Clear 32 1012 45 0 1.06 83 09:38 13.01.2020
4495 Clear 32 1012 45 0 1.06 83 09:19 13.01.2020
4496 Clear 32 1012 45 0 1.06 83 09:19 13.01.2020
4497 Clear 32 1012 45 0 1.06 83 08:39 13.01.2020
4498 Clouds 24 1014 75 0 0.99 88 08:20 13.01.2020
4499 Clouds 24 1014 75 0 0.99 88 07:47 13.01.2020
4500 Mist 22 1014 94 2500 0.99 88 07:27 13.01.2020
4501 Mist 22 1014 94 2500 0.99 88 06:43 13.01.2020
4502 Clouds 24 1014 75 0 0.99 88 06:20 13.01.2020
4503 Clouds 24 1014 75 0 0.99 88 05:23 13.01.2020
4504 Clouds 21 1012 87 0 0.94 133 03:54 13.01.2020
4505 Clouds 21 1012 87 0 0.94 133 03:22 13.01.2020
4506 Clouds 21 1012 87 0 0.94 133 02:44 13.01.2020
4507 Clouds 21 1012 87 0 0.94 133 02:24 13.01.2020
4508 Clouds 21 1012 82 0 1.03 159 01:20 13.01.2020
4509 Clouds 21 1012 82 0 1.03 159 00:41 13.01.2020
4510 Clouds 21 1012 82 0 1.03 159 00:22 13.01.2020
4511 Clouds 21 1012 82 0 1.03 159 23:42 12.01.2020
4512 Clouds 21 1012 82 0 1.03 159 23:23 12.01.2020
4513 Clouds 23 1012 71 0 1.16 163 22:58 12.01.2020
4514 Clouds 23 1012 71 0 1.16 163 22:39 12.01.2020
4515 Clouds 23 1012 71 0 1.16 163 22:21 12.01.2020
4516 Clouds 23 1012 71 0 1.16 163 21:55 12.01.2020
4517 Clouds 23 1012 71 0 1.16 163 21:55 12.01.2020
4518 Clouds 23 1012 71 0 1.16 163 21:37 12.01.2020
4519 Clouds 23 1012 71 0 1.16 163 21:19 12.01.2020
4520 Clouds 23 1012 71 0 1.16 163 20:56 12.01.2020
4521 Clouds 23 1012 71 0 1.16 163 20:37 12.01.2020
4522 Clouds 24 1011 68 0 0.54 167 20:19 12.01.2020
4523 Clouds 24 1011 74 0 0.94 163 19:55 12.01.2020
4524 Clouds 24 1011 74 0 0.94 163 19:37 12.01.2020
4525 Clouds 24 1011 74 0 0.94 163 19:18 12.01.2020
4526 Clouds 24 1011 74 0 0.94 163 19:18 12.01.2020
4527 Clouds 24 1011 74 0 0.94 163 18:56 12.01.2020
4528 Clouds 24 1011 74 0 0.94 163 18:38 12.01.2020
4529 Clouds 24 1011 74 0 0.94 163 18:19 12.01.2020
4530 Clouds 24 1011 74 0 0.94 163 17:42 12.01.2020
4531 Clouds 24 1011 74 0 0.94 163 17:42 12.01.2020
4532 Clouds 29 1008 55 0 0.52 199 17:21 12.01.2020
4533 Clouds 29 1008 55 0 0.52 199 16:58 12.01.2020
4534 Clouds 29 1008 55 0 0.52 199 16:39 12.01.2020
4535 Clouds 32 1011 49 8000 3.1 300 16:20 12.01.2020
4536 Clouds 32 1011 49 8000 3.1 300 15:55 12.01.2020
4537 Clouds 29 1008 55 0 0.52 199 15:37 12.01.2020
4538 Clouds 29 1008 55 0 0.52 199 15:19 12.01.2020
4539 Clouds 29 1008 55 0 0.52 199 14:42 12.01.2020
4540 Clouds 31 1013 58 8000 1.5 0 14:23 12.01.2020
4541 Clouds 31 1013 58 8000 1.5 0 13:56 12.01.2020
4542 Clouds 31 1013 58 8000 1.5 0 13:38 12.01.2020
4543 Clouds 30 1011 51 0 1.05 275 13:20 12.01.2020
4544 Clouds 31 1010 49 0 0.98 278 12:44 12.01.2020
4545 Clouds 30 1015 62 8000 4.1 60 12:21 12.01.2020
4546 Clouds 30 1015 62 8000 4.1 60 11:59 12.01.2020
4547 Clouds 30 1015 62 8000 4.1 60 11:40 12.01.2020
4548 Clear 32 1013 47 0 0.86 200 11:22 12.01.2020
4549 Clear 32 1013 47 0 0.86 200 10:56 12.01.2020
4550 Clear 32 1013 47 0 0.86 200 10:37 12.01.2020
4551 Clear 32 1013 47 0 0.86 200 10:18 12.01.2020
4552 Clear 32 1013 47 0 0.86 200 09:41 12.01.2020
4553 Clear 32 1013 47 0 0.86 200 09:21 12.01.2020
4554 Clear 32 1013 47 0 0.86 200 08:47 12.01.2020
4555 Mist 23 1016 94 4000 0.91 181 08:22 12.01.2020
4556 Mist 23 1016 94 4000 1.39 157 07:46 12.01.2020
4557 Mist 22 1015 94 3000 1.39 157 07:25 12.01.2020
4558 Mist 22 1015 94 3000 1.39 157 06:54 12.01.2020
4559 Mist 22 1015 94 3000 1.39 157 06:35 12.01.2020
4560 Clouds 23 1015 78 0 1.39 157 05:50 12.01.2020
4561 Clouds 20 1012 93 0 0.93 149 04:54 12.01.2020
4562 Clouds 20 1012 93 0 0.93 149 03:35 12.01.2020
4563 Clouds 20 1012 93 0 0.93 149 02:43 12.01.2020
4564 Clouds 20 1012 93 0 0.93 149 02:24 12.01.2020
4565 Clouds 21 1012 87 0 1.34 159 01:31 12.01.2020
4566 Clouds 21 1012 87 0 1.34 159 00:46 12.01.2020
4567 Clouds 21 1012 87 0 1.34 159 00:22 12.01.2020
4568 Clouds 21 1012 87 0 1.34 159 23:56 11.01.2020
4569 Clouds 21 1012 87 0 1.34 159 23:38 11.01.2020
4570 Clear 23 1013 79 0 1.95 169 23:18 11.01.2020
4571 Clear 23 1013 79 0 1.95 169 22:56 11.01.2020
4572 Clear 23 1013 79 0 1.95 169 22:37 11.01.2020
4573 Clear 23 1014 94 6000 1.95 169 22:19 11.01.2020
4574 Clear 23 1014 94 6000 1.95 169 21:44 11.01.2020
4575 Clear 23 1013 79 0 1.95 169 21:19 11.01.2020
4576 Clear 23 1013 79 0 1.95 169 20:56 11.01.2020
4577 Clear 23 1013 79 0 1.95 169 20:37 11.01.2020
4578 Clouds 24 1012 75 0 1.46 202 20:19 11.01.2020
4579 Clouds 24 1012 80 0 2.08 183 19:55 11.01.2020
4580 Clouds 24 1012 80 0 2.08 183 19:37 11.01.2020
4581 Clouds 24 1012 80 0 2.08 183 19:19 11.01.2020
4582 Clouds 24 1012 80 0 2.08 183 19:19 11.01.2020
4583 Clouds 24 1012 80 0 2.08 183 18:55 11.01.2020
4584 Clouds 24 1012 80 0 2.08 183 18:36 11.01.2020
4585 Clouds 24 1012 80 0 2.08 183 18:18 11.01.2020
4586 Clouds 24 1012 80 0 2.08 183 18:18 11.01.2020
4587 Clouds 24 1012 80 0 2.08 183 17:55 11.01.2020
4588 Clouds 24 1012 80 0 2.08 183 17:36 11.01.2020
4589 Clouds 29 1009 55 0 1.85 242 17:18 11.01.2020
4590 Clouds 29 1009 55 0 1.85 242 17:18 11.01.2020
4591 Clouds 29 1009 55 0 1.85 242 16:43 11.01.2020
4592 Clouds 29 1009 55 0 1.85 242 16:23 11.01.2020
4593 Clouds 29 1009 55 0 1.85 242 15:43 11.01.2020
4594 Clouds 29 1009 55 0 1.85 242 15:24 11.01.2020
4595 Clouds 29 1009 55 0 1.85 242 14:59 11.01.2020
4596 Clouds 29 1009 55 0 1.85 242 14:41 11.01.2020
4597 Clouds 30 1013 62 8000 3.1 180 14:22 11.01.2020
4598 Clouds 30 1013 62 8000 3.1 180 13:55 11.01.2020
4599 Clouds 30 1013 62 8000 3.1 180 13:37 11.01.2020
4600 Clouds 29 1014 70 8000 3.1 250 13:18 11.01.2020
4601 Clouds 29 1014 70 8000 3.1 250 12:44 11.01.2020
4602 Clouds 29 1016 70 8000 3.1 230 12:26 11.01.2020
4603 Clouds 29 1016 70 8000 3.1 230 11:55 11.01.2020
4604 Clouds 29 1016 70 8000 3.1 230 11:37 11.01.2020
4605 Clouds 27 1016 74 8000 3.1 200 11:18 11.01.2020
4606 Clouds 27 1016 74 8000 3.1 200 11:18 11.01.2020
4607 Clouds 27 1016 74 8000 3.1 200 11:18 11.01.2020
4608 Clouds 27 1016 74 8000 3.1 200 10:43 11.01.2020
4609 Clear 32 1014 48 0 0.47 280 10:24 11.01.2020
4610 Clear 32 1014 48 0 0.47 280 09:40 11.01.2020
4611 Clear 32 1014 48 0 0.47 280 09:21 11.01.2020
4612 Clear 32 1014 48 0 0.47 280 08:43 11.01.2020
4613 Clouds 32 1014 50 0 0.77 266 08:23 11.01.2020
4614 Clouds 23 1015 80 0 1.08 135 07:45 11.01.2020
4615 Clouds 23 1015 80 0 1.08 135 07:26 11.01.2020
4616 Clouds 23 1015 80 0 1.08 135 07:26 11.01.2020
4617 Clouds 23 1015 80 0 1.08 135 06:56 11.01.2020
4618 Clouds 26 1020 69 8000 3.1 50 06:28 11.01.2020
4619 Clouds 20 1012 94 0 0.73 312 04:49 11.01.2020
4620 Clouds 20 1012 94 0 0.73 312 04:30 11.01.2020
4621 Clouds 20 1012 94 0 0.73 312 03:58 11.01.2020
4622 Clouds 20 1012 94 0 0.73 312 02:43 11.01.2020
4623 Clouds 21 1011 86 0 1.23 202 01:44 11.01.2020
4624 Clouds 21 1011 87 0 1.34 210 01:21 11.01.2020
4625 Clouds 21 1011 87 0 1.34 210 01:21 11.01.2020
4626 Clouds 21 1011 87 0 1.34 210 00:47 11.01.2020
4627 Clouds 21 1011 87 0 1.34 210 00:20 11.01.2020
4628 Clouds 21 1011 87 0 1.34 210 23:41 10.01.2020
4629 Clouds 21 1011 87 0 1.34 210 23:23 10.01.2020
4630 Clouds 22 1012 76 0 1.57 207 22:59 10.01.2020
4631 Clouds 22 1012 76 0 1.57 207 22:41 10.01.2020
4632 Clouds 22 1012 76 0 1.57 207 22:21 10.01.2020
4633 Clouds 22 1012 76 0 1.57 207 21:58 10.01.2020
4634 Clouds 22 1012 76 0 1.57 207 21:39 10.01.2020
4635 Clouds 22 1012 76 0 1.57 207 21:20 10.01.2020
4636 Clouds 22 1012 76 0 1.57 207 20:55 10.01.2020
4637 Clouds 22 1012 76 0 1.57 207 20:37 10.01.2020
4638 Clouds 24 1010 67 0 1.37 208 20:19 10.01.2020
4639 Clouds 24 1010 67 0 1.37 208 19:39 10.01.2020
4640 Clouds 24 1010 67 0 1.37 208 19:20 10.01.2020
4641 Clouds 24 1010 67 0 1.37 208 18:54 10.01.2020
4642 Clouds 24 1010 67 0 1.37 208 18:36 10.01.2020
4643 Clouds 27 1011 78 7000 1.5 0 18:18 10.01.2020
4644 Clouds 27 1011 78 7000 1.5 0 17:55 10.01.2020
4645 Clouds 27 1011 78 7000 1.5 0 17:37 10.01.2020
4646 Clouds 29 1011 74 8000 3.1 270 17:18 10.01.2020
4647 Clouds 30 1007 48 0 1.02 349 16:41 10.01.2020
4648 Clouds 30 1007 48 0 1.02 349 16:21 10.01.2020
4649 Clouds 30 1007 48 0 1.02 349 16:21 10.01.2020
4650 Clouds 30 1007 48 0 1.02 349 15:56 10.01.2020
4651 Clouds 30 1007 48 0 1.02 349 15:37 10.01.2020
4652 Clouds 30 1012 66 9000 3.1 290 15:19 10.01.2020
4653 Clouds 30 1012 66 9000 3.1 290 14:57 10.01.2020
4654 Clouds 30 1012 66 9000 3.1 290 14:38 10.01.2020
4655 Rain 33 1010 39 0 1.28 325 14:19 10.01.2020
4656 Rain 33 1010 39 0 1.28 325 13:45 10.01.2020
4657 Clouds 28 1014 74 10000 1.5 0 13:27 10.01.2020
4658 Clouds 28 1014 74 10000 1.5 0 12:59 10.01.2020
4659 Clouds 28 1014 74 10000 1.5 0 12:40 10.01.2020
4660 Clouds 28 1014 69 10000 2.1 160 12:21 10.01.2020
4661 Clouds 28 1014 69 10000 2.1 160 11:58 10.01.2020
4662 Clouds 28 1014 69 10000 2.1 160 11:40 10.01.2020
4663 Clouds 26 1015 83 10000 2.1 180 11:19 10.01.2020
4664 Clouds 26 1015 83 10000 2.1 180 10:58 10.01.2020
4665 Clouds 26 1015 83 10000 2.1 180 10:38 10.01.2020
4666 Clouds 25 1016 88 8000 2.1 180 10:18 10.01.2020
4667 Clouds 25 1016 88 8000 2.1 180 09:45 10.01.2020
4668 Rain 28 1013 76 0 0.67 263 09:26 10.01.2020
4669 Rain 28 1013 76 0 0.67 263 08:56 10.01.2020
4670 Rain 28 1013 76 0 0.67 263 08:37 10.01.2020
4671 Rain 28 1013 76 0 0.67 263 08:37 10.01.2020
4672 Mist 23 1015 94 4000 0.68 125 08:18 10.01.2020
4673 Mist 23 1015 94 4000 0.68 125 07:41 10.01.2020
4674 Clouds 24 1013 88 0 0.68 125 07:21 10.01.2020
4675 Clouds 24 1013 88 0 0.68 125 06:41 10.01.2020
4676 Clouds 24 1013 88 0 0.68 125 06:23 10.01.2020
4677 Clouds 24 1013 88 0 0.68 125 05:25 10.01.2020
4678 Rain 22 1011 94 0 1.05 80 03:32 10.01.2020
4679 Rain 22 1011 94 0 1.05 80 02:53 10.01.2020
4680 Rain 22 1011 94 0 1.05 80 02:33 10.01.2020
4681 Clouds 23 1010 84 0 1.14 178 01:33 10.01.2020
4682 Clouds 23 1010 84 0 1.14 178 00:53 10.01.2020
4683 Clouds 23 1010 84 0 1.14 178 00:35 10.01.2020
4684 Clouds 23 1010 84 0 1.14 178 23:57 09.01.2020
4685 Clouds 23 1010 84 0 1.14 178 23:37 09.01.2020
4686 Clouds 23 1010 85 0 1.22 194 23:19 09.01.2020
4687 Clouds 23 1010 85 0 1.22 194 22:56 09.01.2020
4688 Clouds 23 1010 85 0 1.22 194 22:37 09.01.2020
4689 Clouds 23 1010 85 0 1.22 194 22:18 09.01.2020
4690 Clouds 23 1010 85 0 1.22 194 21:55 09.01.2020
4691 Clouds 23 1010 85 0 1.22 194 21:37 09.01.2020
4692 Clouds 23 1010 85 0 1.22 194 21:18 09.01.2020
4693 Clouds 23 1010 85 0 1.22 194 20:55 09.01.2020
4694 Clouds 23 1010 85 0 1.22 194 20:37 09.01.2020
4695 Clouds 24 1008 78 0 1.62 188 20:18 09.01.2020
4696 Clouds 24 1008 78 0 1.62 188 19:39 09.01.2020
4697 Clouds 24 1008 78 0 1.62 188 19:21 09.01.2020
4698 Clouds 24 1008 78 0 1.62 188 18:57 09.01.2020
4699 Clouds 24 1008 78 0 1.62 188 18:39 09.01.2020
4700 Clouds 24 1008 78 0 1.62 188 18:21 09.01.2020
4701 Clouds 24 1008 78 0 1.62 188 17:41 09.01.2020
4702 Clouds 30 1006 55 0 1.41 202 17:20 09.01.2020
4703 Clouds 30 1006 55 0 1.41 202 16:59 09.01.2020
4704 Clouds 30 1006 55 0 1.41 202 16:59 09.01.2020
4705 Clouds 30 1006 55 0 1.41 202 16:41 09.01.2020
4706 Thunderstorm 25 1010 94 6000 2.1 90 16:21 09.01.2020
4707 Thunderstorm 25 1010 94 6000 2.1 90 15:43 09.01.2020
4708 Thunderstorm 25 1010 94 6000 2.1 90 15:23 09.01.2020
4709 Clouds 30 1006 55 0 1.41 202 14:58 09.01.2020
4710 Clouds 30 1006 55 0 1.41 202 14:40 09.01.2020
4711 Thunderstorm 26 1012 88 0 3.1 60 14:19 09.01.2020
4712 Thunderstorm 26 1012 88 0 3.1 60 13:55 09.01.2020
4713 Thunderstorm 26 1012 88 0 3.1 60 13:37 09.01.2020
4714 Thunderstorm 26 1012 88 0 3.1 60 13:19 09.01.2020
4715 Clouds 26 1013 88 7000 3.1 120 12:56 09.01.2020
4716 Rain 33 1009 48 0 0.92 198 12:38 09.01.2020
4717 Rain 33 1009 48 0 0.92 198 12:18 09.01.2020
4718 Rain 33 1009 48 0 0.92 198 11:42 09.01.2020
4719 Rain 33 1009 48 0 0.92 198 11:24 09.01.2020
4720 Rain 33 1009 48 0 0.92 198 11:24 09.01.2020
4721 Clouds 25 1013 78 0 1.18 110 10:58 09.01.2020
4722 Clouds 25 1013 78 0 1.18 110 10:39 09.01.2020
4723 Clouds 25 1014 88 6000 2.1 30 10:21 09.01.2020
4724 Clouds 25 1014 88 6000 2.1 30 09:46 09.01.2020
4725 Clouds 25 1014 88 6000 2.1 30 09:25 09.01.2020
4726 Clouds 25 1013 78 0 1.18 110 08:58 09.01.2020
4727 Clouds 25 1013 78 0 1.18 110 08:39 09.01.2020
4728 Mist 23 1014 94 4000 2.1 90 08:20 09.01.2020
4729 Mist 23 1014 94 4000 2.1 90 07:48 09.01.2020
4730 Mist 23 1014 94 4000 2.1 90 07:30 09.01.2020
4731 Rain 22 1013 96 0 1.7 152 06:40 09.01.2020
4732 Rain 22 1013 96 0 1.7 152 06:22 09.01.2020
4733 Rain 22 1013 96 0 1.7 152 05:51 09.01.2020
4734 Clouds 23 1010 84 0 0.85 131 05:20 09.01.2020
4735 Clouds 23 1010 84 0 0.85 131 04:39 09.01.2020
4736 Clouds 23 1010 84 0 0.85 131 03:27 09.01.2020
4737 Clouds 23 1010 84 0 0.85 131 02:46 09.01.2020
4738 Clouds 24 1009 71 0 1.13 161 01:42 09.01.2020
4739 Clouds 24 1009 71 0 1.13 161 01:42 09.01.2020
4740 Clouds 24 1010 70 0 1.23 166 00:59 09.01.2020
4741 Clouds 24 1010 70 0 1.23 166 00:37 09.01.2020
4742 Clouds 24 1010 70 0 1.23 166 00:19 09.01.2020
4743 Clouds 24 1010 70 0 1.23 166 23:39 08.01.2020
4744 Clouds 25 1010 61 0 0.85 159 23:20 08.01.2020
4745 Clouds 25 1010 61 0 0.85 159 22:41 08.01.2020
4746 Clouds 25 1010 61 0 0.85 159 22:23 08.01.2020
4747 Clouds 25 1010 61 0 0.85 159 21:59 08.01.2020
4748 Clouds 25 1010 61 0 0.85 159 21:40 08.01.2020
4749 Clouds 25 1010 61 0 0.85 159 21:21 08.01.2020
4750 Clouds 25 1010 61 0 0.85 159 20:59 08.01.2020
4751 Clouds 25 1010 61 0 0.85 159 20:41 08.01.2020
4752 Clouds 27 1008 52 0 0.66 149 20:21 08.01.2020
4753 Clouds 27 1008 52 0 0.66 149 19:58 08.01.2020
4754 Clouds 27 1008 52 0 0.66 149 19:38 08.01.2020
4755 Clouds 27 1008 52 0 0.66 149 19:19 08.01.2020
4756 Clouds 27 1008 52 0 0.66 149 18:58 08.01.2020
4757 Clouds 27 1008 52 0 0.66 149 18:39 08.01.2020
4758 Clouds 27 1008 52 0 0.66 149 18:39 08.01.2020
4759 Clouds 27 1008 52 0 0.66 149 18:19 08.01.2020
4760 Clouds 27 1008 52 0 0.66 149 17:57 08.01.2020
4761 Clouds 27 1008 52 0 0.66 149 17:38 08.01.2020
4762 Clouds 30 1005 49 0 0.97 9 17:19 08.01.2020
4763 Clouds 30 1005 49 0 0.97 9 17:19 08.01.2020
4764 Clouds 30 1005 49 0 0.97 9 16:55 08.01.2020
4765 Clouds 30 1005 49 0 0.97 9 16:37 08.01.2020
4766 Clouds 30 1005 49 0 0.97 9 16:18 08.01.2020
4767 Clouds 30 1005 49 0 0.97 9 15:44 08.01.2020
4768 Clouds 30 1005 49 0 0.97 9 15:44 08.01.2020
4769 Clouds 30 1005 49 0 0.97 9 15:21 08.01.2020
4770 Clouds 30 1005 49 0 0.97 9 14:58 08.01.2020
4771 Clouds 30 1005 49 0 0.97 9 14:58 08.01.2020
4772 Clouds 30 1005 49 0 0.97 9 14:40 08.01.2020
4773 Clouds 36 1007 30 0 1.08 25 14:20 08.01.2020
4774 Clouds 36 1007 30 0 1.08 25 13:41 08.01.2020
4775 Clouds 36 1007 30 0 1.08 25 13:21 08.01.2020
4776 Clouds 36 1007 29 0 1.13 27 13:21 08.01.2020
4777 Clouds 36 1007 29 0 1.13 27 12:54 08.01.2020
4778 Clouds 36 1007 29 0 1.13 27 12:36 08.01.2020
4779 Clouds 36 1007 29 0 1.13 27 12:18 08.01.2020
4780 Clouds 36 1007 29 0 1.13 27 11:47 08.01.2020
4781 Clouds 27 1014 83 7000 4.1 140 11:19 08.01.2020
4782 Clouds 27 1014 83 7000 4.1 140 10:58 08.01.2020
4783 Clouds 33 1011 41 0 0.83 96 10:40 08.01.2020
4784 Clouds 26 1014 83 6000 3.1 140 10:19 08.01.2020
4785 Clouds 26 1014 83 6000 3.1 140 09:42 08.01.2020
4786 Clouds 26 1014 83 6000 3.1 140 09:20 08.01.2020
4787 Clouds 33 1011 41 0 0.83 96 08:58 08.01.2020
4788 Clouds 33 1011 41 0 0.83 96 08:39 08.01.2020
4789 Mist 23 1013 100 3000 3.1 180 08:20 08.01.2020
4790 Mist 23 1013 100 3000 3.1 180 07:51 08.01.2020
4791 Mist 23 1013 100 3000 3.1 180 07:33 08.01.2020
4792 Clouds 23 1011 68 0 0.4 130 06:58 08.01.2020
4793 Clouds 23 1011 68 0 0.4 130 06:40 08.01.2020
4794 Clouds 23 1011 68 0 0.4 130 05:54 08.01.2020
4795 Clouds 23 1011 68 0 0.4 130 05:25 08.01.2020
4796 Clouds 21 1009 76 0 0.23 41 04:35 08.01.2020
4797 Clouds 21 1009 76 0 0.23 41 02:46 08.01.2020
4798 Clouds 21 1009 76 0 0.23 41 02:28 08.01.2020
4799 Clouds 22 1009 69 0 0.41 162 01:52 08.01.2020
4800 Clouds 22 1008 68 0 0.53 163 01:26 08.01.2020
4801 Clouds 22 1008 68 0 0.53 163 00:42 08.01.2020
4802 Clouds 22 1008 68 0 0.53 163 00:21 08.01.2020
4803 Clouds 22 1008 68 0 0.53 163 23:44 07.01.2020
4804 Clouds 23 1010 68 0 0.92 145 23:20 07.01.2020
4805 Clouds 23 1010 68 0 0.92 145 22:41 07.01.2020
4806 Haze 24 1011 88 5000 0.92 145 22:21 07.01.2020
4807 Haze 24 1011 88 5000 0.92 145 21:57 07.01.2020
4808 Haze 24 1011 88 5000 0.92 145 21:39 07.01.2020
4809 Haze 24 1011 88 5000 0.92 145 21:21 07.01.2020
4810 Haze 24 1011 88 5000 0.92 145 21:21 07.01.2020
4811 Haze 25 1011 88 5000 2.1 30 20:57 07.01.2020
4812 Haze 25 1011 88 5000 2.1 30 20:38 07.01.2020
4813 Haze 25 1011 88 5000 2.1 30 20:20 07.01.2020
4814 Clouds 25 1007 63 0 1.17 148 19:55 07.01.2020
4815 Clouds 25 1007 63 0 1.17 148 19:36 07.01.2020
4816 Clouds 25 1007 63 0 1.17 148 19:18 07.01.2020
4817 Clouds 25 1007 63 0 1.17 148 19:18 07.01.2020
4818 Clouds 25 1007 63 0 1.17 148 18:55 07.01.2020
4819 Clouds 25 1007 63 0 1.17 148 18:36 07.01.2020
4820 Haze 31 1009 62 5000 2.1 50 18:18 07.01.2020
4821 Clouds 25 1007 63 0 1.17 148 17:40 07.01.2020
4822 Clouds 33 1005 42 0 0.84 16 17:22 07.01.2020
4823 Clouds 33 1005 42 0 0.84 16 16:57 07.01.2020
4824 Clouds 33 1005 42 0 0.84 16 16:38 07.01.2020
4825 Clouds 33 1005 42 0 0.84 16 16:38 07.01.2020
4826 Clouds 33 1005 42 0 0.84 16 16:38 07.01.2020
4827 Clouds 33 1005 42 0 0.84 16 16:19 07.01.2020
4828 Clouds 33 1005 42 0 0.84 16 15:59 07.01.2020
4829 Clouds 33 1005 42 0 0.84 16 15:40 07.01.2020
4830 Haze 32 1009 49 5000 2.1 20 15:22 07.01.2020
4831 Clouds 33 1005 42 0 0.84 16 14:55 07.01.2020
4832 Clouds 33 1005 42 0 0.84 16 14:37 07.01.2020
4833 Clouds 31 1010 52 6000 2.1 330 14:18 07.01.2020
4834 Clouds 31 1010 52 6000 2.1 330 13:40 07.01.2020
4835 Clouds 31 1010 52 6000 2.1 330 13:19 07.01.2020
4836 Clouds 31 1011 52 7000 2.1 120 12:42 07.01.2020
4837 Clouds 31 1011 52 7000 2.1 120 12:42 07.01.2020
4838 Clouds 30 1012 55 7000 2.1 90 12:21 07.01.2020
4839 Clouds 34 1007 33 0 2.11 25 11:58 07.01.2020
4840 Clouds 34 1007 33 0 2.11 25 11:38 07.01.2020
4841 Clouds 34 1007 33 0 2.11 25 11:38 07.01.2020
4842 Clouds 31 1011 49 0 2.05 37 11:20 07.01.2020
4843 Clouds 31 1011 49 0 2.05 37 10:42 07.01.2020
4844 Clouds 31 1011 49 0 2.05 37 10:24 07.01.2020
4845 Clouds 31 1011 49 0 2.05 37 09:59 07.01.2020
4846 Clouds 31 1011 49 0 2.05 37 09:38 07.01.2020
4847 Clouds 31 1011 49 0 2.05 37 09:20 07.01.2020
4848 Clouds 31 1011 49 0 2.05 37 08:46 07.01.2020
4849 Mist 22 1013 94 3000 2.1 90 08:26 07.01.2020
4850 Mist 22 1013 94 3000 2.1 90 07:54 07.01.2020
4851 Mist 22 1013 94 3000 2.1 90 07:29 07.01.2020
4852 Clouds 24 1012 75 0 0.91 85 06:54 07.01.2020
4853 Clouds 24 1012 75 0 0.91 85 06:54 07.01.2020
4854 Clouds 24 1012 75 0 0.91 85 06:35 07.01.2020
4855 Mist 20 1012 100 3000 0.91 85 05:57 07.01.2020
4856 Clouds 24 1012 75 0 0.91 85 05:35 07.01.2020
4857 Clouds 21 1010 86 0 0.9 46 03:29 07.01.2020
4858 Clouds 22 1009 80 0 0.85 156 02:24 07.01.2020
4859 Clouds 22 1009 80 0 0.85 156 01:57 07.01.2020
4860 Clouds 22 1009 80 0 0.85 156 01:32 07.01.2020
4861 Clouds 22 1009 83 0 0.83 161 00:37 07.01.2020
4862 Clouds 22 1009 83 0 0.83 161 00:19 07.01.2020
4863 Clouds 22 1009 83 0 0.83 161 23:55 06.01.2020
4864 Clouds 22 1009 83 0 0.83 161 23:36 06.01.2020
4865 Clouds 22 1009 83 0 0.83 161 23:36 06.01.2020
4866 Clouds 23 1009 80 0 1.05 155 23:18 06.01.2020
4867 Clouds 23 1009 80 0 1.05 155 22:42 06.01.2020
4868 Clouds 23 1009 80 0 1.05 155 22:22 06.01.2020
4869 Clouds 23 1009 80 0 1.05 155 21:57 06.01.2020
4870 Clouds 23 1009 80 0 1.05 155 21:38 06.01.2020
4871 Clouds 23 1009 80 0 1.05 155 21:20 06.01.2020
4872 Clouds 23 1009 80 0 1.05 155 21:20 06.01.2020
4873 Clouds 23 1009 80 0 1.05 155 21:20 06.01.2020
4874 Clouds 23 1009 80 0 1.05 155 20:56 06.01.2020
4875 Clouds 23 1009 80 0 1.05 155 20:38 06.01.2020
4876 Clouds 24 1008 76 0 1.08 114 20:20 06.01.2020
4877 Clouds 24 1008 76 0 1.08 114 19:56 06.01.2020
4878 Clouds 24 1008 76 0 1.08 114 19:56 06.01.2020
4879 Clouds 24 1008 76 0 1.08 114 19:37 06.01.2020
4880 Clouds 24 1008 76 0 1.08 114 19:19 06.01.2020
4881 Clouds 24 1008 76 0 1.08 114 19:19 06.01.2020
4882 Clouds 24 1008 76 0 1.08 114 18:46 06.01.2020
4883 Clouds 28 1009 78 6000 1.08 114 18:21 06.01.2020
4884 Clouds 28 1009 78 6000 1.08 114 17:57 06.01.2020
4885 Clouds 24 1008 76 0 1.08 114 17:37 06.01.2020
4886 Clouds 24 1008 76 0 1.08 114 17:37 06.01.2020
4887 Clouds 30 1009 66 6000 1.5 0 17:18 06.01.2020
4888 Clouds 30 1009 66 6000 1.5 0 16:44 06.01.2020
4889 Clouds 30 1009 66 6000 1.5 0 16:24 06.01.2020
4890 Clouds 31 1006 53 0 1.22 49 15:59 06.01.2020
4891 Clouds 31 1006 53 0 1.22 49 15:38 06.01.2020
4892 Clouds 32 1009 55 6000 2.1 40 15:18 06.01.2020
4893 Clouds 32 1009 55 6000 2.1 40 15:18 06.01.2020
4894 Clouds 32 1009 55 6000 2.1 40 14:56 06.01.2020
4895 Clouds 32 1009 55 6000 2.1 40 14:37 06.01.2020
4896 Clouds 32 1009 55 6000 2.1 40 14:18 06.01.2020
4897 Clouds 32 1010 52 6000 2.1 100 13:41 06.01.2020
4898 Clouds 32 1010 52 6000 2.1 100 13:22 06.01.2020
4899 Clouds 31 1012 62 7000 2.1 10 12:59 06.01.2020
4900 Clouds 31 1012 62 7000 2.1 10 12:41 06.01.2020
4901 Clouds 31 1012 62 7000 2.1 10 12:20 06.01.2020
4902 Clouds 30 1013 66 8000 1.5 0 11:55 06.01.2020
4903 Clouds 30 1013 66 8000 1.5 0 11:37 06.01.2020
4904 Clouds 30 1013 66 8000 1.5 0 11:18 06.01.2020
4905 Clouds 28 1013 74 7000 0.96 100 10:42 06.01.2020
4906 Clouds 28 1013 74 7000 0.96 100 10:21 06.01.2020
4907 Clouds 27 1014 78 7000 2.1 100 09:42 06.01.2020
4908 Clouds 27 1014 78 7000 2.1 100 09:24 06.01.2020
4909 Clouds 25 1015 88 6000 1.5 0 08:58 06.01.2020
4910 Clouds 30 1012 53 0 0.96 100 08:38 06.01.2020
4911 Mist 23 1015 94 4000 1.5 0 08:19 06.01.2020
4912 Mist 23 1015 94 4000 1.5 0 07:44 06.01.2020
4913 Clouds 22 1012 90 0 0.55 139 06:55 06.01.2020
4914 Clouds 22 1012 90 0 0.55 139 06:35 06.01.2020
4915 Clouds 22 1012 90 0 0.55 139 05:48 06.01.2020
4916 Clouds 22 1012 90 0 0.55 139 05:24 06.01.2020
4917 Clouds 20 1011 95 0 0.37 138 04:24 06.01.2020
4918 Clouds 20 1011 95 0 0.37 138 03:51 06.01.2020
4919 Clouds 20 1011 95 0 0.37 138 02:28 06.01.2020
4920 Clouds 20 1011 97 0 0.66 174 01:53 06.01.2020
4921 Clouds 20 1011 97 0 0.66 174 01:30 06.01.2020
4922 Clouds 20 1011 97 0 0.76 164 00:46 06.01.2020
4923 Clouds 20 1011 97 0 0.76 164 00:28 06.01.2020
4924 Clouds 20 1011 97 0 0.76 164 23:57 05.01.2020
4925 Clouds 20 1011 97 0 0.76 164 23:57 05.01.2020
4926 Clouds 20 1011 97 0 0.76 164 23:38 05.01.2020
4927 Clouds 21 1012 97 0 1.02 173 23:20 05.01.2020
4928 Clouds 21 1012 97 0 1.02 173 22:40 05.01.2020
4929 Clouds 21 1012 97 0 1.02 173 22:21 05.01.2020
4930 Clouds 21 1012 97 0 1.02 173 21:58 05.01.2020
4931 Clouds 21 1012 97 0 1.02 173 21:40 05.01.2020
4932 Clouds 21 1012 97 0 1.02 173 21:20 05.01.2020
4933 Clouds 21 1012 97 0 1.02 173 20:58 05.01.2020
4934 Clouds 21 1012 97 0 1.02 173 20:39 05.01.2020
4935 Clouds 22 1011 90 0 0.97 206 20:19 05.01.2020
4936 Clouds 22 1011 90 0 0.97 206 19:58 05.01.2020
4937 Clouds 22 1011 90 0 0.97 206 19:39 05.01.2020
4938 Clouds 22 1011 90 0 0.97 206 19:20 05.01.2020
4939 Clouds 22 1011 90 0 0.97 206 18:56 05.01.2020
4940 Clouds 22 1011 90 0 0.97 206 18:37 05.01.2020
4941 Thunderstorm 28 1011 69 7000 3.1 210 18:19 05.01.2020
4942 Thunderstorm 28 1011 69 7000 3.1 210 17:58 05.01.2020
4943 Clouds 22 1011 90 0 0.97 206 17:39 05.01.2020
4944 Rain 26 1009 84 0 1.01 213 17:20 05.01.2020
4945 Rain 26 1009 84 0 1.01 213 17:20 05.01.2020
4946 Rain 26 1009 84 0 1.01 213 16:56 05.01.2020
4947 Rain 26 1009 84 0 1.01 213 16:38 05.01.2020
4948 Clouds 29 1010 70 7000 3.1 310 16:19 05.01.2020
4949 Rain 26 1009 84 0 1.01 213 15:39 05.01.2020
4950 Rain 26 1009 84 0 1.01 213 15:39 05.01.2020
4951 Rain 26 1009 84 0 1.01 213 15:20 05.01.2020
4952 Rain 26 1009 84 0 1.01 213 14:56 05.01.2020
4953 Rain 26 1009 84 0 1.01 213 14:38 05.01.2020
4954 Rain 27 1010 75 0 1.56 229 14:19 05.01.2020
4955 Rain 27 1010 75 0 1.56 229 13:56 05.01.2020
4956 Rain 27 1010 75 0 1.56 229 13:37 05.01.2020
4957 Clouds 29 1013 70 7000 3.1 250 13:18 05.01.2020
4958 Clouds 29 1013 70 7000 3.1 250 12:55 05.01.2020
4959 Clouds 29 1013 70 7000 3.1 250 12:55 05.01.2020
4960 Clouds 28 1010 60 0 1.92 238 12:37 05.01.2020
4961 Clouds 28 1010 60 0 1.92 238 12:18 05.01.2020
4962 Clouds 28 1010 60 0 1.92 238 12:18 05.01.2020
4963 Clouds 28 1010 60 0 1.92 238 11:43 05.01.2020
4964 Rain 22 1014 94 0 0.61 189 11:20 05.01.2020
4965 Rain 22 1014 94 0 0.61 189 10:58 05.01.2020
4966 Rain 22 1014 94 0 0.61 189 10:39 05.01.2020
4967 Rain 22 1014 94 0 0.61 189 10:39 05.01.2020
4968 Rain 22 1014 94 0 0.61 189 10:19 05.01.2020
4969 Rain 22 1014 94 0 0.61 189 09:42 05.01.2020
4970 Rain 22 1014 94 0 0.61 189 09:22 05.01.2020
4971 Rain 22 1014 94 0 0.61 189 08:50 05.01.2020
4972 Mist 22 1015 94 2000 2.1 360 08:31 05.01.2020
4973 Mist 22 1015 94 2000 2.1 360 07:57 05.01.2020
4974 Mist 22 1015 94 2000 2.1 360 07:38 05.01.2020
4975 Mist 22 1015 94 2000 2.1 360 07:20 05.01.2020
4976 Mist 21 1015 100 2000 2.1 340 06:20 05.01.2020
4977 Rain 21 1013 95 0 1.43 183 05:33 05.01.2020
4978 Rain 21 1013 95 0 1.43 183 05:33 05.01.2020
4979 Rain 21 1011 93 0 0.58 212 04:44 05.01.2020
4980 Rain 21 1011 93 0 0.58 212 04:18 05.01.2020
4981 Rain 21 1011 93 0 0.58 212 02:46 05.01.2020
4982 Rain 21 1011 93 0 0.58 212 02:24 05.01.2020
4983 Clouds 21 1011 95 0 1 201 01:48 05.01.2020
4984 Clouds 21 1011 95 0 1 201 01:19 05.01.2020
4985 Clouds 21 1010 94 0 0.99 206 00:54 05.01.2020
4986 Clouds 21 1010 94 0 0.99 206 00:36 05.01.2020
4987 Clouds 21 1010 94 0 0.99 206 00:18 05.01.2020
4988 Clouds 21 1010 94 0 0.99 206 23:40 04.01.2020
4989 Clouds 21 1011 95 0 1.18 208 23:19 04.01.2020
4990 Clouds 21 1011 95 0 1.18 208 22:40 04.01.2020
4991 Clouds 21 1011 95 0 1.18 208 22:22 04.01.2020
4992 Clouds 21 1011 95 0 1.18 208 21:58 04.01.2020
4993 Clouds 21 1011 95 0 1.18 208 21:40 04.01.2020
4994 Clouds 21 1011 95 0 1.18 208 21:20 04.01.2020
4995 Clouds 21 1011 95 0 1.18 208 20:59 04.01.2020
4996 Clouds 21 1011 95 0 1.18 208 20:40 04.01.2020
4997 Rain 22 1010 93 0 0.56 228 20:22 04.01.2020
4998 Rain 22 1010 93 0 0.56 228 19:57 04.01.2020
4999 Rain 22 1010 93 0 0.56 228 19:38 04.01.2020
5000 Rain 22 1010 93 0 0.56 228 19:20 04.01.2020
5001 Rain 22 1010 93 0 0.56 228 18:56 04.01.2020
5002 Rain 22 1010 93 0 0.56 228 18:37 04.01.2020
5003 Clouds 24 1012 88 6000 1.5 0 18:18 04.01.2020
5004 Rain 22 1010 93 0 0.56 228 17:41 04.01.2020
5005 Rain 22 1010 93 0 0.56 228 17:23 04.01.2020
5006 Rain 25 1008 92 0 0.73 304 16:58 04.01.2020
5007 Rain 25 1008 92 0 0.73 304 16:39 04.01.2020
5008 Clouds 26 1012 74 6000 2.1 60 16:21 04.01.2020
5009 Clouds 26 1012 74 6000 2.1 60 15:56 04.01.2020
5010 Clouds 26 1012 74 6000 2.1 60 15:37 04.01.2020
5011 Clouds 26 1012 74 6000 2.1 60 15:18 04.01.2020
5012 Clouds 26 1012 74 6000 1.5 0 14:42 04.01.2020
5013 Clouds 26 1012 74 6000 1.5 0 14:42 04.01.2020
5014 Clouds 26 1012 74 6000 1.5 0 14:20 04.01.2020
5015 Rain 27 1010 86 0 1.24 258 13:59 04.01.2020
5016 Rain 27 1010 86 0 1.24 258 13:38 04.01.2020
5017 Rain 27 1010 86 0 1.24 258 13:19 04.01.2020
5018 Rain 27 1010 85 0 1.01 266 12:57 04.01.2020
5019 Rain 27 1010 85 0 1.01 266 12:39 04.01.2020
5020 Rain 27 1010 85 0 1.01 266 12:19 04.01.2020
5021 Rain 27 1010 85 0 1.01 266 11:57 04.01.2020
5022 Rain 27 1010 85 0 1.01 266 11:57 04.01.2020
5023 Rain 27 1010 85 0 1.01 266 11:38 04.01.2020
5024 Rain 27 1010 85 0 1.01 266 11:38 04.01.2020
5025 Rain 26 1012 85 0 2.08 233 11:18 04.01.2020
5026 Rain 26 1012 85 0 2.08 233 10:41 04.01.2020
5027 Clouds 23 1016 88 7000 2.1 180 10:22 04.01.2020
5028 Clouds 23 1016 88 7000 2.1 180 09:48 04.01.2020
5029 Clouds 23 1016 88 7000 2.1 180 09:26 04.01.2020
5030 Rain 26 1012 85 0 2.08 233 08:57 04.01.2020
5031 Rain 26 1012 85 0 2.08 233 08:37 04.01.2020
5032 Mist 22 1015 94 4000 3.1 340 08:19 04.01.2020
5033 Mist 22 1015 94 4000 3.1 340 07:42 04.01.2020
5034 Rain 23 1013 93 0 1.59 181 06:49 04.01.2020
5035 Rain 23 1013 93 0 1.59 181 05:59 04.01.2020
5036 Rain 22 1010 97 0 0.37 87 05:18 04.01.2020
5037 Rain 22 1010 97 0 0.37 87 04:33 04.01.2020
5038 Rain 22 1010 97 0 0.37 87 03:39 04.01.2020
5039 Rain 22 1010 97 0 0.37 87 03:18 04.01.2020
5040 Rain 22 1010 91 0 1 186 02:21 04.01.2020
5041 Rain 22 1010 91 0 1 186 01:53 04.01.2020
5042 Rain 22 1010 91 0 1 186 01:30 04.01.2020
5043 Clouds 23 1010 81 0 1.25 188 00:41 04.01.2020
5044 Clouds 23 1010 81 0 1.25 188 00:22 04.01.2020
5045 Clouds 23 1010 81 0 1.25 188 23:41 03.01.2020
5046 Clouds 23 1010 81 0 1.25 188 23:23 03.01.2020
5047 Clouds 24 1010 76 0 1.17 206 22:41 03.01.2020
5048 Clouds 24 1010 76 0 1.17 206 22:20 03.01.2020
5049 Clouds 24 1010 76 0 1.17 206 21:58 03.01.2020
5050 Clouds 24 1010 76 0 1.17 206 21:38 03.01.2020
5051 Clouds 24 1012 88 6000 1.17 206 21:19 03.01.2020
5052 Clouds 24 1012 88 6000 1.17 206 20:58 03.01.2020
5053 Clouds 24 1012 88 6000 1.17 206 20:40 03.01.2020
5054 Clouds 24 1012 88 6000 1.38 208 20:18 03.01.2020
5055 Clouds 25 1011 83 6000 1.38 208 19:55 03.01.2020
5056 Clouds 25 1011 83 6000 1.38 208 19:55 03.01.2020
5057 Clouds 25 1008 77 0 1.38 208 19:37 03.01.2020
5058 Clouds 25 1011 83 6000 2.1 0 19:18 03.01.2020
5059 Clouds 25 1011 83 6000 2.1 0 18:43 03.01.2020
5060 Clouds 25 1011 83 6000 2.1 0 18:24 03.01.2020
5061 Clouds 27 1010 74 7000 4.1 120 17:55 03.01.2020
5062 Clouds 27 1010 74 7000 4.1 120 17:36 03.01.2020
5063 Clouds 27 1010 74 7000 4.1 120 17:18 03.01.2020
5064 Rain 27 1006 70 0 1.36 185 16:42 03.01.2020
5065 Clouds 28 1010 69 7000 4.1 210 16:22 03.01.2020
5066 Clouds 28 1010 69 7000 4.1 210 15:44 03.01.2020
5067 Clouds 28 1010 69 7000 4.1 210 15:19 03.01.2020
5068 Clouds 28 1010 69 7000 4.1 210 15:19 03.01.2020
5069 Clouds 29 1011 58 10000 4.1 210 14:59 03.01.2020
5070 Clouds 29 1011 58 10000 4.1 210 14:38 03.01.2020
5071 Clouds 29 1011 58 10000 4.1 210 14:19 03.01.2020
5072 Rain 31 1008 55 0 1.31 229 13:43 03.01.2020
5073 Rain 30 1008 61 0 2.71 260 13:24 03.01.2020
5074 Rain 30 1008 61 0 2.71 260 12:58 03.01.2020
5075 Rain 30 1008 61 0 2.71 260 12:39 03.01.2020
5076 Rain 30 1008 61 0 2.71 260 12:21 03.01.2020
5077 Rain 30 1008 61 0 2.71 260 11:44 03.01.2020
5078 Clouds 34 1012 43 0 0.48 290 11:21 03.01.2020
5079 Clouds 34 1012 43 0 0.48 290 10:44 03.01.2020
5080 Clouds 34 1012 43 0 0.48 290 10:26 03.01.2020
5081 Clouds 34 1012 43 0 0.48 290 09:58 03.01.2020
5082 Clouds 34 1012 43 0 0.48 290 09:39 03.01.2020
5083 Clouds 34 1012 43 0 0.48 290 09:21 03.01.2020
5084 Clouds 34 1012 43 0 0.48 290 08:56 03.01.2020
5085 Clouds 34 1012 43 0 0.48 290 08:38 03.01.2020
5086 Thunderstorm 23 1014 94 4000 2.1 270 08:19 03.01.2020
5087 Thunderstorm 23 1014 94 4000 2.1 270 07:40 03.01.2020
5088 Thunderstorm 23 1014 94 4000 2.1 270 07:18 03.01.2020
5089 Thunderstorm 23 1014 94 4000 2.1 270 07:18 03.01.2020
5090 Clouds 24 1012 84 0 1.09 151 06:47 03.01.2020
5091 Clouds 24 1012 84 0 1.09 151 06:47 03.01.2020
5092 Mist 22 1012 100 4000 1.09 151 06:29 03.01.2020
5093 Clouds 24 1012 84 0 1.09 151 05:39 03.01.2020
5094 Clouds 22 1010 93 0 0.53 128 04:21 03.01.2020
5095 Clouds 22 1010 93 0 0.53 128 02:56 03.01.2020
5096 Clouds 22 1010 93 0 0.53 128 02:56 03.01.2020
5097 Clouds 22 1010 93 0 0.53 128 02:28 03.01.2020
5098 Rain 22 1010 89 0 1.56 196 01:42 03.01.2020
5099 Clouds 23 1010 86 0 1.26 192 00:49 03.01.2020
5100 Clouds 23 1010 86 0 1.26 192 00:29 03.01.2020
5101 Clouds 23 1010 86 0 1.26 192 23:55 02.01.2020
5102 Clouds 23 1010 86 0 1.26 192 23:37 02.01.2020
5103 Clouds 24 1011 81 0 1.78 231 23:18 02.01.2020
5104 Clouds 24 1011 81 0 1.78 231 22:45 02.01.2020
5105 Clouds 24 1011 81 0 1.78 231 22:21 02.01.2020
5106 Clouds 24 1011 81 0 1.78 231 21:59 02.01.2020
5107 Clouds 24 1011 81 0 1.78 231 21:41 02.01.2020
5108 Clouds 24 1011 81 0 1.78 231 21:23 02.01.2020
5109 Clouds 24 1011 81 0 1.78 231 20:58 02.01.2020
5110 Clouds 24 1011 81 0 1.78 231 20:39 02.01.2020
5111 Clouds 24 1011 81 0 1.78 231 20:39 02.01.2020
5112 Clouds 25 1009 68 0 1.4 221 20:21 02.01.2020
5113 Clouds 25 1009 68 0 1.4 221 19:55 02.01.2020
5114 Clouds 25 1009 68 0 1.4 221 19:55 02.01.2020
5115 Clouds 25 1009 68 0 1.4 221 19:55 02.01.2020
5116 Clouds 25 1009 68 0 1.4 221 19:37 02.01.2020
5117 Clouds 25 1009 68 0 1.4 221 19:19 02.01.2020
5118 Clouds 25 1009 68 0 1.4 221 18:57 02.01.2020
5119 Clouds 25 1009 68 0 1.4 221 18:38 02.01.2020
5120 Clouds 25 1009 68 0 1.4 221 18:20 02.01.2020
5121 Clouds 25 1009 68 0 1.4 221 17:56 02.01.2020
5122 Clouds 25 1009 68 0 1.4 221 17:36 02.01.2020
5123 Thunderstorm 27 1008 69 7000 3.1 130 17:18 02.01.2020
5124 Thunderstorm 27 1008 69 7000 3.1 130 16:56 02.01.2020
5125 Clouds 30 1006 54 0 0.67 227 16:38 02.01.2020
5126 Clouds 30 1006 54 0 0.67 227 16:19 02.01.2020
5127 Clouds 30 1006 54 0 0.67 227 15:45 02.01.2020
5128 Clouds 30 1006 54 0 0.67 227 15:24 02.01.2020
5129 Clouds 30 1006 54 0 0.67 227 14:58 02.01.2020
5130 Clouds 30 1006 54 0 0.67 227 14:38 02.01.2020
5131 Clouds 33 1010 59 7000 3.1 260 14:20 02.01.2020
5132 Clouds 33 1010 59 7000 3.1 260 13:58 02.01.2020
5133 Clouds 33 1010 59 7000 3.1 260 13:40 02.01.2020
5134 Clouds 33 1010 59 7000 3.1 260 13:19 02.01.2020
5135 Clouds 23 1011 100 7000 3.1 190 12:42 02.01.2020
5136 Clouds 23 1011 100 7000 3.1 190 12:21 02.01.2020
5137 Clouds 31 1012 62 8000 3.1 150 11:42 02.01.2020
5138 Clouds 31 1012 62 8000 3.1 150 11:22 02.01.2020
5139 Clouds 29 1013 74 8000 3.1 180 10:46 02.01.2020
5140 Clouds 27 1010 69 0 0.45 281 10:28 02.01.2020
5141 Clouds 27 1010 69 0 0.45 281 09:58 02.01.2020
5142 Clouds 27 1010 69 0 0.45 281 09:36 02.01.2020
5143 Clouds 27 1010 69 0 0.45 281 08:59 02.01.2020
5144 Clouds 27 1010 69 0 0.45 281 08:40 02.01.2020
5145 Clouds 25 1011 73 0 1.12 111 08:21 02.01.2020
5146 Clouds 25 1011 75 0 1.09 114 07:47 02.01.2020
5147 Clouds 25 1011 75 0 1.09 114 07:27 02.01.2020
5148 Clouds 25 1011 75 0 1.09 114 06:41 02.01.2020
5149 Clouds 25 1011 75 0 1.09 114 05:42 02.01.2020
5150 Clouds 24 1008 74 0 1.02 99 04:36 02.01.2020
5151 Clouds 24 1008 74 0 1.02 99 03:44 02.01.2020
5152 Clouds 23 1008 76 0 0.97 235 02:21 02.01.2020
5153 Clouds 23 1008 76 0 0.97 235 01:53 02.01.2020
5154 Clouds 23 1008 75 0 0.97 212 01:26 02.01.2020
5155 Clouds 23 1008 75 0 0.97 212 00:49 02.01.2020
5156 Clouds 23 1008 75 0 0.97 212 00:26 02.01.2020
5157 Clouds 23 1008 75 0 0.97 212 23:43 01.01.2020
5158 Clouds 23 1008 75 0 0.97 212 23:23 01.01.2020
5159 Clouds 25 1009 71 0 1.48 222 22:39 01.01.2020
5160 Clouds 25 1009 71 0 1.48 222 22:21 01.01.2020
5161 Clouds 25 1009 71 0 1.48 222 21:58 01.01.2020
5162 Clouds 25 1009 71 0 1.48 222 21:40 01.01.2020
5163 Clouds 25 1009 71 0 1.48 222 21:20 01.01.2020
5164 Clouds 25 1009 71 0 1.48 222 20:58 01.01.2020
5165 Clouds 25 1009 71 0 1.48 222 20:38 01.01.2020
5166 Clear 25 1009 88 7000 2.1 30 20:20 01.01.2020
5167 Clear 25 1009 88 7000 2.1 30 19:57 01.01.2020
5168 Clouds 26 1007 71 0 1.05 223 19:38 01.01.2020
5169 Clouds 26 1007 71 0 1.05 223 19:20 01.01.2020
5170 Clouds 26 1007 71 0 1.05 223 18:57 01.01.2020
5171 Clouds 26 1007 71 0 1.05 223 18:38 01.01.2020
5172 Clouds 26 1007 71 0 1.05 223 18:20 01.01.2020
5173 Clouds 26 1007 71 0 1.05 223 17:57 01.01.2020
5174 Clouds 26 1007 71 0 1.05 223 17:39 01.01.2020
5175 Clouds 31 1005 54 0 1.58 217 17:19 01.01.2020
5176 Clouds 31 1005 54 0 1.58 217 16:57 01.01.2020
5177 Clouds 31 1005 54 0 1.58 217 16:37 01.01.2020
5178 Clouds 31 1005 54 0 1.58 217 16:37 01.01.2020
5179 Clouds 28 1009 78 8000 3.1 50 16:19 01.01.2020
5180 Clouds 28 1009 78 8000 3.1 50 16:19 01.01.2020
5181 Clouds 28 1009 78 8000 3.1 50 15:54 01.01.2020
5182 Clouds 31 1005 54 0 1.58 217 15:36 01.01.2020
5183 Clouds 31 1005 54 0 1.58 217 15:36 01.01.2020
5184 Clouds 27 1009 83 8000 3.1 90 15:18 01.01.2020
5185 Clouds 27 1009 83 8000 3.1 90 14:41 01.01.2020
5186 Clouds 27 1009 83 8000 3.1 90 14:23 01.01.2020
5187 Clouds 27 1017 57 6000 3.1 120 13:57 01.01.2020
5188 Clouds 27 1017 57 6000 3.1 120 13:38 01.01.2020
5189 Clouds 27 1017 57 6000 3.1 120 13:19 01.01.2020
5190 Clouds 25 1011 88 8000 3.1 90 12:58 01.01.2020
5191 Clouds 25 1011 88 8000 3.1 90 12:40 01.01.2020
5192 Clouds 25 1011 88 8000 3.1 90 12:19 01.01.2020
5193 Clouds 25 1012 88 7000 3.1 180 11:56 01.01.2020
5194 Clouds 25 1012 88 7000 3.1 180 11:38 01.01.2020
5195 Clouds 25 1012 88 7000 3.1 180 11:19 01.01.2020
5196 Clouds 27 1012 78 7000 3.1 180 10:54 01.01.2020
5197 Clouds 27 1012 78 7000 3.1 180 10:36 01.01.2020
5198 Clouds 27 1012 78 7000 3.1 180 10:18 01.01.2020
5199 Clouds 34 1010 43 0 0.79 113 09:39 01.01.2020
5200 Clouds 34 1010 43 0 0.79 113 09:19 01.01.2020
5201 Clouds 34 1010 43 0 0.79 113 08:56 01.01.2020
5202 Clouds 34 1010 43 0 0.79 113 08:37 01.01.2020
5203 Clouds 25 1011 71 0 1.12 126 08:19 01.01.2020
5204 Clouds 25 1011 72 0 1.06 130 07:55 01.01.2020
5205 Clouds 25 1011 72 0 1.06 130 07:37 01.01.2020
5206 Clouds 25 1011 72 0 1.06 130 06:46 01.01.2020
5207 Clouds 25 1011 72 0 1.06 130 06:22 01.01.2020
5208 Clouds 25 1011 72 0 1.06 130 05:45 01.01.2020
5209 Clouds 22 1008 81 0 0.9 74 03:48 01.01.2020
5210 Clouds 22 1008 81 0 0.9 74 03:28 01.01.2020
5211 Clouds 22 1008 81 0 0.9 74 02:59 01.01.2020
5212 Clouds 22 1008 81 0 0.9 74 02:40 01.01.2020
5213 Clouds 23 1008 75 0 0.73 230 02:21 01.01.2020
5214 Clouds 23 1008 75 0 0.73 230 01:39 01.01.2020
5215 Clouds 23 1008 75 0 0.73 230 01:39 01.01.2020
5216 Clouds 23 1008 76 0 0.91 233 01:21 01.01.2020
5217 Clouds 23 1008 76 0 0.91 233 00:44 01.01.2020
5218 Clouds 23 1008 76 0 0.91 233 00:26 01.01.2020
5219 Clouds 23 1008 76 0 0.91 233 23:42 31.12.2019
5220 Clouds 24 1009 71 0 0.89 196 23:22 31.12.2019
5221 Clouds 24 1009 71 0 0.89 196 22:59 31.12.2019
5222 Clouds 24 1009 71 0 0.89 196 22:39 31.12.2019
5223 Clouds 24 1009 71 0 0.89 196 22:20 31.12.2019
5224 Clouds 24 1009 71 0 0.89 196 21:59 31.12.2019
5225 Clouds 24 1009 71 0 0.89 196 21:59 31.12.2019
5226 Clouds 24 1009 71 0 0.89 196 21:40 31.12.2019
5227 Clouds 24 1009 71 0 0.89 196 21:40 31.12.2019
5228 Clouds 24 1009 71 0 0.89 196 21:22 31.12.2019
5229 Clouds 24 1009 71 0 0.89 196 20:57 31.12.2019
5230 Clouds 24 1009 71 0 0.89 196 20:37 31.12.2019
5231 Clouds 26 1008 59 0 0.7 167 20:19 31.12.2019
5232 Clouds 26 1008 59 0 0.7 167 19:55 31.12.2019
5233 Clouds 26 1008 59 0 0.7 167 19:36 31.12.2019
5234 Clouds 26 1008 59 0 0.7 167 19:18 31.12.2019
5235 Clouds 26 1008 59 0 0.7 167 18:54 31.12.2019
5236 Clouds 26 1008 59 0 0.7 167 18:36 31.12.2019
5237 Clouds 30 1008 74 7000 0.7 167 18:18 31.12.2019
5238 Clouds 30 1008 74 7000 0.7 167 17:54 31.12.2019
5239 Clouds 26 1008 59 0 0.7 167 17:36 31.12.2019
5240 Clouds 32 1008 66 7000 1 80 17:18 31.12.2019
5241 Clouds 32 1008 66 7000 1 80 17:18 31.12.2019
5242 Clouds 32 1008 66 7000 1 80 16:55 31.12.2019
5243 Clouds 32 1008 66 7000 1 80 16:36 31.12.2019
5244 Clouds 32 1008 66 7000 1 80 16:18 31.12.2019
5245 Clouds 32 1005 47 0 1 80 15:55 31.12.2019
5246 Clouds 32 1005 47 0 1 80 15:37 31.12.2019
5247 Clouds 32 1005 47 0 1 80 15:18 31.12.2019
5248 Clouds 32 1005 47 0 1 80 15:18 31.12.2019
5249 Clouds 32 1005 47 0 1 80 14:55 31.12.2019
5250 Clouds 32 1005 47 0 1 80 14:36 31.12.2019
5251 Clouds 33 1009 59 8000 2.1 120 14:18 31.12.2019
5252 Clouds 33 1009 59 8000 2.1 120 13:54 31.12.2019
5253 Clouds 35 1007 33 0 1.6 29 13:36 31.12.2019
5254 Clouds 35 1007 33 0 1.77 36 13:18 31.12.2019
5255 Clouds 35 1007 33 0 1.77 36 12:40 31.12.2019
5256 Clouds 31 1011 66 8000 3.1 240 12:20 31.12.2019
5257 Clouds 31 1011 66 8000 3.1 240 12:20 31.12.2019
5258 Clouds 35 1007 33 0 1.77 36 11:57 31.12.2019
5259 Clouds 35 1007 33 0 1.77 36 11:39 31.12.2019
5260 Clouds 30 1012 66 8000 4.1 160 11:21 31.12.2019
5261 Clouds 30 1012 66 8000 4.1 160 10:58 31.12.2019
5262 Clouds 30 1012 66 8000 4.1 160 10:39 31.12.2019
5263 Clouds 30 1012 66 8000 4.1 160 10:20 31.12.2019
5264 Clouds 29 1013 70 10000 3.1 180 09:59 31.12.2019
5265 Clouds 29 1013 70 10000 3.1 180 09:40 31.12.2019
5266 Clouds 29 1013 70 10000 3.1 180 09:21 31.12.2019
5267 Clouds 27 1013 78 6000 3.1 170 08:58 31.12.2019
5268 Clouds 33 1011 48 0 1.03 135 08:39 31.12.2019
5269 Clouds 25 1011 79 0 1.17 158 08:20 31.12.2019
5270 Clouds 25 1011 79 0 1.17 158 07:44 31.12.2019
5271 Clouds 25 1011 79 0 1.17 158 07:22 31.12.2019
5272 Clouds 25 1011 79 0 1.17 158 06:51 31.12.2019
5273 Mist 21 1012 94 4000 2.1 0 05:59 31.12.2019
5274 Clouds 22 1010 88 0 0.61 125 04:54 31.12.2019
5275 Clouds 22 1010 88 0 0.61 125 04:21 31.12.2019
5276 Clouds 22 1010 88 0 0.61 125 02:56 31.12.2019
5277 Clouds 23 1009 77 0 0.91 200 02:19 31.12.2019
5278 Clouds 23 1009 77 0 0.91 200 01:48 31.12.2019
5279 Clouds 23 1009 75 0 0.96 194 01:29 31.12.2019
5280 Clouds 23 1009 75 0 0.96 194 00:48 31.12.2019
5281 Clouds 23 1009 75 0 0.96 194 00:24 31.12.2019
5282 Clouds 23 1009 75 0 0.96 194 23:58 30.12.2019
5283 Clouds 23 1009 75 0 0.96 194 23:39 30.12.2019
5284 Clouds 24 1010 65 0 0.75 180 23:21 30.12.2019
5285 Clouds 24 1010 65 0 0.75 180 22:59 30.12.2019
5286 Clouds 24 1010 65 0 0.75 180 22:40 30.12.2019
5287 Clouds 24 1010 65 0 0.75 180 22:20 30.12.2019
5288 Clouds 24 1010 65 0 0.75 180 21:57 30.12.2019
5289 Clouds 24 1010 65 0 0.75 180 21:39 30.12.2019
5290 Clouds 24 1010 65 0 0.75 180 21:20 30.12.2019
5291 Clouds 24 1010 65 0 0.75 180 20:58 30.12.2019
5292 Clouds 24 1010 65 0 0.75 180 20:40 30.12.2019
5293 Clouds 26 1008 53 0 1.11 117 20:20 30.12.2019
5294 Clouds 26 1008 57 0 1.19 115 19:58 30.12.2019
5295 Clouds 26 1008 57 0 1.19 115 19:38 30.12.2019
5296 Clouds 26 1008 57 0 1.19 115 19:19 30.12.2019
5297 Clouds 26 1008 57 0 1.19 115 18:57 30.12.2019
5298 Clouds 26 1008 57 0 1.19 115 18:38 30.12.2019
5299 Clouds 26 1008 57 0 1.19 115 18:20 30.12.2019
5300 Clouds 26 1008 57 0 1.19 115 17:55 30.12.2019
5301 Clouds 26 1008 57 0 1.19 115 17:37 30.12.2019
5302 Clear 33 1004 39 0 0.69 33 17:18 30.12.2019
5303 Clear 33 1004 39 0 0.69 33 16:57 30.12.2019
5304 Clear 33 1004 39 0 0.69 33 16:37 30.12.2019
5305 Clear 33 1004 39 0 0.69 33 16:37 30.12.2019
5306 Clear 33 1004 39 0 0.69 33 16:18 30.12.2019
5307 Clear 33 1004 39 0 0.69 33 15:55 30.12.2019
5308 Clear 33 1004 39 0 0.69 33 15:37 30.12.2019
5309 Clear 33 1004 39 0 0.69 33 15:18 30.12.2019
5310 Clear 33 1004 39 0 0.69 33 14:42 30.12.2019
5311 Clear 35 1006 32 0 1.87 28 14:20 30.12.2019
5312 Clear 35 1006 32 0 1.87 28 13:56 30.12.2019
5313 Clear 35 1006 32 0 1.87 28 13:37 30.12.2019
5314 Clouds 35 1006 31 0 1.76 27 13:19 30.12.2019
5315 Clouds 35 1006 31 0 1.76 27 12:43 30.12.2019
5316 Clouds 35 1006 31 0 1.76 27 12:22 30.12.2019
5317 Clouds 35 1006 31 0 1.76 27 11:59 30.12.2019
5318 Clouds 35 1006 31 0 1.76 27 11:40 30.12.2019
5319 Clouds 34 1011 42 0 0.46 30 11:19 30.12.2019
5320 Clouds 34 1011 42 0 0.46 30 11:19 30.12.2019
5321 Clouds 34 1011 42 0 0.46 30 10:45 30.12.2019
5322 Clouds 34 1011 42 0 0.46 30 10:22 30.12.2019
5323 Clouds 34 1011 42 0 0.46 30 09:59 30.12.2019
5324 Clouds 34 1011 42 0 0.46 30 09:41 30.12.2019
5325 Clouds 34 1011 42 0 0.46 30 09:20 30.12.2019
5326 Clouds 34 1011 42 0 0.46 30 08:54 30.12.2019
5327 Clouds 34 1010 41 0 0.59 56 08:36 30.12.2019
5328 Clouds 34 1011 42 0 0.46 30 08:36 30.12.2019
5329 Clouds 24 1011 68 0 0.78 198 08:18 30.12.2019
5330 Clouds 24 1011 68 0 0.78 198 07:39 30.12.2019
5331 Clouds 24 1011 68 0 0.78 198 06:52 30.12.2019
5332 Clouds 24 1011 68 0 0.78 198 05:24 30.12.2019
5333 Clouds 21 1009 71 0 0.91 260 03:58 30.12.2019
5334 Clouds 21 1009 71 0 0.91 260 03:19 30.12.2019
5335 Clouds 21 1009 71 0 0.91 260 02:40 30.12.2019
5336 Clouds 22 1008 66 0 0.63 171 01:56 30.12.2019
5337 Clouds 22 1008 66 0 0.85 192 01:25 30.12.2019
5338 Clouds 22 1008 66 0 0.85 192 00:45 30.12.2019
5339 Clouds 22 1008 66 0 0.85 192 00:23 30.12.2019
5340 Clouds 22 1008 66 0 0.85 192 23:40 29.12.2019
5341 Clouds 23 1009 66 0 0.73 132 23:21 29.12.2019
5342 Clouds 23 1009 66 0 0.73 132 22:56 29.12.2019
5343 Clouds 23 1009 66 0 0.73 132 22:37 29.12.2019
5344 Clouds 23 1009 66 0 0.73 132 22:18 29.12.2019
5345 Clouds 23 1009 66 0 0.73 132 21:43 29.12.2019
5346 Clouds 23 1009 66 0 0.73 132 21:21 29.12.2019
5347 Clouds 23 1009 66 0 0.73 132 21:21 29.12.2019
5348 Clouds 23 1009 66 0 0.73 132 20:58 29.12.2019
5349 Clouds 23 1009 66 0 0.73 132 20:39 29.12.2019
5350 Clear 25 1007 59 0 1.15 114 20:21 29.12.2019
5351 Clear 25 1007 61 0 0.99 111 19:59 29.12.2019
5352 Clear 25 1007 61 0 0.99 111 19:40 29.12.2019
5353 Clear 25 1007 61 0 0.99 111 19:21 29.12.2019
5354 Clear 25 1007 61 0 0.99 111 19:21 29.12.2019
5355 Clear 25 1007 61 0 0.99 111 18:58 29.12.2019
5356 Clear 25 1007 61 0 0.99 111 18:39 29.12.2019
5357 Clear 25 1007 61 0 0.99 111 18:20 29.12.2019
5358 Clear 25 1007 61 0 0.99 111 17:58 29.12.2019
5359 Clear 25 1007 61 0 0.99 111 17:58 29.12.2019
5360 Clear 25 1007 61 0 0.99 111 17:39 29.12.2019
5361 Clear 33 1004 42 0 0.64 353 17:20 29.12.2019
5362 Clear 33 1004 42 0 0.64 353 16:57 29.12.2019
5363 Clear 33 1004 42 0 0.64 353 16:57 29.12.2019
5364 Clear 33 1004 42 0 0.64 353 16:39 29.12.2019
5365 Clear 33 1004 42 0 0.64 353 16:21 29.12.2019
5366 Clear 33 1004 42 0 0.64 353 15:58 29.12.2019
5367 Clear 33 1004 42 0 0.64 353 15:39 29.12.2019
5368 Clear 33 1004 42 0 0.64 353 15:20 29.12.2019
5369 Clear 33 1004 42 0 0.64 353 15:20 29.12.2019
5370 Clear 33 1004 42 0 0.64 353 14:58 29.12.2019
5371 Clear 33 1004 42 0 0.64 353 14:39 29.12.2019
5372 Clouds 35 1006 31 0 1.78 34 14:18 29.12.2019
5373 Clouds 35 1006 31 0 1.78 34 13:58 29.12.2019
5374 Clouds 35 1006 31 0 1.78 34 13:39 29.12.2019
5375 Clouds 30 1015 58 10000 4.1 270 13:21 29.12.2019
5376 Clouds 30 1015 58 10000 4.1 270 12:56 29.12.2019
5377 Clouds 30 1015 58 10000 4.1 270 12:38 29.12.2019
5378 Clouds 30 1015 58 10000 4.1 270 12:19 29.12.2019
5379 Clouds 35 1006 31 0 1.69 31 11:40 29.12.2019
5380 Clouds 33 1010 46 0 0.94 68 11:21 29.12.2019
5381 Clouds 33 1010 46 0 0.94 68 10:56 29.12.2019
5382 Clouds 33 1010 46 0 0.94 68 10:37 29.12.2019
5383 Clouds 33 1010 46 0 0.94 68 10:18 29.12.2019
5384 Clouds 33 1010 46 0 0.94 68 09:44 29.12.2019
5385 Clouds 33 1010 46 0 0.94 68 09:26 29.12.2019
5386 Clouds 33 1010 46 0 0.94 68 08:52 29.12.2019
5387 Clouds 33 1010 46 0 0.97 75 08:29 29.12.2019
5388 Clouds 24 1010 80 0 1.15 86 07:59 29.12.2019
5389 Clouds 24 1010 80 0 1.15 86 07:32 29.12.2019
5390 Clouds 24 1010 80 0 1.15 86 06:59 29.12.2019
5391 Clouds 24 1010 80 0 1.15 86 06:27 29.12.2019
5392 Clouds 24 1010 80 0 1.15 86 05:55 29.12.2019
5393 Clouds 21 1009 93 0 0.18 134 04:47 29.12.2019
5394 Clouds 21 1009 93 0 0.18 134 04:28 29.12.2019
5395 Clouds 21 1009 93 0 0.18 134 03:28 29.12.2019
5396 Clouds 22 1008 85 0 1.3 182 02:22 29.12.2019
5397 Clouds 22 1008 85 0 1.3 182 01:42 29.12.2019
5398 Clouds 22 1008 83 0 1.35 180 01:23 29.12.2019
5399 Clouds 22 1008 83 0 1.35 180 00:44 29.12.2019
5400 Clouds 22 1008 83 0 1.35 180 00:24 29.12.2019
5401 Clouds 22 1008 83 0 1.35 180 23:45 28.12.2019
5402 Clear 23 1011 88 6000 0.85 136 23:19 28.12.2019
5403 Clear 23 1011 88 6000 0.85 136 23:19 28.12.2019
5404 Clear 23 1011 88 6000 0.85 136 23:19 28.12.2019
5405 Clear 23 1011 88 6000 0.85 136 22:59 28.12.2019
5406 Clear 23 1011 88 6000 0.85 136 22:37 28.12.2019
5407 Clear 23 1011 88 6000 0.85 136 22:18 28.12.2019
5408 Clear 25 1011 83 6000 0.85 136 21:55 28.12.2019
5409 Clear 25 1011 83 6000 0.85 136 21:37 28.12.2019
5410 Clear 25 1011 83 6000 0.85 136 21:19 28.12.2019
5411 Clouds 23 1010 73 0 0.85 136 20:40 28.12.2019
5412 Clouds 26 1007 63 0 0.77 240 20:22 28.12.2019
5413 Clouds 26 1007 63 0 0.77 240 19:59 28.12.2019
5414 Clouds 26 1007 63 0 0.77 240 19:40 28.12.2019
5415 Clouds 27 1009 78 6000 2.1 330 19:22 28.12.2019
5416 Clouds 27 1009 78 6000 2.1 330 18:59 28.12.2019
5417 Clouds 26 1007 63 0 0.77 240 18:40 28.12.2019
5418 Clouds 29 1008 66 8000 2.1 360 18:19 28.12.2019
5419 Clouds 26 1007 63 0 0.77 240 17:56 28.12.2019
5420 Clouds 26 1007 63 0 0.77 240 17:38 28.12.2019
5421 Clouds 32 1017 59 8000 2.1 360 17:19 28.12.2019
5422 Clouds 32 1017 59 8000 2.1 360 16:46 28.12.2019
5423 Clouds 31 1017 58 10000 2.1 360 16:26 28.12.2019
5424 Clouds 31 1017 58 10000 2.1 360 15:57 28.12.2019
5425 Clouds 31 1017 58 10000 2.1 360 15:39 28.12.2019
5426 Clouds 31 1017 58 10000 2.1 360 15:19 28.12.2019
5427 Clouds 32 1008 59 10000 2.1 30 14:44 28.12.2019
5428 Clouds 32 1008 59 10000 2.1 30 14:24 28.12.2019
5429 Clouds 32 1008 59 10000 2.1 30 14:24 28.12.2019
5430 Clouds 31 1009 62 10000 2.1 120 13:57 28.12.2019
5431 Clouds 31 1009 62 10000 2.1 120 13:38 28.12.2019
5432 Clouds 31 1009 62 10000 2.1 120 13:19 28.12.2019
5433 Clouds 31 1009 62 10000 2.1 120 13:19 28.12.2019
5434 Clouds 31 1011 62 10000 2.1 210 12:43 28.12.2019
5435 Clouds 31 1011 62 10000 2.1 210 12:24 28.12.2019
5436 Clouds 31 1011 62 10000 2.1 210 12:24 28.12.2019
5437 Clouds 30 1012 62 10000 2.1 120 11:58 28.12.2019
5438 Clouds 30 1012 62 10000 2.1 120 11:39 28.12.2019
5439 Clouds 30 1012 62 10000 2.1 120 11:20 28.12.2019
5440 Rain 32 1011 59 0 0.14 16 10:46 28.12.2019
5441 Clouds 28 1013 74 8000 3.1 180 10:22 28.12.2019
5442 Clouds 28 1013 74 8000 3.1 180 10:22 28.12.2019
5443 Clouds 28 1013 74 8000 3.1 180 10:22 28.12.2019
5444 Clouds 28 1013 74 8000 3.1 180 09:58 28.12.2019
5445 Clouds 28 1013 74 8000 3.1 180 09:40 28.12.2019
5446 Clouds 28 1013 74 8000 3.1 180 09:20 28.12.2019
5447 Clouds 28 1013 74 8000 3.1 180 09:20 28.12.2019
5448 Rain 32 1011 59 0 0.14 16 08:44 28.12.2019
5449 Clouds 34 1010 45 0 0.15 344 08:26 28.12.2019
5450 Clear 25 1011 76 0 0.79 139 07:57 28.12.2019
5451 Clear 25 1011 76 0 0.79 139 07:39 28.12.2019
5452 Mist 21 1012 100 2000 0.79 139 06:42 28.12.2019
5453 Clear 22 1009 87 0 0.65 172 05:19 28.12.2019
5454 Clear 22 1009 87 0 0.65 172 03:47 28.12.2019
5455 Clear 22 1009 87 0 0.65 172 02:49 28.12.2019
5456 Clouds 23 1009 82 0 0.48 147 02:19 28.12.2019
5457 Clouds 23 1009 82 0 0.48 147 01:42 28.12.2019
5458 Clouds 22 1009 81 0 0.67 154 01:18 28.12.2019
5459 Clouds 22 1009 81 0 0.67 154 00:40 28.12.2019
5460 Clouds 22 1009 81 0 0.67 154 00:21 28.12.2019
5461 Clouds 22 1009 81 0 0.67 154 23:45 27.12.2019
5462 Clouds 23 1010 78 0 0.87 172 23:20 27.12.2019
5463 Clouds 23 1010 78 0 0.87 172 22:58 27.12.2019
5464 Clouds 23 1010 78 0 0.87 172 22:39 27.12.2019
5465 Clouds 23 1010 78 0 0.87 172 22:20 27.12.2019
5466 Clouds 23 1010 78 0 0.87 172 21:58 27.12.2019
5467 Clouds 23 1010 78 0 0.87 172 21:38 27.12.2019
5468 Clouds 23 1010 78 0 0.87 172 21:19 27.12.2019
5469 Clouds 23 1010 78 0 0.87 172 20:42 27.12.2019
5470 Clear 23 1010 74 0 0.97 160 20:23 27.12.2019
5471 Clouds 25 1008 67 0 1.2 105 19:54 27.12.2019
5472 Clouds 25 1008 67 0 1.2 105 19:36 27.12.2019
5473 Clouds 25 1008 67 0 1.2 105 19:18 27.12.2019
5474 Clouds 25 1008 67 0 1.2 105 18:40 27.12.2019
5475 Clouds 27 1009 83 6000 4.1 150 18:22 27.12.2019
5476 Clouds 27 1009 83 6000 4.1 150 17:59 27.12.2019
5477 Clouds 27 1009 83 6000 4.1 150 17:40 27.12.2019
5478 Clouds 27 1009 83 6000 4.1 150 17:19 27.12.2019
5479 Clouds 29 1008 79 8000 1.67 80 16:59 27.12.2019
5480 Clouds 29 1008 79 8000 1.67 80 16:39 27.12.2019
5481 Clouds 29 1008 79 8000 1.67 80 16:20 27.12.2019
5482 Clouds 31 1008 62 8000 1.67 80 15:45 27.12.2019
5483 Clouds 31 1008 62 8000 1.67 80 15:24 27.12.2019
5484 Clouds 32 1009 59 8000 1.67 80 14:59 27.12.2019
5485 Clouds 32 1009 59 8000 1.67 80 14:40 27.12.2019
5486 Clouds 32 1009 59 8000 1.8 37 14:22 27.12.2019
5487 Clouds 32 1010 62 8000 1.8 37 13:58 27.12.2019
5488 Clouds 35 1006 33 0 1.8 37 13:40 27.12.2019
5489 Clear 35 1007 33 0 1.93 41 13:21 27.12.2019
5490 Clear 35 1007 33 0 1.93 41 12:44 27.12.2019
5491 Clouds 30 1012 74 8000 1.93 41 12:26 27.12.2019
5492 Clouds 30 1012 74 8000 1.93 41 11:55 27.12.2019
5493 Clouds 30 1012 74 8000 1.93 41 11:37 27.12.2019
5494 Clouds 30 1012 74 8000 1.17 40 11:18 27.12.2019
5495 Clouds 30 1013 70 8000 1.5 0 10:41 27.12.2019
5496 Clouds 30 1013 70 8000 1.5 0 10:23 27.12.2019
5497 Clouds 29 1013 74 8000 1.5 0 09:49 27.12.2019
5498 Clouds 29 1013 74 8000 1.5 0 09:22 27.12.2019
5499 Clouds 29 1013 74 8000 1.5 0 09:22 27.12.2019
5500 Clear 33 1010 41 0 1.17 40 08:59 27.12.2019
5501 Clear 33 1010 41 0 1.17 40 08:40 27.12.2019
5502 Clouds 26 1011 73 0 0.71 112 08:18 27.12.2019
5503 Clouds 26 1011 77 0 1 130 07:38 27.12.2019
5504 Clouds 26 1011 77 0 1 130 06:43 27.12.2019
5505 Clouds 26 1011 77 0 1 130 06:22 27.12.2019
5506 Clouds 24 1009 84 0 0.97 167 04:37 27.12.2019
5507 Clouds 24 1009 84 0 0.97 167 02:28 27.12.2019
5508 Clouds 24 1009 80 0 0.61 150 01:44 27.12.2019
5509 Clouds 23 1009 87 0 0.54 160 01:21 27.12.2019
5510 Clouds 23 1009 87 0 0.54 160 00:46 27.12.2019
5511 Clouds 23 1009 87 0 0.54 160 00:25 27.12.2019
5512 Clouds 23 1009 87 0 0.54 160 00:25 27.12.2019
5513 Clouds 23 1009 87 0 0.54 160 23:56 26.12.2019
5514 Clouds 23 1009 87 0 0.54 160 23:37 26.12.2019
5515 Clouds 22 1010 94 6000 0.81 146 23:19 26.12.2019
5516 Clouds 22 1010 94 6000 0.81 146 22:40 26.12.2019
5517 Clouds 22 1010 94 6000 0.81 146 22:18 26.12.2019
5518 Clouds 23 1010 88 6000 2.1 30 21:40 26.12.2019
5519 Clouds 23 1010 88 6000 2.1 30 21:21 26.12.2019
5520 Clouds 24 1010 80 0 0.81 146 20:57 26.12.2019
5521 Clouds 24 1010 80 0 0.81 146 20:38 26.12.2019
5522 Clouds 26 1009 66 0 0.89 79 20:19 26.12.2019
5523 Clouds 25 1008 69 0 0.47 72 19:55 26.12.2019
5524 Clouds 25 1008 69 0 0.47 72 19:37 26.12.2019
5525 Thunderstorm 27 1009 74 7000 2.1 310 19:19 26.12.2019
5526 Thunderstorm 27 1009 74 7000 2.1 310 19:19 26.12.2019
5527 Thunderstorm 27 1009 74 7000 2.1 310 18:55 26.12.2019
5528 Thunderstorm 27 1009 74 7000 2.1 310 18:36 26.12.2019
5529 Thunderstorm 27 1009 74 7000 2.1 310 18:18 26.12.2019
5530 Clouds 25 1008 69 0 0.47 72 17:41 26.12.2019
5531 Clouds 30 1007 57 0 1.12 45 17:21 26.12.2019
5532 Clouds 30 1007 57 0 1.12 45 16:50 26.12.2019
5533 Clouds 32 1009 62 10000 2.1 310 16:27 26.12.2019
5534 Clouds 32 1009 62 10000 2.1 310 15:57 26.12.2019
5535 Clouds 32 1009 62 10000 2.1 310 15:39 26.12.2019
5536 Clouds 32 1009 62 10000 2.1 310 15:19 26.12.2019
5537 Clouds 32 1009 62 10000 2.1 330 14:41 26.12.2019
5538 Clouds 31 1010 66 10000 2.1 0 14:23 26.12.2019
5539 Clouds 31 1010 66 10000 2.1 0 13:57 26.12.2019
5540 Clouds 31 1010 66 10000 2.1 0 13:39 26.12.2019
5541 Clouds 31 1010 66 10000 2.1 0 13:18 26.12.2019
5542 Clouds 33 1007 43 0 0.55 72 12:45 26.12.2019
5543 Clouds 30 1012 66 10000 3.1 270 12:26 26.12.2019
5544 Clouds 30 1012 66 10000 3.1 270 11:59 26.12.2019
5545 Clouds 33 1007 43 0 0.55 72 11:40 26.12.2019
5546 Clear 32 1011 51 0 1.21 146 11:22 26.12.2019
5547 Clear 32 1011 51 0 1.21 146 10:51 26.12.2019
5548 Clear 32 1011 51 0 1.21 146 10:28 26.12.2019
5549 Clear 32 1011 51 0 1.21 146 09:59 26.12.2019
5550 Clear 32 1011 51 0 1.21 146 09:41 26.12.2019
5551 Clear 32 1011 51 0 1.21 146 09:22 26.12.2019
5552 Clear 32 1011 51 0 1.21 146 08:40 26.12.2019
5553 Clouds 23 1012 85 0 1.52 141 08:21 26.12.2019
5554 Clouds 24 1012 86 0 1.8 147 07:46 26.12.2019
5555 Clouds 24 1012 86 0 1.8 147 07:26 26.12.2019
5556 Clouds 24 1012 86 0 1.8 147 06:39 26.12.2019
5557 Clouds 24 1012 86 0 1.8 147 06:20 26.12.2019
5558 Clouds 24 1012 86 0 1.8 147 05:43 26.12.2019
5559 Clouds 21 1010 97 0 1.1 160 04:36 26.12.2019
5560 Clouds 21 1010 97 0 1.1 160 03:46 26.12.2019
5561 Clouds 21 1010 97 0 1.1 160 02:47 26.12.2019
5562 Clouds 21 1010 97 0 1.1 160 02:29 26.12.2019
5563 Clouds 22 1010 95 0 1.29 174 01:44 26.12.2019
5564 Clouds 22 1010 95 0 1.29 174 01:26 26.12.2019
5565 Clouds 23 1010 93 0 1.18 178 00:47 26.12.2019
5566 Clouds 23 1010 93 0 1.18 178 00:24 26.12.2019
5567 Clouds 23 1010 93 0 1.18 178 23:58 25.12.2019
5568 Clouds 23 1010 93 0 1.18 178 23:38 25.12.2019
5569 Clouds 23 1011 91 0 1.47 184 23:19 25.12.2019
5570 Clouds 23 1011 91 0 1.47 184 22:57 25.12.2019
5571 Clouds 23 1011 91 0 1.47 184 22:37 25.12.2019
5572 Clouds 23 1011 91 0 1.47 184 22:19 25.12.2019
5573 Clouds 23 1011 91 0 1.47 184 21:57 25.12.2019
5574 Clouds 23 1011 91 0 1.47 184 21:39 25.12.2019
5575 Clouds 23 1011 91 0 1.47 184 21:19 25.12.2019
5576 Clouds 23 1011 91 0 1.47 184 20:41 25.12.2019
5577 Clouds 23 1011 91 0 1.47 184 20:41 25.12.2019
5578 Rain 24 1010 86 0 1.26 180 20:21 25.12.2019
5579 Rain 24 1009 85 0 1.36 166 19:59 25.12.2019
5580 Rain 24 1009 85 0 1.36 166 19:41 25.12.2019
5581 Rain 24 1009 85 0 1.36 166 19:22 25.12.2019
5582 Rain 24 1009 85 0 1.36 166 18:41 25.12.2019
5583 Rain 24 1009 85 0 1.36 166 18:21 25.12.2019
5584 Rain 24 1009 85 0 1.36 166 17:59 25.12.2019
5585 Rain 24 1009 85 0 1.36 166 17:39 25.12.2019
5586 Clouds 27 1010 74 10000 3.1 170 17:18 25.12.2019
5587 Clouds 27 1010 74 10000 3.1 170 16:55 25.12.2019
5588 Rain 29 1006 67 0 2.25 172 16:36 25.12.2019
5589 Clouds 27 1010 74 10000 3.1 130 16:18 25.12.2019
5590 Clouds 27 1010 74 10000 3.1 130 15:56 25.12.2019
5591 Clouds 27 1010 74 10000 3.1 130 15:37 25.12.2019
5592 Clouds 27 1010 74 10000 3.1 130 15:18 25.12.2019
5593 Clouds 26 1012 78 10000 3.1 140 14:54 25.12.2019
5594 Clouds 26 1012 78 10000 3.1 140 14:36 25.12.2019
5595 Clouds 26 1012 78 10000 3.1 140 14:18 25.12.2019
5596 Clouds 26 1013 78 8000 3.1 180 13:41 25.12.2019
5597 Clouds 35 1007 37 0 1.58 20 13:20 25.12.2019
5598 Clouds 35 1007 36 0 1.43 31 12:44 25.12.2019
5599 Clouds 35 1007 36 0 1.43 31 12:22 25.12.2019
5600 Clouds 35 1007 36 0 1.43 31 11:58 25.12.2019
5601 Clouds 35 1007 36 0 1.43 31 11:40 25.12.2019
5602 Clouds 26 1014 83 8000 3.1 200 11:21 25.12.2019
5603 Clouds 26 1014 83 8000 3.1 200 10:39 25.12.2019
5604 Clouds 26 1014 83 8000 3.1 200 10:21 25.12.2019
5605 Clouds 26 1014 83 8000 3.1 200 09:59 25.12.2019
5606 Clouds 26 1014 83 8000 3.1 200 09:40 25.12.2019
5607 Clouds 26 1014 83 8000 3.1 200 09:22 25.12.2019
5608 Clouds 34 1011 45 0 0.56 119 08:43 25.12.2019
5609 Mist 24 1013 94 4000 2.1 120 08:24 25.12.2019
5610 Mist 24 1013 94 4000 2.1 120 07:43 25.12.2019
5611 Mist 21 1012 94 4000 2.1 90 07:22 25.12.2019
5612 Clouds 24 1012 77 0 0.89 87 06:24 25.12.2019
5613 Clouds 24 1012 77 0 0.89 87 06:24 25.12.2019
5614 Clouds 24 1012 77 0 0.89 87 05:51 25.12.2019
5615 Clouds 22 1009 88 0 0.22 33 04:46 25.12.2019
5616 Clouds 22 1009 88 0 0.22 33 04:24 25.12.2019
5617 Clouds 22 1009 88 0 0.22 33 03:44 25.12.2019
5618 Clouds 22 1009 88 0 0.22 33 03:18 25.12.2019
5619 Clouds 22 1011 88 6000 2.1 120 02:30 25.12.2019
5620 Clouds 22 1011 88 6000 2.1 120 01:53 25.12.2019
5621 Clouds 22 1011 88 6000 2.1 120 01:22 25.12.2019
5622 Clouds 23 1009 83 0 0.71 180 00:45 25.12.2019
5623 Clouds 23 1009 83 0 0.71 180 00:26 25.12.2019
5624 Clouds 23 1009 83 0 0.71 180 23:40 24.12.2019
5625 Clear 24 1010 79 0 1 200 23:20 24.12.2019
5626 Clear 24 1010 79 0 1 200 22:58 24.12.2019
5627 Clear 24 1010 79 0 1 200 22:37 24.12.2019
5628 Clear 24 1010 79 0 1 200 22:19 24.12.2019
5629 Clear 24 1010 79 0 1 200 21:41 24.12.2019
5630 Clear 24 1010 79 0 1 200 21:41 24.12.2019
5631 Clear 24 1010 79 0 1 200 21:22 24.12.2019
5632 Clear 24 1010 79 0 1 200 20:43 24.12.2019
5633 Clouds 24 1009 80 0 0.95 197 20:24 24.12.2019
5634 Clouds 25 1008 78 0 0.54 209 19:57 24.12.2019
5635 Clouds 25 1008 78 0 0.54 209 19:37 24.12.2019
5636 Clouds 25 1008 78 0 0.54 209 19:18 24.12.2019
5637 Clouds 25 1008 78 0 0.54 209 18:42 24.12.2019
5638 Clouds 25 1008 78 0 0.54 209 18:19 24.12.2019
5639 Clouds 25 1008 78 0 0.54 209 17:45 24.12.2019
5640 Clouds 25 1008 78 0 0.54 209 17:24 24.12.2019
5641 Clouds 31 1005 55 0 0.68 121 16:59 24.12.2019
5642 Clouds 31 1005 55 0 0.68 121 16:59 24.12.2019
5643 Clouds 31 1005 55 0 0.68 121 16:40 24.12.2019
5644 Clouds 31 1005 55 0 0.68 121 16:22 24.12.2019
5645 Clouds 31 1005 55 0 0.68 121 15:58 24.12.2019
5646 Clouds 31 1005 55 0 0.68 121 15:58 24.12.2019
5647 Clouds 31 1005 55 0 0.68 121 15:38 24.12.2019
5648 Clouds 31 1005 55 0 0.68 121 15:20 24.12.2019
5649 Clouds 31 1005 55 0 0.68 121 14:59 24.12.2019
5650 Clouds 31 1005 55 0 0.68 121 14:40 24.12.2019
5651 Clouds 34 1009 59 10000 3.1 90 14:22 24.12.2019
5652 Clouds 34 1009 59 10000 3.1 90 13:57 24.12.2019
5653 Clouds 33 1007 50 0 1.13 83 13:39 24.12.2019
5654 Clouds 32 1011 59 10000 3.1 360 13:20 24.12.2019
5655 Clouds 32 1011 59 10000 3.1 360 13:20 24.12.2019
5656 Clouds 32 1011 59 10000 3.1 360 12:57 24.12.2019
5657 Clouds 32 1011 59 10000 3.1 360 12:38 24.12.2019
5658 Clouds 32 1011 59 10000 3.1 360 12:38 24.12.2019
5659 Clouds 32 1011 59 10000 3.1 360 12:19 24.12.2019
5660 Clouds 32 1011 59 10000 3.1 360 12:19 24.12.2019
5661 Clouds 31 1013 66 10000 3.1 270 11:58 24.12.2019
5662 Clouds 31 1013 66 10000 3.1 270 11:38 24.12.2019
5663 Clouds 31 1013 66 10000 3.1 270 11:38 24.12.2019
5664 Clouds 31 1013 66 10000 3.1 270 11:20 24.12.2019
5665 Clouds 31 1013 66 10000 3.1 270 10:57 24.12.2019
5666 Clouds 31 1013 66 10000 3.1 270 10:38 24.12.2019
5667 Clouds 31 1013 66 10000 3.1 270 10:20 24.12.2019
5668 Clouds 29 1011 63 0 1.25 92 09:59 24.12.2019
5669 Clouds 29 1011 63 0 1.25 92 09:41 24.12.2019
5670 Clouds 29 1011 63 0 1.25 92 09:22 24.12.2019
5671 Clouds 29 1011 63 0 1.25 92 08:56 24.12.2019
5672 Clouds 29 1011 63 0 1.25 92 08:37 24.12.2019
5673 Clouds 23 1012 90 0 0.63 118 08:18 24.12.2019
5674 Clouds 24 1012 81 0 0.98 133 07:43 24.12.2019
5675 Mist 21 1012 100 3000 0.98 133 07:21 24.12.2019
5676 Mist 21 1012 100 3000 0.98 133 06:41 24.12.2019
5677 Clouds 24 1012 81 0 0.98 133 06:22 24.12.2019
5678 Clouds 24 1012 81 0 0.98 133 05:55 24.12.2019
5679 Clouds 21 1010 92 0 0.9 185 05:19 24.12.2019
5680 Clouds 21 1010 92 0 0.9 185 04:21 24.12.2019
5681 Clouds 21 1010 92 0 0.9 185 03:48 24.12.2019
5682 Clouds 21 1010 92 0 0.9 185 02:29 24.12.2019
5683 Clouds 22 1010 89 0 0.94 180 01:57 24.12.2019
5684 Clouds 22 1010 89 0 0.94 180 01:27 24.12.2019
5685 Clouds 22 1010 90 0 1.08 167 00:58 24.12.2019
5686 Clouds 22 1010 90 0 1.08 167 00:40 24.12.2019
5687 Clouds 22 1010 90 0 1.08 167 00:20 24.12.2019
5688 Clouds 22 1010 90 0 1.08 167 23:43 23.12.2019
5689 Clouds 22 1010 90 0 1.08 167 23:24 23.12.2019
5690 Clouds 22 1010 90 0 1.08 167 23:24 23.12.2019
5691 Clouds 22 1011 89 0 0.9 227 22:57 23.12.2019
5692 Clouds 22 1011 89 0 0.9 227 22:38 23.12.2019
5693 Clouds 22 1011 89 0 0.9 227 22:20 23.12.2019
5694 Clouds 22 1011 89 0 0.9 227 21:57 23.12.2019
5695 Clouds 22 1011 89 0 0.9 227 21:37 23.12.2019
5696 Clouds 22 1011 89 0 0.9 227 21:19 23.12.2019
5697 Clouds 22 1011 89 0 0.9 227 20:59 23.12.2019
5698 Clouds 22 1011 89 0 0.9 227 20:41 23.12.2019
5699 Clouds 24 1009 84 0 0.86 162 20:19 23.12.2019
5700 Clouds 24 1009 84 0 0.86 162 19:59 23.12.2019
5701 Clouds 24 1009 84 0 0.86 162 19:41 23.12.2019
5702 Clouds 24 1009 84 0 0.86 162 19:22 23.12.2019
5703 Clouds 24 1009 84 0 0.86 162 18:59 23.12.2019
5704 Clouds 24 1009 84 0 0.86 162 18:39 23.12.2019
5705 Clouds 29 1009 74 9000 2.1 0 18:21 23.12.2019
5706 Clouds 24 1009 84 0 0.86 162 17:59 23.12.2019
5707 Clouds 24 1009 84 0 0.86 162 17:41 23.12.2019
5708 Clouds 32 1009 59 9000 0.98 250 17:20 23.12.2019
5709 Clouds 32 1009 59 9000 0.98 250 16:59 23.12.2019
5710 Clouds 32 1009 59 9000 0.98 250 16:40 23.12.2019
5711 Clouds 32 1009 59 9000 0.98 250 16:19 23.12.2019
5712 Clouds 32 1009 59 9000 1.5 0 15:58 23.12.2019
5713 Rain 28 1006 71 0 0.98 250 15:37 23.12.2019
5714 Clouds 31 1010 62 10000 2.1 190 15:19 23.12.2019
5715 Clouds 31 1010 62 10000 2.1 190 14:57 23.12.2019
5716 Rain 28 1006 71 0 0.98 250 14:39 23.12.2019
5717 Rain 28 1006 71 0 0.98 250 14:39 23.12.2019
5718 Clouds 31 1012 58 10000 1.5 0 14:19 23.12.2019
5719 Clouds 31 1012 58 10000 1.5 0 13:57 23.12.2019
5720 Clouds 34 1008 40 0 1.81 23 13:39 23.12.2019
5721 Clouds 34 1008 40 0 1.81 23 13:39 23.12.2019
5722 Clouds 30 1012 58 10000 4.1 180 13:20 23.12.2019
5723 Clouds 30 1012 58 10000 4.1 180 13:20 23.12.2019
5724 Clouds 30 1012 58 10000 4.1 180 12:55 23.12.2019
5725 Clouds 30 1012 58 10000 4.1 180 12:37 23.12.2019
5726 Clouds 30 1012 58 10000 4.1 180 12:18 23.12.2019
5727 Clouds 29 1013 70 10000 3.1 210 11:42 23.12.2019
5728 Clouds 29 1013 70 10000 3.1 210 11:24 23.12.2019
5729 Clouds 31 1012 55 0 1.21 147 10:56 23.12.2019
5730 Clouds 31 1012 55 0 1.21 147 10:38 23.12.2019
5731 Clouds 26 1014 78 9000 3.1 150 10:20 23.12.2019
5732 Clouds 26 1014 78 9000 3.1 150 09:58 23.12.2019
5733 Clouds 31 1012 55 0 1.21 147 09:39 23.12.2019
5734 Clouds 31 1012 55 0 1.21 147 09:39 23.12.2019
5735 Clouds 23 1014 88 7000 2.1 120 09:19 23.12.2019
5736 Clouds 23 1014 88 7000 2.1 120 08:55 23.12.2019
5737 Clouds 23 1014 88 7000 2.1 120 08:37 23.12.2019
5738 Clouds 23 1014 88 7000 2.1 120 08:18 23.12.2019
5739 Mist 21 1014 100 4000 2.1 90 07:42 23.12.2019
5740 Mist 21 1014 100 4000 2.1 90 07:19 23.12.2019
5741 Clouds 23 1013 87 0 0.88 167 06:45 23.12.2019
5742 Mist 21 1013 94 4000 2.1 210 06:23 23.12.2019
5743 Mist 21 1013 94 4000 2.1 210 05:47 23.12.2019
5744 Mist 21 1013 94 4000 2.1 210 05:18 23.12.2019
5745 Clouds 21 1011 99 0 1.12 145 04:19 23.12.2019
5746 Clouds 21 1011 99 0 1.12 145 02:48 23.12.2019
5747 Clear 22 1014 94 6000 1.12 145 02:23 23.12.2019
5748 Clear 22 1014 94 6000 1.15 170 01:51 23.12.2019
5749 Clouds 21 1011 96 0 1.15 170 01:32 23.12.2019
5750 Clouds 21 1011 97 0 1.09 174 00:54 23.12.2019
5751 Clouds 21 1011 97 0 1.09 174 00:35 23.12.2019
5752 Clouds 21 1011 97 0 1.09 174 23:57 22.12.2019
5753 Clouds 21 1011 97 0 1.09 174 23:39 22.12.2019
5754 Clouds 22 1011 93 0 1.42 184 23:20 22.12.2019
5755 Clouds 22 1011 93 0 1.42 184 22:57 22.12.2019
5756 Clouds 22 1011 93 0 1.42 184 22:38 22.12.2019
5757 Clouds 22 1011 93 0 1.42 184 22:38 22.12.2019
5758 Clouds 22 1011 93 0 1.42 184 22:19 22.12.2019
5759 Clouds 22 1011 93 0 1.42 184 21:56 22.12.2019
5760 Clouds 22 1011 93 0 1.42 184 21:38 22.12.2019
5761 Clouds 22 1011 93 0 1.42 184 21:20 22.12.2019
5762 Clouds 22 1011 93 0 1.42 184 20:43 22.12.2019
5763 Clouds 23 1010 90 0 1.05 169 20:20 22.12.2019
5764 Clouds 23 1010 90 0 1.05 169 20:20 22.12.2019
5765 Clouds 23 1010 90 0 1.05 169 19:58 22.12.2019
5766 Clouds 23 1010 90 0 1.05 169 19:40 22.12.2019
5767 Clouds 23 1010 90 0 1.05 169 19:21 22.12.2019
5768 Clouds 23 1010 90 0 1.05 169 18:58 22.12.2019
5769 Clouds 23 1010 90 0 1.05 169 18:38 22.12.2019
5770 Clouds 23 1010 90 0 1.05 169 18:19 22.12.2019
5771 Clouds 23 1010 90 0 1.05 169 17:55 22.12.2019
5772 Clouds 23 1010 90 0 1.05 169 17:37 22.12.2019
5773 Rain 28 1008 67 0 0.33 259 17:18 22.12.2019
5774 Rain 28 1008 67 0 0.33 259 16:42 22.12.2019
5775 Rain 28 1008 67 0 0.33 259 16:23 22.12.2019
5776 Rain 28 1008 67 0 0.33 259 15:58 22.12.2019
5777 Rain 28 1008 67 0 0.33 259 15:39 22.12.2019
5778 Rain 28 1008 67 0 0.33 259 15:21 22.12.2019
5779 Rain 28 1008 67 0 0.33 259 14:59 22.12.2019
5780 Rain 28 1008 67 0 0.33 259 14:38 22.12.2019
5781 Rain 30 1009 66 0 0.36 256 14:19 22.12.2019
5782 Rain 30 1009 66 0 0.36 256 13:56 22.12.2019
5783 Rain 30 1009 66 0 0.36 256 13:38 22.12.2019
5784 Rain 32 1009 53 0 0.38 304 13:19 22.12.2019
5785 Rain 32 1009 53 0 0.38 304 12:57 22.12.2019
5786 Rain 32 1009 53 0 0.38 304 12:57 22.12.2019
5787 Rain 32 1009 53 0 0.38 304 12:38 22.12.2019
5788 Rain 32 1009 53 0 0.38 304 12:19 22.12.2019
5789 Rain 32 1009 53 0 0.38 304 12:19 22.12.2019
5790 Rain 32 1009 53 0 0.38 304 12:19 22.12.2019
5791 Rain 32 1009 53 0 0.38 304 11:59 22.12.2019
5792 Rain 32 1009 53 0 0.38 304 11:39 22.12.2019
5793 Rain 29 1012 69 0 1.08 235 11:20 22.12.2019
5794 Rain 29 1012 69 0 1.08 235 10:57 22.12.2019
5795 Rain 29 1012 69 0 1.08 235 10:39 22.12.2019
5796 Rain 29 1012 69 0 1.08 235 10:19 22.12.2019
5797 Rain 29 1012 69 0 1.08 235 09:58 22.12.2019
5798 Rain 29 1012 69 0 1.08 235 09:39 22.12.2019
5799 Rain 29 1012 69 0 1.08 235 09:21 22.12.2019
5800 Rain 29 1012 69 0 1.08 235 08:45 22.12.2019
5801 Clouds 28 1012 68 0 1.88 191 08:23 22.12.2019
5802 Clouds 22 1013 94 0 1.43 174 07:50 22.12.2019
5803 Clouds 22 1013 94 0 1.43 174 07:22 22.12.2019
5804 Clouds 22 1013 94 0 1.43 174 06:56 22.12.2019
5805 Clouds 22 1013 94 0 1.43 174 06:27 22.12.2019
5806 Clouds 22 1013 94 0 1.43 174 05:43 22.12.2019
5807 Rain 22 1011 92 0 1.19 207 05:21 22.12.2019
5808 Rain 22 1011 92 0 1.19 207 04:26 22.12.2019
5809 Rain 22 1011 92 0 1.19 207 03:24 22.12.2019
5810 Rain 22 1011 92 0 1.19 207 02:34 22.12.2019
5811 Rain 23 1010 86 0 0.79 157 01:32 22.12.2019
5812 Clouds 21 1011 90 0 1.02 169 00:58 22.12.2019
5813 Clouds 21 1011 90 0 1.02 169 00:39 22.12.2019
5814 Clouds 21 1011 90 0 1.02 169 00:20 22.12.2019
5815 Clouds 21 1011 90 0 1.02 169 23:42 21.12.2019
5816 Clouds 21 1011 90 0 1.02 169 23:24 21.12.2019
5817 Clouds 22 1011 89 0 1.11 227 22:57 21.12.2019
5818 Clouds 22 1011 89 0 1.11 227 22:39 21.12.2019
5819 Clouds 22 1011 89 0 1.11 227 22:18 21.12.2019
5820 Clouds 22 1011 89 0 1.11 227 21:56 21.12.2019
5821 Clouds 22 1011 89 0 1.11 227 21:56 21.12.2019
5822 Clouds 22 1011 89 0 1.11 227 21:37 21.12.2019
5823 Clouds 22 1011 89 0 1.11 227 21:18 21.12.2019
5824 Clouds 22 1011 89 0 1.11 227 20:57 21.12.2019
5825 Clouds 22 1011 89 0 1.11 227 20:57 21.12.2019
5826 Clouds 22 1011 89 0 1.11 227 20:37 21.12.2019
5827 Clouds 22 1011 89 0 1.11 227 20:37 21.12.2019
5828 Clouds 24 1009 82 0 1.14 77 20:19 21.12.2019
5829 Clouds 24 1009 82 0 1.14 77 19:56 21.12.2019
5830 Clouds 24 1009 82 0 1.14 77 19:36 21.12.2019
5831 Clouds 24 1009 82 0 1.14 77 19:18 21.12.2019
5832 Clouds 24 1009 82 0 1.14 77 18:42 21.12.2019
5833 Clouds 24 1009 82 0 1.14 77 18:42 21.12.2019
5834 Clouds 24 1010 88 8000 1.14 77 18:23 21.12.2019
5835 Clouds 24 1010 88 8000 1.14 77 17:57 21.12.2019
5836 Clouds 24 1009 82 0 1.14 77 17:39 21.12.2019
5837 Clouds 30 1007 60 0 0.61 267 17:20 21.12.2019
5838 Clouds 30 1007 60 0 0.61 267 16:57 21.12.2019
5839 Clouds 30 1007 60 0 0.61 267 16:39 21.12.2019
5840 Clouds 30 1007 60 0 0.61 267 16:18 21.12.2019
5841 Clouds 30 1007 60 0 0.61 267 15:56 21.12.2019
5842 Clouds 30 1007 60 0 0.61 267 15:37 21.12.2019
5843 Clouds 31 1010 66 8000 2.1 200 15:18 21.12.2019
5844 Clouds 31 1010 66 8000 2.1 200 14:42 21.12.2019
5845 Clouds 31 1010 66 8000 2.1 200 14:23 21.12.2019
5846 Clouds 29 1011 79 8000 3.1 260 13:58 21.12.2019
5847 Clouds 29 1011 79 8000 3.1 260 13:40 21.12.2019
5848 Clouds 29 1011 79 8000 3.1 260 13:20 21.12.2019
5849 Clouds 31 1012 66 8000 2.1 200 12:57 21.12.2019
5850 Clouds 34 1008 42 0 0.88 304 12:39 21.12.2019
5851 Clouds 34 1008 42 0 0.88 304 12:20 21.12.2019
5852 Clouds 34 1008 42 0 0.88 304 11:55 21.12.2019
5853 Clouds 34 1008 42 0 0.88 304 11:37 21.12.2019
5854 Clouds 26 1014 83 7000 1.32 186 11:19 21.12.2019
5855 Clouds 26 1014 83 7000 1.32 186 10:41 21.12.2019
5856 Clouds 26 1014 83 7000 1.32 186 10:22 21.12.2019
5857 Clouds 24 1015 88 6000 1.5 0 09:58 21.12.2019
5858 Clouds 24 1015 88 6000 1.5 0 09:39 21.12.2019
5859 Clouds 24 1015 88 6000 1.5 0 09:20 21.12.2019
5860 Clouds 28 1012 64 0 1.32 186 08:52 21.12.2019
5861 Clouds 28 1012 64 0 1.32 186 08:27 21.12.2019
5862 Clouds 24 1013 80 0 1.15 136 07:58 21.12.2019
5863 Clouds 24 1013 80 0 1.15 136 07:40 21.12.2019
5864 Mist 21 1014 100 4000 3.1 90 07:21 21.12.2019
5865 Mist 21 1014 100 4000 3.1 90 06:41 21.12.2019
5866 Mist 21 1014 100 4000 3.1 90 06:23 21.12.2019
5867 Mist 22 1013 94 3000 1.15 136 05:37 21.12.2019
5868 Clouds 20 1011 95 0 0.82 156 04:55 21.12.2019
5869 Clouds 20 1011 95 0 0.82 156 03:56 21.12.2019
5870 Clouds 20 1011 95 0 0.82 156 02:25 21.12.2019
5871 Clouds 21 1010 91 0 1.04 181 01:50 21.12.2019
5872 Clouds 23 1013 88 6000 2.1 30 01:25 21.12.2019
5873 Clouds 23 1013 88 6000 2.1 30 00:49 21.12.2019
5874 Clouds 23 1013 88 6000 2.1 30 00:28 21.12.2019
5875 Clouds 21 1010 92 0 0.89 171 23:39 20.12.2019
5876 Clouds 21 1010 92 0 0.89 171 23:39 20.12.2019
5877 Clouds 22 1012 92 0 1.39 162 23:21 20.12.2019
5878 Clouds 22 1012 92 0 1.39 162 22:59 20.12.2019
5879 Clouds 22 1012 92 0 1.39 162 22:39 20.12.2019
5880 Clouds 22 1012 92 0 1.39 162 22:19 20.12.2019
5881 Clouds 22 1012 92 0 1.39 162 21:54 20.12.2019
5882 Clouds 22 1012 92 0 1.39 162 21:36 20.12.2019
5883 Clouds 22 1012 92 0 1.39 162 21:18 20.12.2019
5884 Clouds 22 1012 92 0 1.39 162 21:18 20.12.2019
5885 Clouds 22 1012 92 0 1.39 162 21:18 20.12.2019
5886 Clouds 22 1012 92 0 1.39 162 20:39 20.12.2019
5887 Clouds 25 1018 88 6000 2.1 0 20:19 20.12.2019
5888 Clouds 25 1018 88 6000 2.1 0 19:57 20.12.2019
5889 Clouds 25 1018 88 6000 2.1 0 19:38 20.12.2019
5890 Clouds 25 1018 88 6000 2.1 0 19:19 20.12.2019
5891 Thunderstorm 26 1011 88 6000 3.1 180 18:42 20.12.2019
5892 Thunderstorm 28 1011 78 6000 3.1 180 18:23 20.12.2019
5893 Thunderstorm 28 1011 78 6000 3.1 180 17:58 20.12.2019
5894 Rain 22 1010 94 0 1.59 171 17:40 20.12.2019
5895 Clouds 29 1012 54 10000 3.1 280 17:20 20.12.2019
5896 Clouds 29 1012 54 10000 3.1 280 16:57 20.12.2019
5897 Clouds 29 1012 54 10000 3.1 280 16:38 20.12.2019
5898 Thunderstorm 31 1010 62 7000 3.1 210 16:19 20.12.2019
5899 Rain 27 1008 75 0 1.65 124 15:55 20.12.2019
5900 Rain 27 1008 75 0 1.65 124 15:37 20.12.2019
5901 Rain 27 1008 75 0 1.65 124 15:37 20.12.2019
5902 Clouds 31 1012 66 7000 3.1 180 15:19 20.12.2019
5903 Clouds 31 1012 66 7000 3.1 180 14:43 20.12.2019
5904 Clouds 30 1012 70 8000 3.1 180 14:24 20.12.2019
5905 Clouds 30 1012 70 8000 3.1 180 13:57 20.12.2019
5906 Clouds 30 1012 70 8000 3.1 180 13:38 20.12.2019
5907 Clouds 29 1013 74 9000 3.1 180 13:19 20.12.2019
5908 Clouds 29 1013 74 9000 3.1 180 12:57 20.12.2019
5909 Clouds 29 1013 74 9000 3.1 180 12:37 20.12.2019
5910 Clouds 27 1014 74 9000 2.1 180 12:18 20.12.2019
5911 Clouds 27 1014 74 9000 2.1 180 11:57 20.12.2019
5912 Clouds 27 1014 74 9000 2.1 180 11:39 20.12.2019
5913 Clouds 30 1012 55 0 1.25 167 11:18 20.12.2019
5914 Clouds 30 1012 55 0 1.25 167 11:18 20.12.2019
5915 Clouds 30 1012 55 0 1.25 167 10:56 20.12.2019
5916 Clouds 30 1012 55 0 1.25 167 10:38 20.12.2019
5917 Clouds 30 1012 55 0 1.25 167 10:19 20.12.2019
5918 Clouds 30 1012 55 0 1.25 167 09:43 20.12.2019
5919 Clouds 30 1012 55 0 1.25 167 09:21 20.12.2019
5920 Clouds 30 1012 55 0 1.25 167 08:57 20.12.2019
5921 Clouds 30 1012 55 0 1.25 167 08:38 20.12.2019
5922 Clouds 24 1013 84 0 1.36 181 08:20 20.12.2019
5923 Clouds 23 1013 85 0 1.16 181 08:20 20.12.2019
5924 Clouds 24 1013 84 0 1.36 181 07:57 20.12.2019
5925 Clouds 24 1013 84 0 1.36 181 07:57 20.12.2019
5926 Clouds 24 1013 84 0 1.36 181 07:38 20.12.2019
5927 Mist 23 1014 94 4000 1.5 0 07:18 20.12.2019
5928 Mist 23 1014 94 4000 1.5 0 06:46 20.12.2019
5929 Clouds 23 1013 94 6000 1.36 181 06:28 20.12.2019
5930 Clouds 23 1013 94 6000 1.36 181 05:48 20.12.2019
5931 Clouds 23 1013 100 6000 0.93 187 05:18 20.12.2019
5932 Clouds 21 1011 96 0 0.93 187 03:49 20.12.2019
5933 Clouds 21 1011 96 0 0.93 187 03:20 20.12.2019
5934 Clouds 22 1010 86 0 1.33 204 02:20 20.12.2019
5935 Clouds 22 1010 86 0 1.33 204 01:36 20.12.2019
5936 Clouds 22 1010 85 0 1.37 207 00:57 20.12.2019
5937 Clouds 22 1010 85 0 1.37 207 00:35 20.12.2019
5938 Clouds 22 1010 85 0 1.37 207 23:58 19.12.2019
5939 Clouds 22 1010 85 0 1.37 207 23:40 19.12.2019
5940 Clouds 23 1011 80 0 0.9 215 23:21 19.12.2019
5941 Clouds 23 1011 80 0 0.9 215 22:40 19.12.2019
5942 Clouds 23 1011 80 0 0.9 215 22:22 19.12.2019
5943 Clouds 23 1011 80 0 0.9 215 21:59 19.12.2019
5944 Clouds 23 1011 80 0 0.9 215 21:59 19.12.2019
5945 Clouds 23 1011 80 0 0.9 215 21:41 19.12.2019
5946 Clouds 23 1011 80 0 0.9 215 21:19 19.12.2019
5947 Clouds 23 1011 80 0 0.9 215 20:57 19.12.2019
5948 Clouds 23 1011 80 0 0.9 215 20:38 19.12.2019
5949 Clouds 25 1012 94 6000 0.38 240 20:20 19.12.2019
5950 Clouds 25 1012 94 6000 0.47 235 20:20 19.12.2019
5951 Clouds 25 1012 94 6000 0.38 240 19:58 19.12.2019
5952 Clouds 25 1012 94 6000 0.38 240 19:40 19.12.2019
5953 Clouds 24 1009 67 0 0.38 240 19:19 19.12.2019
5954 Clouds 24 1009 67 0 0.38 240 19:19 19.12.2019
5955 Clouds 24 1009 67 0 0.38 240 19:19 19.12.2019
5956 Clouds 24 1009 67 0 0.38 240 19:19 19.12.2019
5957 Clouds 24 1009 67 0 0.38 240 18:58 19.12.2019
5958 Clouds 24 1009 67 0 0.38 240 18:40 19.12.2019
5959 Clouds 28 1010 78 6000 1.5 0 18:20 19.12.2019
5960 Clouds 28 1010 78 6000 1.5 0 17:56 19.12.2019
5961 Clouds 28 1010 78 6000 1.5 0 17:38 19.12.2019
5962 Clouds 30 1006 50 0 1.07 73 17:18 19.12.2019
5963 Clouds 30 1006 50 0 1.07 73 16:56 19.12.2019
5964 Clouds 30 1006 50 0 1.07 73 16:37 19.12.2019
5965 Clouds 30 1010 66 6000 4.1 200 16:19 19.12.2019
5966 Clouds 30 1010 66 6000 4.1 200 15:57 19.12.2019
5967 Clouds 30 1010 66 6000 4.1 200 15:37 19.12.2019
5968 Clouds 31 1010 58 8000 2.1 150 15:19 19.12.2019
5969 Clouds 31 1010 58 8000 2.1 150 14:56 19.12.2019
5970 Clouds 31 1010 58 8000 2.1 150 14:38 19.12.2019
5971 Clouds 33 1008 36 0 1.7 36 14:18 19.12.2019
5972 Clouds 33 1008 36 0 1.7 36 13:38 19.12.2019
5973 Clouds 33 1008 36 0 1.7 36 13:20 19.12.2019
5974 Clouds 33 1008 37 0 1.37 43 12:58 19.12.2019
5975 Clouds 33 1008 37 0 1.37 43 12:40 19.12.2019
5976 Clouds 29 1012 70 7000 4.1 180 12:19 19.12.2019
5977 Clouds 29 1012 70 7000 4.1 180 12:19 19.12.2019
5978 Clouds 29 1012 70 7000 4.1 180 11:59 19.12.2019
5979 Clouds 29 1012 70 7000 4.1 180 11:40 19.12.2019
5980 Clouds 29 1013 70 7000 2.1 20 11:18 19.12.2019
5981 Clouds 29 1013 70 7000 2.1 20 10:59 19.12.2019
5982 Clouds 29 1013 70 7000 2.1 20 10:38 19.12.2019
5983 Clouds 29 1013 70 7000 2.1 20 10:38 19.12.2019
5984 Clouds 25 1011 72 0 0.99 141 10:20 19.12.2019
5985 Clouds 25 1011 72 0 0.99 141 09:56 19.12.2019
5986 Clouds 25 1011 72 0 0.99 141 09:37 19.12.2019
5987 Clouds 25 1011 72 0 0.99 141 09:37 19.12.2019
5988 Clouds 25 1011 72 0 0.99 141 09:19 19.12.2019
5989 Clouds 25 1011 72 0 0.99 141 08:55 19.12.2019
5990 Clouds 25 1011 72 0 0.99 141 08:55 19.12.2019
5991 Clouds 25 1011 72 0 0.99 141 08:36 19.12.2019
5992 Clouds 22 1011 88 0 0.47 25 08:18 19.12.2019
5993 Clouds 22 1011 88 0 0.47 25 07:41 19.12.2019
5994 Mist 21 1013 100 3000 0.47 25 07:23 19.12.2019
5995 Mist 21 1013 100 3000 0.47 25 06:58 19.12.2019
5996 Mist 21 1013 100 3000 0.47 25 06:39 19.12.2019
5997 Clouds 22 1011 88 0 0.47 25 06:21 19.12.2019
5998 Clouds 22 1011 88 0 0.47 25 05:42 19.12.2019
5999 Rain 21 1009 91 0 0.8 72 05:19 19.12.2019
6000 Rain 21 1009 91 0 0.8 72 03:51 19.12.2019
6001 Rain 21 1009 91 0 0.8 72 02:28 19.12.2019
6002 Rain 22 1009 80 0 1.18 15 01:25 19.12.2019
6003 Clouds 24 1009 71 0 0.55 11 00:57 19.12.2019
6004 Clouds 24 1009 71 0 0.55 11 00:38 19.12.2019
6005 Clouds 24 1009 71 0 0.55 11 00:19 19.12.2019
6006 Clouds 24 1009 71 0 0.55 11 23:44 18.12.2019
6007 Clouds 23 1010 78 0 0.52 306 23:19 18.12.2019
6008 Clouds 23 1010 78 0 0.52 306 22:57 18.12.2019
6009 Clouds 23 1010 78 0 0.52 306 22:38 18.12.2019
6010 Clouds 23 1010 78 0 0.52 306 22:20 18.12.2019
6011 Clouds 23 1010 78 0 0.52 306 21:58 18.12.2019
6012 Clouds 23 1010 78 0 0.52 306 21:58 18.12.2019
6013 Clouds 23 1010 78 0 0.52 306 21:39 18.12.2019
6014 Clouds 23 1010 78 0 0.52 306 21:20 18.12.2019
6015 Clouds 23 1010 78 0 0.52 306 21:20 18.12.2019
6016 Clouds 23 1010 78 0 0.52 306 20:57 18.12.2019
6017 Clouds 23 1010 78 0 0.52 306 20:38 18.12.2019
6018 Clouds 25 1008 73 0 0.77 39 20:20 18.12.2019
6019 Clouds 25 1008 73 0 0.77 39 19:56 18.12.2019
6020 Clouds 25 1008 73 0 0.77 39 19:38 18.12.2019
6021 Clouds 25 1008 73 0 0.77 39 19:38 18.12.2019
6022 Clouds 28 1009 69 6000 2.1 0 19:18 18.12.2019
6023 Clouds 28 1009 69 6000 2.1 0 18:54 18.12.2019
6024 Clouds 28 1009 69 6000 2.1 0 18:36 18.12.2019
6025 Clouds 30 1008 62 6000 3.1 330 18:18 18.12.2019
6026 Clouds 30 1008 62 6000 3.1 330 17:55 18.12.2019
6027 Clouds 25 1008 73 0 0.77 39 17:37 18.12.2019
6028 Clouds 31 1008 58 8000 3.1 330 17:18 18.12.2019
6029 Clouds 31 1008 58 8000 3.1 330 16:42 18.12.2019
6030 Clouds 31 1008 58 8000 3.1 330 16:23 18.12.2019
6031 Clouds 32 1008 55 8000 3.1 330 15:57 18.12.2019
6032 Clouds 32 1008 55 8000 3.1 330 15:39 18.12.2019
6033 Clouds 32 1008 55 8000 3.1 330 15:21 18.12.2019
6034 Clouds 33 1008 52 8000 3.1 330 14:56 18.12.2019
6035 Clouds 33 1008 52 8000 3.1 330 14:38 18.12.2019
6036 Clouds 33 1008 52 8000 3.1 330 14:19 18.12.2019
6037 Clouds 32 1009 52 8000 3.1 330 13:55 18.12.2019
6038 Clouds 33 1006 44 0 2.18 21 13:36 18.12.2019
6039 Clouds 32 1010 55 8000 3.1 330 13:18 18.12.2019
6040 Clouds 32 1010 55 8000 3.1 330 13:18 18.12.2019
6041 Clouds 32 1006 47 0 1.65 16 12:40 18.12.2019
6042 Clouds 32 1011 52 8000 3.1 330 12:21 18.12.2019
6043 Clouds 32 1011 52 8000 3.1 330 11:57 18.12.2019
6044 Clouds 32 1011 52 8000 3.1 330 11:39 18.12.2019
6045 Clouds 32 1011 52 8000 3.1 330 11:20 18.12.2019
6046 Clouds 30 1012 62 8000 3.1 330 10:58 18.12.2019
6047 Clouds 30 1012 62 8000 3.1 330 10:39 18.12.2019
6048 Clouds 30 1012 62 8000 3.1 330 10:20 18.12.2019
6049 Clouds 29 1012 66 6000 2.1 330 09:57 18.12.2019
6050 Clouds 29 1012 66 6000 2.1 330 09:20 18.12.2019
6051 Clouds 28 1013 69 6000 2.1 330 08:43 18.12.2019
6052 Clouds 31 1009 51 0 2.04 33 08:24 18.12.2019
6053 Clouds 24 1011 86 0 1.06 84 07:57 18.12.2019
6054 Clouds 24 1011 86 0 1.06 84 07:39 18.12.2019
6055 Mist 21 1012 94 3000 1.06 84 07:20 18.12.2019
6056 Mist 21 1012 94 3000 1.06 84 06:52 18.12.2019
6057 Mist 21 1012 100 4000 1.06 84 06:24 18.12.2019
6058 Clouds 24 1011 86 0 1.06 84 05:36 18.12.2019
6059 Clouds 21 1009 93 0 0.67 49 04:31 18.12.2019
6060 Clouds 21 1009 93 0 0.67 49 02:47 18.12.2019
6061 Clouds 21 1009 93 0 0.67 49 02:28 18.12.2019
6062 Clouds 22 1009 92 0 1.03 34 01:45 18.12.2019
6063 Clouds 22 1009 93 0 0.74 27 01:27 18.12.2019
6064 Clouds 22 1009 93 0 0.74 27 00:55 18.12.2019
6065 Clouds 22 1009 93 0 0.74 27 00:36 18.12.2019
6066 Clouds 22 1009 93 0 0.74 27 00:18 18.12.2019
6067 Clouds 22 1009 93 0 0.74 27 23:43 17.12.2019
6068 Clouds 22 1009 93 0 0.74 27 23:23 17.12.2019
6069 Rain 22 1010 93 0 0.61 342 22:57 17.12.2019
6070 Rain 22 1010 93 0 0.61 342 22:39 17.12.2019
6071 Rain 22 1010 93 0 0.61 342 22:20 17.12.2019
6072 Rain 22 1010 93 0 0.61 342 21:57 17.12.2019
6073 Rain 22 1010 93 0 0.61 342 21:39 17.12.2019
6074 Rain 22 1010 93 0 0.61 342 21:20 17.12.2019
6075 Rain 22 1010 93 0 0.61 342 21:20 17.12.2019
6076 Rain 22 1010 93 0 0.61 342 20:59 17.12.2019
6077 Rain 22 1010 93 0 0.61 342 20:40 17.12.2019
6078 Rain 22 1009 90 0 0.58 273 20:19 17.12.2019
6079 Rain 24 1008 86 0 0.49 338 19:57 17.12.2019
6080 Rain 24 1008 86 0 0.49 338 19:39 17.12.2019
6081 Rain 24 1008 86 0 0.49 338 19:20 17.12.2019
6082 Rain 24 1008 86 0 0.49 338 18:57 17.12.2019
6083 Rain 24 1008 86 0 0.49 338 18:38 17.12.2019
6084 Rain 24 1008 86 0 0.49 338 18:20 17.12.2019
6085 Rain 24 1008 86 0 0.49 338 17:55 17.12.2019
6086 Rain 24 1008 86 0 0.49 338 17:37 17.12.2019
6087 Clouds 32 1008 52 10000 1.05 274 17:18 17.12.2019
6088 Clouds 32 1008 52 10000 1.05 274 16:55 17.12.2019
6089 Clouds 32 1008 52 10000 1.05 274 16:36 17.12.2019
6090 Clouds 32 1008 52 10000 1.05 274 16:18 17.12.2019
6091 Clouds 32 1008 52 10000 1.05 274 16:18 17.12.2019
6092 Clouds 32 1008 52 10000 1.05 274 16:18 17.12.2019
6093 Clouds 33 1008 49 10000 2.1 80 15:38 17.12.2019
6094 Clouds 33 1008 49 10000 2.1 80 15:20 17.12.2019
6095 Clouds 32 1009 49 10000 3.1 60 14:56 17.12.2019
6096 Clouds 32 1009 49 10000 3.1 60 14:38 17.12.2019
6097 Clouds 32 1009 49 10000 3.1 60 14:19 17.12.2019
6098 Clouds 32 1009 49 10000 3.1 60 14:19 17.12.2019
6099 Clouds 32 1010 52 10000 3.1 110 13:58 17.12.2019
6100 Clouds 32 1010 52 10000 3.1 110 13:40 17.12.2019
6101 Clouds 32 1010 52 10000 3.1 110 13:19 17.12.2019
6102 Clouds 31 1011 58 10000 3.1 330 12:59 17.12.2019
6103 Clouds 34 1006 43 0 1.26 62 12:38 17.12.2019
6104 Clouds 34 1006 43 0 1.26 62 12:18 17.12.2019
6105 Clouds 34 1006 43 0 1.26 62 11:57 17.12.2019
6106 Clouds 34 1006 43 0 1.26 62 11:37 17.12.2019
6107 Clouds 28 1010 66 0 0.82 88 11:18 17.12.2019
6108 Clouds 28 1010 66 0 0.82 88 10:57 17.12.2019
6109 Clouds 28 1010 66 0 0.82 88 10:38 17.12.2019
6110 Clouds 28 1013 69 10000 2.1 100 10:19 17.12.2019
6111 Clouds 28 1013 69 10000 2.1 100 10:19 17.12.2019
6112 Clouds 28 1013 69 10000 2.1 100 09:55 17.12.2019
6113 Clouds 28 1013 69 10000 2.1 100 09:37 17.12.2019
6114 Clouds 28 1013 69 10000 2.1 100 09:18 17.12.2019
6115 Clouds 28 1010 66 0 0.82 88 08:40 17.12.2019
6116 Clouds 23 1011 93 0 0.85 158 08:22 17.12.2019
6117 Clouds 23 1011 93 0 0.85 158 07:59 17.12.2019
6118 Clouds 23 1011 93 0 0.85 158 07:41 17.12.2019
6119 Clouds 23 1011 93 0 0.85 158 07:22 17.12.2019
6120 Clouds 23 1011 93 0 0.85 158 06:42 17.12.2019
6121 Mist 21 1012 100 4000 0.85 158 06:24 17.12.2019
6122 Mist 21 1012 100 4000 0.85 158 05:42 17.12.2019
6123 Clouds 20 1009 98 0 0.38 205 04:58 17.12.2019
6124 Clouds 20 1009 98 0 0.38 205 03:55 17.12.2019
6125 Clouds 20 1009 98 0 0.38 205 02:26 17.12.2019
6126 Clouds 20 1008 98 0 1.24 116 01:22 17.12.2019
6127 Clouds 20 1008 98 0 1.24 116 00:47 17.12.2019
6128 Clouds 20 1008 98 0 1.24 116 00:22 17.12.2019
6129 Clouds 20 1008 98 0 1.24 116 23:57 16.12.2019
6130 Clouds 20 1008 98 0 1.24 116 23:38 16.12.2019
6131 Clouds 21 1010 98 0 1.05 94 23:18 16.12.2019
6132 Clouds 21 1010 98 0 1.05 94 22:54 16.12.2019
6133 Clouds 21 1010 98 0 1.05 94 22:36 16.12.2019
6134 Clouds 21 1010 98 0 1.05 94 22:18 16.12.2019
6135 Clouds 21 1010 98 0 1.05 94 21:54 16.12.2019
6136 Clouds 21 1010 98 0 1.05 94 21:36 16.12.2019
6137 Clouds 24 1012 88 7000 2.1 0 21:18 16.12.2019
6138 Clouds 24 1012 88 7000 2.1 0 20:54 16.12.2019
6139 Clouds 21 1010 98 0 1.05 94 20:36 16.12.2019
6140 Clouds 23 1009 91 0 0.74 330 20:18 16.12.2019
6141 Clouds 23 1009 91 0 0.74 330 19:54 16.12.2019
6142 Clouds 23 1009 91 0 0.74 330 19:36 16.12.2019
6143 Clouds 23 1009 91 0 0.74 330 19:18 16.12.2019
6144 Clouds 23 1009 91 0 0.74 330 19:18 16.12.2019
6145 Clouds 23 1009 91 0 0.74 330 18:42 16.12.2019
6146 Clouds 26 1010 74 8000 2.1 30 18:20 16.12.2019
6147 Clouds 26 1010 74 8000 2.1 30 18:20 16.12.2019
6148 Clouds 26 1010 74 8000 2.1 30 17:59 16.12.2019
6149 Clouds 26 1010 74 8000 2.1 30 17:40 16.12.2019
6150 Clouds 26 1010 74 8000 2.1 30 17:40 16.12.2019
6151 Clouds 26 1010 74 8000 2.1 30 17:21 16.12.2019
6152 Clouds 28 1010 65 10000 4.1 360 16:58 16.12.2019
6153 Clouds 26 1007 77 0 0.85 239 16:39 16.12.2019
6154 Clouds 28 1010 65 10000 4.1 120 16:20 16.12.2019
6155 Clouds 28 1010 65 10000 4.1 120 15:59 16.12.2019
6156 Clouds 26 1007 77 0 0.85 239 15:39 16.12.2019
6157 Clouds 28 1011 69 10000 4.1 30 15:21 16.12.2019
6158 Clouds 28 1011 69 10000 4.1 30 14:57 16.12.2019
6159 Clouds 28 1011 69 10000 4.1 30 14:37 16.12.2019
6160 Clouds 28 1011 69 10000 4.1 30 14:37 16.12.2019
6161 Clouds 28 1011 69 10000 4.1 30 14:37 16.12.2019
6162 Clouds 28 1011 69 10000 4.1 30 14:19 16.12.2019
6163 Clouds 28 1012 69 10000 3.1 30 13:56 16.12.2019
6164 Rain 28 1009 71 0 1.2 215 13:38 16.12.2019
6165 Rain 28 1009 71 0 1.2 215 13:19 16.12.2019
6166 Clouds 30 1008 59 0 1.8 180 13:19 16.12.2019
6167 Clouds 30 1008 59 0 1.8 180 12:58 16.12.2019
6168 Clouds 30 1008 59 0 1.8 180 12:39 16.12.2019
6169 Clouds 24 1014 83 8000 3.1 90 12:19 16.12.2019
6170 Clouds 24 1014 83 8000 3.1 90 11:58 16.12.2019
6171 Clouds 24 1014 83 8000 3.1 90 11:40 16.12.2019
6172 Clouds 24 1014 83 8000 3.1 90 11:20 16.12.2019
6173 Clouds 24 1015 83 8000 3.1 90 10:57 16.12.2019
6174 Clouds 24 1015 83 8000 3.1 90 10:38 16.12.2019
6175 Clouds 24 1015 83 8000 3.1 90 10:19 16.12.2019
6176 Clouds 23 1016 88 8000 3.1 330 09:45 16.12.2019
6177 Clouds 23 1016 88 8000 3.1 330 09:27 16.12.2019
6178 Clouds 22 1015 94 8000 3.1 330 08:55 16.12.2019
6179 Clouds 22 1015 94 8000 3.1 330 08:37 16.12.2019
6180 Clouds 22 1015 94 8000 3.1 330 08:18 16.12.2019
6181 Clouds 21 1015 94 8000 3.1 330 07:42 16.12.2019
6182 Clouds 20 1014 100 8000 3.1 340 07:21 16.12.2019
6183 Clouds 20 1014 100 8000 3.1 340 06:45 16.12.2019
6184 Rain 22 1013 94 0 1.22 201 06:22 16.12.2019
6185 Rain 22 1013 94 0 1.22 201 05:49 16.12.2019
6186 Rain 22 1013 94 0 1.22 201 05:30 16.12.2019
6187 Clouds 21 1011 99 0 0.97 258 04:21 16.12.2019
6188 Clouds 21 1010 98 0 1.18 268 01:58 16.12.2019
6189 Clouds 21 1010 98 0 1.18 268 01:40 16.12.2019
6190 Clouds 21 1010 98 0 1.18 268 01:40 16.12.2019
6191 Rain 21 1010 98 0 1.26 290 00:42 16.12.2019
6192 Rain 21 1010 98 0 1.26 290 00:23 16.12.2019
6193 Rain 21 1010 98 0 1.26 290 23:58 15.12.2019
6194 Rain 21 1010 98 0 1.26 290 23:38 15.12.2019
6195 Rain 22 1011 96 0 1.34 236 23:19 15.12.2019
6196 Rain 22 1011 96 0 1.34 236 22:55 15.12.2019
6197 Rain 22 1011 96 0 1.34 236 22:37 15.12.2019
6198 Rain 22 1011 96 0 1.34 236 22:18 15.12.2019
6199 Rain 22 1011 96 0 1.34 236 21:55 15.12.2019
6200 Rain 22 1011 96 0 1.34 236 21:37 15.12.2019
6201 Rain 22 1011 96 0 1.34 236 21:19 15.12.2019
6202 Rain 22 1011 96 0 1.34 236 20:55 15.12.2019
6203 Rain 22 1011 96 0 1.34 236 20:55 15.12.2019
6204 Rain 22 1011 96 0 1.34 236 20:37 15.12.2019
6205 Clouds 24 1012 88 6000 0.13 125 20:18 15.12.2019
6206 Clouds 24 1012 88 6000 1.33 247 19:56 15.12.2019
6207 Clouds 24 1012 88 6000 1.33 247 19:38 15.12.2019
6208 Clouds 24 1012 88 6000 1.33 247 19:18 15.12.2019
6209 Rain 23 1009 96 0 1.33 247 18:55 15.12.2019
6210 Rain 23 1009 96 0 1.33 247 18:37 15.12.2019
6211 Clouds 28 1009 83 10000 1.33 247 18:18 15.12.2019
6212 Clouds 28 1009 83 10000 1.33 247 17:55 15.12.2019
6213 Clouds 28 1009 83 10000 0.13 125 17:36 15.12.2019
6214 Clouds 28 1009 83 10000 1.14 332 17:18 15.12.2019
6215 Clouds 28 1009 83 10000 1.22 348 17:18 15.12.2019
6216 Clouds 28 1009 83 10000 1.14 332 17:18 15.12.2019
6217 Thunderstorm 28 1009 78 10000 1.22 348 16:43 15.12.2019
6218 Thunderstorm 28 1009 78 10000 1.14 332 16:23 15.12.2019
6219 Clouds 29 1008 74 10000 3.1 210 15:57 15.12.2019
6220 Rain 30 1005 64 0 1.14 332 15:39 15.12.2019
6221 Thunderstorm 29 1009 74 10000 3.1 210 15:20 15.12.2019
6222 Thunderstorm 29 1009 74 10000 3.1 210 14:56 15.12.2019
6223 Rain 30 1005 64 0 1.14 332 14:38 15.12.2019
6224 Rain 31 1007 60 0 1.68 329 14:19 15.12.2019
6225 Rain 32 1007 46 0 1.77 17 13:59 15.12.2019
6226 Rain 31 1007 60 0 1.68 329 13:39 15.12.2019
6227 Clouds 28 1012 78 10000 4.1 210 13:20 15.12.2019
6228 Clouds 28 1012 78 10000 4.1 210 12:57 15.12.2019
6229 Clouds 28 1012 78 10000 4.1 210 12:39 15.12.2019
6230 Clouds 28 1012 78 10000 4.1 210 12:21 15.12.2019
6231 Clouds 27 1013 83 10000 4.1 200 11:59 15.12.2019
6232 Clouds 27 1013 83 10000 4.1 200 11:38 15.12.2019
6233 Clouds 27 1013 83 10000 4.1 200 11:19 15.12.2019
6234 Clouds 27 1013 83 10000 4.1 200 11:19 15.12.2019
6235 Clouds 27 1013 83 10000 4.1 200 11:19 15.12.2019
6236 Rain 26 1012 85 0 1.12 66 10:55 15.12.2019
6237 Rain 26 1012 85 0 1.12 66 10:37 15.12.2019
6238 Clouds 25 1014 88 8000 3.1 150 10:19 15.12.2019
6239 Clouds 25 1014 88 8000 3.1 150 09:56 15.12.2019
6240 Clouds 25 1014 88 8000 3.1 150 09:37 15.12.2019
6241 Clouds 25 1014 88 8000 3.1 150 09:18 15.12.2019
6242 Rain 26 1012 85 0 1.12 66 08:41 15.12.2019
6243 Clouds 24 1014 94 6000 3.1 90 08:22 15.12.2019
6244 Clouds 24 1014 94 6000 3.1 90 07:57 15.12.2019
6245 Clouds 24 1014 94 6000 3.1 90 07:37 15.12.2019
6246 Clouds 24 1012 89 0 0.47 119 06:57 15.12.2019
6247 Clouds 24 1012 89 0 0.47 119 06:23 15.12.2019
6248 Clouds 24 1012 89 0 0.47 119 05:39 15.12.2019
6249 Rain 21 1010 97 0 0.41 129 05:19 15.12.2019
6250 Rain 21 1010 97 0 0.41 129 03:56 15.12.2019
6251 Rain 21 1010 97 0 0.41 129 02:35 15.12.2019
6252 Rain 22 1010 94 0 0.75 110 01:55 15.12.2019
6253 Rain 22 1010 92 0 0.77 133 01:37 15.12.2019
6254 Rain 22 1010 92 0 0.77 133 01:18 15.12.2019
6255 Rain 22 1010 92 0 0.77 133 00:42 15.12.2019
6256 Rain 22 1010 92 0 0.77 133 00:23 15.12.2019
6257 Rain 22 1010 92 0 0.77 133 23:40 14.12.2019
6258 Rain 23 1011 86 0 0.5 197 23:21 14.12.2019
6259 Rain 23 1011 86 0 0.5 197 22:58 14.12.2019
6260 Rain 23 1011 86 0 0.5 197 22:40 14.12.2019
6261 Rain 23 1011 86 0 0.5 197 22:21 14.12.2019
6262 Rain 23 1011 86 0 0.5 197 21:56 14.12.2019
6263 Rain 23 1011 86 0 0.5 197 21:38 14.12.2019
6264 Rain 23 1011 86 0 0.5 197 21:19 14.12.2019
6265 Rain 23 1011 86 0 0.5 197 20:57 14.12.2019
6266 Rain 23 1011 86 0 0.5 197 20:39 14.12.2019
6267 Clouds 25 1010 79 0 0.97 48 20:19 14.12.2019
6268 Clouds 25 1010 79 0 0.97 48 19:56 14.12.2019
6269 Clouds 25 1010 79 0 0.97 48 19:37 14.12.2019
6270 Clouds 25 1010 79 0 0.97 48 19:18 14.12.2019
6271 Clouds 25 1010 79 0 0.97 48 18:56 14.12.2019
6272 Clouds 25 1010 79 0 0.97 48 18:36 14.12.2019
6273 Thunderstorm 27 1010 83 8000 3.1 90 18:18 14.12.2019
6274 Thunderstorm 27 1010 83 8000 3.1 90 17:43 14.12.2019
6275 Thunderstorm 27 1010 83 8000 3.1 90 17:23 14.12.2019
6276 Thunderstorm 28 1009 83 9000 3.1 120 16:56 14.12.2019
6277 Clouds 31 1006 56 0 1.18 49 16:38 14.12.2019
6278 Thunderstorm 29 1009 74 9000 3.1 90 16:18 14.12.2019
6279 Thunderstorm 29 1009 74 9000 3.1 90 15:42 14.12.2019
6280 Thunderstorm 30 1009 70 9000 3.1 180 15:21 14.12.2019
6281 Thunderstorm 30 1009 70 9000 3.1 180 14:58 14.12.2019
6282 Thunderstorm 30 1009 70 9000 3.1 180 14:38 14.12.2019
6283 Thunderstorm 30 1009 70 9000 3.1 180 14:19 14.12.2019
6284 Thunderstorm 30 1009 70 9000 3.1 180 14:19 14.12.2019
6285 Thunderstorm 30 1010 70 10000 3.1 120 13:45 14.12.2019
6286 Thunderstorm 30 1010 70 10000 3.1 120 13:21 14.12.2019
6287 Thunderstorm 30 1010 70 10000 3.1 120 13:21 14.12.2019
6288 Clouds 30 1012 70 10000 3.1 310 12:59 14.12.2019
6289 Clouds 30 1012 70 10000 3.1 310 12:41 14.12.2019
6290 Clouds 30 1012 70 10000 3.1 310 12:21 14.12.2019
6291 Clouds 30 1012 70 10000 3.1 310 12:21 14.12.2019
6292 Clouds 30 1013 66 10000 3.1 330 11:59 14.12.2019
6293 Clouds 30 1013 66 10000 3.1 330 11:40 14.12.2019
6294 Clouds 30 1013 66 10000 3.1 330 11:20 14.12.2019
6295 Clouds 29 1014 70 7000 3.1 330 10:59 14.12.2019
6296 Clouds 29 1014 70 7000 3.1 330 10:59 14.12.2019
6297 Clouds 29 1014 70 7000 3.1 330 10:40 14.12.2019
6298 Clouds 29 1014 70 7000 3.1 330 10:22 14.12.2019
6299 Clouds 27 1015 78 9000 4.1 330 09:59 14.12.2019
6300 Clouds 27 1015 78 9000 4.1 330 09:40 14.12.2019
6301 Clouds 27 1015 78 9000 4.1 330 09:20 14.12.2019
6302 Rain 29 1012 74 0 0.43 108 08:43 14.12.2019
6303 Clear 24 1013 88 0 0.87 9 08:20 14.12.2019
6304 Clear 24 1013 88 0 0.87 9 07:44 14.12.2019
6305 Clear 24 1013 88 0 0.87 9 07:24 14.12.2019
6306 Clear 24 1013 88 0 0.87 9 06:58 14.12.2019
6307 Clear 24 1013 88 0 0.87 9 06:38 14.12.2019
6308 Clear 24 1013 88 0 0.87 9 06:18 14.12.2019
6309 Clouds 21 1010 97 0 0.46 2 04:48 14.12.2019
6310 Clouds 21 1010 97 0 0.46 2 02:41 14.12.2019
6311 Clouds 21 1010 96 0 0.44 229 02:19 14.12.2019
6312 Clouds 21 1010 96 0 0.44 229 01:37 14.12.2019
6313 Clouds 21 1010 95 0 0.45 250 00:50 14.12.2019
6314 Clouds 21 1010 95 0 0.45 250 00:29 14.12.2019
6315 Clouds 21 1010 95 0 0.45 250 23:57 13.12.2019
6316 Clouds 21 1010 95 0 0.45 250 23:38 13.12.2019
6317 Rain 22 1011 95 0 0.8 296 23:19 13.12.2019
6318 Rain 22 1011 95 0 0.8 296 22:42 13.12.2019
6319 Rain 22 1011 95 0 0.8 296 22:19 13.12.2019
6320 Rain 22 1011 95 0 0.8 296 21:56 13.12.2019
6321 Rain 22 1011 95 0 0.8 296 21:38 13.12.2019
6322 Rain 22 1011 95 0 0.8 296 21:20 13.12.2019
6323 Rain 22 1011 95 0 0.8 296 20:54 13.12.2019
6324 Rain 22 1011 95 0 0.8 296 20:36 13.12.2019
6325 Rain 23 1010 92 0 0.69 186 20:18 13.12.2019
6326 Rain 22 1010 94 0 0.32 200 19:42 13.12.2019
6327 Rain 22 1010 94 0 0.32 200 19:23 13.12.2019
6328 Rain 22 1010 94 0 0.32 200 18:59 13.12.2019
6329 Rain 22 1010 94 0 0.32 200 18:41 13.12.2019
6330 Rain 22 1010 94 0 0.32 200 18:19 13.12.2019
6331 Rain 22 1010 94 0 0.32 200 17:57 13.12.2019
6332 Rain 22 1010 94 0 0.32 200 17:38 13.12.2019
6333 Rain 25 1007 92 0 1.22 228 17:18 13.12.2019
6334 Rain 25 1007 92 0 1.22 228 16:54 13.12.2019
6335 Rain 25 1007 92 0 1.22 228 16:36 13.12.2019
6336 Rain 25 1007 92 0 1.22 228 16:18 13.12.2019
6337 Rain 25 1007 92 0 1.22 228 15:38 13.12.2019
6338 Rain 25 1007 92 0 1.22 228 15:20 13.12.2019
6339 Rain 25 1007 92 0 1.22 228 14:42 13.12.2019
6340 Rain 32 1008 55 0 0.93 276 14:22 13.12.2019
6341 Rain 32 1008 55 0 0.93 276 13:58 13.12.2019
6342 Rain 32 1008 55 0 0.93 276 13:40 13.12.2019
6343 Rain 32 1009 51 0 0.81 279 13:21 13.12.2019
6344 Rain 32 1009 51 0 0.81 279 12:44 13.12.2019
6345 Rain 32 1009 51 0 0.81 279 12:44 13.12.2019
6346 Rain 32 1009 51 0 0.81 279 12:23 13.12.2019
6347 Rain 32 1009 51 0 0.81 279 11:59 13.12.2019
6348 Rain 32 1009 51 0 0.81 279 11:41 13.12.2019
6349 Rain 32 1009 51 0 0.81 279 11:23 13.12.2019
6350 Rain 25 1013 82 0 0.73 154 10:56 13.12.2019
6351 Rain 25 1013 82 0 0.73 154 10:38 13.12.2019
6352 Rain 25 1013 82 0 0.73 154 10:19 13.12.2019
6353 Rain 25 1013 82 0 0.73 154 09:41 13.12.2019
6354 Rain 25 1013 82 0 0.73 154 09:20 13.12.2019
6355 Rain 25 1013 82 0 0.73 154 09:20 13.12.2019
6356 Rain 25 1013 82 0 0.73 154 08:44 13.12.2019
6357 Clouds 22 1014 100 7000 1.44 161 08:25 13.12.2019
6358 Clouds 22 1014 100 7000 0.57 112 07:48 13.12.2019
6359 Clouds 22 1013 94 6000 2.1 360 07:24 13.12.2019
6360 Clouds 22 1013 94 6000 2.1 360 06:55 13.12.2019
6361 Rain 22 1013 96 0 0.57 112 06:29 13.12.2019
6362 Rain 22 1013 96 0 0.57 112 05:51 13.12.2019
6363 Rain 22 1013 96 0 0.57 112 05:30 13.12.2019
6364 Rain 21 1011 96 0 1.43 45 04:48 13.12.2019
6365 Rain 21 1011 96 0 1.43 45 03:49 13.12.2019
6366 Rain 21 1011 96 0 1.43 45 02:35 13.12.2019
6367 Clouds 22 1010 90 0 1.11 148 01:49 13.12.2019
6368 Clouds 22 1010 89 0 1.14 158 01:19 13.12.2019
6369 Clouds 22 1010 89 0 1.14 158 00:45 13.12.2019
6370 Clouds 22 1010 89 0 1.14 158 00:22 13.12.2019
6371 Clouds 22 1010 89 0 1.14 158 23:41 12.12.2019
6372 Clouds 22 1011 85 0 1.07 170 23:22 12.12.2019
6373 Clouds 22 1011 85 0 1.07 170 22:56 12.12.2019
6374 Clouds 22 1011 85 0 1.07 170 22:37 12.12.2019
6375 Clouds 22 1011 85 0 1.07 170 22:19 12.12.2019
6376 Clouds 22 1011 85 0 1.07 170 21:55 12.12.2019
6377 Clouds 22 1011 85 0 1.07 170 21:55 12.12.2019
6378 Clouds 22 1011 85 0 1.07 170 21:55 12.12.2019
6379 Clouds 22 1011 85 0 1.07 170 21:37 12.12.2019
6380 Clouds 24 1011 88 7000 2.1 0 21:19 12.12.2019
6381 Clouds 24 1011 88 7000 2.1 0 20:56 12.12.2019
6382 Clouds 24 1011 88 7000 2.1 0 20:38 12.12.2019
6383 Rain 24 1009 82 0 0.73 220 20:20 12.12.2019
6384 Rain 24 1009 82 0 0.73 220 19:43 12.12.2019
6385 Rain 24 1009 82 0 0.73 220 19:43 12.12.2019
6386 Rain 24 1009 82 0 0.73 220 19:23 12.12.2019
6387 Rain 24 1009 82 0 0.73 220 18:58 12.12.2019
6388 Rain 24 1009 82 0 0.73 220 18:40 12.12.2019
6389 Clouds 30 1009 62 10000 3.1 270 18:21 12.12.2019
6390 Clouds 30 1009 62 10000 3.1 270 17:59 12.12.2019
6391 Clouds 30 1009 62 10000 3.1 270 17:40 12.12.2019
6392 Clouds 28 1006 69 0 0.49 93 17:21 12.12.2019
6393 Clouds 28 1006 69 0 0.49 93 16:59 12.12.2019
6394 Clouds 28 1006 69 0 0.49 93 16:41 12.12.2019
6395 Clouds 28 1006 69 0 0.49 93 16:21 12.12.2019
6396 Clouds 28 1006 69 0 0.49 93 15:59 12.12.2019
6397 Clouds 28 1006 69 0 0.49 93 15:41 12.12.2019
6398 Clouds 28 1006 69 0 0.49 93 15:19 12.12.2019
6399 Clouds 28 1006 69 0 0.49 93 15:19 12.12.2019
6400 Clouds 28 1006 69 0 0.49 93 14:57 12.12.2019
6401 Clouds 28 1006 69 0 0.49 93 14:36 12.12.2019
6402 Clouds 33 1007 45 0 0.56 123 14:18 12.12.2019
6403 Clouds 33 1007 45 0 0.56 123 13:54 12.12.2019
6404 Clouds 33 1007 45 0 0.56 123 13:36 12.12.2019
6405 Clouds 32 1008 48 0 1.32 160 13:18 12.12.2019
6406 Clouds 32 1008 48 0 1.32 160 12:41 12.12.2019
6407 Clouds 28 1013 69 10000 2.1 360 12:22 12.12.2019
6408 Clouds 28 1013 69 10000 2.1 360 11:59 12.12.2019
6409 Clouds 28 1013 69 10000 2.1 360 11:40 12.12.2019
6410 Clouds 27 1014 74 10000 2.1 180 11:21 12.12.2019
6411 Clouds 27 1014 74 10000 2.1 180 10:58 12.12.2019
6412 Clouds 27 1014 74 10000 2.1 180 10:40 12.12.2019
6413 Clouds 27 1012 63 0 1.42 135 10:22 12.12.2019
6414 Clouds 27 1012 63 0 1.42 135 09:56 12.12.2019
6415 Clouds 27 1012 63 0 1.42 135 09:38 12.12.2019
6416 Clouds 27 1012 63 0 1.42 135 09:20 12.12.2019
6417 Clouds 27 1012 63 0 1.42 135 08:47 12.12.2019
6418 Clouds 27 1012 63 0 1.42 135 08:29 12.12.2019
6419 Rain 21 1014 96 0 1.24 150 07:55 12.12.2019
6420 Rain 21 1014 96 0 1.24 150 07:36 12.12.2019
6421 Rain 21 1014 96 0 1.24 150 07:18 12.12.2019
6422 Rain 21 1014 96 0 1.24 150 06:41 12.12.2019
6423 Rain 21 1014 96 0 1.24 150 06:21 12.12.2019
6424 Rain 21 1014 96 0 1.24 150 05:28 12.12.2019
6425 Clouds 20 1012 99 0 1.03 155 04:46 12.12.2019
6426 Clouds 20 1012 99 0 1.03 155 02:42 12.12.2019
6427 Clouds 20 1012 99 0 1.03 155 02:24 12.12.2019
6428 Clouds 20 1012 99 0 0.38 177 01:59 12.12.2019
6429 Clouds 20 1012 99 0 0.38 177 01:59 12.12.2019
6430 Clouds 20 1012 99 0 0.38 177 01:36 12.12.2019
6431 Clouds 20 1012 99 0 0.57 170 00:49 12.12.2019
6432 Clouds 20 1012 99 0 0.57 170 00:22 12.12.2019
6433 Clouds 20 1012 99 0 0.57 170 23:58 11.12.2019
6434 Clouds 20 1012 99 0 0.57 170 23:37 11.12.2019
6435 Clouds 20 1013 99 0 0.42 188 23:18 11.12.2019
6436 Clouds 20 1013 99 0 0.42 188 22:55 11.12.2019
6437 Clouds 20 1013 99 0 0.42 188 22:37 11.12.2019
6438 Clouds 20 1013 99 0 0.42 188 22:18 11.12.2019
6439 Clouds 20 1013 99 0 0.42 188 22:18 11.12.2019
6440 Clouds 20 1013 99 0 0.42 188 21:54 11.12.2019
6441 Clouds 20 1013 99 0 0.42 188 21:36 11.12.2019
6442 Clouds 20 1013 99 0 0.42 188 21:18 11.12.2019
6443 Clouds 20 1013 99 0 0.42 188 20:54 11.12.2019
6444 Clouds 20 1013 99 0 0.42 188 20:36 11.12.2019
6445 Clouds 20 1012 96 0 0.4 205 20:18 11.12.2019
6446 Clouds 20 1012 96 0 0.4 205 19:42 11.12.2019
6447 Clouds 20 1012 96 0 0.4 205 19:23 11.12.2019
6448 Clouds 20 1012 96 0 0.4 205 18:59 11.12.2019
6449 Clouds 20 1012 96 0 0.4 205 18:40 11.12.2019
6450 Clouds 23 1011 94 7000 2.1 160 18:19 11.12.2019
6451 Clouds 23 1011 94 7000 2.1 160 17:56 11.12.2019
6452 Clouds 23 1011 94 7000 2.1 160 17:38 11.12.2019
6453 Rain 21 1010 95 0 1.71 239 17:18 11.12.2019
6454 Rain 21 1010 95 0 1.71 239 16:55 11.12.2019
6455 Rain 21 1010 95 0 1.71 239 16:37 11.12.2019
6456 Clouds 25 1011 88 8000 2.1 190 16:18 11.12.2019
6457 Clouds 25 1011 88 8000 2.1 190 15:56 11.12.2019
6458 Clouds 25 1011 88 8000 2.1 190 15:37 11.12.2019
6459 Rain 21 1010 95 0 1.71 239 15:18 11.12.2019
6460 Rain 21 1010 95 0 1.71 239 14:54 11.12.2019
6461 Rain 21 1010 95 0 1.71 239 14:36 11.12.2019
6462 Rain 24 1012 88 7000 3.1 180 14:18 11.12.2019
6463 Rain 24 1012 88 7000 3.1 180 13:42 11.12.2019
6464 Clouds 24 1013 83 7000 2.1 130 13:22 11.12.2019
6465 Clouds 24 1013 83 7000 2.1 130 12:58 11.12.2019
6466 Clouds 24 1013 83 7000 2.1 130 12:39 11.12.2019
6467 Clouds 24 1014 83 6000 3.1 140 12:21 11.12.2019
6468 Clouds 24 1014 83 6000 3.1 140 12:21 11.12.2019
6469 Clouds 24 1014 83 6000 3.1 140 11:58 11.12.2019
6470 Clouds 24 1014 83 6000 3.1 140 11:58 11.12.2019
6471 Clouds 25 1011 71 0 0.69 256 11:39 11.12.2019
6472 Clouds 21 1014 95 0 0.6 185 11:19 11.12.2019
6473 Clouds 21 1014 95 0 0.6 185 10:57 11.12.2019
6474 Clouds 21 1014 95 0 0.6 185 10:39 11.12.2019
6475 Clouds 21 1014 95 0 0.6 185 10:20 11.12.2019
6476 Clouds 21 1014 95 0 0.6 185 10:20 11.12.2019
6477 Clouds 21 1014 95 0 0.6 185 09:44 11.12.2019
6478 Clouds 21 1014 95 0 0.6 185 09:44 11.12.2019
6479 Clouds 21 1014 95 0 0.6 185 09:21 11.12.2019
6480 Clouds 21 1014 95 0 0.6 185 08:58 11.12.2019
6481 Clouds 21 1014 95 0 0.6 185 08:40 11.12.2019
6482 Rain 22 1014 94 4000 2.1 120 08:20 11.12.2019
6483 Rain 22 1014 94 4000 2.1 120 07:59 11.12.2019
6484 Rain 22 1014 94 4000 2.1 120 07:41 11.12.2019
6485 Mist 20 1019 100 3000 2.1 120 07:22 11.12.2019
6486 Mist 20 1019 100 3000 2.1 120 06:44 11.12.2019
6487 Rain 20 1014 98 0 1.09 130 06:23 11.12.2019
6488 Rain 20 1014 98 0 1.09 130 05:46 11.12.2019
6489 Rain 20 1014 98 0 1.09 130 05:27 11.12.2019
6490 Rain 20 1011 98 0 1.43 156 04:41 11.12.2019
6491 Rain 20 1011 98 0 1.43 156 02:49 11.12.2019
6492 Clouds 20 1011 90 0 0.9 173 01:26 11.12.2019
6493 Clouds 20 1011 90 0 0.9 173 00:49 11.12.2019
6494 Clouds 20 1011 90 0 0.9 173 00:25 11.12.2019
6495 Clouds 20 1011 90 0 0.9 173 23:59 10.12.2019
6496 Clouds 20 1011 90 0 0.9 173 23:40 10.12.2019
6497 Clouds 20 1012 92 0 0.99 161 23:21 10.12.2019
6498 Clouds 20 1012 92 0 0.99 161 22:41 10.12.2019
6499 Clouds 20 1012 92 0 0.99 161 22:22 10.12.2019
6500 Clouds 20 1012 92 0 0.99 161 21:57 10.12.2019
6501 Clouds 20 1012 92 0 0.99 161 21:39 10.12.2019
6502 Clouds 20 1012 92 0 0.99 161 21:39 10.12.2019
6503 Clouds 20 1012 92 0 0.99 161 21:21 10.12.2019
6504 Clouds 20 1012 92 0 0.99 161 20:57 10.12.2019
6505 Clouds 20 1012 92 0 0.99 161 20:38 10.12.2019
6506 Clouds 22 1010 87 0 0.35 150 20:19 10.12.2019
6507 Clouds 22 1010 87 0 0.35 150 20:19 10.12.2019
6508 Clouds 22 1010 87 0 0.35 150 20:19 10.12.2019
6509 Clouds 22 1010 87 0 0.35 150 20:19 10.12.2019
6510 Clouds 22 1010 87 0 0.35 150 19:55 10.12.2019
6511 Clouds 22 1010 87 0 0.35 150 19:37 10.12.2019
6512 Clouds 22 1010 87 0 0.35 150 19:19 10.12.2019
6513 Clouds 22 1010 87 0 0.35 150 18:42 10.12.2019
6514 Clouds 22 1010 87 0 0.35 150 18:21 10.12.2019
6515 Clouds 22 1010 87 0 0.35 150 17:59 10.12.2019
6516 Clouds 22 1010 87 0 0.35 150 17:40 10.12.2019
6517 Clouds 26 1007 70 0 0.87 17 17:22 10.12.2019
6518 Clouds 26 1007 70 0 0.87 17 17:22 10.12.2019
6519 Clouds 26 1007 70 0 0.87 17 16:55 10.12.2019
6520 Clouds 26 1007 70 0 0.87 17 16:36 10.12.2019
6521 Clouds 26 1007 70 0 0.87 17 16:18 10.12.2019
6522 Clouds 26 1007 70 0 0.87 17 15:38 10.12.2019
6523 Clouds 26 1007 70 0 0.87 17 15:18 10.12.2019
6524 Clouds 26 1007 70 0 0.87 17 14:56 10.12.2019
6525 Clouds 26 1007 70 0 0.87 17 14:38 10.12.2019
6526 Thunderstorm 24 1011 60 5000 2.1 330 14:20 10.12.2019
6527 Thunderstorm 24 1011 60 5000 2.1 330 13:57 10.12.2019
6528 Thunderstorm 24 1011 60 5000 2.1 330 13:39 10.12.2019
6529 Clouds 23 1008 88 0 0.7 256 13:20 10.12.2019
6530 Clouds 23 1008 88 0 0.7 256 12:48 10.12.2019
6531 Clouds 23 1008 88 0 0.7 256 12:48 10.12.2019
6532 Thunderstorm 21 1014 100 4000 2.1 330 12:28 10.12.2019
6533 Thunderstorm 21 1014 100 4000 2.1 330 11:56 10.12.2019
6534 Thunderstorm 21 1014 100 4000 2.1 330 11:38 10.12.2019
6535 Rain 23 1012 88 0 1.69 131 11:19 10.12.2019
6536 Rain 23 1012 88 0 1.69 131 10:43 10.12.2019
6537 Rain 23 1012 88 0 1.69 131 10:24 10.12.2019
6538 Rain 23 1012 88 0 1.69 131 09:57 10.12.2019
6539 Rain 23 1012 88 0 1.69 131 09:39 10.12.2019
6540 Rain 23 1012 88 0 1.69 131 09:20 10.12.2019
6541 Rain 23 1012 88 0 1.69 131 08:58 10.12.2019
6542 Rain 23 1012 88 0 1.69 131 08:39 10.12.2019
6543 Mist 23 1012 94 4000 1.35 128 08:20 10.12.2019
6544 Mist 23 1012 94 4000 1.35 128 07:45 10.12.2019
6545 Mist 23 1012 94 3000 1.35 128 07:27 10.12.2019
6546 Mist 23 1012 94 3000 1.35 128 06:50 10.12.2019
6547 Mist 22 1012 100 4000 1.35 128 06:25 10.12.2019
6548 Mist 22 1012 100 4000 1.35 128 05:57 10.12.2019
6549 Mist 22 1012 100 4000 1.35 128 05:38 10.12.2019
6550 Clouds 20 1010 97 0 0.49 152 03:55 10.12.2019
6551 Clouds 20 1010 97 0 0.49 152 03:24 10.12.2019
6552 Clouds 21 1011 97 0 1.02 208 01:55 10.12.2019
6553 Clouds 22 1011 96 0 1.08 198 01:28 10.12.2019
6554 Clouds 22 1011 96 0 1.08 198 01:28 10.12.2019
6555 Clouds 22 1011 96 0 1.08 198 00:58 10.12.2019
6556 Clouds 22 1011 96 0 1.08 198 00:26 10.12.2019
6557 Clouds 22 1011 96 0 1.08 198 23:57 09.12.2019
6558 Clouds 22 1011 96 0 1.08 198 23:37 09.12.2019
6559 Rain 21 1012 96 0 0.74 209 23:18 09.12.2019
6560 Rain 21 1012 96 0 0.74 209 22:54 09.12.2019
6561 Rain 21 1012 96 0 0.74 209 22:36 09.12.2019
6562 Rain 21 1012 96 0 0.74 209 22:18 09.12.2019
6563 Rain 21 1012 96 0 0.74 209 21:54 09.12.2019
6564 Rain 21 1012 96 0 0.74 209 21:36 09.12.2019
6565 Rain 21 1012 96 0 0.74 209 21:18 09.12.2019
6566 Rain 21 1012 96 0 0.74 209 20:55 09.12.2019
6567 Rain 21 1012 96 0 0.74 209 20:37 09.12.2019
6568 Rain 22 1010 95 0 0.83 158 20:18 09.12.2019
6569 Rain 22 1010 95 0 0.83 158 19:54 09.12.2019
6570 Rain 22 1010 95 0 0.83 158 19:36 09.12.2019
6571 Rain 22 1010 95 0 0.83 158 19:18 09.12.2019
6572 Rain 22 1010 95 0 0.83 158 18:54 09.12.2019
6573 Rain 22 1010 95 0 0.83 158 18:36 09.12.2019
6574 Rain 22 1010 95 0 0.83 158 18:18 09.12.2019
6575 Rain 22 1010 95 0 0.83 158 17:54 09.12.2019
6576 Rain 22 1010 95 0 0.83 158 17:36 09.12.2019
6577 Clouds 27 1009 78 8000 3.1 120 17:18 09.12.2019
6578 Clouds 27 1009 78 8000 3.1 120 16:54 09.12.2019
6579 Clouds 27 1009 78 8000 3.1 120 16:36 09.12.2019
6580 Rain 26 1007 78 0 1.63 190 16:18 09.12.2019
6581 Rain 26 1007 78 0 1.63 190 15:54 09.12.2019
6582 Rain 26 1007 78 0 1.63 190 15:36 09.12.2019
6583 Clouds 28 1011 74 8000 3.1 180 15:18 09.12.2019
6584 Clouds 28 1011 74 8000 3.1 180 14:41 09.12.2019
6585 Clouds 28 1011 74 8000 3.1 130 14:18 09.12.2019
6586 Clouds 28 1011 74 8000 3.1 130 13:56 09.12.2019
6587 Clouds 28 1011 74 8000 3.1 130 13:37 09.12.2019
6588 Clouds 27 1011 83 8000 3.1 180 13:19 09.12.2019
6589 Rain 33 1008 44 0 0.88 281 12:55 09.12.2019
6590 Rain 33 1008 44 0 0.88 281 12:55 09.12.2019
6591 Rain 33 1008 44 0 0.88 281 12:37 09.12.2019
6592 Clouds 26 1012 78 8000 3.1 180 12:18 09.12.2019
6593 Clouds 26 1012 78 8000 3.1 180 11:41 09.12.2019
6594 Clouds 26 1013 78 8000 2.1 120 11:22 09.12.2019
6595 Clouds 26 1013 78 8000 2.1 120 10:59 09.12.2019
6596 Clouds 26 1013 78 8000 2.1 120 10:39 09.12.2019
6597 Clouds 25 1014 83 8000 3.1 200 10:19 09.12.2019
6598 Rain 29 1011 65 0 1.52 170 09:55 09.12.2019
6599 Rain 29 1011 65 0 1.52 170 09:36 09.12.2019
6600 Rain 29 1011 65 0 1.52 170 09:18 09.12.2019
6601 Rain 29 1011 65 0 1.52 170 08:40 09.12.2019
6602 Clouds 23 1013 94 6000 1.5 0 08:22 09.12.2019
6603 Clouds 23 1013 94 6000 1.5 0 07:52 09.12.2019
6604 Clouds 23 1012 87 0 1.06 177 07:34 09.12.2019
6605 Clouds 22 1013 94 6000 2.1 0 06:58 09.12.2019
6606 Clouds 23 1012 87 0 1.06 177 06:32 09.12.2019
6607 Clouds 23 1012 87 0 1.06 177 05:51 09.12.2019
6608 Clouds 23 1012 87 0 1.06 177 05:24 09.12.2019
6609 Clouds 20 1010 97 0 0.58 193 04:28 09.12.2019
6610 Clouds 20 1010 97 0 0.58 193 02:46 09.12.2019
6611 Clouds 20 1010 96 0 0.85 230 01:47 09.12.2019
6612 Clouds 21 1010 96 0 0.86 203 01:23 09.12.2019
6613 Clouds 21 1010 96 0 0.86 203 00:34 09.12.2019
6614 Clouds 21 1010 96 0 0.86 203 23:58 08.12.2019
6615 Clouds 21 1010 96 0 0.86 203 23:37 08.12.2019
6616 Clouds 21 1011 95 0 1.44 166 23:19 08.12.2019
6617 Clouds 21 1011 95 0 1.44 166 22:56 08.12.2019
6618 Clouds 21 1011 95 0 1.44 166 22:38 08.12.2019
6619 Clouds 21 1011 95 0 1.44 166 22:18 08.12.2019
6620 Clouds 21 1011 95 0 1.44 166 21:57 08.12.2019
6621 Clouds 21 1011 95 0 1.44 166 21:38 08.12.2019
6622 Clouds 21 1011 95 0 1.44 166 21:19 08.12.2019
6623 Clouds 21 1011 95 0 1.44 166 20:56 08.12.2019
6624 Clouds 21 1011 95 0 1.44 166 20:37 08.12.2019
6625 Clouds 24 1010 88 8000 2.1 30 20:19 08.12.2019
6626 Clouds 24 1010 88 8000 2.1 30 19:55 08.12.2019
6627 Clouds 24 1010 88 8000 2.1 30 19:37 08.12.2019
6628 Rain 22 1010 95 0 1.11 125 19:19 08.12.2019
6629 Rain 22 1010 95 0 1.11 125 18:54 08.12.2019
6630 Rain 22 1010 95 0 1.11 125 18:36 08.12.2019
6631 Rain 22 1010 95 0 1.11 125 18:36 08.12.2019
6632 Rain 22 1010 95 0 1.11 125 18:18 08.12.2019
6633 Rain 22 1010 95 0 1.11 125 17:55 08.12.2019
6634 Clouds 27 1008 69 8000 3.1 270 17:36 08.12.2019
6635 Clouds 27 1008 69 8000 3.1 270 17:18 08.12.2019
6636 Clouds 27 1008 69 8000 3.1 270 16:55 08.12.2019
6637 Clouds 27 1008 69 8000 3.1 270 16:37 08.12.2019
6638 Clouds 30 1008 66 9000 3.1 270 16:18 08.12.2019
6639 Clouds 30 1008 66 9000 3.1 270 15:38 08.12.2019
6640 Clouds 31 1009 62 10000 3.1 270 15:19 08.12.2019
6641 Clouds 31 1009 62 10000 3.1 270 14:58 08.12.2019
6642 Clouds 31 1009 62 10000 3.1 270 14:38 08.12.2019
6643 Clouds 30 1010 66 10000 3.1 210 14:20 08.12.2019
6644 Clouds 30 1010 66 10000 3.1 210 13:42 08.12.2019
6645 Rain 28 1007 69 0 1.3 308 13:23 08.12.2019
6646 Rain 28 1007 69 0 1.3 308 12:59 08.12.2019
6647 Rain 28 1007 69 0 1.3 308 12:41 08.12.2019
6648 Clouds 30 1012 66 10000 4.1 270 12:23 08.12.2019
6649 Clouds 30 1012 66 10000 4.1 270 11:59 08.12.2019
6650 Clouds 30 1012 66 10000 4.1 270 11:38 08.12.2019
6651 Clouds 29 1013 66 9000 4.1 180 11:19 08.12.2019
6652 Clouds 29 1013 66 9000 4.1 180 10:57 08.12.2019
6653 Clouds 29 1013 66 9000 4.1 180 10:38 08.12.2019
6654 Clouds 29 1013 66 9000 4.1 180 10:38 08.12.2019
6655 Rain 28 1011 71 0 1.38 215 10:19 08.12.2019
6656 Rain 28 1011 71 0 1.38 215 10:19 08.12.2019
6657 Rain 28 1011 71 0 1.38 215 09:55 08.12.2019
6658 Rain 28 1011 71 0 1.38 215 09:37 08.12.2019
6659 Clouds 25 1013 83 8000 2.1 160 09:19 08.12.2019
6660 Clouds 25 1013 83 8000 2.1 160 08:57 08.12.2019
6661 Clouds 25 1013 83 8000 2.1 160 08:36 08.12.2019
6662 Mist 23 1013 94 4000 0.82 194 08:18 08.12.2019
6663 Mist 23 1013 94 4000 0.82 194 07:41 08.12.2019
6664 Fog 22 1012 100 300 0.82 194 07:19 08.12.2019
6665 Fog 22 1012 100 300 0.82 194 06:43 08.12.2019
6666 Clouds 24 1011 79 0 0.82 194 06:21 08.12.2019
6667 Mist 21 1012 100 3000 0.82 194 05:30 08.12.2019
6668 Clouds 21 1010 91 0 0.82 198 04:57 08.12.2019
6669 Clouds 21 1010 91 0 0.82 198 03:41 08.12.2019
6670 Clouds 21 1010 91 0 0.82 198 02:52 08.12.2019
6671 Clouds 21 1010 91 0 0.82 198 02:52 08.12.2019
6672 Clouds 21 1010 91 0 0.82 198 02:27 08.12.2019
6673 Clouds 21 1010 86 0 0.94 166 01:48 08.12.2019
6674 Clouds 21 1010 84 0 1.01 174 00:56 08.12.2019
6675 Clouds 21 1010 84 0 1.01 174 00:37 08.12.2019
6676 Clouds 21 1010 84 0 1.01 174 00:18 08.12.2019
6677 Clouds 21 1010 84 0 1.01 174 23:39 07.12.2019
6678 Clouds 22 1011 81 0 0.89 179 23:20 07.12.2019
6679 Clouds 22 1011 81 0 0.89 179 22:56 07.12.2019
6680 Clouds 22 1011 81 0 0.89 179 22:37 07.12.2019
6681 Clouds 22 1011 81 0 0.89 179 22:19 07.12.2019
6682 Clouds 22 1011 81 0 0.89 179 21:56 07.12.2019
6683 Clouds 22 1011 81 0 0.89 179 21:37 07.12.2019
6684 Clouds 22 1011 81 0 0.89 179 21:19 07.12.2019
6685 Clouds 22 1011 81 0 0.89 179 20:54 07.12.2019
6686 Clouds 22 1011 81 0 0.89 179 20:36 07.12.2019
6687 Clear 23 1008 84 0 0.97 151 20:18 07.12.2019
6688 Clear 23 1008 84 0 0.97 151 19:54 07.12.2019
6689 Clear 23 1008 84 0 0.97 151 19:36 07.12.2019
6690 Clear 23 1008 84 0 0.97 151 19:36 07.12.2019
6691 Clear 23 1008 84 0 0.97 151 19:18 07.12.2019
6692 Clear 23 1008 84 0 0.97 151 18:42 07.12.2019
6693 Clouds 27 1010 78 10000 1.5 0 18:18 07.12.2019
6694 Clouds 27 1010 78 10000 1.5 0 17:56 07.12.2019
6695 Clouds 27 1010 78 10000 1.5 0 17:37 07.12.2019
6696 Clouds 28 1010 69 10000 2.1 320 17:19 07.12.2019
6697 Clouds 28 1010 69 10000 2.1 320 16:56 07.12.2019
6698 Clouds 28 1010 69 10000 2.1 320 16:37 07.12.2019
6699 Clouds 29 1011 62 10000 4.1 330 16:18 07.12.2019
6700 Clouds 29 1011 62 10000 4.1 330 15:41 07.12.2019
6701 Clouds 29 1011 62 10000 4.1 330 15:41 07.12.2019
6702 Clouds 27 1010 74 10000 1.5 0 15:23 07.12.2019
6703 Clouds 27 1010 74 10000 1.5 0 14:57 07.12.2019
6704 Clouds 27 1010 74 10000 1.5 0 14:38 07.12.2019
6705 Clouds 27 1011 74 10000 2.1 60 14:18 07.12.2019
6706 Clouds 27 1011 74 10000 2.1 60 13:41 07.12.2019
6707 Clouds 32 1007 47 0 0.86 300 13:21 07.12.2019
6708 Clouds 32 1007 47 0 0.86 300 12:56 07.12.2019
6709 Clouds 32 1007 47 0 0.86 300 12:37 07.12.2019
6710 Clouds 32 1007 47 0 0.86 300 12:19 07.12.2019
6711 Clouds 32 1007 47 0 0.86 300 11:55 07.12.2019
6712 Clouds 32 1007 47 0 0.86 300 11:37 07.12.2019
6713 Clouds 23 1011 89 0 0.79 143 11:19 07.12.2019
6714 Clouds 23 1011 89 0 0.79 143 10:37 07.12.2019
6715 Clouds 23 1011 89 0 0.79 143 10:19 07.12.2019
6716 Clouds 23 1011 89 0 0.79 143 09:41 07.12.2019
6717 Clouds 23 1011 89 0 0.79 143 09:22 07.12.2019
6718 Clouds 23 1011 89 0 0.79 143 08:47 07.12.2019
6719 Mist 22 1014 100 4000 2.1 30 08:26 07.12.2019
6720 Mist 22 1014 100 4000 2.1 30 07:57 07.12.2019
6721 Mist 22 1014 100 4000 2.1 30 07:38 07.12.2019
6722 Clouds 22 1012 92 0 0.97 166 07:19 07.12.2019
6723 Clouds 22 1012 92 0 0.97 166 06:45 07.12.2019
6724 Clouds 22 1012 92 0 0.97 166 06:24 07.12.2019
6725 Clouds 21 1011 96 0 0.67 213 04:52 07.12.2019
6726 Clouds 21 1011 96 0 0.67 213 03:54 07.12.2019
6727 Clouds 21 1011 96 0 0.67 213 02:50 07.12.2019
6728 Clouds 21 1010 98 0 0.71 223 02:19 07.12.2019
6729 Clouds 21 1010 98 0 0.71 223 01:31 07.12.2019
6730 Clouds 20 1010 99 0 1.02 228 00:43 07.12.2019
6731 Clouds 20 1010 99 0 1.02 228 00:19 07.12.2019
6732 Clouds 20 1010 99 0 1.02 228 23:47 06.12.2019
6733 Clouds 20 1010 99 0 1.02 228 23:24 06.12.2019
6734 Clouds 21 1012 98 0 0.84 184 22:58 06.12.2019
6735 Clouds 21 1012 98 0 0.84 184 22:37 06.12.2019
6736 Clouds 21 1012 98 0 0.84 184 22:18 06.12.2019
6737 Clouds 21 1012 98 0 0.84 184 21:56 06.12.2019
6738 Clouds 21 1012 98 0 0.84 184 21:37 06.12.2019
6739 Clouds 21 1012 98 0 0.84 184 21:19 06.12.2019
6740 Clouds 21 1012 98 0 0.84 184 20:42 06.12.2019
6741 Rain 22 1010 96 0 2.06 183 20:22 06.12.2019
6742 Rain 22 1009 97 0 1.54 172 19:57 06.12.2019
6743 Rain 22 1009 97 0 1.54 172 19:39 06.12.2019
6744 Rain 22 1009 97 0 1.54 172 19:21 06.12.2019
6745 Rain 22 1009 97 0 1.54 172 18:45 06.12.2019
6746 Rain 22 1009 97 0 1.54 172 18:23 06.12.2019
6747 Rain 22 1009 97 0 1.54 172 17:58 06.12.2019
6748 Rain 22 1009 97 0 1.54 172 17:40 06.12.2019
6749 Clouds 23 1011 94 8000 4.1 120 17:22 06.12.2019
6750 Clouds 23 1011 94 8000 4.1 120 16:59 06.12.2019
6751 Clouds 23 1011 94 8000 4.1 120 16:40 06.12.2019
6752 Clouds 23 1011 94 8000 4.1 120 16:21 06.12.2019
6753 Clouds 23 1011 94 8000 4.1 120 15:56 06.12.2019
6754 Rain 25 1007 90 0 1.72 214 15:38 06.12.2019
6755 Clouds 23 1011 94 8000 4.1 120 15:38 06.12.2019
6756 Rain 25 1007 90 0 1.72 214 15:18 06.12.2019
6757 Rain 25 1007 90 0 1.72 214 15:18 06.12.2019
6758 Rain 25 1007 90 0 1.72 214 14:41 06.12.2019
6759 Clouds 24 1011 88 8000 4.1 120 14:20 06.12.2019
6760 Clouds 24 1011 88 8000 4.1 120 13:58 06.12.2019
6761 Clouds 24 1011 88 8000 4.1 120 13:40 06.12.2019
6762 Rain 28 1007 78 0 1.18 131 13:21 06.12.2019
6763 Rain 26 1007 89 0 1.5 105 13:21 06.12.2019
6764 Rain 26 1007 89 0 1.5 105 12:41 06.12.2019
6765 Clouds 25 1011 94 6000 3.1 90 12:22 06.12.2019
6766 Rain 26 1007 89 0 1.5 105 11:43 06.12.2019
6767 Rain 26 1007 89 0 1.5 105 11:24 06.12.2019
6768 Rain 26 1007 89 0 1.5 105 11:24 06.12.2019
6769 Clouds 28 1010 65 0 0.45 90 10:59 06.12.2019
6770 Clouds 28 1010 65 0 0.45 90 10:59 06.12.2019
6771 Clouds 28 1010 65 0 0.45 90 10:40 06.12.2019
6772 Clouds 28 1010 65 0 0.45 90 10:21 06.12.2019
677